Wetterdaten: aktuell Montag, 31.08.2026 13:49
Datum Zeit Temp. 2m Luftfeuchte Luftdruck Regen Wind Richtung Richtung Sonnenschein ET UV Solar Taupunkt Windchill Windböen Empfang
31.08.2026 13:49 26,7 °C 59 % 1016,6 hPa 0,0 l/m² 6,4 km/h (2 Bft) W-NW 292 ° 1 min 0,000 mm 5,6 UV-I 881 W/m² 18,0 °C 26,7 °C 8,0 km/h (2 Bft) 95,65 %
31.08.2026 13:48 26,7 °C 60 % 1016,7 hPa 0,0 l/m² 4,8 km/h (1 Bft) W-NW 292 ° 1 min 0,000 mm 5,6 UV-I 875 W/m² 18,3 °C 26,7 °C 11,3 km/h (2 Bft) 95,65 %
31.08.2026 13:47 26,6 °C 59 % 1016,7 hPa 0,0 l/m² 4,8 km/h (1 Bft) N-NW 337 ° 1 min 0,000 mm 5,6 UV-I 877 W/m² 17,9 °C 26,6 °C 9,7 km/h (2 Bft) 91,30 %
31.08.2026 13:46 26,4 °C 59 % 1016,6 hPa 0,0 l/m² 4,8 km/h (1 Bft) W-NW 292 ° 1 min 0,000 mm 5,5 UV-I 874 W/m² 17,7 °C 26,4 °C 8,0 km/h (2 Bft) 100,00 %
31.08.2026 13:45 26,3 °C 59 % 1016,7 hPa 0,0 l/m² 8,0 km/h (2 Bft) NW 315 ° 1 min 0,000 mm 5,5 UV-I 863 W/m² 17,6 °C 26,0 °C 12,9 km/h (3 Bft) 100,00 %
31.08.2026 13:44 26,3 °C 60 % 1016,7 hPa 0,0 l/m² 6,4 km/h (2 Bft) NW 315 ° 1 min 0,000 mm 5,5 UV-I 846 W/m² 17,9 °C 26,3 °C 11,3 km/h (2 Bft) 100,00 %
31.08.2026 13:43 26,2 °C 60 % 1016,7 hPa 0,0 l/m² 6,4 km/h (2 Bft) W-NW 292 ° 1 min 0,000 mm 5,5 UV-I 835 W/m² 17,8 °C 26,2 °C 12,9 km/h (3 Bft) 100,00 %
31.08.2026 13:42 26,4 °C 59 % 1016,6 hPa 0,0 l/m² 9,7 km/h (2 Bft) W-NW 292 ° 1 min 0,000 mm 5,5 UV-I 828 W/m² 17,7 °C 25,8 °C 14,5 km/h (3 Bft) 100,00 %
31.08.2026 13:41 26,4 °C 60 % 1016,7 hPa 0,0 l/m² 6,4 km/h (2 Bft) W-NW 292 ° 1 min 0,000 mm 5,6 UV-I 821 W/m² 18,0 °C 26,4 °C 12,9 km/h (3 Bft) 100,00 %
31.08.2026 13:40 26,4 °C 59 % 1016,7 hPa 0,0 l/m² 4,8 km/h (1 Bft) N 360 ° 1 min 0,000 mm 5,6 UV-I 812 W/m² 17,7 °C 26,4 °C 8,0 km/h (2 Bft) 91,30 %
31.08.2026 13:39 26,3 °C 62 % 1016,7 hPa 0,0 l/m² 4,8 km/h (1 Bft) N 360 ° 1 min 0,000 mm 5,5 UV-I 814 W/m² 18,4 °C 26,3 °C 12,9 km/h (3 Bft) 95,65 %
31.08.2026 13:38 26,1 °C 61 % 1016,7 hPa 0,0 l/m² 3,2 km/h (1 Bft) W 270 ° 1 min 0,000 mm 5,5 UV-I 823 W/m² 18,0 °C 26,1 °C 6,4 km/h (2 Bft) 100,00 %
31.08.2026 13:37 25,9 °C 60 % 1016,8 hPa 0,0 l/m² 8,0 km/h (2 Bft) W 270 ° 1 min 0,000 mm 5,5 UV-I 837 W/m² 17,5 °C 25,5 °C 12,9 km/h (3 Bft) 95,65 %
31.08.2026 13:36 25,8 °C 61 % 1016,8 hPa 0,0 l/m² 8,0 km/h (2 Bft) NW 315 ° 1 min 0,000 mm 5,6 UV-I 858 W/m² 17,7 °C 25,4 °C 14,5 km/h (3 Bft) 100,00 %
31.08.2026 13:35 25,7 °C 61 % 1016,8 hPa 0,0 l/m² 6,4 km/h (2 Bft) W-NW 292 ° 1 min 0,000 mm 5,6 UV-I 223 W/m² 17,6 °C 25,7 °C 11,3 km/h (2 Bft) 95,65 %
31.08.2026 13:34 25,7 °C 60 % 1016,8 hPa 0,0 l/m² 4,8 km/h (1 Bft) W-NW 292 ° 1 min 0,000 mm 5,5 UV-I 223 W/m² 17,3 °C 25,7 °C 9,7 km/h (2 Bft) 95,65 %
31.08.2026 13:33 25,8 °C 59 % 1016,8 hPa 0,0 l/m² 3,2 km/h (1 Bft) W-NW 292 ° 1 min 0,000 mm 2,9 UV-I 223 W/m² 17,2 °C 25,8 °C 4,8 km/h (1 Bft) 86,96 %
31.08.2026 13:32 26,0 °C 59 % 1016,8 hPa 0,0 l/m² 4,8 km/h (1 Bft) W-NW 292 ° 1 min 0,000 mm 2,7 UV-I 223 W/m² 17,4 °C 26,0 °C 9,7 km/h (2 Bft) 100,00 %
31.08.2026 13:31 26,2 °C 58 % 1016,8 hPa 0,0 l/m² 6,4 km/h (2 Bft) W 270 ° 1 min 0,000 mm 2,7 UV-I 237 W/m² 17,3 °C 26,2 °C 11,3 km/h (2 Bft) 95,65 %
31.08.2026 13:30 26,3 °C 57 % 1016,8 hPa 0,0 l/m² 6,4 km/h (2 Bft) W 270 ° 1 min 0,000 mm 2,7 UV-I 244 W/m² 17,1 °C 26,3 °C 9,7 km/h (2 Bft) 95,65 %
31.08.2026 13:29 26,6 °C 58 % 1016,7 hPa 0,0 l/m² 3,2 km/h (1 Bft) W-NW 292 ° 1 min 0,000 mm 2,8 UV-I 258 W/m² 17,6 °C 26,6 °C 6,4 km/h (2 Bft) 100,00 %
31.08.2026 13:28 26,8 °C 56 % 1016,7 hPa 0,0 l/m² 3,2 km/h (1 Bft) W-NW 292 ° 1 min 0,000 mm 3,0 UV-I 290 W/m² 17,3 °C 26,8 °C 4,8 km/h (1 Bft) 95,65 %
31.08.2026 13:27 26,9 °C 56 % 1016,8 hPa 0,0 l/m² 4,8 km/h (1 Bft) W-NW 292 ° 1 min 0,000 mm 3,1 UV-I 311 W/m² 17,4 °C 26,9 °C 9,7 km/h (2 Bft) 95,65 %
31.08.2026 13:26 26,9 °C 59 % 1016,7 hPa 0,0 l/m² 6,4 km/h (2 Bft) W-NW 292 ° 1 min 0,000 mm 5,0 UV-I 863 W/m² 18,2 °C 26,9 °C 11,3 km/h (2 Bft) 91,30 %
31.08.2026 13:25 26,7 °C 59 % 1016,7 hPa 0,0 l/m² 1,6 km/h (1 Bft) S-SW 202 ° 1 min 0,000 mm 5,2 UV-I 863 W/m² 18,0 °C 26,7 °C 4,8 km/h (1 Bft) 100,00 %
31.08.2026 13:24 26,6 °C 56 % 1016,8 hPa 0,0 l/m² 4,8 km/h (1 Bft) W 270 ° 1 min 0,000 mm 5,8 UV-I 863 W/m² 17,1 °C 26,6 °C 6,4 km/h (2 Bft) 95,65 %
31.08.2026 13:23 26,6 °C 58 % 1016,8 hPa 0,0 l/m² 8,0 km/h (2 Bft) NW 315 ° 1 min 0,000 mm 5,8 UV-I 851 W/m² 17,6 °C 26,3 °C 17,7 km/h (3 Bft) 95,65 %
31.08.2026 13:22 26,3 °C 59 % 1016,8 hPa 0,0 l/m² 3,2 km/h (1 Bft) W 270 ° 1 min 0,000 mm 5,8 UV-I 837 W/m² 17,6 °C 26,3 °C 4,8 km/h (1 Bft) 100,00 %
31.08.2026 13:21 26,1 °C 58 % 1016,8 hPa 0,0 l/m² 3,2 km/h (1 Bft) W-SW 247 ° 1 min 0,000 mm 5,8 UV-I 837 W/m² 17,2 °C 26,1 °C 6,4 km/h (2 Bft) 95,65 %
31.08.2026 13:20 25,9 °C 57 % 1016,8 hPa 0,0 l/m² 6,4 km/h (2 Bft) W 270 ° 1 min 0,000 mm 5,7 UV-I 833 W/m² 16,7 °C 25,9 °C 12,9 km/h (3 Bft) 100,00 %
31.08.2026 13:19 25,9 °C 56 % 1016,9 hPa 0,0 l/m² 6,4 km/h (2 Bft) W 270 ° 1 min 0,000 mm 5,8 UV-I 255 W/m² 16,4 °C 25,9 °C 11,3 km/h (2 Bft) 91,30 %
31.08.2026 13:18 26,0 °C 56 % 1016,9 hPa 0,0 l/m² 8,0 km/h (2 Bft) W 270 ° 1 min 0,000 mm 3,5 UV-I 255 W/m² 16,5 °C 25,7 °C 11,3 km/h (2 Bft) 100,00 %
31.08.2026 13:17 26,2 °C 58 % 1016,9 hPa 0,0 l/m² 6,4 km/h (2 Bft) W 270 ° 1 min 0,000 mm 3,3 UV-I 192 W/m² 17,3 °C 26,2 °C 12,9 km/h (3 Bft) 95,65 %
31.08.2026 13:16 26,3 °C 59 % 1016,9 hPa 0,0 l/m² 4,8 km/h (1 Bft) W 270 ° 1 min 0,000 mm 3,5 UV-I 877 W/m² 17,6 °C 26,3 °C 12,9 km/h (3 Bft) 95,65 %
31.08.2026 13:15 26,4 °C 58 % 1016,9 hPa 0,0 l/m² 6,4 km/h (2 Bft) W 270 ° 1 min 0,000 mm 4,1 UV-I 877 W/m² 17,5 °C 26,4 °C 12,9 km/h (3 Bft) 95,65 %
31.08.2026 13:14 26,4 °C 58 % 1016,8 hPa 0,0 l/m² 11,3 km/h (2 Bft) W 270 ° 1 min 0,000 mm 5,7 UV-I 877 W/m² 17,5 °C 25,5 °C 17,7 km/h (3 Bft) 95,65 %
31.08.2026 13:13 26,3 °C 59 % 1016,9 hPa 0,0 l/m² 8,0 km/h (2 Bft) W-NW 292 ° 1 min 0,000 mm 5,8 UV-I 868 W/m² 17,6 °C 26,0 °C 17,7 km/h (3 Bft) 100,00 %
31.08.2026 13:12 26,0 °C 59 % 1016,9 hPa 0,0 l/m² 6,4 km/h (2 Bft) W-NW 292 ° 1 min 0,000 mm 5,9 UV-I 889 W/m² 17,4 °C 26,0 °C 11,3 km/h (2 Bft) 91,30 %
31.08.2026 13:11 26,1 °C 58 % 1016,9 hPa 0,0 l/m² 8,0 km/h (2 Bft) W-NW 292 ° 1 min 0,000 mm 4,3 UV-I 267 W/m² 17,2 °C 25,8 °C 12,9 km/h (3 Bft) 95,65 %
31.08.2026 13:10 26,3 °C 57 % 1016,9 hPa 0,0 l/m² 8,0 km/h (2 Bft) W-NW 292 ° 1 min 0,000 mm 3,3 UV-I 267 W/m² 17,1 °C 26,0 °C 12,9 km/h (3 Bft) 91,30 %
31.08.2026 13:09 26,5 °C 57 % 1016,9 hPa 0,0 l/m² 4,8 km/h (1 Bft) W-NW 292 ° 1 min 0,000 mm 3,6 UV-I 861 W/m² 17,3 °C 26,5 °C 9,7 km/h (2 Bft) 100,00 %
31.08.2026 13:08 26,6 °C 58 % 1016,9 hPa 0,0 l/m² 4,8 km/h (1 Bft) W 270 ° 1 min 0,000 mm 5,2 UV-I 861 W/m² 17,6 °C 26,6 °C 12,9 km/h (3 Bft) 100,00 %
31.08.2026 13:07 26,6 °C 58 % 1016,9 hPa 0,0 l/m² 8,0 km/h (2 Bft) S-SW 202 ° 1 min 0,000 mm 5,8 UV-I 861 W/m² 17,6 °C 26,3 °C 14,5 km/h (3 Bft) 95,65 %
31.08.2026 13:06 26,6 °C 56 % 1016,9 hPa 0,0 l/m² 6,4 km/h (2 Bft) SW 225 ° 1 min 0,000 mm 5,9 UV-I 856 W/m² 17,1 °C 26,6 °C 14,5 km/h (3 Bft) 100,00 %
31.08.2026 13:05 26,6 °C 56 % 1016,9 hPa 0,0 l/m² 8,0 km/h (2 Bft) W 270 ° 1 min 0,000 mm 5,9 UV-I 838 W/m² 17,1 °C 26,3 °C 12,9 km/h (3 Bft) 95,65 %
31.08.2026 13:04 26,7 °C 57 % 1016,9 hPa 0,0 l/m² 8,0 km/h (2 Bft) W-SW 247 ° 1 min 0,000 mm 5,9 UV-I 838 W/m² 17,5 °C 26,4 °C 16,1 km/h (3 Bft) 100,00 %
31.08.2026 13:03 26,6 °C 59 % 1016,7 hPa 0,0 l/m² 6,4 km/h (2 Bft) W-SW 247 ° 1 min 0,000 mm 5,8 UV-I 838 W/m² 17,9 °C 26,6 °C 12,9 km/h (3 Bft) 100,00 %
31.08.2026 13:02 26,3 °C 59 % 1016,8 hPa 0,0 l/m² 4,8 km/h (1 Bft) W 270 ° 1 min 0,000 mm 5,8 UV-I 817 W/m² 17,6 °C 26,3 °C 9,7 km/h (2 Bft) 100,00 %
31.08.2026 13:01 26,1 °C 57 % 1016,8 hPa 0,0 l/m² 9,7 km/h (2 Bft) W 270 ° 1 min 0,000 mm 5,8 UV-I 821 W/m² 16,9 °C 25,4 °C 12,9 km/h (3 Bft) 95,65 %
31.08.2026 13:00 26,0 °C 60 % 1016,8 hPa 0,0 l/m² 4,8 km/h (1 Bft) SW 225 ° 1 min 0,381 mm 5,8 UV-I 830 W/m² 17,6 °C 26,0 °C 9,7 km/h (2 Bft) 100,00 %
31.08.2026 12:59 25,8 °C 61 % 1016,8 hPa 0,0 l/m² 6,4 km/h (2 Bft) W-NW 292 ° 1 min 0,000 mm 5,8 UV-I 849 W/m² 17,7 °C 25,8 °C 12,9 km/h (3 Bft) 100,00 %
31.08.2026 12:58 25,6 °C 61 % 1016,8 hPa 0,0 l/m² 4,8 km/h (1 Bft) S-SW 202 ° 1 min 0,000 mm 5,8 UV-I 861 W/m² 17,5 °C 25,6 °C 11,3 km/h (2 Bft) 95,65 %
31.08.2026 12:57 25,2 °C 61 % 1016,9 hPa 0,0 l/m² 3,2 km/h (1 Bft) W-SW 247 ° 1 min 0,000 mm 5,7 UV-I 872 W/m² 17,1 °C 25,2 °C 8,0 km/h (2 Bft) 100,00 %
31.08.2026 12:56 25,0 °C 61 % 1016,9 hPa 0,0 l/m² 1,6 km/h (1 Bft) S 180 ° 1 min 0,000 mm 5,7 UV-I 216 W/m² 16,9 °C 25,0 °C 3,2 km/h (1 Bft) 100,00 %
31.08.2026 12:55 24,9 °C 62 % 1016,9 hPa 0,0 l/m² 1,6 km/h (1 Bft) S-SW 202 ° 1 min 0,000 mm 5,2 UV-I 216 W/m² 17,1 °C 24,9 °C 3,2 km/h (1 Bft) 95,65 %
31.08.2026 12:54 24,8 °C 61 % 1017,0 hPa 0,0 l/m² 4,8 km/h (1 Bft) W-SW 247 ° 1 min 0,000 mm 3,3 UV-I 216 W/m² 16,8 °C 24,8 °C 11,3 km/h (2 Bft) 100,00 %
31.08.2026 12:53 24,8 °C 61 % 1016,9 hPa 0,0 l/m² 6,4 km/h (2 Bft) W 270 ° 1 min 0,000 mm 3,0 UV-I 181 W/m² 16,8 °C 24,8 °C 12,9 km/h (3 Bft) 95,65 %
31.08.2026 12:52 24,8 °C 60 % 1017,0 hPa 0,0 l/m² 8,0 km/h (2 Bft) W 270 ° 1 min 0,000 mm 3,1 UV-I 199 W/m² 16,5 °C 24,4 °C 11,3 km/h (2 Bft) 100,00 %
31.08.2026 12:51 24,8 °C 60 % 1017,0 hPa 0,0 l/m² 11,3 km/h (2 Bft) W 270 ° 1 min 0,000 mm 3,2 UV-I 288 W/m² 16,5 °C 23,7 °C 16,1 km/h (3 Bft) 95,65 %
31.08.2026 12:50 24,9 °C 60 % 1017,0 hPa 0,0 l/m² 8,0 km/h (2 Bft) W 270 ° 1 min 0,000 mm 3,0 UV-I 199 W/m² 16,6 °C 24,5 °C 14,5 km/h (3 Bft) 100,00 %
31.08.2026 12:49 25,1 °C 60 % 1017,0 hPa 0,0 l/m² 6,4 km/h (2 Bft) W 270 ° 1 min 0,000 mm 3,0 UV-I 204 W/m² 16,8 °C 25,1 °C 9,7 km/h (2 Bft) 100,00 %
31.08.2026 12:48 25,2 °C 60 % 1016,9 hPa 0,0 l/m² 4,8 km/h (1 Bft) W-SW 247 ° 1 min 0,000 mm 2,7 UV-I 160 W/m² 16,9 °C 25,2 °C 11,3 km/h (2 Bft) 91,30 %
31.08.2026 12:47 25,4 °C 59 % 1017,0 hPa 0,0 l/m² 4,8 km/h (1 Bft) W 270 ° 1 min 0,000 mm 2,6 UV-I 155 W/m² 16,8 °C 25,4 °C 8,0 km/h (2 Bft) 100,00 %
31.08.2026 12:46 25,5 °C 58 % 1016,9 hPa 0,0 l/m² 8,0 km/h (2 Bft) W 270 ° 1 min 0,000 mm 2,6 UV-I 243 W/m² 16,6 °C 25,1 °C 12,9 km/h (3 Bft) 95,65 %
31.08.2026 12:45 25,6 °C 58 % 1016,9 hPa 0,0 l/m² 9,7 km/h (2 Bft) W 270 ° 1 min 0,000 mm 2,8 UV-I 243 W/m² 16,7 °C 24,9 °C 14,5 km/h (3 Bft) 100,00 %
31.08.2026 12:44 25,7 °C 59 % 1017,0 hPa 0,0 l/m² 8,0 km/h (2 Bft) W 270 ° 1 min 0,000 mm 3,6 UV-I 243 W/m² 17,1 °C 25,3 °C 14,5 km/h (3 Bft) 95,65 %
31.08.2026 12:43 25,7 °C 60 % 1017,0 hPa 0,0 l/m² 6,4 km/h (2 Bft) W-SW 247 ° 1 min 0,000 mm 5,5 UV-I 243 W/m² 17,3 °C 25,7 °C 12,9 km/h (3 Bft) 95,65 %
31.08.2026 12:42 25,6 °C 59 % 1017,0 hPa 0,0 l/m² 8,0 km/h (2 Bft) W 270 ° 1 min 0,000 mm 5,7 UV-I 243 W/m² 17,0 °C 25,2 °C 17,7 km/h (3 Bft) 95,65 %
31.08.2026 12:41 25,7 °C 59 % 1017,1 hPa 0,0 l/m² 9,7 km/h (2 Bft) W 270 ° 1 min 0,000 mm 3,4 UV-I 243 W/m² 17,1 °C 25,0 °C 17,7 km/h (3 Bft) 100,00 %
31.08.2026 12:40 25,7 °C 59 % 1017,0 hPa 0,0 l/m² 4,8 km/h (1 Bft) W 270 ° 1 min 0,000 mm 3,9 UV-I 327 W/m² 17,1 °C 25,7 °C 17,7 km/h (3 Bft) 100,00 %
31.08.2026 12:39 25,8 °C 63 % 1017,0 hPa 0,0 l/m² 6,4 km/h (2 Bft) W-NW 292 ° 1 min 0,000 mm 3,3 UV-I 244 W/m² 18,2 °C 25,8 °C 12,9 km/h (3 Bft) 95,65 %
31.08.2026 12:38 25,7 °C 63 % 1017,0 hPa 0,0 l/m² 4,8 km/h (1 Bft) W 270 ° 1 min 0,000 mm 3,3 UV-I 220 W/m² 18,1 °C 25,7 °C 6,4 km/h (2 Bft) 100,00 %
31.08.2026 12:37 25,7 °C 61 % 1017,0 hPa 0,0 l/m² 3,2 km/h (1 Bft) W 270 ° 1 min 0,000 mm 5,0 UV-I 220 W/m² 17,6 °C 25,7 °C 4,8 km/h (1 Bft) 91,30 %
31.08.2026 12:36 25,8 °C 61 % 1017,0 hPa 0,0 l/m² 4,8 km/h (1 Bft) W 270 ° 1 min 0,000 mm 5,0 UV-I 220 W/m² 17,7 °C 25,8 °C 9,7 km/h (2 Bft) 100,00 %
31.08.2026 12:35 25,8 °C 63 % 1017,0 hPa 0,0 l/m² 4,8 km/h (1 Bft) W-SW 247 ° 1 min 0,000 mm 5,5 UV-I 220 W/m² 18,2 °C 25,8 °C 11,3 km/h (2 Bft) 95,65 %
31.08.2026 12:34 25,7 °C 62 % 1017,0 hPa 0,0 l/m² 1,6 km/h (1 Bft) W-SW 247 ° 1 min 0,000 mm 4,2 UV-I 220 W/m² 17,9 °C 25,7 °C 4,8 km/h (1 Bft) 100,00 %
31.08.2026 12:33 25,8 °C 62 % 1017,1 hPa 0,0 l/m² 3,2 km/h (1 Bft) W-SW 247 ° 1 min 0,000 mm 2,7 UV-I 220 W/m² 18,0 °C 25,8 °C 4,8 km/h (1 Bft) 100,00 %
31.08.2026 12:32 26,0 °C 61 % 1017,0 hPa 0,0 l/m² 4,8 km/h (1 Bft) W-SW 247 ° 1 min 0,000 mm 2,5 UV-I 185 W/m² 17,9 °C 26,0 °C 8,0 km/h (2 Bft) 95,65 %
31.08.2026 12:31 26,2 °C 61 % 1016,9 hPa 0,0 l/m² 3,2 km/h (1 Bft) S 180 ° 1 min 0,000 mm 2,7 UV-I 318 W/m² 18,1 °C 26,2 °C 6,4 km/h (2 Bft) 100,00 %
31.08.2026 12:30 26,3 °C 61 % 1016,9 hPa 0,0 l/m² 3,2 km/h (1 Bft) W 270 ° 1 min 0,000 mm 3,1 UV-I 318 W/m² 18,2 °C 26,3 °C 9,7 km/h (2 Bft) 91,30 %
31.08.2026 12:29 26,5 °C 60 % 1017,0 hPa 0,0 l/m² 3,2 km/h (1 Bft) W-SW 247 ° 1 min 0,000 mm 3,4 UV-I 318 W/m² 18,1 °C 26,5 °C 6,4 km/h (2 Bft) 95,65 %
31.08.2026 12:28 26,7 °C 58 % 1017,0 hPa 0,0 l/m² 3,2 km/h (1 Bft) W-SW 247 ° 1 min 0,000 mm 5,0 UV-I 962 W/m² 17,7 °C 26,7 °C 4,8 km/h (1 Bft) 95,65 %
31.08.2026 12:27 27,0 °C 61 % 1017,0 hPa 0,0 l/m² 1,6 km/h (1 Bft) W-SW 247 ° 1 min 0,000 mm 3,3 UV-I 962 W/m² 18,8 °C 27,0 °C 3,2 km/h (1 Bft) 100,00 %
31.08.2026 12:26 27,0 °C 61 % 1017,0 hPa 0,0 l/m² 1,6 km/h (1 Bft) W-SW 247 ° 1 min 0,000 mm 5,5 UV-I 962 W/m² 18,8 °C 27,0 °C 3,2 km/h (1 Bft) 95,65 %
31.08.2026 12:25 26,8 °C 63 % 1017,1 hPa 0,0 l/m² 1,6 km/h (1 Bft) W 270 ° 1 min 0,000 mm 5,2 UV-I 962 W/m² 19,1 °C 26,8 °C 3,2 km/h (1 Bft) 100,00 %
31.08.2026 12:24 26,6 °C 62 % 1017,0 hPa 0,0 l/m² 3,2 km/h (1 Bft) W 270 ° 1 min 0,000 mm 5,5 UV-I 947 W/m² 18,7 °C 26,6 °C 9,7 km/h (2 Bft) 100,00 %
31.08.2026 12:23 26,3 °C 63 % 1017,0 hPa 0,0 l/m² 3,2 km/h (1 Bft) S-SW 202 ° 1 min 0,000 mm 5,8 UV-I 928 W/m² 18,7 °C 26,3 °C 11,3 km/h (2 Bft) 95,65 %
31.08.2026 12:22 26,1 °C 62 % 1017,0 hPa 0,0 l/m² 3,2 km/h (1 Bft) W-NW 292 ° 1 min 0,000 mm 5,8 UV-I 912 W/m² 18,2 °C 26,1 °C 8,0 km/h (2 Bft) 95,65 %
31.08.2026 12:21 25,9 °C 62 % 1017,0 hPa 0,0 l/m² 1,6 km/h (1 Bft) W-NW 292 ° 1 min 0,000 mm 5,8 UV-I 900 W/m² 18,0 °C 25,9 °C 3,2 km/h (1 Bft) 100,00 %
31.08.2026 12:20 25,8 °C 64 % 1017,1 hPa 0,0 l/m² 1,6 km/h (1 Bft) W-NW 292 ° 1 min 0,000 mm 5,8 UV-I 914 W/m² 18,5 °C 25,8 °C 3,2 km/h (1 Bft) 95,65 %
31.08.2026 12:19 25,7 °C 63 % 1017,1 hPa 0,0 l/m² 3,2 km/h (1 Bft) W-NW 292 ° 1 min 0,000 mm 4,5 UV-I 914 W/m² 18,1 °C 25,7 °C 4,8 km/h (1 Bft) 95,65 %
31.08.2026 12:18 25,7 °C 64 % 1017,1 hPa 0,0 l/m² 4,8 km/h (1 Bft) W-NW 292 ° 1 min 0,000 mm 5,5 UV-I 914 W/m² 18,4 °C 25,7 °C 8,0 km/h (2 Bft) 95,65 %
31.08.2026 12:17 25,6 °C 64 % 1017,1 hPa 0,0 l/m² 6,4 km/h (2 Bft) W-NW 292 ° 1 min 0,000 mm 4,1 UV-I 914 W/m² 18,3 °C 25,6 °C 14,5 km/h (3 Bft) 95,65 %
31.08.2026 12:16 25,4 °C 64 % 1017,1 hPa 0,0 l/m² 6,4 km/h (2 Bft) W 270 ° 1 min 0,000 mm 5,6 UV-I 914 W/m² 18,1 °C 25,4 °C 11,3 km/h (2 Bft) 95,65 %
31.08.2026 12:15 25,2 °C 64 % 1017,1 hPa 0,0 l/m² 1,6 km/h (1 Bft) NW 315 ° 1 min 0,000 mm 4,8 UV-I 682 W/m² 17,9 °C 25,2 °C 4,8 km/h (1 Bft) 95,65 %
31.08.2026 12:14 25,1 °C 64 % 1017,1 hPa 0,0 l/m² 3,2 km/h (1 Bft) NW 315 ° 1 min 0,000 mm 4,6 UV-I 682 W/m² 17,8 °C 25,1 °C 6,4 km/h (2 Bft) 100,00 %
31.08.2026 12:13 25,0 °C 64 % 1017,2 hPa 0,0 l/m² 4,8 km/h (1 Bft) W-NW 292 ° 1 min 0,000 mm 5,7 UV-I 861 W/m² 17,7 °C 25,0 °C 8,0 km/h (2 Bft) 91,30 %
31.08.2026 12:12 25,0 °C 64 % 1017,1 hPa 0,0 l/m² 4,8 km/h (1 Bft) W 270 ° 1 min 0,000 mm 4,1 UV-I 861 W/m² 17,7 °C 25,0 °C 11,3 km/h (2 Bft) 100,00 %
31.08.2026 12:11 25,1 °C 63 % 1017,2 hPa 0,0 l/m² 8,0 km/h (2 Bft) W 270 ° 1 min 0,000 mm 4,5 UV-I 861 W/m² 17,5 °C 24,7 °C 11,3 km/h (2 Bft) 95,65 %
31.08.2026 12:10 25,2 °C 63 % 1017,2 hPa 0,0 l/m² 6,4 km/h (2 Bft) W-SW 247 ° 1 min 0,000 mm 5,5 UV-I 216 W/m² 17,6 °C 25,2 °C 12,9 km/h (3 Bft) 95,65 %
31.08.2026 12:09 25,4 °C 62 % 1017,2 hPa 0,0 l/m² 9,7 km/h (2 Bft) W-NW 292 ° 1 min 0,000 mm 3,5 UV-I 216 W/m² 17,6 °C 24,7 °C 16,1 km/h (3 Bft) 95,65 %
31.08.2026 12:08 25,7 °C 63 % 1017,2 hPa 0,0 l/m² 3,2 km/h (1 Bft) NW 315 ° 1 min 0,000 mm 3,3 UV-I 192 W/m² 18,1 °C 25,7 °C 11,3 km/h (2 Bft) 95,65 %
31.08.2026 12:07 25,8 °C 64 % 1017,2 hPa 0,0 l/m² 1,6 km/h (1 Bft) S-SW 202 ° 1 min 0,000 mm 4,2 UV-I 214 W/m² 18,5 °C 25,8 °C 4,8 km/h (1 Bft) 100,00 %
31.08.2026 12:06 25,9 °C 65 % 1017,1 hPa 0,0 l/m² 3,2 km/h (1 Bft) S-SW 202 ° 1 min 0,000 mm 4,9 UV-I 881 W/m² 18,8 °C 25,9 °C 6,4 km/h (2 Bft) 95,65 %
31.08.2026 12:05 25,9 °C 64 % 1017,2 hPa 0,0 l/m² 4,8 km/h (1 Bft) W 270 ° 1 min 0,000 mm 3,2 UV-I 881 W/m² 18,6 °C 25,9 °C 11,3 km/h (2 Bft) 100,00 %
31.08.2026 12:04 25,9 °C 64 % 1017,1 hPa 0,0 l/m² 3,2 km/h (1 Bft) SW 225 ° 1 min 0,000 mm 3,6 UV-I 881 W/m² 18,6 °C 25,9 °C 6,4 km/h (2 Bft) 95,65 %
31.08.2026 12:03 25,7 °C 65 % 1017,1 hPa 0,0 l/m² 3,2 km/h (1 Bft) S-SW 202 ° 1 min 0,000 mm 5,6 UV-I 881 W/m² 18,6 °C 25,7 °C 4,8 km/h (1 Bft) 95,65 %
31.08.2026 12:02 25,4 °C 67 % 1017,2 hPa 0,0 l/m² 3,2 km/h (1 Bft) W 270 ° 1 min 0,000 mm 5,6 UV-I 886 W/m² 18,8 °C 25,4 °C 6,4 km/h (2 Bft) 95,65 %
31.08.2026 12:01 25,1 °C 67 % 1017,2 hPa 0,0 l/m² 3,2 km/h (1 Bft) W 270 ° 1 min 0,000 mm 3,8 UV-I 473 W/m² 18,5 °C 25,1 °C 4,8 km/h (1 Bft) 100,00 %
31.08.2026 12:00 24,9 °C 66 % 1017,2 hPa 0,0 l/m² 4,8 km/h (1 Bft) W 270 ° 1 min 0,330 mm 4,7 UV-I 473 W/m² 18,1 °C 24,9 °C 9,7 km/h (2 Bft) 100,00 %
31.08.2026 11:59 24,8 °C 66 % 1017,1 hPa 0,0 l/m² 4,8 km/h (1 Bft) W 270 ° 1 min 0,000 mm 4,5 UV-I 473 W/m² 18,0 °C 24,8 °C 6,4 km/h (2 Bft) 95,65 %
31.08.2026 11:58 24,8 °C 66 % 1017,2 hPa 0,0 l/m² 3,2 km/h (1 Bft) S-SW 202 ° 1 min 0,000 mm 3,9 UV-I 473 W/m² 18,0 °C 24,8 °C 6,4 km/h (2 Bft) 100,00 %
31.08.2026 11:57 24,8 °C 66 % 1017,3 hPa 0,0 l/m² 1,6 km/h (1 Bft) S 180 ° 1 min 0,000 mm 4,4 UV-I 473 W/m² 18,0 °C 24,8 °C 3,2 km/h (1 Bft) 91,30 %
31.08.2026 11:56 24,8 °C 66 % 1017,2 hPa 0,0 l/m² 3,2 km/h (1 Bft) S 180 ° 1 min 0,000 mm 4,6 UV-I 480 W/m² 18,0 °C 24,8 °C 6,4 km/h (2 Bft) 100,00 %
31.08.2026 11:55 24,9 °C 65 % 1017,3 hPa 0,0 l/m² 3,2 km/h (1 Bft) W-NW 292 ° 1 min 0,000 mm 4,2 UV-I 411 W/m² 17,9 °C 24,9 °C 6,4 km/h (2 Bft) 95,65 %
31.08.2026 11:54 24,9 °C 65 % 1017,3 hPa 0,0 l/m² 8,0 km/h (2 Bft) W 270 ° 1 min 0,000 mm 3,5 UV-I 373 W/m² 17,9 °C 24,5 °C 12,9 km/h (3 Bft) 95,65 %
31.08.2026 11:53 24,9 °C 67 % 1017,2 hPa 0,0 l/m² 4,8 km/h (1 Bft) W 270 ° 1 min 0,000 mm 3,6 UV-I 385 W/m² 18,3 °C 24,9 °C 14,5 km/h (3 Bft) 100,00 %
31.08.2026 11:52 24,8 °C 67 % 1017,3 hPa 0,0 l/m² 3,2 km/h (1 Bft) W-SW 247 ° 1 min 0,000 mm 3,9 UV-I 385 W/m² 18,2 °C 24,8 °C 6,4 km/h (2 Bft) 95,65 %
31.08.2026 11:51 24,6 °C 66 % 1017,3 hPa 0,0 l/m² 1,6 km/h (1 Bft) S-SW 202 ° 1 min 0,000 mm 4,2 UV-I 320 W/m² 17,8 °C 24,6 °C 3,2 km/h (1 Bft) 100,00 %
31.08.2026 11:50 24,5 °C 66 % 1017,2 hPa 0,0 l/m² 3,2 km/h (1 Bft) W 270 ° 1 min 0,000 mm 4,0 UV-I 320 W/m² 17,7 °C 24,5 °C 4,8 km/h (1 Bft) 91,30 %
31.08.2026 11:49 24,4 °C 67 % 1017,3 hPa 0,0 l/m² 4,8 km/h (1 Bft) W 270 ° 1 min 0,000 mm 3,8 UV-I 320 W/m² 17,9 °C 24,4 °C 9,7 km/h (2 Bft) 100,00 %
31.08.2026 11:48 24,4 °C 67 % 1017,3 hPa 0,0 l/m² 3,2 km/h (1 Bft) W-NW 292 ° 1 min 0,000 mm 3,6 UV-I 320 W/m² 17,9 °C 24,4 °C 6,4 km/h (2 Bft) 95,65 %
31.08.2026 11:47 24,4 °C 66 % 1017,3 hPa 0,0 l/m² 4,8 km/h (1 Bft) W 270 ° 1 min 0,000 mm 3,0 UV-I 320 W/m² 17,6 °C 24,4 °C 6,4 km/h (2 Bft) 100,00 %
31.08.2026 11:46 24,4 °C 66 % 1017,3 hPa 0,0 l/m² 4,8 km/h (1 Bft) W 270 ° 1 min 0,000 mm 3,1 UV-I 306 W/m² 17,6 °C 24,4 °C 12,9 km/h (3 Bft) 100,00 %
31.08.2026 11:45 24,5 °C 66 % 1017,2 hPa 0,0 l/m² 8,0 km/h (2 Bft) W-NW 292 ° 1 min 0,000 mm 3,9 UV-I 450 W/m² 17,7 °C 24,1 °C 12,9 km/h (3 Bft) 100,00 %
31.08.2026 11:44 24,6 °C 66 % 1017,3 hPa 0,0 l/m² 4,8 km/h (1 Bft) W-NW 292 ° 1 min 0,000 mm 3,5 UV-I 397 W/m² 17,8 °C 24,6 °C 11,3 km/h (2 Bft) 100,00 %
31.08.2026 11:43 24,5 °C 67 % 1017,3 hPa 0,0 l/m² 4,8 km/h (1 Bft) W 270 ° 1 min 0,000 mm 3,3 UV-I 364 W/m² 18,0 °C 24,5 °C 11,3 km/h (2 Bft) 100,00 %
31.08.2026 11:42 24,4 °C 66 % 1017,3 hPa 0,0 l/m² 4,8 km/h (1 Bft) W 270 ° 1 min 0,000 mm 3,3 UV-I 338 W/m² 17,6 °C 24,4 °C 11,3 km/h (2 Bft) 100,00 %
31.08.2026 11:41 24,3 °C 67 % 1017,3 hPa 0,0 l/m² 3,2 km/h (1 Bft) W-NW 292 ° 1 min 0,000 mm 4,8 UV-I 338 W/m² 17,8 °C 24,3 °C 4,8 km/h (1 Bft) 95,65 %
31.08.2026 11:40 24,3 °C 66 % 1017,3 hPa 0,0 l/m² 4,8 km/h (1 Bft) S-SW 202 ° 1 min 0,000 mm 3,5 UV-I 338 W/m² 17,5 °C 24,3 °C 6,4 km/h (2 Bft) 100,00 %
31.08.2026 11:39 24,3 °C 67 % 1017,3 hPa 0,0 l/m² 6,4 km/h (2 Bft) W 270 ° 1 min 0,000 mm 3,4 UV-I 338 W/m² 17,8 °C 24,3 °C 11,3 km/h (2 Bft) 95,65 %
31.08.2026 11:38 24,2 °C 68 % 1017,2 hPa 0,0 l/m² 3,2 km/h (1 Bft) NW 315 ° 1 min 0,000 mm 3,4 UV-I 338 W/m² 17,9 °C 24,2 °C 6,4 km/h (2 Bft) 95,65 %
31.08.2026 11:37 24,2 °C 67 % 1017,3 hPa 0,0 l/m² 6,4 km/h (2 Bft) NW 315 ° 1 min 0,000 mm 3,3 UV-I 345 W/m² 17,7 °C 24,2 °C 8,0 km/h (2 Bft) 100,00 %
31.08.2026 11:36 24,1 °C 66 % 1017,3 hPa 0,0 l/m² 4,8 km/h (1 Bft) W-NW 292 ° 1 min 0,000 mm 3,3 UV-I 355 W/m² 17,3 °C 24,1 °C 9,7 km/h (2 Bft) 95,65 %
31.08.2026 11:35 24,2 °C 66 % 1017,3 hPa 0,0 l/m² 4,8 km/h (1 Bft) W 270 ° 1 min 0,000 mm 3,3 UV-I 352 W/m² 17,4 °C 24,2 °C 8,0 km/h (2 Bft) 95,65 %
31.08.2026 11:34 24,3 °C 66 % 1017,3 hPa 0,0 l/m² 8,0 km/h (2 Bft) W-NW 292 ° 1 min 0,000 mm 3,2 UV-I 330 W/m² 17,5 °C 23,9 °C 22,5 km/h (4 Bft) 95,65 %
31.08.2026 11:33 24,4 °C 64 % 1017,3 hPa 0,0 l/m² 8,0 km/h (2 Bft) NW 315 ° 1 min 0,000 mm 2,9 UV-I 309 W/m² 17,1 °C 24,0 °C 14,5 km/h (3 Bft) 95,65 %
31.08.2026 11:32 24,6 °C 65 % 1017,3 hPa 0,0 l/m² 14,5 km/h (3 Bft) W 270 ° 1 min 0,000 mm 2,8 UV-I 283 W/m² 17,6 °C 22,9 °C 22,5 km/h (4 Bft) 95,65 %
31.08.2026 11:31 24,8 °C 64 % 1017,3 hPa 0,0 l/m² 8,0 km/h (2 Bft) W-NW 292 ° 1 min 0,000 mm 3,2 UV-I 475 W/m² 17,5 °C 24,4 °C 14,5 km/h (3 Bft) 95,65 %
31.08.2026 11:30 25,0 °C 65 % 1017,3 hPa 0,0 l/m² 6,4 km/h (2 Bft) W-NW 292 ° 1 min 0,000 mm 2,9 UV-I 445 W/m² 17,9 °C 25,0 °C 11,3 km/h (2 Bft) 100,00 %
31.08.2026 11:29 25,0 °C 65 % 1017,3 hPa 0,0 l/m² 6,4 km/h (2 Bft) W 270 ° 1 min 0,000 mm 3,3 UV-I 388 W/m² 17,9 °C 25,0 °C 8,0 km/h (2 Bft) 95,65 %
31.08.2026 11:28 25,1 °C 65 % 1017,3 hPa 0,0 l/m² 6,4 km/h (2 Bft) W 270 ° 1 min 0,000 mm 4,8 UV-I 997 W/m² 18,0 °C 25,1 °C 11,3 km/h (2 Bft) 95,65 %
31.08.2026 11:27 25,0 °C 65 % 1017,3 hPa 0,0 l/m² 9,7 km/h (2 Bft) W-NW 292 ° 1 min 0,000 mm 5,3 UV-I 718 W/m² 17,9 °C 24,2 °C 14,5 km/h (3 Bft) 95,65 %
31.08.2026 11:26 24,9 °C 66 % 1017,3 hPa 0,0 l/m² 11,3 km/h (2 Bft) W-NW 292 ° 1 min 0,000 mm 5,4 UV-I 976 W/m² 18,1 °C 23,8 °C 17,7 km/h (3 Bft) 91,30 %
31.08.2026 11:25 24,9 °C 66 % 1017,3 hPa 0,0 l/m² 9,7 km/h (2 Bft) W-NW 292 ° 1 min 0,000 mm 4,9 UV-I 933 W/m² 18,1 °C 24,1 °C 12,9 km/h (3 Bft) 100,00 %
31.08.2026 11:24 24,7 °C 67 % 1017,4 hPa 0,0 l/m² 8,0 km/h (2 Bft) W-NW 292 ° 1 min 0,000 mm 5,3 UV-I 933 W/m² 18,1 °C 24,3 °C 14,5 km/h (3 Bft) 95,65 %
31.08.2026 11:23 24,5 °C 66 % 1017,4 hPa 0,0 l/m² 9,7 km/h (2 Bft) W-NW 292 ° 1 min 0,000 mm 5,3 UV-I 513 W/m² 17,7 °C 23,7 °C 14,5 km/h (3 Bft) 95,65 %
31.08.2026 11:22 24,4 °C 66 % 1017,4 hPa 0,0 l/m² 4,8 km/h (1 Bft) W-NW 292 ° 1 min 0,000 mm 4,2 UV-I 513 W/m² 17,6 °C 24,4 °C 6,4 km/h (2 Bft) 95,65 %
31.08.2026 11:21 24,4 °C 66 % 1017,4 hPa 0,0 l/m² 9,7 km/h (2 Bft) W 270 ° 1 min 0,000 mm 5,2 UV-I 513 W/m² 17,6 °C 23,6 °C 16,1 km/h (3 Bft) 91,30 %
31.08.2026 11:20 24,4 °C 68 % 1017,4 hPa 0,0 l/m² 8,0 km/h (2 Bft) W-NW 292 ° 1 min 0,000 mm 4,3 UV-I 513 W/m² 18,1 °C 24,0 °C 14,5 km/h (3 Bft) 95,65 %
31.08.2026 11:19 24,2 °C 69 % 1017,4 hPa 0,0 l/m² 4,8 km/h (1 Bft) W 270 ° 1 min 0,000 mm 4,9 UV-I 513 W/m² 18,1 °C 24,2 °C 12,9 km/h (3 Bft) 91,30 %
31.08.2026 11:18 24,0 °C 68 % 1017,4 hPa 0,0 l/m² 6,4 km/h (2 Bft) W 270 ° 1 min 0,000 mm 4,0 UV-I 513 W/m² 17,7 °C 24,0 °C 11,3 km/h (2 Bft) 100,00 %
31.08.2026 11:17 23,9 °C 68 % 1017,4 hPa 0,0 l/m² 4,8 km/h (1 Bft) S-SW 202 ° 1 min 0,000 mm 3,4 UV-I 394 W/m² 17,6 °C 23,9 °C 9,7 km/h (2 Bft) 100,00 %
31.08.2026 11:16 23,8 °C 68 % 1017,4 hPa 0,0 l/m² 6,4 km/h (2 Bft) W 270 ° 1 min 0,000 mm 3,5 UV-I 360 W/m² 17,5 °C 23,8 °C 11,3 km/h (2 Bft) 95,65 %
31.08.2026 11:15 23,8 °C 68 % 1017,4 hPa 0,0 l/m² 8,0 km/h (2 Bft) W 270 ° 1 min 0,000 mm 3,1 UV-I 360 W/m² 17,5 °C 23,3 °C 14,5 km/h (3 Bft) 100,00 %
31.08.2026 11:14 23,8 °C 69 % 1017,4 hPa 0,0 l/m² 4,8 km/h (1 Bft) SW 225 ° 1 min 0,000 mm 3,0 UV-I 345 W/m² 17,8 °C 23,8 °C 11,3 km/h (2 Bft) 95,65 %
31.08.2026 11:13 23,8 °C 68 % 1017,4 hPa 0,0 l/m² 4,8 km/h (1 Bft) W-NW 292 ° 1 min 0,000 mm 2,9 UV-I 355 W/m² 17,5 °C 23,8 °C 14,5 km/h (3 Bft) 100,00 %
31.08.2026 11:12 23,9 °C 68 % 1017,4 hPa 0,0 l/m² 11,3 km/h (2 Bft) W-NW 292 ° 1 min 0,000 mm 2,9 UV-I 332 W/m² 17,6 °C 22,7 °C 16,1 km/h (3 Bft) 91,30 %
31.08.2026 11:11 23,8 °C 69 % 1017,4 hPa 0,0 l/m² 3,2 km/h (1 Bft) W 270 ° 1 min 0,000 mm 4,1 UV-I 350 W/m² 17,8 °C 23,8 °C 6,4 km/h (2 Bft) 100,00 %
31.08.2026 11:10 23,8 °C 68 % 1017,3 hPa 0,0 l/m² 8,0 km/h (2 Bft) W 270 ° 1 min 0,000 mm 2,8 UV-I 260 W/m² 17,5 °C 23,3 °C 12,9 km/h (3 Bft) 100,00 %
31.08.2026 11:09 23,8 °C 68 % 1017,4 hPa 0,0 l/m² 6,4 km/h (2 Bft) W 270 ° 1 min 0,000 mm 2,8 UV-I 260 W/m² 17,5 °C 23,8 °C 17,7 km/h (3 Bft) 95,65 %
31.08.2026 11:08 23,8 °C 68 % 1017,3 hPa 0,0 l/m² 8,0 km/h (2 Bft) W 270 ° 1 min 0,000 mm 3,2 UV-I 260 W/m² 17,5 °C 23,3 °C 17,7 km/h (3 Bft) 100,00 %
31.08.2026 11:07 23,9 °C 68 % 1017,4 hPa 0,0 l/m² 6,4 km/h (2 Bft) W 270 ° 1 min 0,000 mm 2,7 UV-I 260 W/m² 17,6 °C 23,9 °C 12,9 km/h (3 Bft) 100,00 %
31.08.2026 11:06 24,0 °C 69 % 1017,3 hPa 0,0 l/m² 6,4 km/h (2 Bft) W 270 ° 1 min 0,000 mm 2,8 UV-I 260 W/m² 18,0 °C 24,0 °C 12,9 km/h (3 Bft) 100,00 %
31.08.2026 11:05 24,0 °C 68 % 1017,3 hPa 0,0 l/m² 1,6 km/h (1 Bft) S-SW 202 ° 1 min 0,000 mm 3,5 UV-I 260 W/m² 17,7 °C 24,0 °C 4,8 km/h (1 Bft) 95,65 %
31.08.2026 11:04 24,0 °C 69 % 1017,3 hPa 0,0 l/m² 3,2 km/h (1 Bft) SW 225 ° 1 min 0,000 mm 3,1 UV-I 260 W/m² 18,0 °C 24,0 °C 3,2 km/h (1 Bft) 100,00 %
31.08.2026 11:03 24,1 °C 68 % 1017,3 hPa 0,0 l/m² 6,4 km/h (2 Bft) W 270 ° 1 min 0,000 mm 2,5 UV-I 353 W/m² 17,8 °C 24,1 °C 12,9 km/h (3 Bft) 100,00 %
31.08.2026 11:02 24,2 °C 68 % 1017,4 hPa 0,0 l/m² 4,8 km/h (1 Bft) W 270 ° 1 min 0,000 mm 2,6 UV-I 353 W/m² 17,9 °C 24,2 °C 8,0 km/h (2 Bft) 100,00 %
31.08.2026 11:01 24,2 °C 69 % 1017,4 hPa 0,0 l/m² 3,2 km/h (1 Bft) W-NW 292 ° 1 min 0,000 mm 4,1 UV-I 281 W/m² 18,1 °C 24,2 °C 6,4 km/h (2 Bft) 100,00 %
31.08.2026 11:00 24,2 °C 69 % 1017,4 hPa 0,0 l/m² 4,8 km/h (1 Bft) W 270 ° 1 min 0,330 mm 2,8 UV-I 283 W/m² 18,1 °C 24,2 °C 8,0 km/h (2 Bft) 100,00 %
31.08.2026 10:59 24,1 °C 68 % 1017,3 hPa 0,0 l/m² 4,8 km/h (1 Bft) W 270 ° 1 min 0,000 mm 2,7 UV-I 283 W/m² 17,8 °C 24,1 °C 9,7 km/h (2 Bft) 100,00 %
31.08.2026 10:58 24,1 °C 68 % 1017,4 hPa 0,0 l/m² 3,2 km/h (1 Bft) W-NW 292 ° 1 min 0,000 mm 2,8 UV-I 283 W/m² 17,8 °C 24,1 °C 4,8 km/h (1 Bft) 91,30 %
31.08.2026 10:57 24,1 °C 68 % 1017,3 hPa 0,0 l/m² 9,7 km/h (2 Bft) W 270 ° 1 min 0,000 mm 3,8 UV-I 656 W/m² 17,8 °C 23,2 °C 16,1 km/h (3 Bft) 100,00 %
31.08.2026 10:56 24,1 °C 68 % 1017,4 hPa 0,0 l/m² 3,2 km/h (1 Bft) W 270 ° 1 min 0,000 mm 3,1 UV-I 311 W/m² 17,8 °C 24,1 °C 6,4 km/h (2 Bft) 100,00 %
31.08.2026 10:55 24,2 °C 67 % 1017,4 hPa 0,0 l/m² 8,0 km/h (2 Bft) W 270 ° 1 min 0,000 mm 2,9 UV-I 311 W/m² 17,7 °C 23,8 °C 12,9 km/h (3 Bft) 95,65 %
31.08.2026 10:54 24,3 °C 69 % 1017,4 hPa 0,0 l/m² 3,2 km/h (1 Bft) W-SW 247 ° 1 min 0,000 mm 2,5 UV-I 299 W/m² 18,2 °C 24,3 °C 9,7 km/h (2 Bft) 100,00 %
31.08.2026 10:53 24,3 °C 68 % 1017,3 hPa 0,0 l/m² 1,6 km/h (1 Bft) W-SW 247 ° 1 min 0,000 mm 3,1 UV-I 299 W/m² 18,0 °C 24,3 °C 3,2 km/h (1 Bft) 95,65 %
31.08.2026 10:52 24,4 °C 68 % 1017,3 hPa 0,0 l/m² 3,2 km/h (1 Bft) SW 225 ° 1 min 0,000 mm 3,2 UV-I 299 W/m² 18,1 °C 24,4 °C 8,0 km/h (2 Bft) 100,00 %
31.08.2026 10:51 24,5 °C 68 % 1017,3 hPa 0,0 l/m² 3,2 km/h (1 Bft) W-SW 247 ° 1 min 0,000 mm 2,7 UV-I 299 W/m² 18,2 °C 24,5 °C 4,8 km/h (1 Bft) 91,30 %
31.08.2026 10:50 24,6 °C 67 % 1017,3 hPa 0,0 l/m² 4,8 km/h (1 Bft) W-SW 247 ° 1 min 0,000 mm 3,3 UV-I 371 W/m² 18,1 °C 24,6 °C 9,7 km/h (2 Bft) 100,00 %
31.08.2026 10:49 24,7 °C 67 % 1017,3 hPa 0,0 l/m² 6,4 km/h (2 Bft) W 270 ° 1 min 0,000 mm 2,7 UV-I 856 W/m² 18,1 °C 24,7 °C 12,9 km/h (3 Bft) 95,65 %
31.08.2026 10:48 24,7 °C 67 % 1017,3 hPa 0,0 l/m² 4,8 km/h (1 Bft) W-SW 247 ° 1 min 0,000 mm 4,3 UV-I 856 W/m² 18,1 °C 24,7 °C 11,3 km/h (2 Bft) 95,65 %
31.08.2026 10:47 24,8 °C 69 % 1017,2 hPa 0,0 l/m² 6,4 km/h (2 Bft) S 180 ° 1 min 0,000 mm 4,4 UV-I 497 W/m² 18,7 °C 24,8 °C 9,7 km/h (2 Bft) 100,00 %
31.08.2026 10:46 24,8 °C 71 % 1017,3 hPa 0,0 l/m² 4,8 km/h (1 Bft) W 270 ° 1 min 0,000 mm 3,9 UV-I 497 W/m² 19,2 °C 24,8 °C 12,9 km/h (3 Bft) 95,65 %
31.08.2026 10:45 24,8 °C 69 % 1017,2 hPa 0,0 l/m² 4,8 km/h (1 Bft) W 270 ° 1 min 0,000 mm 3,7 UV-I 612 W/m² 18,7 °C 24,8 °C 9,7 km/h (2 Bft) 100,00 %
31.08.2026 10:44 24,9 °C 70 % 1017,2 hPa 0,0 l/m² 3,2 km/h (1 Bft) W 270 ° 1 min 0,000 mm 4,1 UV-I 612 W/m² 19,0 °C 24,9 °C 6,4 km/h (2 Bft) 86,96 %
31.08.2026 10:43 25,0 °C 70 % 1017,2 hPa 0,0 l/m² 4,8 km/h (1 Bft) W-SW 247 ° 1 min 0,000 mm 4,2 UV-I 663 W/m² 19,1 °C 25,0 °C 11,3 km/h (2 Bft) 95,65 %
31.08.2026 10:42 25,0 °C 70 % 1017,3 hPa 0,0 l/m² 1,6 km/h (1 Bft) W 270 ° 1 min 0,000 mm 4,4 UV-I 663 W/m² 19,1 °C 25,0 °C 3,2 km/h (1 Bft) 95,65 %
31.08.2026 10:41 24,9 °C 71 % 1017,3 hPa 0,0 l/m² 1,6 km/h (1 Bft) W 270 ° 1 min 0,000 mm 4,4 UV-I 742 W/m² 19,3 °C 24,9 °C 3,2 km/h (1 Bft) 95,65 %
31.08.2026 10:40 24,8 °C 72 % 1017,3 hPa 0,0 l/m² 1,6 km/h (1 Bft) W 270 ° 1 min 0,000 mm 4,4 UV-I 751 W/m² 19,4 °C 24,8 °C 3,2 km/h (1 Bft) 100,00 %
31.08.2026 10:39 24,5 °C 72 % 1017,3 hPa 0,0 l/m² 1,6 km/h (1 Bft) W-SW 247 ° 1 min 0,000 mm 4,3 UV-I 798 W/m² 19,1 °C 24,5 °C 3,2 km/h (1 Bft) 95,65 %
31.08.2026 10:38 24,2 °C 74 % 1017,3 hPa 0,0 l/m² 1,6 km/h (1 Bft) W-SW 247 ° 1 min 0,000 mm 4,2 UV-I 772 W/m² 19,3 °C 24,2 °C 3,2 km/h (1 Bft) 100,00 %
31.08.2026 10:37 23,9 °C 73 % 1017,3 hPa 0,0 l/m² 4,8 km/h (1 Bft) W-SW 247 ° 1 min 0,000 mm 4,0 UV-I 751 W/m² 18,8 °C 23,9 °C 6,4 km/h (2 Bft) 95,65 %
31.08.2026 10:36 23,7 °C 74 % 1017,2 hPa 0,0 l/m² 1,6 km/h (1 Bft) W-NW 292 ° 1 min 0,000 mm 4,0 UV-I 728 W/m² 18,8 °C 23,7 °C 3,2 km/h (1 Bft) 100,00 %
31.08.2026 10:35 23,6 °C 73 % 1017,3 hPa 0,0 l/m² 3,2 km/h (1 Bft) W-NW 292 ° 1 min 0,000 mm 3,9 UV-I 698 W/m² 18,5 °C 23,6 °C 6,4 km/h (2 Bft) 91,30 %
31.08.2026 10:34 23,4 °C 73 % 1017,3 hPa 0,0 l/m² 3,2 km/h (1 Bft) W 270 ° 1 min 0,000 mm 3,9 UV-I 680 W/m² 18,3 °C 23,4 °C 4,8 km/h (1 Bft) 95,65 %
31.08.2026 10:33 23,5 °C 74 % 1017,2 hPa 0,0 l/m² 3,2 km/h (1 Bft) SW 225 ° 1 min 0,000 mm 3,8 UV-I 663 W/m² 18,6 °C 23,5 °C 6,4 km/h (2 Bft) 100,00 %
31.08.2026 10:32 23,4 °C 74 % 1017,2 hPa 0,0 l/m² 1,6 km/h (1 Bft) SW 225 ° 1 min 0,000 mm 3,7 UV-I 647 W/m² 18,5 °C 23,4 °C 3,2 km/h (1 Bft) 95,65 %
31.08.2026 10:31 23,3 °C 74 % 1017,2 hPa 0,0 l/m² 1,6 km/h (1 Bft) S-SW 202 ° 1 min 0,000 mm 3,7 UV-I 635 W/m² 18,4 °C 23,3 °C 3,2 km/h (1 Bft) 100,00 %
31.08.2026 10:30 23,3 °C 75 % 1017,3 hPa 0,0 l/m² 1,6 km/h (1 Bft) S-SW 202 ° 1 min 0,000 mm 3,6 UV-I 628 W/m² 18,6 °C 23,3 °C 3,2 km/h (1 Bft) 95,65 %
31.08.2026 10:29 23,2 °C 75 % 1017,3 hPa 0,0 l/m² 1,6 km/h (1 Bft) SW 225 ° 1 min 0,000 mm 3,5 UV-I 621 W/m² 18,5 °C 23,2 °C 3,2 km/h (1 Bft) 100,00 %
31.08.2026 10:28 23,1 °C 75 % 1017,2 hPa 0,0 l/m² 0,0 km/h (0 Bft) SW 225 ° 1 min 0,000 mm 3,5 UV-I 612 W/m² 18,4 °C 23,1 °C 1,6 km/h (1 Bft) 100,00 %
31.08.2026 10:27 23,0 °C 74 % 1017,2 hPa 0,0 l/m² 3,2 km/h (1 Bft) SW 225 ° 1 min 0,000 mm 3,5 UV-I 621 W/m² 18,1 °C 23,0 °C 6,4 km/h (2 Bft) 100,00 %
31.08.2026 10:26 23,1 °C 77 % 1017,2 hPa 0,0 l/m² 1,6 km/h (1 Bft) S-SW 202 ° 1 min 0,000 mm 3,4 UV-I 613 W/m² 18,8 °C 23,1 °C 3,2 km/h (1 Bft) 100,00 %
31.08.2026 10:25 23,1 °C 78 % 1017,2 hPa 0,0 l/m² 1,6 km/h (1 Bft) S-SW 202 ° 1 min 0,000 mm 3,4 UV-I 617 W/m² 19,0 °C 23,1 °C 3,2 km/h (1 Bft) 95,65 %
31.08.2026 10:24 23,0 °C 77 % 1017,2 hPa 0,0 l/m² 1,6 km/h (1 Bft) S-SW 202 ° 1 min 0,000 mm 3,4 UV-I 622 W/m² 18,7 °C 23,0 °C 3,2 km/h (1 Bft) 100,00 %
31.08.2026 10:23 22,8 °C 78 % 1017,2 hPa 0,0 l/m² 0,0 km/h (0 Bft) S-SW 202 ° 1 min 0,000 mm 3,2 UV-I 589 W/m² 18,8 °C 22,8 °C 3,2 km/h (1 Bft) 95,65 %
31.08.2026 10:22 22,8 °C 78 % 1017,2 hPa 0,0 l/m² 0,0 km/h (0 Bft) S-SW 202 ° 1 min 0,000 mm 3,1 UV-I 638 W/m² 18,8 °C 22,8 °C 1,6 km/h (1 Bft) 95,65 %
31.08.2026 10:21 22,8 °C 78 % 1017,2 hPa 0,0 l/m² 1,6 km/h (1 Bft) S-SW 202 ° 1 min 0,000 mm 2,3 UV-I 638 W/m² 18,8 °C 22,8 °C 3,2 km/h (1 Bft) 100,00 %
31.08.2026 10:20 22,8 °C 78 % 1017,2 hPa 0,0 l/m² 1,6 km/h (1 Bft) S-SW 202 ° 1 min 0,000 mm 2,9 UV-I 638 W/m² 18,8 °C 22,8 °C 3,2 km/h (1 Bft) 100,00 %
31.08.2026 10:19 22,8 °C 80 % 1017,2 hPa 0,0 l/m² 3,2 km/h (1 Bft) S-SW 202 ° 1 min 0,000 mm 2,4 UV-I 638 W/m² 19,2 °C 22,8 °C 4,8 km/h (1 Bft) 100,00 %
31.08.2026 10:18 22,5 °C 79 % 1017,2 hPa 0,0 l/m² 1,6 km/h (1 Bft) S-SW 202 ° 1 min 0,000 mm 3,2 UV-I 638 W/m² 18,7 °C 22,5 °C 4,8 km/h (1 Bft) 95,65 %
31.08.2026 10:17 22,3 °C 80 % 1017,3 hPa 0,0 l/m² 0,0 km/h (0 Bft) S-SW 202 ° 1 min 0,000 mm 3,2 UV-I 629 W/m² 18,7 °C 22,3 °C 4,8 km/h (1 Bft) 100,00 %
31.08.2026 10:16 21,9 °C 80 % 1017,2 hPa 0,0 l/m² 3,2 km/h (1 Bft) S-SW 202 ° 1 min 0,000 mm 3,2 UV-I 631 W/m² 18,3 °C 21,9 °C 4,8 km/h (1 Bft) 91,30 %
31.08.2026 10:15 21,7 °C 80 % 1017,2 hPa 0,0 l/m² 3,2 km/h (1 Bft) S-SW 202 ° 1 min 0,000 mm 3,2 UV-I 631 W/m² 18,1 °C 21,7 °C 6,4 km/h (2 Bft) 95,65 %
31.08.2026 10:14 21,7 °C 81 % 1017,2 hPa 0,0 l/m² 1,6 km/h (1 Bft) SW 225 ° 1 min 0,000 mm 2,1 UV-I 322 W/m² 18,3 °C 21,7 °C 4,8 km/h (1 Bft) 100,00 %
31.08.2026 10:13 21,7 °C 81 % 1017,2 hPa 0,0 l/m² 3,2 km/h (1 Bft) SW 225 ° 1 min 0,000 mm 2,1 UV-I 322 W/m² 18,3 °C 21,7 °C 4,8 km/h (1 Bft) 95,65 %
31.08.2026 10:12 21,8 °C 82 % 1017,3 hPa 0,0 l/m² 3,2 km/h (1 Bft) SW 225 ° 1 min 0,000 mm 2,9 UV-I 322 W/m² 18,6 °C 21,8 °C 6,4 km/h (2 Bft) 100,00 %
31.08.2026 10:11 21,7 °C 82 % 1017,3 hPa 0,0 l/m² 1,6 km/h (1 Bft) SW 225 ° 1 min 0,000 mm 2,9 UV-I 251 W/m² 18,5 °C 21,7 °C 3,2 km/h (1 Bft) 95,65 %
31.08.2026 10:10 21,6 °C 82 % 1017,3 hPa 0,0 l/m² 1,6 km/h (1 Bft) SW 225 ° 1 min 0,000 mm 3,1 UV-I 251 W/m² 18,4 °C 21,6 °C 3,2 km/h (1 Bft) 95,65 %
31.08.2026 10:09 21,6 °C 83 % 1017,3 hPa 0,0 l/m² 0,0 km/h (0 Bft) SW 225 ° 1 min 0,000 mm 2,3 UV-I 251 W/m² 18,6 °C 21,6 °C 3,2 km/h (1 Bft) 91,30 %
31.08.2026 10:08 21,5 °C 82 % 1017,2 hPa 0,0 l/m² 1,6 km/h (1 Bft) SW 225 ° 1 min 0,000 mm 2,2 UV-I 306 W/m² 18,3 °C 21,5 °C 4,8 km/h (1 Bft) 95,65 %
31.08.2026 10:07 21,4 °C 82 % 1017,3 hPa 0,0 l/m² 0,0 km/h (0 Bft) W-SW 247 ° 1 min 0,000 mm 2,8 UV-I 272 W/m² 18,2 °C 21,4 °C 1,6 km/h (1 Bft) 100,00 %
31.08.2026 10:06 21,4 °C 83 % 1017,4 hPa 0,0 l/m² 0,0 km/h (0 Bft) W-SW 247 ° 1 min 0,000 mm 2,0 UV-I 272 W/m² 18,4 °C 21,4 °C 1,6 km/h (1 Bft) 95,65 %
31.08.2026 10:05 21,3 °C 84 % 1017,4 hPa 0,0 l/m² 0,0 km/h (0 Bft) W-SW 247 ° 1 min 0,000 mm 2,0 UV-I 668 W/m² 18,5 °C 21,3 °C 1,6 km/h (1 Bft) 100,00 %
31.08.2026 10:04 21,1 °C 85 % 1017,4 hPa 0,0 l/m² 1,6 km/h (1 Bft) W-SW 247 ° 1 min 0,000 mm 2,9 UV-I 668 W/m² 18,5 °C 21,1 °C 3,2 km/h (1 Bft) 95,65 %
31.08.2026 10:03 20,9 °C 85 % 1017,4 hPa 0,0 l/m² 1,6 km/h (1 Bft) W-SW 247 ° 1 min 0,000 mm 2,9 UV-I 650 W/m² 18,3 °C 20,9 °C 3,2 km/h (1 Bft) 95,65 %
31.08.2026 10:02 20,8 °C 85 % 1017,3 hPa 0,0 l/m² 1,6 km/h (1 Bft) W-SW 247 ° 1 min 0,000 mm 2,8 UV-I 596 W/m² 18,2 °C 20,8 °C 4,8 km/h (1 Bft) 91,30 %
31.08.2026 10:01 20,9 °C 86 % 1017,3 hPa 0,0 l/m² 1,6 km/h (1 Bft) W-SW 247 ° 1 min 0,000 mm 1,9 UV-I 197 W/m² 18,5 °C 20,9 °C 3,2 km/h (1 Bft) 95,65 %
31.08.2026 10:00 20,9 °C 86 % 1017,3 hPa 0,0 l/m² 0,0 km/h (0 Bft) W-SW 247 ° 1 min 0,076 mm 1,9 UV-I 213 W/m² 18,5 °C 20,9 °C 1,6 km/h (1 Bft) 100,00 %
31.08.2026 09:59 20,8 °C 86 % 1017,3 hPa 0,0 l/m² 0,0 km/h (0 Bft) W-SW 247 ° 1 min 0,000 mm 1,8 UV-I 204 W/m² 18,4 °C 20,8 °C 1,6 km/h (1 Bft) 95,65 %
31.08.2026 09:58 20,8 °C 87 % 1017,3 hPa 0,0 l/m² 0,0 km/h (0 Bft) N 0 ° 1 min 0,000 mm 1,8 UV-I 202 W/m² 18,6 °C 20,8 °C 0,0 km/h (0 Bft) 100,00 %
31.08.2026 09:57 20,7 °C 87 % 1017,3 hPa 0,0 l/m² 0,0 km/h (0 Bft) N 0 ° 1 min 0,000 mm 1,7 UV-I 199 W/m² 18,5 °C 20,7 °C 0,0 km/h (0 Bft) 100,00 %
31.08.2026 09:56 20,6 °C 86 % 1017,3 hPa 0,0 l/m² 0,0 km/h (0 Bft) N 0 ° 1 min 0,000 mm 1,7 UV-I 197 W/m² 18,2 °C 20,6 °C 0,0 km/h (0 Bft) 100,00 %
31.08.2026 09:55 20,6 °C 87 % 1017,3 hPa 0,0 l/m² 0,0 km/h (0 Bft) W-SW 247 ° 1 min 0,000 mm 1,6 UV-I 197 W/m² 18,4 °C 20,6 °C 1,6 km/h (1 Bft) 91,30 %
31.08.2026 09:54 20,5 °C 86 % 1017,3 hPa 0,0 l/m² 0,0 km/h (0 Bft) W-SW 247 ° 1 min 0,000 mm 1,6 UV-I 192 W/m² 18,1 °C 20,5 °C 1,6 km/h (1 Bft) 95,65 %
31.08.2026 09:53 20,5 °C 86 % 1017,3 hPa 0,0 l/m² 0,0 km/h (0 Bft) W-SW 247 ° 1 min 0,000 mm 1,5 UV-I 178 W/m² 18,1 °C 20,5 °C 3,2 km/h (1 Bft) 100,00 %
31.08.2026 09:52 20,4 °C 86 % 1017,3 hPa 0,0 l/m² 0,0 km/h (0 Bft) W-SW 247 ° 1 min 0,000 mm 1,5 UV-I 174 W/m² 18,0 °C 20,4 °C 1,6 km/h (1 Bft) 95,65 %
31.08.2026 09:51 20,4 °C 86 % 1017,3 hPa 0,0 l/m² 0,0 km/h (0 Bft) W-SW 247 ° 1 min 0,000 mm 1,4 UV-I 171 W/m² 18,0 °C 20,4 °C 1,6 km/h (1 Bft) 100,00 %
31.08.2026 09:50 20,4 °C 86 % 1017,3 hPa 0,0 l/m² 1,6 km/h (1 Bft) W-SW 247 ° 1 min 0,000 mm 1,4 UV-I 165 W/m² 18,0 °C 20,4 °C 1,6 km/h (1 Bft) 100,00 %
31.08.2026 09:49 20,3 °C 86 % 1017,2 hPa 0,0 l/m² 0,0 km/h (0 Bft) W-SW 247 ° 1 min 0,000 mm 1,4 UV-I 160 W/m² 17,9 °C 20,3 °C 1,6 km/h (1 Bft) 100,00 %
31.08.2026 09:48 20,4 °C 86 % 1017,3 hPa 0,0 l/m² 1,6 km/h (1 Bft) W-SW 247 ° 1 min 0,000 mm 1,3 UV-I 156 W/m² 18,0 °C 20,4 °C 1,6 km/h (1 Bft) 95,65 %
31.08.2026 09:47 20,4 °C 86 % 1017,2 hPa 0,0 l/m² 0,0 km/h (0 Bft) W-SW 247 ° 1 min 0,000 mm 1,3 UV-I 156 W/m² 18,0 °C 20,4 °C 1,6 km/h (1 Bft) 95,65 %
31.08.2026 09:46 20,4 °C 87 % 1017,2 hPa 0,0 l/m² 1,6 km/h (1 Bft) W-SW 247 ° 1 min 0,000 mm 1,3 UV-I 160 W/m² 18,2 °C 20,4 °C 4,8 km/h (1 Bft) 100,00 %
31.08.2026 09:45 20,4 °C 87 % 1017,2 hPa 0,0 l/m² 0,0 km/h (0 Bft) W-SW 247 ° 1 min 0,000 mm 1,3 UV-I 162 W/m² 18,2 °C 20,4 °C 1,6 km/h (1 Bft) 100,00 %
31.08.2026 09:44 20,3 °C 88 % 1017,2 hPa 0,0 l/m² 0,0 km/h (0 Bft) W-SW 247 ° 1 min 0,000 mm 1,3 UV-I 165 W/m² 18,2 °C 20,3 °C 1,6 km/h (1 Bft) 100,00 %
31.08.2026 09:43 20,3 °C 88 % 1017,2 hPa 0,0 l/m² 0,0 km/h (0 Bft) N 0 ° 1 min 0,000 mm 1,3 UV-I 167 W/m² 18,2 °C 20,3 °C 0,0 km/h (0 Bft) 100,00 %
31.08.2026 09:42 20,2 °C 87 % 1017,2 hPa 0,0 l/m² 0,0 km/h (0 Bft) W-SW 247 ° 1 min 0,000 mm 1,3 UV-I 167 W/m² 18,0 °C 20,2 °C 1,6 km/h (1 Bft) 95,65 %
31.08.2026 09:41 20,2 °C 87 % 1017,2 hPa 0,0 l/m² 0,0 km/h (0 Bft) W-SW 247 ° 1 min 0,000 mm 1,3 UV-I 167 W/m² 18,0 °C 20,2 °C 1,6 km/h (1 Bft) 95,65 %
31.08.2026 09:40 20,2 °C 88 % 1017,1 hPa 0,0 l/m² 0,0 km/h (0 Bft) W-SW 247 ° 1 min 0,000 mm 1,2 UV-I 165 W/m² 18,1 °C 20,2 °C 1,6 km/h (1 Bft) 95,65 %
31.08.2026 09:39 20,2 °C 88 % 1017,2 hPa 0,0 l/m² 0,0 km/h (0 Bft) W-SW 247 ° 1 min 0,000 mm 1,2 UV-I 165 W/m² 18,1 °C 20,2 °C 1,6 km/h (1 Bft) 100,00 %
31.08.2026 09:38 20,2 °C 88 % 1017,2 hPa 0,0 l/m² 0,0 km/h (0 Bft) W-SW 247 ° 1 min 0,000 mm 1,2 UV-I 165 W/m² 18,1 °C 20,2 °C 1,6 km/h (1 Bft) 95,65 %
31.08.2026 09:37 20,2 °C 89 % 1017,3 hPa 0,0 l/m² 1,6 km/h (1 Bft) W-SW 247 ° 1 min 0,000 mm 1,2 UV-I 165 W/m² 18,3 °C 20,2 °C 3,2 km/h (1 Bft) 100,00 %
31.08.2026 09:36 20,1 °C 88 % 1017,1 hPa 0,0 l/m² 0,0 km/h (0 Bft) W-SW 247 ° 1 min 0,000 mm 1,2 UV-I 167 W/m² 18,0 °C 20,1 °C 1,6 km/h (1 Bft) 95,65 %
31.08.2026 09:35 20,1 °C 88 % 1017,2 hPa 0,0 l/m² 0,0 km/h (0 Bft) W-SW 247 ° 1 min 0,000 mm 1,2 UV-I 167 W/m² 18,0 °C 20,1 °C 1,6 km/h (1 Bft) 95,65 %
31.08.2026 09:34 20,1 °C 88 % 1017,2 hPa 0,0 l/m² 0,0 km/h (0 Bft) W-SW 247 ° 1 min 0,000 mm 1,2 UV-I 165 W/m² 18,0 °C 20,1 °C 1,6 km/h (1 Bft) 95,65 %
31.08.2026 09:33 20,0 °C 88 % 1017,2 hPa 0,0 l/m² 0,0 km/h (0 Bft) N 0 ° 1 min 0,000 mm 1,1 UV-I 165 W/m² 17,9 °C 20,0 °C 0,0 km/h (0 Bft) 95,65 %
31.08.2026 09:32 20,0 °C 89 % 1017,2 hPa 0,0 l/m² 0,0 km/h (0 Bft) N 0 ° 1 min 0,000 mm 1,1 UV-I 165 W/m² 18,1 °C 20,0 °C 0,0 km/h (0 Bft) 100,00 %
31.08.2026 09:31 20,0 °C 89 % 1017,1 hPa 0,0 l/m² 0,0 km/h (0 Bft) N 0 ° 1 min 0,000 mm 1,1 UV-I 162 W/m² 18,1 °C 20,0 °C 0,0 km/h (0 Bft) 91,30 %
31.08.2026 09:30 20,0 °C 89 % 1017,2 hPa 0,0 l/m² 0,0 km/h (0 Bft) N 0 ° 1 min 0,000 mm 1,1 UV-I 162 W/m² 18,1 °C 20,0 °C 0,0 km/h (0 Bft) 100,00 %
31.08.2026 09:29 20,0 °C 89 % 1017,2 hPa 0,0 l/m² 0,0 km/h (0 Bft) W-SW 247 ° 1 min 0,000 mm 1,1 UV-I 158 W/m² 18,1 °C 20,0 °C 1,6 km/h (1 Bft) 95,65 %
31.08.2026 09:28 20,0 °C 89 % 1017,2 hPa 0,0 l/m² 0,0 km/h (0 Bft) W-SW 247 ° 1 min 0,000 mm 1,1 UV-I 156 W/m² 18,1 °C 20,0 °C 1,6 km/h (1 Bft) 95,65 %
31.08.2026 09:27 19,8 °C 89 % 1017,2 hPa 0,0 l/m² 0,0 km/h (0 Bft) W-SW 247 ° 1 min 0,000 mm 1,0 UV-I 153 W/m² 17,9 °C 19,8 °C 1,6 km/h (1 Bft) 95,65 %
31.08.2026 09:26 19,8 °C 88 % 1017,2 hPa 0,0 l/m² 0,0 km/h (0 Bft) W-SW 247 ° 0 min 0,000 mm 1,0 UV-I 151 W/m² 17,8 °C 19,8 °C 1,6 km/h (1 Bft) 95,65 %
31.08.2026 09:25 19,8 °C 88 % 1017,2 hPa 0,0 l/m² 1,6 km/h (1 Bft) W-SW 247 ° 0 min 0,000 mm 1,0 UV-I 148 W/m² 17,8 °C 19,8 °C 3,2 km/h (1 Bft) 95,65 %
31.08.2026 09:24 19,7 °C 88 % 1017,2 hPa 0,0 l/m² 1,6 km/h (1 Bft) W-SW 247 ° 0 min 0,000 mm 1,0 UV-I 144 W/m² 17,7 °C 19,7 °C 3,2 km/h (1 Bft) 91,30 %
31.08.2026 09:23 19,8 °C 89 % 1017,2 hPa 0,0 l/m² 1,6 km/h (1 Bft) W-SW 247 ° 0 min 0,000 mm 0,9 UV-I 142 W/m² 17,9 °C 19,8 °C 3,2 km/h (1 Bft) 100,00 %
31.08.2026 09:22 19,7 °C 89 % 1017,2 hPa 0,0 l/m² 1,6 km/h (1 Bft) W-SW 247 ° 0 min 0,000 mm 0,9 UV-I 141 W/m² 17,8 °C 19,7 °C 1,6 km/h (1 Bft) 95,65 %
31.08.2026 09:21 19,7 °C 89 % 1017,2 hPa 0,0 l/m² 0,0 km/h (0 Bft) N 0 ° 0 min 0,000 mm 0,9 UV-I 141 W/m² 17,8 °C 19,7 °C 0,0 km/h (0 Bft) 95,65 %
31.08.2026 09:20 19,7 °C 89 % 1017,1 hPa 0,0 l/m² 0,0 km/h (0 Bft) W-SW 247 ° 0 min 0,000 mm 0,9 UV-I 139 W/m² 17,8 °C 19,7 °C 1,6 km/h (1 Bft) 95,65 %
31.08.2026 09:19 19,6 °C 89 % 1017,1 hPa 0,0 l/m² 1,6 km/h (1 Bft) W-SW 247 ° 0 min 0,000 mm 0,9 UV-I 137 W/m² 17,7 °C 19,6 °C 3,2 km/h (1 Bft) 95,65 %
31.08.2026 09:18 19,7 °C 90 % 1017,2 hPa 0,0 l/m² 1,6 km/h (1 Bft) W-SW 247 ° 0 min 0,000 mm 0,8 UV-I 135 W/m² 18,0 °C 19,7 °C 1,6 km/h (1 Bft) 95,65 %
31.08.2026 09:17 19,6 °C 89 % 1017,1 hPa 0,0 l/m² 0,0 km/h (0 Bft) N 0 ° 0 min 0,000 mm 0,8 UV-I 134 W/m² 17,7 °C 19,6 °C 0,0 km/h (0 Bft) 95,65 %
31.08.2026 09:16 19,6 °C 88 % 1017,2 hPa 0,0 l/m² 0,0 km/h (0 Bft) W-SW 247 ° 0 min 0,000 mm 0,8 UV-I 130 W/m² 17,6 °C 19,6 °C 1,6 km/h (1 Bft) 100,00 %
31.08.2026 09:15 19,6 °C 89 % 1017,1 hPa 0,0 l/m² 1,6 km/h (1 Bft) W-SW 247 ° 0 min 0,000 mm 0,8 UV-I 127 W/m² 17,7 °C 19,6 °C 3,2 km/h (1 Bft) 91,30 %
31.08.2026 09:14 19,6 °C 89 % 1017,2 hPa 0,0 l/m² 0,0 km/h (0 Bft) W-SW 247 ° 0 min 0,000 mm 0,8 UV-I 123 W/m² 17,7 °C 19,6 °C 1,6 km/h (1 Bft) 100,00 %
31.08.2026 09:13 19,5 °C 89 % 1017,1 hPa 0,0 l/m² 0,0 km/h (0 Bft) W-SW 247 ° 0 min 0,000 mm 0,7 UV-I 120 W/m² 17,6 °C 19,5 °C 1,6 km/h (1 Bft) 95,65 %
31.08.2026 09:12 19,5 °C 89 % 1017,2 hPa 0,0 l/m² 0,0 km/h (0 Bft) W-SW 247 ° 0 min 0,000 mm 0,7 UV-I 120 W/m² 17,6 °C 19,5 °C 3,2 km/h (1 Bft) 100,00 %
31.08.2026 09:11 19,5 °C 89 % 1017,2 hPa 0,0 l/m² 1,6 km/h (1 Bft) W 270 ° 0 min 0,000 mm 0,7 UV-I 116 W/m² 17,6 °C 19,5 °C 4,8 km/h (1 Bft) 100,00 %
31.08.2026 09:10 19,5 °C 90 % 1017,1 hPa 0,0 l/m² 0,0 km/h (0 Bft) W 270 ° 0 min 0,000 mm 0,7 UV-I 114 W/m² 17,8 °C 19,5 °C 1,6 km/h (1 Bft) 100,00 %
31.08.2026 09:09 19,4 °C 90 % 1017,1 hPa 0,0 l/m² 0,0 km/h (0 Bft) W 270 ° 0 min 0,000 mm 0,6 UV-I 111 W/m² 17,7 °C 19,4 °C 1,6 km/h (1 Bft) 95,65 %
31.08.2026 09:08 19,4 °C 90 % 1017,2 hPa 0,0 l/m² 0,0 km/h (0 Bft) W 270 ° 0 min 0,000 mm 0,6 UV-I 107 W/m² 17,7 °C 19,4 °C 1,6 km/h (1 Bft) 100,00 %
31.08.2026 09:07 19,3 °C 89 % 1017,1 hPa 0,0 l/m² 1,6 km/h (1 Bft) W 270 ° 0 min 0,000 mm 0,6 UV-I 104 W/m² 17,4 °C 19,3 °C 3,2 km/h (1 Bft) 100,00 %
31.08.2026 09:06 19,3 °C 90 % 1017,1 hPa 0,0 l/m² 1,6 km/h (1 Bft) W 270 ° 0 min 0,000 mm 0,5 UV-I 98 W/m² 17,6 °C 19,3 °C 3,2 km/h (1 Bft) 95,65 %
31.08.2026 09:05 19,3 °C 90 % 1017,2 hPa 0,0 l/m² 0,0 km/h (0 Bft) W 270 ° 0 min 0,000 mm 0,5 UV-I 95 W/m² 17,6 °C 19,3 °C 1,6 km/h (1 Bft) 100,00 %
31.08.2026 09:04 19,3 °C 90 % 1017,1 hPa 0,0 l/m² 1,6 km/h (1 Bft) W 270 ° 0 min 0,000 mm 0,5 UV-I 90 W/m² 17,6 °C 19,3 °C 3,2 km/h (1 Bft) 100,00 %
31.08.2026 09:03 19,3 °C 90 % 1017,2 hPa 0,0 l/m² 1,6 km/h (1 Bft) W 270 ° 0 min 0,000 mm 0,5 UV-I 88 W/m² 17,6 °C 19,3 °C 3,2 km/h (1 Bft) 95,65 %
31.08.2026 09:02 19,3 °C 90 % 1017,2 hPa 0,0 l/m² 1,6 km/h (1 Bft) W 270 ° 0 min 0,000 mm 0,5 UV-I 86 W/m² 17,6 °C 19,3 °C 3,2 km/h (1 Bft) 95,65 %
31.08.2026 09:01 19,2 °C 90 % 1017,2 hPa 0,0 l/m² 1,6 km/h (1 Bft) W 270 ° 0 min 0,000 mm 0,5 UV-I 84 W/m² 17,5 °C 19,2 °C 1,6 km/h (1 Bft) 100,00 %
31.08.2026 09:00 19,2 °C 90 % 1017,2 hPa 0,0 l/m² 0,0 km/h (0 Bft) W 270 ° 0 min 0,025 mm 0,5 UV-I 83 W/m² 17,5 °C 19,2 °C 1,6 km/h (1 Bft) 91,30 %
31.08.2026 08:59 19,3 °C 90 % 1017,1 hPa 0,0 l/m² 0,0 km/h (0 Bft) W 270 ° 0 min 0,000 mm 0,5 UV-I 83 W/m² 17,6 °C 19,3 °C 3,2 km/h (1 Bft) 95,65 %
31.08.2026 08:58 19,2 °C 90 % 1017,2 hPa 0,0 l/m² 1,6 km/h (1 Bft) W 270 ° 0 min 0,000 mm 0,5 UV-I 83 W/m² 17,5 °C 19,2 °C 3,2 km/h (1 Bft) 95,65 %
31.08.2026 08:57 19,2 °C 90 % 1017,2 hPa 0,0 l/m² 3,2 km/h (1 Bft) W 270 ° 0 min 0,000 mm 0,5 UV-I 81 W/m² 17,5 °C 19,2 °C 4,8 km/h (1 Bft) 95,65 %
31.08.2026 08:56 19,2 °C 90 % 1017,2 hPa 0,0 l/m² 3,2 km/h (1 Bft) W 270 ° 0 min 0,000 mm 0,0 UV-I 79 W/m² 17,5 °C 19,2 °C 3,2 km/h (1 Bft) 91,30 %
31.08.2026 08:55 19,2 °C 90 % 1017,2 hPa 0,0 l/m² 3,2 km/h (1 Bft) W 270 ° 0 min 0,000 mm 0,0 UV-I 77 W/m² 17,5 °C 19,2 °C 4,8 km/h (1 Bft) 95,65 %
31.08.2026 08:54 19,2 °C 90 % 1017,2 hPa 0,0 l/m² 3,2 km/h (1 Bft) W 270 ° 0 min 0,000 mm 0,0 UV-I 76 W/m² 17,5 °C 19,2 °C 6,4 km/h (2 Bft) 95,65 %
31.08.2026 08:53 19,2 °C 90 % 1017,2 hPa 0,0 l/m² 0,0 km/h (0 Bft) W 270 ° 0 min 0,000 mm 0,0 UV-I 72 W/m² 17,5 °C 19,2 °C 3,2 km/h (1 Bft) 95,65 %
31.08.2026 08:52 19,2 °C 90 % 1017,2 hPa 0,0 l/m² 3,2 km/h (1 Bft) W 270 ° 0 min 0,000 mm 0,0 UV-I 70 W/m² 17,5 °C 19,2 °C 4,8 km/h (1 Bft) 95,65 %
31.08.2026 08:51 19,1 °C 91 % 1017,2 hPa 0,0 l/m² 1,6 km/h (1 Bft) W 270 ° 0 min 0,000 mm 0,0 UV-I 69 W/m² 17,6 °C 19,1 °C 4,8 km/h (1 Bft) 95,65 %
31.08.2026 08:50 19,1 °C 91 % 1017,2 hPa 0,0 l/m² 1,6 km/h (1 Bft) W 270 ° 0 min 0,000 mm 0,0 UV-I 69 W/m² 17,6 °C 19,1 °C 3,2 km/h (1 Bft) 95,65 %
31.08.2026 08:49 19,1 °C 91 % 1017,2 hPa 0,0 l/m² 1,6 km/h (1 Bft) W 270 ° 0 min 0,000 mm 0,0 UV-I 67 W/m² 17,6 °C 19,1 °C 1,6 km/h (1 Bft) 95,65 %
31.08.2026 08:48 19,1 °C 92 % 1017,2 hPa 0,0 l/m² 1,6 km/h (1 Bft) W 270 ° 0 min 0,000 mm 0,0 UV-I 65 W/m² 17,8 °C 19,1 °C 3,2 km/h (1 Bft) 95,65 %
31.08.2026 08:47 19,1 °C 92 % 1017,2 hPa 0,0 l/m² 1,6 km/h (1 Bft) W 270 ° 0 min 0,000 mm 0,0 UV-I 63 W/m² 17,8 °C 19,1 °C 4,8 km/h (1 Bft) 100,00 %
31.08.2026 08:46 19,1 °C 92 % 1017,3 hPa 0,0 l/m² 0,0 km/h (0 Bft) W 270 ° 0 min 0,000 mm 0,0 UV-I 63 W/m² 17,8 °C 19,1 °C 3,2 km/h (1 Bft) 95,65 %
31.08.2026 08:45 19,0 °C 93 % 1017,2 hPa 0,0 l/m² 0,0 km/h (0 Bft) W 270 ° 0 min 0,000 mm 0,0 UV-I 63 W/m² 17,8 °C 19,0 °C 1,6 km/h (1 Bft) 95,65 %
31.08.2026 08:44 19,1 °C 93 % 1017,2 hPa 0,0 l/m² 0,0 km/h (0 Bft) W 270 ° 0 min 0,000 mm 0,0 UV-I 63 W/m² 17,9 °C 19,1 °C 1,6 km/h (1 Bft) 91,30 %
31.08.2026 08:43 19,0 °C 93 % 1017,2 hPa 0,0 l/m² 0,0 km/h (0 Bft) W 270 ° 0 min 0,000 mm 0,0 UV-I 63 W/m² 17,8 °C 19,0 °C 1,6 km/h (1 Bft) 100,00 %
31.08.2026 08:42 19,0 °C 93 % 1017,2 hPa 0,0 l/m² 0,0 km/h (0 Bft) N 0 ° 0 min 0,000 mm 0,0 UV-I 62 W/m² 17,8 °C 19,0 °C 0,0 km/h (0 Bft) 100,00 %
31.08.2026 08:41 18,9 °C 92 % 1017,2 hPa 0,0 l/m² 0,0 km/h (0 Bft) W 270 ° 0 min 0,000 mm 0,0 UV-I 62 W/m² 17,6 °C 18,9 °C 1,6 km/h (1 Bft) 91,30 %
31.08.2026 08:40 18,9 °C 92 % 1017,3 hPa 0,0 l/m² 0,0 km/h (0 Bft) W 270 ° 0 min 0,000 mm 0,0 UV-I 62 W/m² 17,6 °C 18,9 °C 3,2 km/h (1 Bft) 100,00 %
31.08.2026 08:39 18,9 °C 92 % 1017,2 hPa 0,0 l/m² 3,2 km/h (1 Bft) W 270 ° 0 min 0,000 mm 0,0 UV-I 60 W/m² 17,6 °C 18,9 °C 4,8 km/h (1 Bft) 91,30 %
31.08.2026 08:38 18,9 °C 93 % 1017,3 hPa 0,0 l/m² 1,6 km/h (1 Bft) W 270 ° 0 min 0,000 mm 0,0 UV-I 58 W/m² 17,7 °C 18,9 °C 9,7 km/h (2 Bft) 95,65 %
31.08.2026 08:37 18,9 °C 93 % 1017,3 hPa 0,0 l/m² 0,0 km/h (0 Bft) W 270 ° 0 min 0,000 mm 0,0 UV-I 56 W/m² 17,7 °C 18,9 °C 1,6 km/h (1 Bft) 95,65 %
31.08.2026 08:36 18,8 °C 93 % 1017,3 hPa 0,0 l/m² 1,6 km/h (1 Bft) W 270 ° 0 min 0,000 mm 0,0 UV-I 54 W/m² 17,6 °C 18,8 °C 4,8 km/h (1 Bft) 95,65 %
31.08.2026 08:35 18,9 °C 93 % 1017,3 hPa 0,0 l/m² 1,6 km/h (1 Bft) W 270 ° 0 min 0,000 mm 0,0 UV-I 56 W/m² 17,7 °C 18,9 °C 6,4 km/h (2 Bft) 100,00 %
31.08.2026 08:34 18,9 °C 93 % 1017,3 hPa 0,0 l/m² 1,6 km/h (1 Bft) W 270 ° 0 min 0,000 mm 0,0 UV-I 54 W/m² 17,7 °C 18,9 °C 3,2 km/h (1 Bft) 100,00 %
31.08.2026 08:33 18,9 °C 93 % 1017,2 hPa 0,0 l/m² 0,0 km/h (0 Bft) W 270 ° 0 min 0,000 mm 0,0 UV-I 54 W/m² 17,7 °C 18,9 °C 3,2 km/h (1 Bft) 95,65 %
31.08.2026 08:32 18,9 °C 93 % 1017,3 hPa 0,0 l/m² 0,0 km/h (0 Bft) W 270 ° 0 min 0,000 mm 0,0 UV-I 54 W/m² 17,7 °C 18,9 °C 3,2 km/h (1 Bft) 100,00 %
31.08.2026 08:31 18,9 °C 93 % 1017,3 hPa 0,0 l/m² 1,6 km/h (1 Bft) W 270 ° 0 min 0,000 mm 0,0 UV-I 51 W/m² 17,7 °C 18,9 °C 3,2 km/h (1 Bft) 95,65 %
31.08.2026 08:30 18,9 °C 93 % 1017,3 hPa 0,0 l/m² 0,0 km/h (0 Bft) N 0 ° 0 min 0,000 mm 0,0 UV-I 49 W/m² 17,7 °C 18,9 °C 0,0 km/h (0 Bft) 95,65 %
31.08.2026 08:29 18,9 °C 93 % 1017,3 hPa 0,0 l/m² 0,0 km/h (0 Bft) W 270 ° 0 min 0,000 mm 0,0 UV-I 46 W/m² 17,7 °C 18,9 °C 1,6 km/h (1 Bft) 100,00 %
31.08.2026 08:28 18,9 °C 93 % 1017,3 hPa 0,0 l/m² 0,0 km/h (0 Bft) W 270 ° 0 min 0,000 mm 0,0 UV-I 46 W/m² 17,7 °C 18,9 °C 1,6 km/h (1 Bft) 100,00 %
31.08.2026 08:27 18,9 °C 93 % 1017,3 hPa 0,0 l/m² 0,0 km/h (0 Bft) W 270 ° 0 min 0,000 mm 0,0 UV-I 47 W/m² 17,7 °C 18,9 °C 3,2 km/h (1 Bft) 95,65 %
31.08.2026 08:26 18,9 °C 93 % 1017,3 hPa 0,0 l/m² 0,0 km/h (0 Bft) W 270 ° 0 min 0,000 mm 0,0 UV-I 49 W/m² 17,7 °C 18,9 °C 1,6 km/h (1 Bft) 95,65 %
31.08.2026 08:25 18,9 °C 93 % 1017,2 hPa 0,0 l/m² 0,0 km/h (0 Bft) W 270 ° 0 min 0,000 mm 0,0 UV-I 51 W/m² 17,7 °C 18,9 °C 1,6 km/h (1 Bft) 95,65 %
31.08.2026 08:24 18,9 °C 93 % 1017,3 hPa 0,0 l/m² 1,6 km/h (1 Bft) W 270 ° 0 min 0,000 mm 0,0 UV-I 49 W/m² 17,7 °C 18,9 °C 3,2 km/h (1 Bft) 95,65 %
31.08.2026 08:23 18,9 °C 93 % 1017,3 hPa 0,0 l/m² 1,6 km/h (1 Bft) W 270 ° 0 min 0,000 mm 0,0 UV-I 47 W/m² 17,7 °C 18,9 °C 3,2 km/h (1 Bft) 95,65 %
31.08.2026 08:22 18,9 °C 93 % 1017,3 hPa 0,0 l/m² 0,0 km/h (0 Bft) W 270 ° 0 min 0,000 mm 0,0 UV-I 42 W/m² 17,7 °C 18,9 °C 1,6 km/h (1 Bft) 95,65 %
31.08.2026 08:21 18,9 °C 93 % 1017,3 hPa 0,0 l/m² 1,6 km/h (1 Bft) W 270 ° 0 min 0,000 mm 0,0 UV-I 39 W/m² 17,7 °C 18,9 °C 3,2 km/h (1 Bft) 100,00 %
31.08.2026 08:20 18,9 °C 93 % 1017,3 hPa 0,0 l/m² 1,6 km/h (1 Bft) W 270 ° 0 min 0,000 mm 0,0 UV-I 33 W/m² 17,7 °C 18,9 °C 3,2 km/h (1 Bft) 95,65 %
31.08.2026 08:19 18,9 °C 93 % 1017,2 hPa 0,0 l/m² 1,6 km/h (1 Bft) W 270 ° 0 min 0,000 mm 0,0 UV-I 30 W/m² 17,7 °C 18,9 °C 3,2 km/h (1 Bft) 100,00 %
31.08.2026 08:18 18,9 °C 93 % 1017,2 hPa 0,0 l/m² 1,6 km/h (1 Bft) W 270 ° 0 min 0,000 mm 0,0 UV-I 28 W/m² 17,7 °C 18,9 °C 6,4 km/h (2 Bft) 91,30 %
31.08.2026 08:17 18,9 °C 93 % 1017,1 hPa 0,0 l/m² 1,6 km/h (1 Bft) W 270 ° 0 min 0,000 mm 0,0 UV-I 26 W/m² 17,7 °C 18,9 °C 1,6 km/h (1 Bft) 91,30 %
31.08.2026 08:16 18,9 °C 93 % 1017,1 hPa 0,0 l/m² 1,6 km/h (1 Bft) W 270 ° 0 min 0,000 mm 0,0 UV-I 28 W/m² 17,7 °C 18,9 °C 4,8 km/h (1 Bft) 95,65 %
31.08.2026 08:15 18,9 °C 93 % 1017,1 hPa 0,0 l/m² 0,0 km/h (0 Bft) W-SW 247 ° 0 min 0,000 mm 0,0 UV-I 30 W/m² 17,7 °C 18,9 °C 1,6 km/h (1 Bft) 95,65 %
31.08.2026 08:14 18,9 °C 93 % 1017,1 hPa 0,0 l/m² 3,2 km/h (1 Bft) W-SW 247 ° 0 min 0,000 mm 0,0 UV-I 32 W/m² 17,7 °C 18,9 °C 6,4 km/h (2 Bft) 100,00 %
31.08.2026 08:13 18,9 °C 93 % 1017,0 hPa 0,0 l/m² 3,2 km/h (1 Bft) W 270 ° 0 min 0,000 mm 0,0 UV-I 35 W/m² 17,7 °C 18,9 °C 6,4 km/h (2 Bft) 95,65 %
31.08.2026 08:12 18,9 °C 94 % 1017,0 hPa 0,0 l/m² 1,6 km/h (1 Bft) W 270 ° 0 min 0,000 mm 0,0 UV-I 35 W/m² 17,9 °C 18,9 °C 3,2 km/h (1 Bft) 100,00 %
31.08.2026 08:11 18,9 °C 94 % 1017,0 hPa 0,0 l/m² 0,0 km/h (0 Bft) W 270 ° 0 min 0,000 mm 0,0 UV-I 37 W/m² 17,9 °C 18,9 °C 3,2 km/h (1 Bft) 95,65 %
31.08.2026 08:10 18,9 °C 94 % 1016,9 hPa 0,0 l/m² 0,0 km/h (0 Bft) W 270 ° 0 min 0,000 mm 0,0 UV-I 39 W/m² 17,9 °C 18,9 °C 1,6 km/h (1 Bft) 95,65 %
31.08.2026 08:09 18,9 °C 94 % 1016,8 hPa 0,0 l/m² 1,6 km/h (1 Bft) W 270 ° 0 min 0,000 mm 0,0 UV-I 39 W/m² 17,9 °C 18,9 °C 1,6 km/h (1 Bft) 95,65 %
31.08.2026 08:08 18,9 °C 94 % 1016,9 hPa 0,0 l/m² 4,8 km/h (1 Bft) W 270 ° 0 min 0,000 mm 0,0 UV-I 37 W/m² 17,9 °C 18,9 °C 11,3 km/h (2 Bft) 91,30 %
31.08.2026 08:07 18,9 °C 94 % 1016,8 hPa 0,0 l/m² 3,2 km/h (1 Bft) SW 225 ° 0 min 0,000 mm 0,0 UV-I 37 W/m² 17,9 °C 18,9 °C 11,3 km/h (2 Bft) 100,00 %
31.08.2026 08:06 18,9 °C 94 % 1016,8 hPa 0,0 l/m² 1,6 km/h (1 Bft) W-SW 247 ° 0 min 0,000 mm 0,0 UV-I 35 W/m² 17,9 °C 18,9 °C 1,6 km/h (1 Bft) 95,65 %
31.08.2026 08:05 18,9 °C 95 % 1016,8 hPa 0,0 l/m² 3,2 km/h (1 Bft) W-SW 247 ° 0 min 0,000 mm 0,0 UV-I 35 W/m² 18,1 °C 18,9 °C 8,0 km/h (2 Bft) 100,00 %
31.08.2026 08:04 18,9 °C 95 % 1016,8 hPa 0,0 l/m² 1,6 km/h (1 Bft) W-SW 247 ° 0 min 0,000 mm 0,0 UV-I 35 W/m² 18,1 °C 18,9 °C 11,3 km/h (2 Bft) 95,65 %
31.08.2026 08:03 18,9 °C 95 % 1016,8 hPa 0,0 l/m² 0,0 km/h (0 Bft) W-SW 247 ° 0 min 0,000 mm 0,0 UV-I 35 W/m² 18,1 °C 18,9 °C 3,2 km/h (1 Bft) 95,65 %
31.08.2026 08:02 18,9 °C 95 % 1016,8 hPa 0,0 l/m² 1,6 km/h (1 Bft) SW 225 ° 0 min 0,000 mm 0,0 UV-I 35 W/m² 18,1 °C 18,9 °C 3,2 km/h (1 Bft) 95,65 %
31.08.2026 08:01 18,9 °C 95 % 1016,8 hPa 0,0 l/m² 3,2 km/h (1 Bft) SW 225 ° 0 min 0,000 mm 0,0 UV-I 35 W/m² 18,1 °C 18,9 °C 6,4 km/h (2 Bft) 95,65 %
31.08.2026 08:00 18,9 °C 95 % 1016,8 hPa 0,0 l/m² 4,8 km/h (1 Bft) S-SW 202 ° 0 min 0,025 mm 0,0 UV-I 37 W/m² 18,1 °C 18,9 °C 8,0 km/h (2 Bft) 100,00 %
31.08.2026 07:59 18,9 °C 96 % 1016,8 hPa 0,0 l/m² 3,2 km/h (1 Bft) W-SW 247 ° 0 min 0,000 mm 0,0 UV-I 39 W/m² 18,2 °C 18,9 °C 9,7 km/h (2 Bft) 100,00 %
31.08.2026 07:58 18,9 °C 96 % 1016,8 hPa 0,0 l/m² 4,8 km/h (1 Bft) W-SW 247 ° 0 min 0,000 mm 0,0 UV-I 40 W/m² 18,2 °C 18,9 °C 14,5 km/h (3 Bft) 100,00 %
31.08.2026 07:57 19,0 °C 96 % 1016,8 hPa 0,0 l/m² 3,2 km/h (1 Bft) W-NW 292 ° 0 min 0,000 mm 0,0 UV-I 44 W/m² 18,3 °C 19,0 °C 6,4 km/h (2 Bft) 100,00 %
31.08.2026 07:56 18,9 °C 96 % 1016,8 hPa 0,0 l/m² 1,6 km/h (1 Bft) W 270 ° 0 min 0,000 mm 0,0 UV-I 51 W/m² 18,2 °C 18,9 °C 3,2 km/h (1 Bft) 91,30 %
31.08.2026 07:55 18,9 °C 96 % 1016,8 hPa 0,0 l/m² 4,8 km/h (1 Bft) S-SW 202 ° 0 min 0,000 mm 0,0 UV-I 51 W/m² 18,2 °C 18,9 °C 6,4 km/h (2 Bft) 95,65 %
31.08.2026 07:54 18,9 °C 96 % 1016,7 hPa 0,0 l/m² 3,2 km/h (1 Bft) W-SW 247 ° 0 min 0,000 mm 0,0 UV-I 51 W/m² 18,2 °C 18,9 °C 9,7 km/h (2 Bft) 100,00 %
31.08.2026 07:53 18,9 °C 96 % 1016,7 hPa 0,0 l/m² 3,2 km/h (1 Bft) SW 225 ° 0 min 0,000 mm 0,0 UV-I 56 W/m² 18,2 °C 18,9 °C 4,8 km/h (1 Bft) 100,00 %
31.08.2026 07:52 18,9 °C 96 % 1016,6 hPa 0,0 l/m² 1,6 km/h (1 Bft) S-SW 202 ° 0 min 0,000 mm 0,0 UV-I 74 W/m² 18,2 °C 18,9 °C 3,2 km/h (1 Bft) 100,00 %
31.08.2026 07:51 18,9 °C 97 % 1016,6 hPa 0,0 l/m² 1,6 km/h (1 Bft) SW 225 ° 0 min 0,000 mm 0,0 UV-I 141 W/m² 18,4 °C 18,9 °C 3,2 km/h (1 Bft) 95,65 %
31.08.2026 07:50 18,9 °C 97 % 1016,5 hPa 0,0 l/m² 1,6 km/h (1 Bft) SW 225 ° 0 min 0,000 mm 0,0 UV-I 65 W/m² 18,4 °C 18,9 °C 3,2 km/h (1 Bft) 100,00 %
31.08.2026 07:49 18,9 °C 97 % 1016,4 hPa 0,0 l/m² 1,6 km/h (1 Bft) SW 225 ° 0 min 0,000 mm 0,0 UV-I 69 W/m² 18,4 °C 18,9 °C 4,8 km/h (1 Bft) 91,30 %
31.08.2026 07:48 18,9 °C 97 % 1016,4 hPa 0,0 l/m² 1,6 km/h (1 Bft) SW 225 ° 0 min 0,000 mm 0,0 UV-I 93 W/m² 18,4 °C 18,9 °C 4,8 km/h (1 Bft) 100,00 %
31.08.2026 07:47 18,9 °C 97 % 1016,4 hPa 0,0 l/m² 1,6 km/h (1 Bft) SW 225 ° 0 min 0,000 mm 0,0 UV-I 63 W/m² 18,4 °C 18,9 °C 3,2 km/h (1 Bft) 95,65 %
31.08.2026 07:46 18,9 °C 97 % 1016,3 hPa 0,0 l/m² 0,0 km/h (0 Bft) SW 225 ° 0 min 0,000 mm 0,0 UV-I 65 W/m² 18,4 °C 18,9 °C 1,6 km/h (1 Bft) 100,00 %
31.08.2026 07:45 18,8 °C 97 % 1016,2 hPa 0,0 l/m² 1,6 km/h (1 Bft) SW 225 ° 0 min 0,000 mm 0,0 UV-I 69 W/m² 18,3 °C 18,8 °C 1,6 km/h (1 Bft) 95,65 %
31.08.2026 07:44 18,8 °C 97 % 1016,1 hPa 0,0 l/m² 0,0 km/h (0 Bft) SW 225 ° 0 min 0,000 mm 0,0 UV-I 69 W/m² 18,3 °C 18,8 °C 1,6 km/h (1 Bft) 100,00 %
31.08.2026 07:43 18,7 °C 97 % 1016,0 hPa 0,0 l/m² 1,6 km/h (1 Bft) SW 225 ° 0 min 0,000 mm 0,0 UV-I 69 W/m² 18,2 °C 18,7 °C 1,6 km/h (1 Bft) 95,65 %
31.08.2026 07:42 18,7 °C 97 % 1016,1 hPa 0,0 l/m² 0,0 km/h (0 Bft) SW 225 ° 0 min 0,000 mm 0,0 UV-I 67 W/m² 18,2 °C 18,7 °C 1,6 km/h (1 Bft) 95,65 %
31.08.2026 07:41 18,7 °C 97 % 1016,1 hPa 0,0 l/m² 1,6 km/h (1 Bft) SW 225 ° 0 min 0,000 mm 0,0 UV-I 65 W/m² 18,2 °C 18,7 °C 1,6 km/h (1 Bft) 95,65 %
31.08.2026 07:40 18,6 °C 97 % 1016,1 hPa 0,0 l/m² 1,6 km/h (1 Bft) SW 225 ° 0 min 0,000 mm 0,0 UV-I 63 W/m² 18,1 °C 18,6 °C 1,6 km/h (1 Bft) 95,65 %
31.08.2026 07:39 18,6 °C 97 % 1016,2 hPa 0,0 l/m² 1,6 km/h (1 Bft) SW 225 ° 0 min 0,000 mm 0,0 UV-I 60 W/m² 18,1 °C 18,6 °C 1,6 km/h (1 Bft) 100,00 %
31.08.2026 07:38 18,6 °C 97 % 1016,1 hPa 0,0 l/m² 1,6 km/h (1 Bft) SW 225 ° 0 min 0,000 mm 0,0 UV-I 54 W/m² 18,1 °C 18,6 °C 4,8 km/h (1 Bft) 95,65 %
31.08.2026 07:37 18,6 °C 97 % 1016,2 hPa 0,0 l/m² 0,0 km/h (0 Bft) SW 225 ° 0 min 0,000 mm 0,0 UV-I 51 W/m² 18,1 °C 18,6 °C 1,6 km/h (1 Bft) 100,00 %
31.08.2026 07:36 18,6 °C 97 % 1016,2 hPa 0,0 l/m² 0,0 km/h (0 Bft) SW 225 ° 0 min 0,000 mm 0,0 UV-I 46 W/m² 18,1 °C 18,6 °C 1,6 km/h (1 Bft) 91,30 %
31.08.2026 07:35 18,6 °C 97 % 1016,2 hPa 0,0 l/m² 1,6 km/h (1 Bft) SW 225 ° 0 min 0,000 mm 0,0 UV-I 42 W/m² 18,1 °C 18,6 °C 3,2 km/h (1 Bft) 95,65 %
31.08.2026 07:34 18,5 °C 97 % 1016,3 hPa 0,0 l/m² 0,0 km/h (0 Bft) N 0 ° 0 min 0,000 mm 0,0 UV-I 39 W/m² 18,0 °C 18,5 °C 0,0 km/h (0 Bft) 95,65 %
31.08.2026 07:33 18,5 °C 97 % 1016,3 hPa 0,0 l/m² 0,0 km/h (0 Bft) N 0 ° 0 min 0,000 mm 0,0 UV-I 37 W/m² 18,0 °C 18,5 °C 0,0 km/h (0 Bft) 91,30 %
31.08.2026 07:32 18,5 °C 97 % 1016,3 hPa 0,0 l/m² 0,0 km/h (0 Bft) N 0 ° 0 min 0,000 mm 0,0 UV-I 35 W/m² 18,0 °C 18,5 °C 0,0 km/h (0 Bft) 95,65 %
31.08.2026 07:31 18,4 °C 97 % 1016,3 hPa 0,0 l/m² 1,6 km/h (1 Bft) SW 225 ° 0 min 0,000 mm 0,0 UV-I 32 W/m² 17,9 °C 18,4 °C 3,2 km/h (1 Bft) 95,65 %
31.08.2026 07:30 18,4 °C 97 % 1016,3 hPa 0,0 l/m² 0,0 km/h (0 Bft) SW 225 ° 0 min 0,000 mm 0,0 UV-I 28 W/m² 17,9 °C 18,4 °C 1,6 km/h (1 Bft) 100,00 %
31.08.2026 07:29 18,4 °C 97 % 1016,3 hPa 0,0 l/m² 1,6 km/h (1 Bft) SW 225 ° 0 min 0,000 mm 0,0 UV-I 25 W/m² 17,9 °C 18,4 °C 3,2 km/h (1 Bft) 95,65 %
31.08.2026 07:28 18,4 °C 97 % 1016,3 hPa 0,0 l/m² 1,6 km/h (1 Bft) SW 225 ° 0 min 0,000 mm 0,0 UV-I 23 W/m² 17,9 °C 18,4 °C 4,8 km/h (1 Bft) 95,65 %
31.08.2026 07:27 18,4 °C 97 % 1016,3 hPa 0,0 l/m² 1,6 km/h (1 Bft) SW 225 ° 0 min 0,000 mm 0,0 UV-I 21 W/m² 17,9 °C 18,4 °C 3,2 km/h (1 Bft) 91,30 %
31.08.2026 07:26 18,4 °C 97 % 1016,3 hPa 0,0 l/m² 3,2 km/h (1 Bft) W-SW 247 ° 0 min 0,000 mm 0,0 UV-I 16 W/m² 17,9 °C 18,4 °C 4,8 km/h (1 Bft) 95,65 %
31.08.2026 07:25 18,4 °C 97 % 1016,4 hPa 0,0 l/m² 1,6 km/h (1 Bft) W-SW 247 ° 0 min 0,000 mm 0,0 UV-I 14 W/m² 17,9 °C 18,4 °C 4,8 km/h (1 Bft) 100,00 %
31.08.2026 07:24 18,4 °C 97 % 1016,5 hPa 0,0 l/m² 3,2 km/h (1 Bft) W-SW 247 ° 0 min 0,000 mm 0,0 UV-I 12 W/m² 17,9 °C 18,4 °C 6,4 km/h (2 Bft) 95,65 %
31.08.2026 07:23 18,4 °C 98 % 1016,5 hPa 0,0 l/m² 1,6 km/h (1 Bft) W-SW 247 ° 0 min 0,000 mm 0,0 UV-I 12 W/m² 18,1 °C 18,4 °C 3,2 km/h (1 Bft) 100,00 %
31.08.2026 07:22 18,4 °C 98 % 1016,4 hPa 0,0 l/m² 3,2 km/h (1 Bft) W 270 ° 0 min 0,000 mm 0,0 UV-I 16 W/m² 18,1 °C 18,4 °C 6,4 km/h (2 Bft) 95,65 %
31.08.2026 07:21 18,3 °C 98 % 1016,1 hPa 0,0 l/m² 1,6 km/h (1 Bft) W-SW 247 ° 0 min 0,000 mm 0,0 UV-I 18 W/m² 18,0 °C 18,3 °C 4,8 km/h (1 Bft) 100,00 %
31.08.2026 07:20 18,3 °C 97 % 1016,1 hPa 0,0 l/m² 1,6 km/h (1 Bft) S-SW 202 ° 0 min 0,000 mm 0,0 UV-I 14 W/m² 17,8 °C 18,3 °C 3,2 km/h (1 Bft) 91,30 %
31.08.2026 07:19 18,3 °C 97 % 1016,2 hPa 0,0 l/m² 1,6 km/h (1 Bft) S-SW 202 ° 0 min 0,000 mm 0,0 UV-I 11 W/m² 17,8 °C 18,3 °C 6,4 km/h (2 Bft) 100,00 %
31.08.2026 07:18 18,3 °C 97 % 1016,3 hPa 0,0 l/m² 3,2 km/h (1 Bft) S-SW 202 ° 0 min 0,000 mm 0,0 UV-I 7 W/m² 17,8 °C 18,3 °C 6,4 km/h (2 Bft) 100,00 %
31.08.2026 07:17 18,3 °C 98 % 1016,2 hPa 0,0 l/m² 6,4 km/h (2 Bft) W-SW 247 ° 0 min 0,000 mm 0,0 UV-I 5 W/m² 18,0 °C 18,3 °C 12,9 km/h (3 Bft) 95,65 %
31.08.2026 07:16 18,3 °C 97 % 1016,4 hPa 0,0 l/m² 4,8 km/h (1 Bft) S-SW 202 ° 0 min 0,000 mm 0,0 UV-I 0 W/m² 17,8 °C 18,3 °C 16,1 km/h (3 Bft) 100,00 %
31.08.2026 07:15 18,3 °C 97 % 1016,3 hPa 0,0 l/m² 4,8 km/h (1 Bft) W 270 ° 0 min 0,000 mm 0,0 UV-I 0 W/m² 17,8 °C 18,3 °C 14,5 km/h (3 Bft) 100,00 %
31.08.2026 07:14 18,3 °C 97 % 1015,7 hPa 0,0 l/m² 4,8 km/h (1 Bft) S-SW 202 ° 0 min 0,000 mm 0,0 UV-I 5 W/m² 17,8 °C 18,3 °C 14,5 km/h (3 Bft) 95,65 %
31.08.2026 07:13 18,2 °C 97 % 1015,1 hPa 0,0 l/m² 4,8 km/h (1 Bft) W 270 ° 0 min 0,000 mm 0,0 UV-I 5 W/m² 17,7 °C 18,2 °C 9,7 km/h (2 Bft) 95,65 %
31.08.2026 07:12 18,2 °C 97 % 1014,7 hPa 0,0 l/m² 3,2 km/h (1 Bft) W-NW 292 ° 0 min 0,000 mm 0,0 UV-I 5 W/m² 17,7 °C 18,2 °C 6,4 km/h (2 Bft) 95,65 %
31.08.2026 07:11 18,2 °C 97 % 1014,6 hPa 0,0 l/m² 1,6 km/h (1 Bft) W-NW 292 ° 0 min 0,000 mm 0,0 UV-I 7 W/m² 17,7 °C 18,2 °C 3,2 km/h (1 Bft) 95,65 %
31.08.2026 07:10 18,2 °C 97 % 1014,5 hPa 0,0 l/m² 1,6 km/h (1 Bft) W-NW 292 ° 0 min 0,000 mm 0,0 UV-I 7 W/m² 17,7 °C 18,2 °C 3,2 km/h (1 Bft) 95,65 %
31.08.2026 07:09 18,2 °C 97 % 1014,4 hPa 0,0 l/m² 1,6 km/h (1 Bft) W-NW 292 ° 0 min 0,000 mm 0,0 UV-I 7 W/m² 17,7 °C 18,2 °C 3,2 km/h (1 Bft) 91,30 %
31.08.2026 07:08 18,2 °C 97 % 1014,4 hPa 0,0 l/m² 1,6 km/h (1 Bft) W-NW 292 ° 0 min 0,000 mm 0,0 UV-I 9 W/m² 17,7 °C 18,2 °C 3,2 km/h (1 Bft) 100,00 %
31.08.2026 07:07 18,2 °C 97 % 1014,3 hPa 0,0 l/m² 0,0 km/h (0 Bft) W-NW 292 ° 0 min 0,000 mm 0,0 UV-I 11 W/m² 17,7 °C 18,2 °C 1,6 km/h (1 Bft) 95,65 %
31.08.2026 07:06 18,2 °C 97 % 1014,3 hPa 0,0 l/m² 0,0 km/h (0 Bft) N 0 ° 0 min 0,000 mm 0,0 UV-I 11 W/m² 17,7 °C 18,2 °C 0,0 km/h (0 Bft) 91,30 %
31.08.2026 07:05 18,2 °C 97 % 1014,3 hPa 0,0 l/m² 0,0 km/h (0 Bft) N 0 ° 0 min 0,000 mm 0,0 UV-I 11 W/m² 17,7 °C 18,2 °C 0,0 km/h (0 Bft) 95,65 %
31.08.2026 07:04 18,2 °C 97 % 1014,2 hPa 0,0 l/m² 0,0 km/h (0 Bft) W-NW 292 ° 0 min 0,000 mm 0,0 UV-I 11 W/m² 17,7 °C 18,2 °C 1,6 km/h (1 Bft) 100,00 %
31.08.2026 07:03 18,2 °C 97 % 1014,1 hPa 0,0 l/m² 0,0 km/h (0 Bft) W-NW 292 ° 0 min 0,000 mm 0,0 UV-I 9 W/m² 17,7 °C 18,2 °C 1,6 km/h (1 Bft) 95,65 %
31.08.2026 07:02 18,2 °C 97 % 1014,2 hPa 0,0 l/m² 0,0 km/h (0 Bft) W-NW 292 ° 0 min 0,000 mm 0,0 UV-I 9 W/m² 17,7 °C 18,2 °C 1,6 km/h (1 Bft) 95,65 %
31.08.2026 07:01 18,2 °C 97 % 1014,2 hPa 0,0 l/m² 1,6 km/h (1 Bft) W-NW 292 ° 0 min 0,000 mm 0,0 UV-I 9 W/m² 17,7 °C 18,2 °C 3,2 km/h (1 Bft) 100,00 %
31.08.2026 07:00 18,2 °C 97 % 1014,4 hPa 0,0 l/m² 1,6 km/h (1 Bft) W-NW 292 ° 0 min 0,000 mm 0,0 UV-I 9 W/m² 17,7 °C 18,2 °C 3,2 km/h (1 Bft) 95,65 %
31.08.2026 06:59 18,2 °C 97 % 1014,4 hPa 0,0 l/m² 0,0 km/h (0 Bft) W-NW 292 ° 0 min 0,000 mm 0,0 UV-I 7 W/m² 17,7 °C 18,2 °C 1,6 km/h (1 Bft) 91,30 %
31.08.2026 06:58 18,2 °C 97 % 1014,5 hPa 0,0 l/m² 0,0 km/h (0 Bft) W-NW 292 ° 0 min 0,000 mm 0,0 UV-I 7 W/m² 17,7 °C 18,2 °C 1,6 km/h (1 Bft) 95,65 %
31.08.2026 06:57 18,2 °C 97 % 1014,5 hPa 0,0 l/m² 0,0 km/h (0 Bft) W-NW 292 ° 0 min 0,000 mm 0,0 UV-I 7 W/m² 17,7 °C 18,2 °C 1,6 km/h (1 Bft) 95,65 %
31.08.2026 06:56 18,2 °C 97 % 1014,6 hPa 0,0 l/m² 0,0 km/h (0 Bft) N 0 ° 0 min 0,000 mm 0,0 UV-I 7 W/m² 17,7 °C 18,2 °C 0,0 km/h (0 Bft) 95,65 %
31.08.2026 06:55 18,2 °C 97 % 1014,7 hPa 0,0 l/m² 0,0 km/h (0 Bft) N 0 ° 0 min 0,000 mm 0,0 UV-I 7 W/m² 17,7 °C 18,2 °C 0,0 km/h (0 Bft) 95,65 %
31.08.2026 06:54 18,2 °C 97 % 1014,7 hPa 0,0 l/m² 0,0 km/h (0 Bft) N 0 ° 0 min 0,000 mm 0,0 UV-I 7 W/m² 17,7 °C 18,2 °C 0,0 km/h (0 Bft) 95,65 %
31.08.2026 06:53 18,2 °C 97 % 1014,8 hPa 0,0 l/m² 0,0 km/h (0 Bft) N 0 ° 0 min 0,000 mm 0,0 UV-I 7 W/m² 17,7 °C 18,2 °C 0,0 km/h (0 Bft) 95,65 %
31.08.2026 06:52 18,2 °C 97 % 1014,8 hPa 0,0 l/m² 0,0 km/h (0 Bft) N 0 ° 0 min 0,000 mm 0,0 UV-I 7 W/m² 17,7 °C 18,2 °C 0,0 km/h (0 Bft) 91,30 %
31.08.2026 06:51 18,2 °C 97 % 1014,8 hPa 0,0 l/m² 0,0 km/h (0 Bft) N 0 ° 0 min 0,000 mm 0,0 UV-I 7 W/m² 17,7 °C 18,2 °C 0,0 km/h (0 Bft) 100,00 %
31.08.2026 06:50 18,1 °C 97 % 1014,9 hPa 0,0 l/m² 0,0 km/h (0 Bft) N 0 ° 0 min 0,000 mm 0,0 UV-I 7 W/m² 17,6 °C 18,1 °C 0,0 km/h (0 Bft) 100,00 %
31.08.2026 06:49 18,1 °C 97 % 1014,8 hPa 0,0 l/m² 0,0 km/h (0 Bft) W-NW 292 ° 0 min 0,000 mm 0,0 UV-I 5 W/m² 17,6 °C 18,1 °C 1,6 km/h (1 Bft) 95,65 %
31.08.2026 06:48 18,1 °C 97 % 1014,9 hPa 0,0 l/m² 0,0 km/h (0 Bft) W-NW 292 ° 0 min 0,000 mm 0,0 UV-I 5 W/m² 17,6 °C 18,1 °C 1,6 km/h (1 Bft) 91,30 %
31.08.2026 06:47 18,1 °C 97 % 1014,8 hPa 0,0 l/m² 0,0 km/h (0 Bft) W-NW 292 ° 0 min 0,000 mm 0,0 UV-I 5 W/m² 17,6 °C 18,1 °C 1,6 km/h (1 Bft) 100,00 %
31.08.2026 06:46 18,0 °C 97 % 1014,8 hPa 0,0 l/m² 0,0 km/h (0 Bft) W-NW 292 ° 0 min 0,000 mm 0,0 UV-I 0 W/m² 17,5 °C 18,0 °C 1,6 km/h (1 Bft) 95,65 %
31.08.2026 06:45 18,0 °C 97 % 1014,8 hPa 0,0 l/m² 1,6 km/h (1 Bft) W-NW 292 ° 0 min 0,000 mm 0,0 UV-I 0 W/m² 17,5 °C 18,0 °C 1,6 km/h (1 Bft) 91,30 %
31.08.2026 06:44 18,0 °C 97 % 1014,7 hPa 0,0 l/m² 0,0 km/h (0 Bft) W-NW 292 ° 0 min 0,000 mm 0,0 UV-I 0 W/m² 17,5 °C 18,0 °C 1,6 km/h (1 Bft) 100,00 %
31.08.2026 06:43 17,9 °C 97 % 1014,8 hPa 0,0 l/m² 0,0 km/h (0 Bft) N 0 ° 0 min 0,000 mm 0,0 UV-I 0 W/m² 17,4 °C 17,9 °C 0,0 km/h (0 Bft) 100,00 %
31.08.2026 06:42 18,0 °C 97 % 1014,8 hPa 0,0 l/m² 0,0 km/h (0 Bft) N 0 ° 0 min 0,000 mm 0,0 UV-I 0 W/m² 17,5 °C 18,0 °C 0,0 km/h (0 Bft) 95,65 %
31.08.2026 06:41 18,0 °C 97 % 1014,7 hPa 0,0 l/m² 0,0 km/h (0 Bft) N 0 ° 0 min 0,000 mm 0,0 UV-I 0 W/m² 17,5 °C 18,0 °C 0,0 km/h (0 Bft) 100,00 %
31.08.2026 06:40 18,0 °C 97 % 1014,6 hPa 0,0 l/m² 0,0 km/h (0 Bft) N 0 ° 0 min 0,000 mm 0,0 UV-I 0 W/m² 17,5 °C 18,0 °C 0,0 km/h (0 Bft) 95,65 %
31.08.2026 06:39 18,0 °C 97 % 1014,7 hPa 0,0 l/m² 0,0 km/h (0 Bft) N 0 ° 0 min 0,000 mm 0,0 UV-I 0 W/m² 17,5 °C 18,0 °C 0,0 km/h (0 Bft) 95,65 %
31.08.2026 06:38 18,0 °C 97 % 1014,6 hPa 0,0 l/m² 0,0 km/h (0 Bft) N 0 ° 0 min 0,000 mm 0,0 UV-I 0 W/m² 17,5 °C 18,0 °C 0,0 km/h (0 Bft) 95,65 %
31.08.2026 06:37 18,0 °C 97 % 1014,6 hPa 0,0 l/m² 0,0 km/h (0 Bft) N 0 ° 0 min 0,000 mm 0,0 UV-I 0 W/m² 17,5 °C 18,0 °C 0,0 km/h (0 Bft) 100,00 %
31.08.2026 06:36 18,0 °C 97 % 1014,6 hPa 0,0 l/m² 0,0 km/h (0 Bft) N 0 ° 0 min 0,000 mm 0,0 UV-I 0 W/m² 17,5 °C 18,0 °C 0,0 km/h (0 Bft) 95,65 %
31.08.2026 06:35 18,0 °C 97 % 1014,6 hPa 0,0 l/m² 0,0 km/h (0 Bft) N 0 ° 0 min 0,000 mm 0,0 UV-I 0 W/m² 17,5 °C 18,0 °C 0,0 km/h (0 Bft) 95,65 %
31.08.2026 06:34 18,0 °C 97 % 1014,6 hPa 0,0 l/m² 0,0 km/h (0 Bft) N 0 ° 0 min 0,000 mm 0,0 UV-I 0 W/m² 17,5 °C 18,0 °C 0,0 km/h (0 Bft) 91,30 %
31.08.2026 06:33 18,1 °C 97 % 1014,5 hPa 0,0 l/m² 0,0 km/h (0 Bft) N 0 ° 0 min 0,000 mm 0,0 UV-I 0 W/m² 17,6 °C 18,1 °C 0,0 km/h (0 Bft) 100,00 %
31.08.2026 06:32 18,1 °C 97 % 1014,5 hPa 0,0 l/m² 0,0 km/h (0 Bft) W-NW 292 ° 0 min 0,000 mm 0,0 UV-I 0 W/m² 17,6 °C 18,1 °C 1,6 km/h (1 Bft) 95,65 %
31.08.2026 06:31 18,1 °C 97 % 1014,5 hPa 0,0 l/m² 0,0 km/h (0 Bft) W-NW 292 ° 0 min 0,000 mm 0,0 UV-I 0 W/m² 17,6 °C 18,1 °C 1,6 km/h (1 Bft) 95,65 %
31.08.2026 06:30 18,2 °C 97 % 1014,5 hPa 0,0 l/m² 0,0 km/h (0 Bft) W-NW 292 ° 0 min 0,000 mm 0,0 UV-I 0 W/m² 17,7 °C 18,2 °C 1,6 km/h (1 Bft) 95,65 %
31.08.2026 06:29 18,2 °C 97 % 1014,5 hPa 0,0 l/m² 0,0 km/h (0 Bft) W-NW 292 ° 0 min 0,000 mm 0,0 UV-I 0 W/m² 17,7 °C 18,2 °C 1,6 km/h (1 Bft) 100,00 %
31.08.2026 06:28 18,2 °C 97 % 1014,5 hPa 0,0 l/m² 0,0 km/h (0 Bft) N 0 ° 0 min 0,000 mm 0,0 UV-I 0 W/m² 17,7 °C 18,2 °C 0,0 km/h (0 Bft) 91,30 %
31.08.2026 06:27 18,2 °C 97 % 1014,5 hPa 0,0 l/m² 0,0 km/h (0 Bft) N 0 ° 0 min 0,000 mm 0,0 UV-I 0 W/m² 17,7 °C 18,2 °C 0,0 km/h (0 Bft) 91,30 %
31.08.2026 06:26 18,2 °C 97 % 1014,5 hPa 0,0 l/m² 0,0 km/h (0 Bft) N 0 ° 0 min 0,000 mm 0,0 UV-I 0 W/m² 17,7 °C 18,2 °C 0,0 km/h (0 Bft) 100,00 %
31.08.2026 06:25 18,2 °C 97 % 1014,4 hPa 0,0 l/m² 0,0 km/h (0 Bft) N 0 ° 0 min 0,000 mm 0,0 UV-I 0 W/m² 17,7 °C 18,2 °C 0,0 km/h (0 Bft) 95,65 %
31.08.2026 06:24 18,2 °C 97 % 1014,4 hPa 0,0 l/m² 0,0 km/h (0 Bft) N 0 ° 0 min 0,000 mm 0,0 UV-I 0 W/m² 17,7 °C 18,2 °C 0,0 km/h (0 Bft) 95,65 %
31.08.2026 06:23 18,2 °C 97 % 1014,4 hPa 0,0 l/m² 0,0 km/h (0 Bft) N 0 ° 0 min 0,000 mm 0,0 UV-I 0 W/m² 17,7 °C 18,2 °C 0,0 km/h (0 Bft) 95,65 %
31.08.2026 06:22 18,2 °C 97 % 1014,3 hPa 0,0 l/m² 0,0 km/h (0 Bft) N 0 ° 0 min 0,000 mm 0,0 UV-I 0 W/m² 17,7 °C 18,2 °C 0,0 km/h (0 Bft) 95,65 %
31.08.2026 06:21 18,2 °C 97 % 1014,3 hPa 0,0 l/m² 0,0 km/h (0 Bft) W-NW 292 ° 0 min 0,000 mm 0,0 UV-I 0 W/m² 17,7 °C 18,2 °C 1,6 km/h (1 Bft) 95,65 %
31.08.2026 06:20 18,2 °C 97 % 1014,4 hPa 0,0 l/m² 0,0 km/h (0 Bft) W-NW 292 ° 0 min 0,000 mm 0,0 UV-I 0 W/m² 17,7 °C 18,2 °C 1,6 km/h (1 Bft) 95,65 %
31.08.2026 06:19 18,2 °C 97 % 1014,3 hPa 0,0 l/m² 0,0 km/h (0 Bft) W-NW 292 ° 0 min 0,000 mm 0,0 UV-I 0 W/m² 17,7 °C 18,2 °C 1,6 km/h (1 Bft) 100,00 %
31.08.2026 06:18 18,2 °C 97 % 1014,4 hPa 0,0 l/m² 1,6 km/h (1 Bft) W-NW 292 ° 0 min 0,000 mm 0,0 UV-I 0 W/m² 17,7 °C 18,2 °C 1,6 km/h (1 Bft) 95,65 %
31.08.2026 06:17 18,1 °C 97 % 1014,3 hPa 0,0 l/m² 0,0 km/h (0 Bft) W-NW 292 ° 0 min 0,000 mm 0,0 UV-I 0 W/m² 17,6 °C 18,1 °C 1,6 km/h (1 Bft) 95,65 %
31.08.2026 06:16 18,1 °C 96 % 1014,3 hPa 0,0 l/m² 0,0 km/h (0 Bft) N 0 ° 0 min 0,000 mm 0,0 UV-I 0 W/m² 17,5 °C 18,1 °C 0,0 km/h (0 Bft) 95,65 %
31.08.2026 06:15 18,1 °C 96 % 1014,4 hPa 0,0 l/m² 0,0 km/h (0 Bft) N 0 ° 0 min 0,000 mm 0,0 UV-I 0 W/m² 17,5 °C 18,1 °C 0,0 km/h (0 Bft) 100,00 %
31.08.2026 06:14 18,1 °C 96 % 1014,3 hPa 0,0 l/m² 0,0 km/h (0 Bft) N 0 ° 0 min 0,000 mm 0,0 UV-I 0 W/m² 17,5 °C 18,1 °C 0,0 km/h (0 Bft) 95,65 %
31.08.2026 06:13 18,2 °C 96 % 1014,3 hPa 0,0 l/m² 0,0 km/h (0 Bft) N 0 ° 0 min 0,000 mm 0,0 UV-I 0 W/m² 17,6 °C 18,2 °C 0,0 km/h (0 Bft) 95,65 %
31.08.2026 06:12 18,2 °C 96 % 1014,3 hPa 0,0 l/m² 0,0 km/h (0 Bft) N 0 ° 0 min 0,000 mm 0,0 UV-I 0 W/m² 17,6 °C 18,2 °C 0,0 km/h (0 Bft) 95,65 %
31.08.2026 06:11 18,2 °C 96 % 1014,3 hPa 0,0 l/m² 0,0 km/h (0 Bft) N 0 ° 0 min 0,000 mm 0,0 UV-I 0 W/m² 17,6 °C 18,2 °C 0,0 km/h (0 Bft) 95,65 %
31.08.2026 06:10 18,2 °C 96 % 1014,3 hPa 0,0 l/m² 0,0 km/h (0 Bft) N 0 ° 0 min 0,000 mm 0,0 UV-I 0 W/m² 17,6 °C 18,2 °C 0,0 km/h (0 Bft) 95,65 %
31.08.2026 06:09 18,3 °C 96 % 1014,3 hPa 0,0 l/m² 0,0 km/h (0 Bft) N 0 ° 0 min 0,000 mm 0,0 UV-I 0 W/m² 17,6 °C 18,3 °C 0,0 km/h (0 Bft) 95,65 %
31.08.2026 06:08 18,3 °C 96 % 1014,3 hPa 0,0 l/m² 0,0 km/h (0 Bft) N 0 ° 0 min 0,000 mm 0,0 UV-I 0 W/m² 17,6 °C 18,3 °C 0,0 km/h (0 Bft) 95,65 %
31.08.2026 06:07 18,3 °C 96 % 1014,3 hPa 0,0 l/m² 0,0 km/h (0 Bft) N 0 ° 0 min 0,000 mm 0,0 UV-I 0 W/m² 17,6 °C 18,3 °C 0,0 km/h (0 Bft) 100,00 %
31.08.2026 06:06 18,3 °C 96 % 1014,3 hPa 0,0 l/m² 0,0 km/h (0 Bft) N 0 ° 0 min 0,000 mm 0,0 UV-I 0 W/m² 17,6 °C 18,3 °C 0,0 km/h (0 Bft) 100,00 %
31.08.2026 06:05 18,3 °C 96 % 1014,2 hPa 0,0 l/m² 0,0 km/h (0 Bft) N 0 ° 0 min 0,000 mm 0,0 UV-I 0 W/m² 17,6 °C 18,3 °C 0,0 km/h (0 Bft) 95,65 %
31.08.2026 06:04 18,3 °C 96 % 1014,2 hPa 0,0 l/m² 0,0 km/h (0 Bft) N 0 ° 0 min 0,000 mm 0,0 UV-I 0 W/m² 17,6 °C 18,3 °C 0,0 km/h (0 Bft) 95,65 %
31.08.2026 06:03 18,3 °C 96 % 1014,2 hPa 0,0 l/m² 0,0 km/h (0 Bft) W-NW 292 ° 0 min 0,000 mm 0,0 UV-I 0 W/m² 17,6 °C 18,3 °C 1,6 km/h (1 Bft) 95,65 %
31.08.2026 06:02 18,3 °C 97 % 1014,2 hPa 0,0 l/m² 1,6 km/h (1 Bft) W-NW 292 ° 0 min 0,000 mm 0,0 UV-I 0 W/m² 17,8 °C 18,3 °C 1,6 km/h (1 Bft) 100,00 %
31.08.2026 06:01 18,3 °C 97 % 1014,2 hPa 0,0 l/m² 0,0 km/h (0 Bft) W-NW 292 ° 0 min 0,000 mm 0,0 UV-I 0 W/m² 17,8 °C 18,3 °C 1,6 km/h (1 Bft) 100,00 %
31.08.2026 06:00 18,3 °C 97 % 1014,4 hPa 0,0 l/m² 0,0 km/h (0 Bft) W-NW 292 ° 0 min 0,000 mm 0,0 UV-I 0 W/m² 17,8 °C 18,3 °C 1,6 km/h (1 Bft) 100,00 %
31.08.2026 05:59 18,3 °C 97 % 1014,4 hPa 0,0 l/m² 0,0 km/h (0 Bft) W-NW 292 ° 0 min 0,000 mm 0,0 UV-I 0 W/m² 17,8 °C 18,3 °C 1,6 km/h (1 Bft) 100,00 %
31.08.2026 05:58 18,3 °C 97 % 1014,4 hPa 0,0 l/m² 1,6 km/h (1 Bft) W-NW 292 ° 0 min 0,000 mm 0,0 UV-I 0 W/m² 17,8 °C 18,3 °C 3,2 km/h (1 Bft) 100,00 %
31.08.2026 05:57 18,3 °C 97 % 1014,5 hPa 0,0 l/m² 1,6 km/h (1 Bft) W-NW 292 ° 0 min 0,000 mm 0,0 UV-I 0 W/m² 17,8 °C 18,3 °C 1,6 km/h (1 Bft) 95,65 %
31.08.2026 05:56 18,3 °C 97 % 1014,5 hPa 0,0 l/m² 0,0 km/h (0 Bft) W-NW 292 ° 0 min 0,000 mm 0,0 UV-I 0 W/m² 17,8 °C 18,3 °C 1,6 km/h (1 Bft) 91,30 %
31.08.2026 05:55 18,3 °C 97 % 1014,5 hPa 0,0 l/m² 0,0 km/h (0 Bft) N 0 ° 0 min 0,000 mm 0,0 UV-I 0 W/m² 17,8 °C 18,3 °C 0,0 km/h (0 Bft) 95,65 %
31.08.2026 05:54 18,3 °C 97 % 1014,4 hPa 0,0 l/m² 0,0 km/h (0 Bft) W-NW 292 ° 0 min 0,000 mm 0,0 UV-I 0 W/m² 17,8 °C 18,3 °C 1,6 km/h (1 Bft) 95,65 %
31.08.2026 05:53 18,3 °C 97 % 1014,4 hPa 0,0 l/m² 1,6 km/h (1 Bft) W-NW 292 ° 0 min 0,000 mm 0,0 UV-I 0 W/m² 17,8 °C 18,3 °C 3,2 km/h (1 Bft) 100,00 %
31.08.2026 05:52 18,3 °C 97 % 1014,4 hPa 0,0 l/m² 1,6 km/h (1 Bft) W-NW 292 ° 0 min 0,000 mm 0,0 UV-I 0 W/m² 17,8 °C 18,3 °C 3,2 km/h (1 Bft) 95,65 %
31.08.2026 05:51 18,3 °C 97 % 1014,3 hPa 0,0 l/m² 0,0 km/h (0 Bft) N 0 ° 0 min 0,000 mm 0,0 UV-I 0 W/m² 17,8 °C 18,3 °C 0,0 km/h (0 Bft) 100,00 %
31.08.2026 05:50 18,3 °C 97 % 1014,3 hPa 0,0 l/m² 0,0 km/h (0 Bft) N 0 ° 0 min 0,000 mm 0,0 UV-I 0 W/m² 17,8 °C 18,3 °C 0,0 km/h (0 Bft) 95,65 %
31.08.2026 05:49 18,3 °C 97 % 1014,2 hPa 0,0 l/m² 0,0 km/h (0 Bft) N 0 ° 0 min 0,000 mm 0,0 UV-I 0 W/m² 17,8 °C 18,3 °C 0,0 km/h (0 Bft) 95,65 %
31.08.2026 05:48 18,3 °C 97 % 1014,2 hPa 0,0 l/m² 0,0 km/h (0 Bft) N 0 ° 0 min 0,000 mm 0,0 UV-I 0 W/m² 17,8 °C 18,3 °C 0,0 km/h (0 Bft) 95,65 %
31.08.2026 05:47 18,3 °C 97 % 1014,2 hPa 0,0 l/m² 0,0 km/h (0 Bft) N 0 ° 0 min 0,000 mm 0,0 UV-I 0 W/m² 17,8 °C 18,3 °C 0,0 km/h (0 Bft) 95,65 %
31.08.2026 05:46 18,3 °C 97 % 1014,2 hPa 0,0 l/m² 0,0 km/h (0 Bft) W-NW 292 ° 0 min 0,000 mm 0,0 UV-I 0 W/m² 17,8 °C 18,3 °C 1,6 km/h (1 Bft) 100,00 %
31.08.2026 05:45 18,2 °C 97 % 1014,2 hPa 0,0 l/m² 0,0 km/h (0 Bft) N 0 ° 0 min 0,000 mm 0,0 UV-I 0 W/m² 17,7 °C 18,2 °C 0,0 km/h (0 Bft) 95,65 %
31.08.2026 05:44 18,2 °C 97 % 1014,3 hPa 0,0 l/m² 0,0 km/h (0 Bft) W-NW 292 ° 0 min 0,000 mm 0,0 UV-I 0 W/m² 17,7 °C 18,2 °C 1,6 km/h (1 Bft) 100,00 %
31.08.2026 05:43 18,2 °C 97 % 1014,3 hPa 0,0 l/m² 0,0 km/h (0 Bft) W-NW 292 ° 0 min 0,000 mm 0,0 UV-I 0 W/m² 17,7 °C 18,2 °C 1,6 km/h (1 Bft) 91,30 %
31.08.2026 05:42 18,2 °C 97 % 1014,3 hPa 0,0 l/m² 0,0 km/h (0 Bft) W-NW 292 ° 0 min 0,000 mm 0,0 UV-I 0 W/m² 17,7 °C 18,2 °C 1,6 km/h (1 Bft) 95,65 %
31.08.2026 05:41 18,1 °C 97 % 1014,4 hPa 0,0 l/m² 0,0 km/h (0 Bft) W-NW 292 ° 0 min 0,000 mm 0,0 UV-I 0 W/m² 17,6 °C 18,1 °C 1,6 km/h (1 Bft) 95,65 %
31.08.2026 05:40 18,2 °C 97 % 1014,3 hPa 0,0 l/m² 0,0 km/h (0 Bft) W-NW 292 ° 0 min 0,000 mm 0,0 UV-I 0 W/m² 17,7 °C 18,2 °C 1,6 km/h (1 Bft) 95,65 %
31.08.2026 05:39 18,2 °C 97 % 1014,3 hPa 0,0 l/m² 0,0 km/h (0 Bft) W-NW 292 ° 0 min 0,000 mm 0,0 UV-I 0 W/m² 17,7 °C 18,2 °C 1,6 km/h (1 Bft) 100,00 %
31.08.2026 05:38 18,1 °C 96 % 1014,3 hPa 0,0 l/m² 0,0 km/h (0 Bft) W-NW 292 ° 0 min 0,000 mm 0,0 UV-I 0 W/m² 17,5 °C 18,1 °C 1,6 km/h (1 Bft) 91,30 %
31.08.2026 05:37 18,1 °C 96 % 1014,3 hPa 0,0 l/m² 1,6 km/h (1 Bft) W-NW 292 ° 0 min 0,000 mm 0,0 UV-I 0 W/m² 17,5 °C 18,1 °C 1,6 km/h (1 Bft) 100,00 %
31.08.2026 05:36 18,1 °C 96 % 1014,4 hPa 0,0 l/m² 0,0 km/h (0 Bft) W-NW 292 ° 0 min 0,000 mm 0,0 UV-I 0 W/m² 17,5 °C 18,1 °C 1,6 km/h (1 Bft) 100,00 %
31.08.2026 05:35 18,1 °C 96 % 1014,3 hPa 0,0 l/m² 0,0 km/h (0 Bft) N 0 ° 0 min 0,000 mm 0,0 UV-I 0 W/m² 17,5 °C 18,1 °C 0,0 km/h (0 Bft) 95,65 %
31.08.2026 05:34 18,1 °C 96 % 1014,3 hPa 0,0 l/m² 0,0 km/h (0 Bft) N 0 ° 0 min 0,000 mm 0,0 UV-I 0 W/m² 17,5 °C 18,1 °C 0,0 km/h (0 Bft) 91,30 %
31.08.2026 05:33 18,1 °C 96 % 1014,3 hPa 0,0 l/m² 0,0 km/h (0 Bft) N 0 ° 0 min 0,000 mm 0,0 UV-I 0 W/m² 17,5 °C 18,1 °C 0,0 km/h (0 Bft) 91,30 %
31.08.2026 05:32 18,1 °C 96 % 1014,3 hPa 0,0 l/m² 0,0 km/h (0 Bft) N 0 ° 0 min 0,000 mm 0,0 UV-I 0 W/m² 17,5 °C 18,1 °C 0,0 km/h (0 Bft) 100,00 %
31.08.2026 05:31 18,1 °C 96 % 1014,2 hPa 0,0 l/m² 0,0 km/h (0 Bft) N 0 ° 0 min 0,000 mm 0,0 UV-I 0 W/m² 17,5 °C 18,1 °C 0,0 km/h (0 Bft) 91,30 %
31.08.2026 05:30 18,1 °C 96 % 1014,3 hPa 0,0 l/m² 0,0 km/h (0 Bft) N 0 ° 0 min 0,000 mm 0,0 UV-I 0 W/m² 17,5 °C 18,1 °C 0,0 km/h (0 Bft) 91,30 %
31.08.2026 05:29 18,1 °C 96 % 1014,3 hPa 0,0 l/m² 0,0 km/h (0 Bft) N 0 ° 0 min 0,000 mm 0,0 UV-I 0 W/m² 17,5 °C 18,1 °C 0,0 km/h (0 Bft) 100,00 %
31.08.2026 05:28 18,1 °C 96 % 1014,3 hPa 0,0 l/m² 0,0 km/h (0 Bft) N 0 ° 0 min 0,000 mm 0,0 UV-I 0 W/m² 17,5 °C 18,1 °C 0,0 km/h (0 Bft) 95,65 %
31.08.2026 05:27 18,1 °C 96 % 1014,3 hPa 0,0 l/m² 0,0 km/h (0 Bft) N 0 ° 0 min 0,000 mm 0,0 UV-I 0 W/m² 17,5 °C 18,1 °C 0,0 km/h (0 Bft) 100,00 %
31.08.2026 05:26 18,1 °C 96 % 1014,3 hPa 0,0 l/m² 0,0 km/h (0 Bft) N 0 ° 0 min 0,000 mm 0,0 UV-I 0 W/m² 17,5 °C 18,1 °C 0,0 km/h (0 Bft) 100,00 %
31.08.2026 05:25 18,1 °C 96 % 1014,2 hPa 0,0 l/m² 0,0 km/h (0 Bft) N 0 ° 0 min 0,000 mm 0,0 UV-I 0 W/m² 17,5 °C 18,1 °C 0,0 km/h (0 Bft) 95,65 %
31.08.2026 05:24 18,2 °C 96 % 1014,3 hPa 0,0 l/m² 0,0 km/h (0 Bft) N 0 ° 0 min 0,000 mm 0,0 UV-I 0 W/m² 17,6 °C 18,2 °C 0,0 km/h (0 Bft) 100,00 %
31.08.2026 05:23 18,1 °C 96 % 1014,3 hPa 0,0 l/m² 0,0 km/h (0 Bft) N 0 ° 0 min 0,000 mm 0,0 UV-I 0 W/m² 17,5 °C 18,1 °C 0,0 km/h (0 Bft) 100,00 %
31.08.2026 05:22 18,1 °C 96 % 1014,3 hPa 0,0 l/m² 0,0 km/h (0 Bft) W-NW 292 ° 0 min 0,000 mm 0,0 UV-I 0 W/m² 17,5 °C 18,1 °C 1,6 km/h (1 Bft) 100,00 %
31.08.2026 05:21 18,1 °C 96 % 1014,3 hPa 0,0 l/m² 0,0 km/h (0 Bft) W-NW 292 ° 0 min 0,000 mm 0,0 UV-I 0 W/m² 17,5 °C 18,1 °C 1,6 km/h (1 Bft) 91,30 %
31.08.2026 05:20 18,1 °C 96 % 1014,4 hPa 0,0 l/m² 0,0 km/h (0 Bft) N 0 ° 0 min 0,000 mm 0,0 UV-I 0 W/m² 17,5 °C 18,1 °C 0,0 km/h (0 Bft) 100,00 %
31.08.2026 05:19 18,2 °C 96 % 1014,4 hPa 0,0 l/m² 0,0 km/h (0 Bft) N 0 ° 0 min 0,000 mm 0,0 UV-I 0 W/m² 17,6 °C 18,2 °C 0,0 km/h (0 Bft) 95,65 %
31.08.2026 05:18 18,2 °C 96 % 1014,3 hPa 0,0 l/m² 0,0 km/h (0 Bft) N 0 ° 0 min 0,000 mm 0,0 UV-I 0 W/m² 17,6 °C 18,2 °C 0,0 km/h (0 Bft) 100,00 %
31.08.2026 05:17 18,2 °C 96 % 1014,3 hPa 0,0 l/m² 0,0 km/h (0 Bft) N 0 ° 0 min 0,000 mm 0,0 UV-I 0 W/m² 17,6 °C 18,2 °C 0,0 km/h (0 Bft) 91,30 %
31.08.2026 05:16 18,2 °C 96 % 1014,3 hPa 0,0 l/m² 0,0 km/h (0 Bft) N 0 ° 0 min 0,000 mm 0,0 UV-I 0 W/m² 17,6 °C 18,2 °C 0,0 km/h (0 Bft) 100,00 %
31.08.2026 05:15 18,2 °C 96 % 1014,4 hPa 0,0 l/m² 0,0 km/h (0 Bft) N 0 ° 0 min 0,000 mm 0,0 UV-I 0 W/m² 17,6 °C 18,2 °C 0,0 km/h (0 Bft) 95,65 %
31.08.2026 05:14 18,2 °C 96 % 1014,4 hPa 0,0 l/m² 0,0 km/h (0 Bft) N 0 ° 0 min 0,000 mm 0,0 UV-I 0 W/m² 17,6 °C 18,2 °C 0,0 km/h (0 Bft) 91,30 %
31.08.2026 05:13 18,2 °C 96 % 1014,4 hPa 0,0 l/m² 0,0 km/h (0 Bft) W-NW 292 ° 0 min 0,000 mm 0,0 UV-I 0 W/m² 17,6 °C 18,2 °C 1,6 km/h (1 Bft) 95,65 %
31.08.2026 05:12 18,2 °C 96 % 1014,4 hPa 0,0 l/m² 0,0 km/h (0 Bft) W-NW 292 ° 0 min 0,000 mm 0,0 UV-I 0 W/m² 17,6 °C 18,2 °C 1,6 km/h (1 Bft) 91,30 %
31.08.2026 05:11 18,2 °C 96 % 1014,5 hPa 0,0 l/m² 1,6 km/h (1 Bft) W-NW 292 ° 0 min 0,000 mm 0,0 UV-I 0 W/m² 17,6 °C 18,2 °C 1,6 km/h (1 Bft) 100,00 %
31.08.2026 05:10 18,2 °C 96 % 1014,5 hPa 0,0 l/m² 1,6 km/h (1 Bft) W-NW 292 ° 0 min 0,000 mm 0,0 UV-I 0 W/m² 17,6 °C 18,2 °C 3,2 km/h (1 Bft) 95,65 %
31.08.2026 05:09 18,2 °C 96 % 1014,5 hPa 0,0 l/m² 1,6 km/h (1 Bft) W-NW 292 ° 0 min 0,000 mm 0,0 UV-I 0 W/m² 17,6 °C 18,2 °C 3,2 km/h (1 Bft) 95,65 %
31.08.2026 05:08 18,2 °C 96 % 1014,4 hPa 0,0 l/m² 0,0 km/h (0 Bft) W-NW 292 ° 0 min 0,000 mm 0,0 UV-I 0 W/m² 17,6 °C 18,2 °C 1,6 km/h (1 Bft) 95,65 %
31.08.2026 05:07 18,2 °C 96 % 1014,5 hPa 0,0 l/m² 1,6 km/h (1 Bft) W-NW 292 ° 0 min 0,000 mm 0,0 UV-I 0 W/m² 17,6 °C 18,2 °C 3,2 km/h (1 Bft) 91,30 %
31.08.2026 05:06 18,2 °C 96 % 1014,5 hPa 0,0 l/m² 1,6 km/h (1 Bft) W-NW 292 ° 0 min 0,000 mm 0,0 UV-I 0 W/m² 17,6 °C 18,2 °C 3,2 km/h (1 Bft) 100,00 %
31.08.2026 05:05 18,2 °C 96 % 1014,6 hPa 0,0 l/m² 1,6 km/h (1 Bft) W-NW 292 ° 0 min 0,000 mm 0,0 UV-I 0 W/m² 17,6 °C 18,2 °C 3,2 km/h (1 Bft) 91,30 %
31.08.2026 05:04 18,2 °C 96 % 1014,6 hPa 0,2 l/m² 1,6 km/h (1 Bft) W-NW 292 ° 0 min 0,000 mm 0,0 UV-I 0 W/m² 17,6 °C 18,2 °C 3,2 km/h (1 Bft) 95,65 %
31.08.2026 05:03 18,3 °C 96 % 1014,7 hPa 0,0 l/m² 0,0 km/h (0 Bft) N 0 ° 0 min 0,000 mm 0,0 UV-I 0 W/m² 17,6 °C 18,3 °C 0,0 km/h (0 Bft) 91,30 %
31.08.2026 05:02 18,3 °C 96 % 1014,7 hPa 0,0 l/m² 0,0 km/h (0 Bft) N 0 ° 0 min 0,000 mm 0,0 UV-I 0 W/m² 17,6 °C 18,3 °C 0,0 km/h (0 Bft) 100,00 %
31.08.2026 05:01 18,3 °C 96 % 1014,8 hPa 0,0 l/m² 0,0 km/h (0 Bft) W-NW 292 ° 0 min 0,000 mm 0,0 UV-I 0 W/m² 17,6 °C 18,3 °C 1,6 km/h (1 Bft) 91,30 %
31.08.2026 05:00 18,3 °C 96 % 1014,8 hPa 0,0 l/m² 0,0 km/h (0 Bft) W-NW 292 ° 0 min 0,000 mm 0,0 UV-I 0 W/m² 17,6 °C 18,3 °C 1,6 km/h (1 Bft) 95,65 %
31.08.2026 04:59 18,3 °C 96 % 1014,8 hPa 0,0 l/m² 1,6 km/h (1 Bft) W-NW 292 ° 0 min 0,000 mm 0,0 UV-I 0 W/m² 17,6 °C 18,3 °C 3,2 km/h (1 Bft) 100,00 %
31.08.2026 04:58 18,3 °C 96 % 1014,8 hPa 0,0 l/m² 3,2 km/h (1 Bft) W-NW 292 ° 0 min 0,000 mm 0,0 UV-I 0 W/m² 17,6 °C 18,3 °C 3,2 km/h (1 Bft) 95,65 %
31.08.2026 04:57 18,3 °C 96 % 1014,8 hPa 0,0 l/m² 1,6 km/h (1 Bft) W-NW 292 ° 0 min 0,000 mm 0,0 UV-I 0 W/m² 17,6 °C 18,3 °C 3,2 km/h (1 Bft) 95,65 %
31.08.2026 04:56 18,4 °C 96 % 1014,9 hPa 0,0 l/m² 1,6 km/h (1 Bft) W-NW 292 ° 0 min 0,000 mm 0,0 UV-I 0 W/m² 17,7 °C 18,4 °C 3,2 km/h (1 Bft) 95,65 %
31.08.2026 04:55 18,4 °C 96 % 1014,8 hPa 0,0 l/m² 0,0 km/h (0 Bft) W-NW 292 ° 0 min 0,000 mm 0,0 UV-I 0 W/m² 17,7 °C 18,4 °C 1,6 km/h (1 Bft) 95,65 %
31.08.2026 04:54 18,4 °C 96 % 1014,9 hPa 0,0 l/m² 0,0 km/h (0 Bft) W-NW 292 ° 0 min 0,000 mm 0,0 UV-I 0 W/m² 17,7 °C 18,4 °C 1,6 km/h (1 Bft) 91,30 %
31.08.2026 04:53 18,4 °C 95 % 1014,8 hPa 0,0 l/m² 1,6 km/h (1 Bft) W-NW 292 ° 0 min 0,000 mm 0,0 UV-I 0 W/m² 17,6 °C 18,4 °C 3,2 km/h (1 Bft) 95,65 %
31.08.2026 04:52 18,4 °C 95 % 1014,9 hPa 0,0 l/m² 3,2 km/h (1 Bft) W-NW 292 ° 0 min 0,000 mm 0,0 UV-I 0 W/m² 17,6 °C 18,4 °C 4,8 km/h (1 Bft) 100,00 %
31.08.2026 04:51 18,4 °C 95 % 1014,9 hPa 0,0 l/m² 3,2 km/h (1 Bft) W-NW 292 ° 0 min 0,000 mm 0,0 UV-I 0 W/m² 17,6 °C 18,4 °C 4,8 km/h (1 Bft) 95,65 %
31.08.2026 04:50 18,4 °C 95 % 1015,0 hPa 0,0 l/m² 1,6 km/h (1 Bft) W-NW 292 ° 0 min 0,000 mm 0,0 UV-I 0 W/m² 17,6 °C 18,4 °C 3,2 km/h (1 Bft) 100,00 %
31.08.2026 04:49 18,3 °C 95 % 1015,0 hPa 0,0 l/m² 1,6 km/h (1 Bft) W-NW 292 ° 0 min 0,000 mm 0,0 UV-I 0 W/m² 17,5 °C 18,3 °C 1,6 km/h (1 Bft) 100,00 %
31.08.2026 04:48 18,3 °C 95 % 1015,0 hPa 0,0 l/m² 0,0 km/h (0 Bft) W-NW 292 ° 0 min 0,000 mm 0,0 UV-I 0 W/m² 17,5 °C 18,3 °C 1,6 km/h (1 Bft) 95,65 %
31.08.2026 04:47 18,3 °C 95 % 1015,0 hPa 0,0 l/m² 1,6 km/h (1 Bft) W-NW 292 ° 0 min 0,000 mm 0,0 UV-I 0 W/m² 17,5 °C 18,3 °C 3,2 km/h (1 Bft) 95,65 %
31.08.2026 04:46 18,3 °C 95 % 1015,0 hPa 0,0 l/m² 1,6 km/h (1 Bft) W-NW 292 ° 0 min 0,000 mm 0,0 UV-I 0 W/m² 17,5 °C 18,3 °C 3,2 km/h (1 Bft) 95,65 %
31.08.2026 04:45 18,4 °C 95 % 1015,0 hPa 0,0 l/m² 1,6 km/h (1 Bft) W-NW 292 ° 0 min 0,000 mm 0,0 UV-I 0 W/m² 17,6 °C 18,4 °C 3,2 km/h (1 Bft) 100,00 %
31.08.2026 04:44 18,4 °C 95 % 1014,8 hPa 0,2 l/m² 0,0 km/h (0 Bft) W-NW 292 ° 0 min 0,000 mm 0,0 UV-I 0 W/m² 17,6 °C 18,4 °C 3,2 km/h (1 Bft) 100,00 %
31.08.2026 04:43 18,3 °C 95 % 1014,8 hPa 0,0 l/m² 0,0 km/h (0 Bft) W-NW 292 ° 0 min 0,000 mm 0,0 UV-I 0 W/m² 17,5 °C 18,3 °C 1,6 km/h (1 Bft) 100,00 %
31.08.2026 04:42 18,3 °C 95 % 1014,8 hPa 0,0 l/m² 1,6 km/h (1 Bft) W-NW 292 ° 0 min 0,000 mm 0,0 UV-I 0 W/m² 17,5 °C 18,3 °C 3,2 km/h (1 Bft) 95,65 %
31.08.2026 04:41 18,3 °C 95 % 1014,8 hPa 0,0 l/m² 1,6 km/h (1 Bft) W-NW 292 ° 0 min 0,000 mm 0,0 UV-I 0 W/m² 17,5 °C 18,3 °C 3,2 km/h (1 Bft) 95,65 %
31.08.2026 04:40 18,3 °C 95 % 1014,8 hPa 0,0 l/m² 3,2 km/h (1 Bft) W-NW 292 ° 0 min 0,000 mm 0,0 UV-I 0 W/m² 17,5 °C 18,3 °C 4,8 km/h (1 Bft) 100,00 %
31.08.2026 04:39 18,3 °C 95 % 1014,8 hPa 0,0 l/m² 3,2 km/h (1 Bft) W-NW 292 ° 0 min 0,000 mm 0,0 UV-I 0 W/m² 17,5 °C 18,3 °C 4,8 km/h (1 Bft) 91,30 %
31.08.2026 04:38 18,3 °C 95 % 1014,9 hPa 0,0 l/m² 3,2 km/h (1 Bft) W-NW 292 ° 0 min 0,000 mm 0,0 UV-I 0 W/m² 17,5 °C 18,3 °C 4,8 km/h (1 Bft) 100,00 %
31.08.2026 04:37 18,4 °C 95 % 1015,0 hPa 0,0 l/m² 0,0 km/h (0 Bft) W-NW 292 ° 0 min 0,000 mm 0,0 UV-I 0 W/m² 17,6 °C 18,4 °C 3,2 km/h (1 Bft) 95,65 %
31.08.2026 04:36 18,4 °C 95 % 1015,0 hPa 0,0 l/m² 0,0 km/h (0 Bft) N 0 ° 0 min 0,000 mm 0,0 UV-I 0 W/m² 17,6 °C 18,4 °C 0,0 km/h (0 Bft) 91,30 %
31.08.2026 04:35 18,4 °C 95 % 1015,0 hPa 0,0 l/m² 0,0 km/h (0 Bft) W-NW 292 ° 0 min 0,000 mm 0,0 UV-I 0 W/m² 17,6 °C 18,4 °C 1,6 km/h (1 Bft) 95,65 %
31.08.2026 04:34 18,4 °C 94 % 1015,0 hPa 0,2 l/m² 1,6 km/h (1 Bft) W-NW 292 ° 0 min 0,000 mm 0,0 UV-I 0 W/m² 17,4 °C 18,4 °C 1,6 km/h (1 Bft) 95,65 %
31.08.2026 04:33 18,4 °C 94 % 1015,0 hPa 0,0 l/m² 0,0 km/h (0 Bft) W-NW 292 ° 0 min 0,000 mm 0,0 UV-I 0 W/m² 17,4 °C 18,4 °C 1,6 km/h (1 Bft) 100,00 %
31.08.2026 04:32 18,5 °C 94 % 1015,1 hPa 0,0 l/m² 1,6 km/h (1 Bft) W-NW 292 ° 0 min 0,000 mm 0,0 UV-I 0 W/m² 17,5 °C 18,5 °C 1,6 km/h (1 Bft) 91,30 %
31.08.2026 04:31 18,5 °C 94 % 1015,1 hPa 0,0 l/m² 1,6 km/h (1 Bft) W-NW 292 ° 0 min 0,000 mm 0,0 UV-I 0 W/m² 17,5 °C 18,5 °C 1,6 km/h (1 Bft) 100,00 %
31.08.2026 04:30 18,6 °C 94 % 1015,2 hPa 0,0 l/m² 0,0 km/h (0 Bft) W-NW 292 ° 0 min 0,000 mm 0,0 UV-I 0 W/m² 17,6 °C 18,6 °C 1,6 km/h (1 Bft) 95,65 %
31.08.2026 04:29 18,6 °C 94 % 1015,3 hPa 0,2 l/m² 0,0 km/h (0 Bft) N 0 ° 0 min 0,000 mm 0,0 UV-I 0 W/m² 17,6 °C 18,6 °C 0,0 km/h (0 Bft) 100,00 %
31.08.2026 04:28 18,7 °C 94 % 1015,3 hPa 0,0 l/m² 0,0 km/h (0 Bft) N 0 ° 0 min 0,000 mm 0,0 UV-I 0 W/m² 17,7 °C 18,7 °C 0,0 km/h (0 Bft) 91,30 %
31.08.2026 04:27 18,7 °C 94 % 1015,3 hPa 0,2 l/m² 0,0 km/h (0 Bft) W-NW 292 ° 0 min 0,000 mm 0,0 UV-I 0 W/m² 17,7 °C 18,7 °C 1,6 km/h (1 Bft) 91,30 %
31.08.2026 04:26 18,7 °C 94 % 1015,3 hPa 0,2 l/m² 1,6 km/h (1 Bft) W-NW 292 ° 0 min 0,000 mm 0,0 UV-I 0 W/m² 17,7 °C 18,7 °C 1,6 km/h (1 Bft) 100,00 %
31.08.2026 04:25 18,7 °C 94 % 1015,2 hPa 0,0 l/m² 1,6 km/h (1 Bft) W-NW 292 ° 0 min 0,000 mm 0,0 UV-I 0 W/m² 17,7 °C 18,7 °C 1,6 km/h (1 Bft) 91,30 %
31.08.2026 04:24 18,7 °C 94 % 1015,2 hPa 0,0 l/m² 1,6 km/h (1 Bft) W-NW 292 ° 0 min 0,000 mm 0,0 UV-I 0 W/m² 17,7 °C 18,7 °C 1,6 km/h (1 Bft) 100,00 %
31.08.2026 04:23 18,7 °C 93 % 1015,1 hPa 0,0 l/m² 1,6 km/h (1 Bft) W-NW 292 ° 0 min 0,000 mm 0,0 UV-I 0 W/m² 17,5 °C 18,7 °C 3,2 km/h (1 Bft) 100,00 %
31.08.2026 04:22 18,7 °C 93 % 1015,0 hPa 0,0 l/m² 0,0 km/h (0 Bft) W-NW 292 ° 0 min 0,000 mm 0,0 UV-I 0 W/m² 17,5 °C 18,7 °C 1,6 km/h (1 Bft) 100,00 %
31.08.2026 04:21 18,7 °C 93 % 1015,1 hPa 0,0 l/m² 0,0 km/h (0 Bft) N 0 ° 0 min 0,000 mm 0,0 UV-I 0 W/m² 17,5 °C 18,7 °C 0,0 km/h (0 Bft) 95,65 %
31.08.2026 04:20 18,7 °C 93 % 1015,0 hPa 0,0 l/m² 0,0 km/h (0 Bft) W-NW 292 ° 0 min 0,000 mm 0,0 UV-I 0 W/m² 17,5 °C 18,7 °C 1,6 km/h (1 Bft) 95,65 %
31.08.2026 04:19 18,7 °C 93 % 1015,1 hPa 0,0 l/m² 1,6 km/h (1 Bft) W-NW 292 ° 0 min 0,000 mm 0,0 UV-I 0 W/m² 17,5 °C 18,7 °C 1,6 km/h (1 Bft) 100,00 %
31.08.2026 04:18 18,7 °C 92 % 1015,0 hPa 0,0 l/m² 1,6 km/h (1 Bft) W-NW 292 ° 0 min 0,000 mm 0,0 UV-I 0 W/m² 17,4 °C 18,7 °C 3,2 km/h (1 Bft) 91,30 %
31.08.2026 04:17 18,8 °C 92 % 1015,0 hPa 0,0 l/m² 1,6 km/h (1 Bft) W-NW 292 ° 0 min 0,000 mm 0,0 UV-I 0 W/m² 17,5 °C 18,8 °C 3,2 km/h (1 Bft) 100,00 %
31.08.2026 04:16 18,8 °C 92 % 1015,1 hPa 0,0 l/m² 1,6 km/h (1 Bft) W-NW 292 ° 0 min 0,000 mm 0,0 UV-I 0 W/m² 17,5 °C 18,8 °C 3,2 km/h (1 Bft) 100,00 %
31.08.2026 04:15 18,8 °C 92 % 1015,2 hPa 0,0 l/m² 1,6 km/h (1 Bft) W-NW 292 ° 0 min 0,000 mm 0,0 UV-I 0 W/m² 17,5 °C 18,8 °C 3,2 km/h (1 Bft) 95,65 %
31.08.2026 04:14 18,8 °C 92 % 1015,2 hPa 0,0 l/m² 3,2 km/h (1 Bft) W-NW 292 ° 0 min 0,000 mm 0,0 UV-I 0 W/m² 17,5 °C 18,8 °C 4,8 km/h (1 Bft) 100,00 %
31.08.2026 04:13 18,8 °C 92 % 1015,3 hPa 0,0 l/m² 3,2 km/h (1 Bft) W-NW 292 ° 0 min 0,000 mm 0,0 UV-I 0 W/m² 17,5 °C 18,8 °C 4,8 km/h (1 Bft) 100,00 %
31.08.2026 04:12 18,9 °C 92 % 1015,3 hPa 0,2 l/m² 1,6 km/h (1 Bft) W-NW 292 ° 0 min 0,000 mm 0,0 UV-I 0 W/m² 17,6 °C 18,9 °C 4,8 km/h (1 Bft) 100,00 %
31.08.2026 04:11 18,9 °C 92 % 1015,3 hPa 0,0 l/m² 3,2 km/h (1 Bft) W-NW 292 ° 0 min 0,000 mm 0,0 UV-I 0 W/m² 17,6 °C 18,9 °C 4,8 km/h (1 Bft) 95,65 %
31.08.2026 04:10 18,9 °C 92 % 1015,3 hPa 0,2 l/m² 4,8 km/h (1 Bft) W-NW 292 ° 0 min 0,000 mm 0,0 UV-I 0 W/m² 17,6 °C 18,9 °C 6,4 km/h (2 Bft) 100,00 %
31.08.2026 04:09 18,9 °C 91 % 1015,4 hPa 0,0 l/m² 3,2 km/h (1 Bft) W-NW 292 ° 0 min 0,000 mm 0,0 UV-I 0 W/m² 17,4 °C 18,9 °C 4,8 km/h (1 Bft) 95,65 %
31.08.2026 04:08 19,1 °C 91 % 1015,4 hPa 0,4 l/m² 4,8 km/h (1 Bft) W 270 ° 0 min 0,000 mm 0,0 UV-I 0 W/m² 17,6 °C 19,1 °C 6,4 km/h (2 Bft) 95,65 %
31.08.2026 04:07 19,1 °C 91 % 1015,4 hPa 0,4 l/m² 3,2 km/h (1 Bft) SW 225 ° 0 min 0,000 mm 0,0 UV-I 0 W/m² 17,6 °C 19,1 °C 9,7 km/h (2 Bft) 100,00 %
31.08.2026 04:06 19,1 °C 91 % 1015,4 hPa 0,0 l/m² 3,2 km/h (1 Bft) W 270 ° 0 min 0,000 mm 0,0 UV-I 0 W/m² 17,6 °C 19,1 °C 6,4 km/h (2 Bft) 95,65 %
31.08.2026 04:05 19,2 °C 91 % 1015,5 hPa 0,4 l/m² 4,8 km/h (1 Bft) W 270 ° 0 min 0,000 mm 0,0 UV-I 0 W/m² 17,7 °C 19,2 °C 9,7 km/h (2 Bft) 95,65 %
31.08.2026 04:04 19,2 °C 91 % 1015,6 hPa 0,6 l/m² 1,6 km/h (1 Bft) W 270 ° 0 min 0,000 mm 0,0 UV-I 0 W/m² 17,7 °C 19,2 °C 4,8 km/h (1 Bft) 86,96 %
31.08.2026 04:03 19,3 °C 90 % 1015,7 hPa 0,4 l/m² 1,6 km/h (1 Bft) W-SW 247 ° 0 min 0,000 mm 0,0 UV-I 0 W/m² 17,6 °C 19,3 °C 3,2 km/h (1 Bft) 100,00 %
31.08.2026 04:02 19,4 °C 90 % 1015,6 hPa 0,6 l/m² 1,6 km/h (1 Bft) W 270 ° 0 min 0,000 mm 0,0 UV-I 0 W/m² 17,7 °C 19,4 °C 4,8 km/h (1 Bft) 91,30 %
31.08.2026 04:01 19,4 °C 90 % 1015,5 hPa 0,4 l/m² 1,6 km/h (1 Bft) W 270 ° 0 min 0,000 mm 0,0 UV-I 0 W/m² 17,7 °C 19,4 °C 3,2 km/h (1 Bft) 95,65 %
31.08.2026 04:00 19,4 °C 90 % 1015,5 hPa 0,4 l/m² 3,2 km/h (1 Bft) W 270 ° 0 min 0,000 mm 0,0 UV-I 0 W/m² 17,7 °C 19,4 °C 4,8 km/h (1 Bft) 100,00 %
31.08.2026 03:59 19,5 °C 90 % 1015,6 hPa 0,4 l/m² 3,2 km/h (1 Bft) W 270 ° 0 min 0,000 mm 0,0 UV-I 0 W/m² 17,8 °C 19,5 °C 6,4 km/h (2 Bft) 95,65 %
31.08.2026 03:58 19,4 °C 90 % 1015,5 hPa 0,0 l/m² 1,6 km/h (1 Bft) S-SW 202 ° 0 min 0,000 mm 0,0 UV-I 0 W/m² 17,7 °C 19,4 °C 4,8 km/h (1 Bft) 95,65 %
31.08.2026 03:57 19,5 °C 90 % 1015,5 hPa 0,2 l/m² 3,2 km/h (1 Bft) W 270 ° 0 min 0,000 mm 0,0 UV-I 0 W/m² 17,8 °C 19,5 °C 9,7 km/h (2 Bft) 95,65 %
31.08.2026 03:56 19,5 °C 90 % 1015,5 hPa 0,0 l/m² 1,6 km/h (1 Bft) SW 225 ° 0 min 0,000 mm 0,0 UV-I 0 W/m² 17,8 °C 19,5 °C 3,2 km/h (1 Bft) 95,65 %
31.08.2026 03:55 19,4 °C 90 % 1015,4 hPa 0,0 l/m² 3,2 km/h (1 Bft) SW 225 ° 0 min 0,000 mm 0,0 UV-I 0 W/m² 17,7 °C 19,4 °C 6,4 km/h (2 Bft) 91,30 %
31.08.2026 03:54 19,4 °C 90 % 1015,4 hPa 0,0 l/m² 1,6 km/h (1 Bft) SW 225 ° 0 min 0,000 mm 0,0 UV-I 0 W/m² 17,7 °C 19,4 °C 4,8 km/h (1 Bft) 95,65 %
31.08.2026 03:53 19,5 °C 90 % 1015,4 hPa 0,0 l/m² 1,6 km/h (1 Bft) SW 225 ° 0 min 0,000 mm 0,0 UV-I 0 W/m² 17,8 °C 19,5 °C 3,2 km/h (1 Bft) 100,00 %
31.08.2026 03:52 19,5 °C 90 % 1015,4 hPa 0,0 l/m² 1,6 km/h (1 Bft) SW 225 ° 0 min 0,000 mm 0,0 UV-I 0 W/m² 17,8 °C 19,5 °C 1,6 km/h (1 Bft) 100,00 %
31.08.2026 03:51 19,5 °C 90 % 1015,3 hPa 0,0 l/m² 0,0 km/h (0 Bft) SW 225 ° 0 min 0,000 mm 0,0 UV-I 0 W/m² 17,8 °C 19,5 °C 1,6 km/h (1 Bft) 95,65 %
31.08.2026 03:50 19,5 °C 90 % 1015,3 hPa 0,0 l/m² 1,6 km/h (1 Bft) SW 225 ° 0 min 0,000 mm 0,0 UV-I 0 W/m² 17,8 °C 19,5 °C 1,6 km/h (1 Bft) 95,65 %
31.08.2026 03:49 19,4 °C 90 % 1015,3 hPa 0,0 l/m² 3,2 km/h (1 Bft) SW 225 ° 0 min 0,000 mm 0,0 UV-I 0 W/m² 17,7 °C 19,4 °C 4,8 km/h (1 Bft) 95,65 %
31.08.2026 03:48 19,4 °C 90 % 1015,2 hPa 0,0 l/m² 1,6 km/h (1 Bft) SW 225 ° 0 min 0,000 mm 0,0 UV-I 0 W/m² 17,7 °C 19,4 °C 3,2 km/h (1 Bft) 95,65 %
31.08.2026 03:47 19,4 °C 90 % 1015,2 hPa 0,0 l/m² 0,0 km/h (0 Bft) SW 225 ° 0 min 0,000 mm 0,0 UV-I 0 W/m² 17,7 °C 19,4 °C 3,2 km/h (1 Bft) 100,00 %
31.08.2026 03:46 19,4 °C 90 % 1015,2 hPa 0,0 l/m² 1,6 km/h (1 Bft) SW 225 ° 0 min 0,000 mm 0,0 UV-I 0 W/m² 17,7 °C 19,4 °C 4,8 km/h (1 Bft) 100,00 %
31.08.2026 03:45 19,4 °C 90 % 1015,1 hPa 0,0 l/m² 0,0 km/h (0 Bft) SW 225 ° 0 min 0,000 mm 0,0 UV-I 0 W/m² 17,7 °C 19,4 °C 1,6 km/h (1 Bft) 100,00 %
31.08.2026 03:44 19,4 °C 90 % 1015,2 hPa 0,0 l/m² 0,0 km/h (0 Bft) SW 225 ° 0 min 0,000 mm 0,0 UV-I 0 W/m² 17,7 °C 19,4 °C 1,6 km/h (1 Bft) 100,00 %
31.08.2026 03:43 19,4 °C 90 % 1015,2 hPa 0,0 l/m² 0,0 km/h (0 Bft) SW 225 ° 0 min 0,000 mm 0,0 UV-I 0 W/m² 17,7 °C 19,4 °C 1,6 km/h (1 Bft) 95,65 %
31.08.2026 03:42 19,4 °C 90 % 1015,2 hPa 0,0 l/m² 0,0 km/h (0 Bft) SW 225 ° 0 min 0,000 mm 0,0 UV-I 0 W/m² 17,7 °C 19,4 °C 1,6 km/h (1 Bft) 91,30 %
31.08.2026 03:41 19,4 °C 90 % 1015,2 hPa 0,0 l/m² 1,6 km/h (1 Bft) SW 225 ° 0 min 0,000 mm 0,0 UV-I 0 W/m² 17,7 °C 19,4 °C 3,2 km/h (1 Bft) 95,65 %
31.08.2026 03:40 19,3 °C 90 % 1015,2 hPa 0,0 l/m² 1,6 km/h (1 Bft) SW 225 ° 0 min 0,000 mm 0,0 UV-I 0 W/m² 17,6 °C 19,3 °C 3,2 km/h (1 Bft) 100,00 %
31.08.2026 03:39 19,3 °C 90 % 1015,2 hPa 0,0 l/m² 1,6 km/h (1 Bft) SW 225 ° 0 min 0,000 mm 0,0 UV-I 0 W/m² 17,6 °C 19,3 °C 3,2 km/h (1 Bft) 100,00 %
31.08.2026 03:38 19,3 °C 90 % 1015,1 hPa 0,0 l/m² 1,6 km/h (1 Bft) SW 225 ° 0 min 0,000 mm 0,0 UV-I 0 W/m² 17,6 °C 19,3 °C 3,2 km/h (1 Bft) 100,00 %
31.08.2026 03:37 19,3 °C 90 % 1015,1 hPa 0,0 l/m² 0,0 km/h (0 Bft) SW 225 ° 0 min 0,000 mm 0,0 UV-I 0 W/m² 17,6 °C 19,3 °C 3,2 km/h (1 Bft) 100,00 %
31.08.2026 03:36 19,3 °C 90 % 1015,1 hPa 0,0 l/m² 0,0 km/h (0 Bft) SW 225 ° 0 min 0,000 mm 0,0 UV-I 0 W/m² 17,6 °C 19,3 °C 1,6 km/h (1 Bft) 100,00 %
31.08.2026 03:35 19,2 °C 90 % 1015,1 hPa 0,0 l/m² 0,0 km/h (0 Bft) SW 225 ° 0 min 0,000 mm 0,0 UV-I 0 W/m² 17,5 °C 19,2 °C 1,6 km/h (1 Bft) 91,30 %
31.08.2026 03:34 19,2 °C 90 % 1015,1 hPa 0,0 l/m² 1,6 km/h (1 Bft) SW 225 ° 0 min 0,000 mm 0,0 UV-I 0 W/m² 17,5 °C 19,2 °C 3,2 km/h (1 Bft) 100,00 %
31.08.2026 03:33 19,2 °C 90 % 1015,1 hPa 0,0 l/m² 0,0 km/h (0 Bft) SW 225 ° 0 min 0,000 mm 0,0 UV-I 0 W/m² 17,5 °C 19,2 °C 1,6 km/h (1 Bft) 100,00 %
31.08.2026 03:32 19,2 °C 90 % 1015,1 hPa 0,0 l/m² 0,0 km/h (0 Bft) SW 225 ° 0 min 0,000 mm 0,0 UV-I 0 W/m² 17,5 °C 19,2 °C 3,2 km/h (1 Bft) 100,00 %
31.08.2026 03:31 19,2 °C 90 % 1015,1 hPa 0,0 l/m² 1,6 km/h (1 Bft) SW 225 ° 0 min 0,000 mm 0,0 UV-I 0 W/m² 17,5 °C 19,2 °C 3,2 km/h (1 Bft) 95,65 %
31.08.2026 03:30 19,2 °C 90 % 1015,1 hPa 0,0 l/m² 1,6 km/h (1 Bft) SW 225 ° 0 min 0,000 mm 0,0 UV-I 0 W/m² 17,5 °C 19,2 °C 4,8 km/h (1 Bft) 95,65 %
31.08.2026 03:29 19,2 °C 90 % 1015,1 hPa 0,0 l/m² 0,0 km/h (0 Bft) SW 225 ° 0 min 0,000 mm 0,0 UV-I 0 W/m² 17,5 °C 19,2 °C 1,6 km/h (1 Bft) 100,00 %
31.08.2026 03:28 19,2 °C 90 % 1015,1 hPa 0,0 l/m² 1,6 km/h (1 Bft) SW 225 ° 0 min 0,000 mm 0,0 UV-I 0 W/m² 17,5 °C 19,2 °C 3,2 km/h (1 Bft) 91,30 %
31.08.2026 03:27 19,2 °C 90 % 1015,1 hPa 0,0 l/m² 1,6 km/h (1 Bft) SW 225 ° 0 min 0,000 mm 0,0 UV-I 0 W/m² 17,5 °C 19,2 °C 3,2 km/h (1 Bft) 95,65 %
31.08.2026 03:26 19,2 °C 90 % 1015,1 hPa 0,0 l/m² 1,6 km/h (1 Bft) SW 225 ° 0 min 0,000 mm 0,0 UV-I 0 W/m² 17,5 °C 19,2 °C 4,8 km/h (1 Bft) 100,00 %
31.08.2026 03:25 19,2 °C 90 % 1015,0 hPa 0,0 l/m² 1,6 km/h (1 Bft) SW 225 ° 0 min 0,000 mm 0,0 UV-I 0 W/m² 17,5 °C 19,2 °C 3,2 km/h (1 Bft) 95,65 %
31.08.2026 03:24 19,2 °C 90 % 1015,1 hPa 0,0 l/m² 0,0 km/h (0 Bft) SW 225 ° 0 min 0,000 mm 0,0 UV-I 0 W/m² 17,5 °C 19,2 °C 3,2 km/h (1 Bft) 95,65 %
31.08.2026 03:23 19,2 °C 90 % 1015,0 hPa 0,0 l/m² 1,6 km/h (1 Bft) SW 225 ° 0 min 0,000 mm 0,0 UV-I 0 W/m² 17,5 °C 19,2 °C 3,2 km/h (1 Bft) 100,00 %
31.08.2026 03:22 19,2 °C 90 % 1015,0 hPa 0,0 l/m² 1,6 km/h (1 Bft) SW 225 ° 0 min 0,000 mm 0,0 UV-I 0 W/m² 17,5 °C 19,2 °C 3,2 km/h (1 Bft) 95,65 %
31.08.2026 03:21 19,2 °C 91 % 1015,0 hPa 0,0 l/m² 1,6 km/h (1 Bft) SW 225 ° 0 min 0,000 mm 0,0 UV-I 0 W/m² 17,7 °C 19,2 °C 3,2 km/h (1 Bft) 91,30 %
31.08.2026 03:20 19,1 °C 91 % 1015,0 hPa 0,0 l/m² 1,6 km/h (1 Bft) SW 225 ° 0 min 0,000 mm 0,0 UV-I 0 W/m² 17,6 °C 19,1 °C 3,2 km/h (1 Bft) 100,00 %
31.08.2026 03:19 19,1 °C 91 % 1015,0 hPa 0,0 l/m² 1,6 km/h (1 Bft) SW 225 ° 0 min 0,000 mm 0,0 UV-I 0 W/m² 17,6 °C 19,1 °C 3,2 km/h (1 Bft) 91,30 %
31.08.2026 03:18 19,1 °C 91 % 1015,0 hPa 0,0 l/m² 1,6 km/h (1 Bft) SW 225 ° 0 min 0,000 mm 0,0 UV-I 0 W/m² 17,6 °C 19,1 °C 1,6 km/h (1 Bft) 100,00 %
31.08.2026 03:17 19,1 °C 91 % 1015,0 hPa 0,0 l/m² 1,6 km/h (1 Bft) SW 225 ° 0 min 0,000 mm 0,0 UV-I 0 W/m² 17,6 °C 19,1 °C 3,2 km/h (1 Bft) 95,65 %
31.08.2026 03:16 19,1 °C 91 % 1015,1 hPa 0,0 l/m² 1,6 km/h (1 Bft) W-SW 247 ° 0 min 0,000 mm 0,0 UV-I 0 W/m² 17,6 °C 19,1 °C 1,6 km/h (1 Bft) 100,00 %
31.08.2026 03:15 19,1 °C 91 % 1015,1 hPa 0,0 l/m² 1,6 km/h (1 Bft) W-SW 247 ° 0 min 0,000 mm 0,0 UV-I 0 W/m² 17,6 °C 19,1 °C 1,6 km/h (1 Bft) 100,00 %
31.08.2026 03:14 19,1 °C 92 % 1015,1 hPa 0,0 l/m² 0,0 km/h (0 Bft) W-SW 247 ° 0 min 0,000 mm 0,0 UV-I 0 W/m² 17,8 °C 19,1 °C 1,6 km/h (1 Bft) 91,30 %
31.08.2026 03:13 19,1 °C 92 % 1015,0 hPa 0,0 l/m² 0,0 km/h (0 Bft) W-SW 247 ° 0 min 0,000 mm 0,0 UV-I 0 W/m² 17,8 °C 19,1 °C 1,6 km/h (1 Bft) 100,00 %
31.08.2026 03:12 19,0 °C 92 % 1015,0 hPa 0,0 l/m² 0,0 km/h (0 Bft) W-SW 247 ° 0 min 0,000 mm 0,0 UV-I 0 W/m² 17,7 °C 19,0 °C 1,6 km/h (1 Bft) 100,00 %
31.08.2026 03:11 19,0 °C 92 % 1015,0 hPa 0,0 l/m² 0,0 km/h (0 Bft) W-SW 247 ° 0 min 0,000 mm 0,0 UV-I 0 W/m² 17,7 °C 19,0 °C 1,6 km/h (1 Bft) 100,00 %
31.08.2026 03:10 18,9 °C 92 % 1015,1 hPa 0,0 l/m² 0,0 km/h (0 Bft) W-SW 247 ° 0 min 0,000 mm 0,0 UV-I 0 W/m² 17,6 °C 18,9 °C 1,6 km/h (1 Bft) 100,00 %
31.08.2026 03:09 19,0 °C 92 % 1015,1 hPa 0,0 l/m² 0,0 km/h (0 Bft) N 0 ° 0 min 0,000 mm 0,0 UV-I 0 W/m² 17,7 °C 19,0 °C 0,0 km/h (0 Bft) 100,00 %
31.08.2026 03:08 18,9 °C 92 % 1015,1 hPa 0,0 l/m² 0,0 km/h (0 Bft) W-SW 247 ° 0 min 0,000 mm 0,0 UV-I 0 W/m² 17,6 °C 18,9 °C 1,6 km/h (1 Bft) 91,30 %
31.08.2026 03:07 18,9 °C 92 % 1015,0 hPa 0,0 l/m² 0,0 km/h (0 Bft) W-SW 247 ° 0 min 0,000 mm 0,0 UV-I 0 W/m² 17,6 °C 18,9 °C 1,6 km/h (1 Bft) 91,30 %
31.08.2026 03:06 18,9 °C 92 % 1015,0 hPa 0,0 l/m² 0,0 km/h (0 Bft) N 0 ° 0 min 0,000 mm 0,0 UV-I 0 W/m² 17,6 °C 18,9 °C 0,0 km/h (0 Bft) 100,00 %
31.08.2026 03:05 18,9 °C 92 % 1015,1 hPa 0,0 l/m² 0,0 km/h (0 Bft) W-SW 247 ° 0 min 0,000 mm 0,0 UV-I 0 W/m² 17,6 °C 18,9 °C 1,6 km/h (1 Bft) 95,65 %
31.08.2026 03:04 18,9 °C 92 % 1015,0 hPa 0,0 l/m² 0,0 km/h (0 Bft) W-SW 247 ° 0 min 0,000 mm 0,0 UV-I 0 W/m² 17,6 °C 18,9 °C 1,6 km/h (1 Bft) 100,00 %
31.08.2026 03:03 18,8 °C 92 % 1015,0 hPa 0,0 l/m² 1,6 km/h (1 Bft) W-SW 247 ° 0 min 0,000 mm 0,0 UV-I 0 W/m² 17,5 °C 18,8 °C 3,2 km/h (1 Bft) 95,65 %
31.08.2026 03:02 18,8 °C 92 % 1015,0 hPa 0,0 l/m² 0,0 km/h (0 Bft) W-SW 247 ° 0 min 0,000 mm 0,0 UV-I 0 W/m² 17,5 °C 18,8 °C 1,6 km/h (1 Bft) 100,00 %
31.08.2026 03:01 18,8 °C 92 % 1015,0 hPa 0,0 l/m² 0,0 km/h (0 Bft) W-SW 247 ° 0 min 0,000 mm 0,0 UV-I 0 W/m² 17,5 °C 18,8 °C 1,6 km/h (1 Bft) 100,00 %
31.08.2026 03:00 18,8 °C 92 % 1015,0 hPa 0,0 l/m² 0,0 km/h (0 Bft) W-SW 247 ° 0 min 0,000 mm 0,0 UV-I 0 W/m² 17,5 °C 18,8 °C 1,6 km/h (1 Bft) 95,65 %
31.08.2026 02:59 18,8 °C 92 % 1014,9 hPa 0,0 l/m² 0,0 km/h (0 Bft) W-SW 247 ° 0 min 0,000 mm 0,0 UV-I 0 W/m² 17,5 °C 18,8 °C 1,6 km/h (1 Bft) 100,00 %
31.08.2026 02:58 18,8 °C 92 % 1015,0 hPa 0,0 l/m² 0,0 km/h (0 Bft) W-SW 247 ° 0 min 0,000 mm 0,0 UV-I 0 W/m² 17,5 °C 18,8 °C 1,6 km/h (1 Bft) 95,65 %
31.08.2026 02:57 18,8 °C 92 % 1015,0 hPa 0,0 l/m² 0,0 km/h (0 Bft) W-SW 247 ° 0 min 0,000 mm 0,0 UV-I 0 W/m² 17,5 °C 18,8 °C 3,2 km/h (1 Bft) 100,00 %
31.08.2026 02:56 18,8 °C 92 % 1014,9 hPa 0,0 l/m² 1,6 km/h (1 Bft) W-SW 247 ° 0 min 0,000 mm 0,0 UV-I 0 W/m² 17,5 °C 18,8 °C 3,2 km/h (1 Bft) 100,00 %
31.08.2026 02:55 18,8 °C 92 % 1014,9 hPa 0,0 l/m² 0,0 km/h (0 Bft) W-SW 247 ° 0 min 0,000 mm 0,0 UV-I 0 W/m² 17,5 °C 18,8 °C 1,6 km/h (1 Bft) 100,00 %
31.08.2026 02:54 18,8 °C 92 % 1014,9 hPa 0,0 l/m² 0,0 km/h (0 Bft) W-SW 247 ° 0 min 0,000 mm 0,0 UV-I 0 W/m² 17,5 °C 18,8 °C 1,6 km/h (1 Bft) 100,00 %
31.08.2026 02:53 18,8 °C 92 % 1014,8 hPa 0,0 l/m² 0,0 km/h (0 Bft) W-SW 247 ° 0 min 0,000 mm 0,0 UV-I 0 W/m² 17,5 °C 18,8 °C 1,6 km/h (1 Bft) 95,65 %
31.08.2026 02:52 18,7 °C 92 % 1014,9 hPa 0,0 l/m² 0,0 km/h (0 Bft) W-SW 247 ° 0 min 0,000 mm 0,0 UV-I 0 W/m² 17,4 °C 18,7 °C 1,6 km/h (1 Bft) 100,00 %
31.08.2026 02:51 18,8 °C 92 % 1014,9 hPa 0,0 l/m² 0,0 km/h (0 Bft) W-SW 247 ° 0 min 0,000 mm 0,0 UV-I 0 W/m² 17,5 °C 18,8 °C 1,6 km/h (1 Bft) 91,30 %
31.08.2026 02:50 18,8 °C 92 % 1014,9 hPa 0,0 l/m² 0,0 km/h (0 Bft) N 0 ° 0 min 0,000 mm 0,0 UV-I 0 W/m² 17,5 °C 18,8 °C 0,0 km/h (0 Bft) 100,00 %
31.08.2026 02:49 18,8 °C 92 % 1014,9 hPa 0,0 l/m² 0,0 km/h (0 Bft) N 0 ° 0 min 0,000 mm 0,0 UV-I 0 W/m² 17,5 °C 18,8 °C 0,0 km/h (0 Bft) 95,65 %
31.08.2026 02:48 18,8 °C 92 % 1014,8 hPa 0,0 l/m² 0,0 km/h (0 Bft) N 0 ° 0 min 0,000 mm 0,0 UV-I 0 W/m² 17,5 °C 18,8 °C 0,0 km/h (0 Bft) 100,00 %
31.08.2026 02:47 18,8 °C 92 % 1014,9 hPa 0,0 l/m² 0,0 km/h (0 Bft) N 0 ° 0 min 0,000 mm 0,0 UV-I 0 W/m² 17,5 °C 18,8 °C 0,0 km/h (0 Bft) 100,00 %
31.08.2026 02:46 18,8 °C 92 % 1014,9 hPa 0,0 l/m² 0,0 km/h (0 Bft) N 0 ° 0 min 0,000 mm 0,0 UV-I 0 W/m² 17,5 °C 18,8 °C 0,0 km/h (0 Bft) 95,65 %
31.08.2026 02:45 18,8 °C 92 % 1014,8 hPa 0,0 l/m² 0,0 km/h (0 Bft) N 0 ° 0 min 0,000 mm 0,0 UV-I 0 W/m² 17,5 °C 18,8 °C 0,0 km/h (0 Bft) 100,00 %
31.08.2026 02:44 18,8 °C 92 % 1014,8 hPa 0,0 l/m² 0,0 km/h (0 Bft) W-SW 247 ° 0 min 0,000 mm 0,0 UV-I 0 W/m² 17,5 °C 18,8 °C 1,6 km/h (1 Bft) 95,65 %
31.08.2026 02:43 18,8 °C 92 % 1014,8 hPa 0,0 l/m² 0,0 km/h (0 Bft) N 0 ° 0 min 0,000 mm 0,0 UV-I 0 W/m² 17,5 °C 18,8 °C 0,0 km/h (0 Bft) 95,65 %
31.08.2026 02:42 18,8 °C 92 % 1014,8 hPa 0,0 l/m² 0,0 km/h (0 Bft) N 0 ° 0 min 0,000 mm 0,0 UV-I 0 W/m² 17,5 °C 18,8 °C 0,0 km/h (0 Bft) 91,30 %
31.08.2026 02:41 18,8 °C 92 % 1014,8 hPa 0,0 l/m² 0,0 km/h (0 Bft) W-SW 247 ° 0 min 0,000 mm 0,0 UV-I 0 W/m² 17,5 °C 18,8 °C 1,6 km/h (1 Bft) 95,65 %
31.08.2026 02:40 18,8 °C 92 % 1014,8 hPa 0,0 l/m² 0,0 km/h (0 Bft) W-SW 247 ° 0 min 0,000 mm 0,0 UV-I 0 W/m² 17,5 °C 18,8 °C 1,6 km/h (1 Bft) 100,00 %
31.08.2026 02:39 18,8 °C 92 % 1014,8 hPa 0,0 l/m² 0,0 km/h (0 Bft) N 0 ° 0 min 0,000 mm 0,0 UV-I 0 W/m² 17,5 °C 18,8 °C 0,0 km/h (0 Bft) 91,30 %
31.08.2026 02:38 18,8 °C 92 % 1014,8 hPa 0,0 l/m² 0,0 km/h (0 Bft) N 0 ° 0 min 0,000 mm 0,0 UV-I 0 W/m² 17,5 °C 18,8 °C 0,0 km/h (0 Bft) 100,00 %
31.08.2026 02:37 18,8 °C 92 % 1014,8 hPa 0,0 l/m² 0,0 km/h (0 Bft) W-SW 247 ° 0 min 0,000 mm 0,0 UV-I 0 W/m² 17,5 °C 18,8 °C 1,6 km/h (1 Bft) 95,65 %
31.08.2026 02:36 18,8 °C 92 % 1014,9 hPa 0,0 l/m² 0,0 km/h (0 Bft) W-SW 247 ° 0 min 0,000 mm 0,0 UV-I 0 W/m² 17,5 °C 18,8 °C 1,6 km/h (1 Bft) 100,00 %
31.08.2026 02:35 18,8 °C 92 % 1014,9 hPa 0,0 l/m² 0,0 km/h (0 Bft) N 0 ° 0 min 0,000 mm 0,0 UV-I 0 W/m² 17,5 °C 18,8 °C 0,0 km/h (0 Bft) 100,00 %
31.08.2026 02:34 18,7 °C 92 % 1014,9 hPa 0,0 l/m² 0,0 km/h (0 Bft) N 0 ° 0 min 0,000 mm 0,0 UV-I 0 W/m² 17,4 °C 18,7 °C 0,0 km/h (0 Bft) 100,00 %
31.08.2026 02:33 18,8 °C 92 % 1014,8 hPa 0,0 l/m² 0,0 km/h (0 Bft) N 0 ° 0 min 0,000 mm 0,0 UV-I 0 W/m² 17,5 °C 18,8 °C 0,0 km/h (0 Bft) 95,65 %
31.08.2026 02:32 18,8 °C 92 % 1014,9 hPa 0,0 l/m² 0,0 km/h (0 Bft) N 0 ° 0 min 0,000 mm 0,0 UV-I 0 W/m² 17,5 °C 18,8 °C 0,0 km/h (0 Bft) 95,65 %
31.08.2026 02:31 18,8 °C 92 % 1014,8 hPa 0,0 l/m² 0,0 km/h (0 Bft) N 0 ° 0 min 0,000 mm 0,0 UV-I 0 W/m² 17,5 °C 18,8 °C 0,0 km/h (0 Bft) 100,00 %
31.08.2026 02:30 18,8 °C 92 % 1014,8 hPa 0,0 l/m² 0,0 km/h (0 Bft) N 0 ° 0 min 0,000 mm 0,0 UV-I 0 W/m² 17,5 °C 18,8 °C 0,0 km/h (0 Bft) 100,00 %
31.08.2026 02:29 18,8 °C 92 % 1014,9 hPa 0,0 l/m² 0,0 km/h (0 Bft) N 0 ° 0 min 0,000 mm 0,0 UV-I 0 W/m² 17,5 °C 18,8 °C 0,0 km/h (0 Bft) 100,00 %
31.08.2026 02:28 18,8 °C 92 % 1014,9 hPa 0,0 l/m² 0,0 km/h (0 Bft) N 0 ° 0 min 0,000 mm 0,0 UV-I 0 W/m² 17,5 °C 18,8 °C 0,0 km/h (0 Bft) 95,65 %
31.08.2026 02:27 18,9 °C 92 % 1014,9 hPa 0,0 l/m² 0,0 km/h (0 Bft) N 0 ° 0 min 0,000 mm 0,0 UV-I 0 W/m² 17,6 °C 18,9 °C 0,0 km/h (0 Bft) 95,65 %
31.08.2026 02:26 18,9 °C 92 % 1014,9 hPa 0,0 l/m² 0,0 km/h (0 Bft) N 0 ° 0 min 0,000 mm 0,0 UV-I 0 W/m² 17,6 °C 18,9 °C 0,0 km/h (0 Bft) 100,00 %
31.08.2026 02:25 18,9 °C 92 % 1014,9 hPa 0,0 l/m² 0,0 km/h (0 Bft) N 0 ° 0 min 0,000 mm 0,0 UV-I 0 W/m² 17,6 °C 18,9 °C 0,0 km/h (0 Bft) 95,65 %
31.08.2026 02:24 18,9 °C 92 % 1015,0 hPa 0,0 l/m² 0,0 km/h (0 Bft) N 0 ° 0 min 0,000 mm 0,0 UV-I 0 W/m² 17,6 °C 18,9 °C 0,0 km/h (0 Bft) 100,00 %
31.08.2026 02:23 18,9 °C 92 % 1014,9 hPa 0,0 l/m² 0,0 km/h (0 Bft) N 0 ° 0 min 0,000 mm 0,0 UV-I 0 W/m² 17,6 °C 18,9 °C 0,0 km/h (0 Bft) 100,00 %
31.08.2026 02:22 19,0 °C 92 % 1014,9 hPa 0,0 l/m² 0,0 km/h (0 Bft) W-SW 247 ° 0 min 0,000 mm 0,0 UV-I 0 W/m² 17,7 °C 19,0 °C 1,6 km/h (1 Bft) 100,00 %
31.08.2026 02:21 19,0 °C 92 % 1014,9 hPa 0,0 l/m² 0,0 km/h (0 Bft) N 0 ° 0 min 0,000 mm 0,0 UV-I 0 W/m² 17,7 °C 19,0 °C 0,0 km/h (0 Bft) 100,00 %
31.08.2026 02:20 19,0 °C 92 % 1015,0 hPa 0,0 l/m² 0,0 km/h (0 Bft) N 0 ° 0 min 0,000 mm 0,0 UV-I 0 W/m² 17,7 °C 19,0 °C 0,0 km/h (0 Bft) 100,00 %
31.08.2026 02:19 19,0 °C 92 % 1015,0 hPa 0,0 l/m² 0,0 km/h (0 Bft) W-SW 247 ° 0 min 0,000 mm 0,0 UV-I 0 W/m² 17,7 °C 19,0 °C 1,6 km/h (1 Bft) 100,00 %
31.08.2026 02:18 19,0 °C 92 % 1014,9 hPa 0,0 l/m² 0,0 km/h (0 Bft) N 0 ° 0 min 0,000 mm 0,0 UV-I 0 W/m² 17,7 °C 19,0 °C 0,0 km/h (0 Bft) 95,65 %
31.08.2026 02:17 19,0 °C 92 % 1014,9 hPa 0,0 l/m² 0,0 km/h (0 Bft) W-SW 247 ° 0 min 0,000 mm 0,0 UV-I 0 W/m² 17,7 °C 19,0 °C 1,6 km/h (1 Bft) 100,00 %
31.08.2026 02:16 19,0 °C 92 % 1015,0 hPa 0,0 l/m² 0,0 km/h (0 Bft) W-SW 247 ° 0 min 0,000 mm 0,0 UV-I 0 W/m² 17,7 °C 19,0 °C 1,6 km/h (1 Bft) 100,00 %
31.08.2026 02:15 19,0 °C 92 % 1015,0 hPa 0,0 l/m² 0,0 km/h (0 Bft) W-SW 247 ° 0 min 0,000 mm 0,0 UV-I 0 W/m² 17,7 °C 19,0 °C 1,6 km/h (1 Bft) 100,00 %
31.08.2026 02:14 19,1 °C 92 % 1014,9 hPa 0,0 l/m² 0,0 km/h (0 Bft) W-SW 247 ° 0 min 0,000 mm 0,0 UV-I 0 W/m² 17,8 °C 19,1 °C 1,6 km/h (1 Bft) 100,00 %
31.08.2026 02:13 19,1 °C 92 % 1014,9 hPa 0,0 l/m² 0,0 km/h (0 Bft) W-SW 247 ° 0 min 0,000 mm 0,0 UV-I 0 W/m² 17,8 °C 19,1 °C 1,6 km/h (1 Bft) 95,65 %
31.08.2026 02:12 19,1 °C 92 % 1014,9 hPa 0,0 l/m² 0,0 km/h (0 Bft) N 0 ° 0 min 0,000 mm 0,0 UV-I 0 W/m² 17,8 °C 19,1 °C 0,0 km/h (0 Bft) 100,00 %
31.08.2026 02:11 19,1 °C 92 % 1014,9 hPa 0,0 l/m² 0,0 km/h (0 Bft) N 0 ° 0 min 0,000 mm 0,0 UV-I 0 W/m² 17,8 °C 19,1 °C 0,0 km/h (0 Bft) 91,30 %
31.08.2026 02:10 19,1 °C 92 % 1014,9 hPa 0,0 l/m² 0,0 km/h (0 Bft) W-SW 247 ° 0 min 0,000 mm 0,0 UV-I 0 W/m² 17,8 °C 19,1 °C 1,6 km/h (1 Bft) 100,00 %
31.08.2026 02:09 19,1 °C 91 % 1014,9 hPa 0,0 l/m² 0,0 km/h (0 Bft) W-SW 247 ° 0 min 0,000 mm 0,0 UV-I 0 W/m² 17,6 °C 19,1 °C 1,6 km/h (1 Bft) 95,65 %
31.08.2026 02:08 19,1 °C 91 % 1014,9 hPa 0,0 l/m² 0,0 km/h (0 Bft) N 0 ° 0 min 0,000 mm 0,0 UV-I 0 W/m² 17,6 °C 19,1 °C 0,0 km/h (0 Bft) 100,00 %
31.08.2026 02:07 19,1 °C 91 % 1014,9 hPa 0,0 l/m² 0,0 km/h (0 Bft) N 0 ° 0 min 0,000 mm 0,0 UV-I 0 W/m² 17,6 °C 19,1 °C 0,0 km/h (0 Bft) 100,00 %
31.08.2026 02:06 19,1 °C 91 % 1014,9 hPa 0,0 l/m² 0,0 km/h (0 Bft) N 0 ° 0 min 0,000 mm 0,0 UV-I 0 W/m² 17,6 °C 19,1 °C 0,0 km/h (0 Bft) 95,65 %
31.08.2026 02:05 19,1 °C 91 % 1014,9 hPa 0,0 l/m² 0,0 km/h (0 Bft) N 0 ° 0 min 0,000 mm 0,0 UV-I 0 W/m² 17,6 °C 19,1 °C 0,0 km/h (0 Bft) 100,00 %
31.08.2026 02:04 19,2 °C 91 % 1014,9 hPa 0,0 l/m² 0,0 km/h (0 Bft) N 0 ° 0 min 0,000 mm 0,0 UV-I 0 W/m² 17,7 °C 19,2 °C 0,0 km/h (0 Bft) 95,65 %
31.08.2026 02:03 19,2 °C 91 % 1014,9 hPa 0,0 l/m² 0,0 km/h (0 Bft) N 0 ° 0 min 0,000 mm 0,0 UV-I 0 W/m² 17,7 °C 19,2 °C 0,0 km/h (0 Bft) 100,00 %
31.08.2026 02:02 19,2 °C 91 % 1014,9 hPa 0,0 l/m² 0,0 km/h (0 Bft) N 0 ° 0 min 0,000 mm 0,0 UV-I 0 W/m² 17,7 °C 19,2 °C 0,0 km/h (0 Bft) 95,65 %
31.08.2026 02:01 19,2 °C 91 % 1014,9 hPa 0,0 l/m² 0,0 km/h (0 Bft) N 0 ° 0 min 0,000 mm 0,0 UV-I 0 W/m² 17,7 °C 19,2 °C 0,0 km/h (0 Bft) 100,00 %
31.08.2026 02:00 19,2 °C 91 % 1014,9 hPa 0,0 l/m² 0,0 km/h (0 Bft) N 0 ° 0 min 0,000 mm 0,0 UV-I 0 W/m² 17,7 °C 19,2 °C 0,0 km/h (0 Bft) 100,00 %
31.08.2026 01:59 19,2 °C 91 % 1015,0 hPa 0,0 l/m² 0,0 km/h (0 Bft) N 0 ° 0 min 0,000 mm 0,0 UV-I 0 W/m² 17,7 °C 19,2 °C 0,0 km/h (0 Bft) 100,00 %
31.08.2026 01:58 19,2 °C 91 % 1014,9 hPa 0,0 l/m² 0,0 km/h (0 Bft) N 0 ° 0 min 0,000 mm 0,0 UV-I 0 W/m² 17,7 °C 19,2 °C 0,0 km/h (0 Bft) 100,00 %
31.08.2026 01:57 19,2 °C 91 % 1014,9 hPa 0,0 l/m² 0,0 km/h (0 Bft) W-SW 247 ° 0 min 0,000 mm 0,0 UV-I 0 W/m² 17,7 °C 19,2 °C 1,6 km/h (1 Bft) 95,65 %
31.08.2026 01:56 19,2 °C 91 % 1015,0 hPa 0,0 l/m² 0,0 km/h (0 Bft) W-SW 247 ° 0 min 0,000 mm 0,0 UV-I 0 W/m² 17,7 °C 19,2 °C 1,6 km/h (1 Bft) 100,00 %
31.08.2026 01:55 19,3 °C 91 % 1015,0 hPa 0,0 l/m² 1,6 km/h (1 Bft) W-SW 247 ° 0 min 0,000 mm 0,0 UV-I 0 W/m² 17,8 °C 19,3 °C 1,6 km/h (1 Bft) 95,65 %
31.08.2026 01:54 19,3 °C 91 % 1014,9 hPa 0,0 l/m² 0,0 km/h (0 Bft) W-SW 247 ° 0 min 0,000 mm 0,0 UV-I 0 W/m² 17,8 °C 19,3 °C 1,6 km/h (1 Bft) 100,00 %
31.08.2026 01:53 19,3 °C 91 % 1015,0 hPa 0,0 l/m² 0,0 km/h (0 Bft) W-SW 247 ° 0 min 0,000 mm 0,0 UV-I 0 W/m² 17,8 °C 19,3 °C 1,6 km/h (1 Bft) 100,00 %
31.08.2026 01:52 19,3 °C 91 % 1015,0 hPa 0,0 l/m² 1,6 km/h (1 Bft) W-SW 247 ° 0 min 0,000 mm 0,0 UV-I 0 W/m² 17,8 °C 19,3 °C 3,2 km/h (1 Bft) 95,65 %
31.08.2026 01:51 19,3 °C 91 % 1014,9 hPa 0,0 l/m² 1,6 km/h (1 Bft) W-SW 247 ° 0 min 0,000 mm 0,0 UV-I 0 W/m² 17,8 °C 19,3 °C 3,2 km/h (1 Bft) 95,65 %
31.08.2026 01:50 19,3 °C 91 % 1014,9 hPa 0,0 l/m² 3,2 km/h (1 Bft) W 270 ° 0 min 0,000 mm 0,0 UV-I 0 W/m² 17,8 °C 19,3 °C 4,8 km/h (1 Bft) 91,30 %
31.08.2026 01:49 19,3 °C 91 % 1015,0 hPa 0,0 l/m² 1,6 km/h (1 Bft) W 270 ° 0 min 0,000 mm 0,0 UV-I 0 W/m² 17,8 °C 19,3 °C 4,8 km/h (1 Bft) 95,65 %
31.08.2026 01:48 19,3 °C 91 % 1015,0 hPa 0,0 l/m² 0,0 km/h (0 Bft) W 270 ° 0 min 0,000 mm 0,0 UV-I 0 W/m² 17,8 °C 19,3 °C 1,6 km/h (1 Bft) 95,65 %
31.08.2026 01:47 19,3 °C 91 % 1014,9 hPa 0,0 l/m² 0,0 km/h (0 Bft) W 270 ° 0 min 0,000 mm 0,0 UV-I 0 W/m² 17,8 °C 19,3 °C 1,6 km/h (1 Bft) 100,00 %
31.08.2026 01:46 19,2 °C 91 % 1014,9 hPa 0,0 l/m² 0,0 km/h (0 Bft) W 270 ° 0 min 0,000 mm 0,0 UV-I 0 W/m² 17,7 °C 19,2 °C 1,6 km/h (1 Bft) 100,00 %
31.08.2026 01:45 19,3 °C 91 % 1015,0 hPa 0,0 l/m² 0,0 km/h (0 Bft) N 0 ° 0 min 0,000 mm 0,0 UV-I 0 W/m² 17,8 °C 19,3 °C 0,0 km/h (0 Bft) 100,00 %
31.08.2026 01:44 19,3 °C 91 % 1014,9 hPa 0,0 l/m² 0,0 km/h (0 Bft) N 0 ° 0 min 0,000 mm 0,0 UV-I 0 W/m² 17,8 °C 19,3 °C 0,0 km/h (0 Bft) 100,00 %
31.08.2026 01:43 19,3 °C 91 % 1014,9 hPa 0,0 l/m² 0,0 km/h (0 Bft) W 270 ° 0 min 0,000 mm 0,0 UV-I 0 W/m² 17,8 °C 19,3 °C 1,6 km/h (1 Bft) 95,65 %
31.08.2026 01:42 19,3 °C 91 % 1014,9 hPa 0,0 l/m² 0,0 km/h (0 Bft) W 270 ° 0 min 0,000 mm 0,0 UV-I 0 W/m² 17,8 °C 19,3 °C 1,6 km/h (1 Bft) 95,65 %
31.08.2026 01:41 19,3 °C 91 % 1014,9 hPa 0,0 l/m² 0,0 km/h (0 Bft) N 0 ° 0 min 0,000 mm 0,0 UV-I 0 W/m² 17,8 °C 19,3 °C 0,0 km/h (0 Bft) 100,00 %
31.08.2026 01:40 19,2 °C 91 % 1014,9 hPa 0,0 l/m² 0,0 km/h (0 Bft) N 0 ° 0 min 0,000 mm 0,0 UV-I 0 W/m² 17,7 °C 19,2 °C 0,0 km/h (0 Bft) 100,00 %
31.08.2026 01:39 19,2 °C 91 % 1014,9 hPa 0,0 l/m² 0,0 km/h (0 Bft) W 270 ° 0 min 0,000 mm 0,0 UV-I 0 W/m² 17,7 °C 19,2 °C 1,6 km/h (1 Bft) 100,00 %
31.08.2026 01:38 19,1 °C 91 % 1014,9 hPa 0,0 l/m² 0,0 km/h (0 Bft) W 270 ° 0 min 0,000 mm 0,0 UV-I 0 W/m² 17,6 °C 19,1 °C 1,6 km/h (1 Bft) 91,30 %
31.08.2026 01:37 19,1 °C 92 % 1015,0 hPa 0,0 l/m² 0,0 km/h (0 Bft) W 270 ° 0 min 0,000 mm 0,0 UV-I 0 W/m² 17,8 °C 19,1 °C 3,2 km/h (1 Bft) 100,00 %
31.08.2026 01:36 19,0 °C 92 % 1014,9 hPa 0,0 l/m² 3,2 km/h (1 Bft) W 270 ° 0 min 0,000 mm 0,0 UV-I 0 W/m² 17,7 °C 19,0 °C 8,0 km/h (2 Bft) 91,30 %
31.08.2026 01:35 19,0 °C 92 % 1014,9 hPa 0,0 l/m² 4,8 km/h (1 Bft) W 270 ° 0 min 0,000 mm 0,0 UV-I 0 W/m² 17,7 °C 19,0 °C 9,7 km/h (2 Bft) 100,00 %
31.08.2026 01:34 18,9 °C 92 % 1014,9 hPa 0,0 l/m² 3,2 km/h (1 Bft) S-SW 202 ° 0 min 0,000 mm 0,0 UV-I 0 W/m² 17,6 °C 18,9 °C 6,4 km/h (2 Bft) 100,00 %
31.08.2026 01:33 19,0 °C 92 % 1015,0 hPa 0,0 l/m² 1,6 km/h (1 Bft) S-SW 202 ° 0 min 0,000 mm 0,0 UV-I 0 W/m² 17,7 °C 19,0 °C 6,4 km/h (2 Bft) 100,00 %
31.08.2026 01:32 18,9 °C 92 % 1015,0 hPa 0,0 l/m² 1,6 km/h (1 Bft) W-NW 292 ° 0 min 0,000 mm 0,0 UV-I 0 W/m² 17,6 °C 18,9 °C 4,8 km/h (1 Bft) 100,00 %
31.08.2026 01:31 18,9 °C 92 % 1014,9 hPa 0,0 l/m² 3,2 km/h (1 Bft) O-NO 67 ° 0 min 0,000 mm 0,0 UV-I 0 W/m² 17,6 °C 18,9 °C 6,4 km/h (2 Bft) 95,65 %
31.08.2026 01:30 19,0 °C 92 % 1014,9 hPa 0,0 l/m² 1,6 km/h (1 Bft) O-NO 67 ° 0 min 0,000 mm 0,0 UV-I 0 W/m² 17,7 °C 19,0 °C 3,2 km/h (1 Bft) 100,00 %
31.08.2026 01:29 19,0 °C 91 % 1014,8 hPa 0,0 l/m² 0,0 km/h (0 Bft) O-NO 67 ° 0 min 0,000 mm 0,0 UV-I 0 W/m² 17,5 °C 19,0 °C 1,6 km/h (1 Bft) 86,96 %
31.08.2026 01:28 19,0 °C 91 % 1014,9 hPa 0,0 l/m² 0,0 km/h (0 Bft) N 0 ° 0 min 0,000 mm 0,0 UV-I 0 W/m² 17,5 °C 19,0 °C 0,0 km/h (0 Bft) 95,65 %
31.08.2026 01:27 19,0 °C 91 % 1014,8 hPa 0,0 l/m² 0,0 km/h (0 Bft) N 0 ° 0 min 0,000 mm 0,0 UV-I 0 W/m² 17,5 °C 19,0 °C 0,0 km/h (0 Bft) 100,00 %
31.08.2026 01:26 19,1 °C 91 % 1014,9 hPa 0,0 l/m² 0,0 km/h (0 Bft) N 0 ° 0 min 0,000 mm 0,0 UV-I 0 W/m² 17,6 °C 19,1 °C 0,0 km/h (0 Bft) 100,00 %
31.08.2026 01:25 19,1 °C 91 % 1014,8 hPa 0,0 l/m² 1,6 km/h (1 Bft) O-NO 67 ° 0 min 0,000 mm 0,0 UV-I 0 W/m² 17,6 °C 19,1 °C 1,6 km/h (1 Bft) 100,00 %
31.08.2026 01:24 19,1 °C 90 % 1014,9 hPa 0,0 l/m² 0,0 km/h (0 Bft) O-NO 67 ° 0 min 0,000 mm 0,0 UV-I 0 W/m² 17,4 °C 19,1 °C 1,6 km/h (1 Bft) 95,65 %
31.08.2026 01:23 19,2 °C 90 % 1014,9 hPa 0,0 l/m² 1,6 km/h (1 Bft) O-NO 67 ° 0 min 0,000 mm 0,0 UV-I 0 W/m² 17,5 °C 19,2 °C 1,6 km/h (1 Bft) 100,00 %
31.08.2026 01:22 19,2 °C 91 % 1014,9 hPa 0,0 l/m² 1,6 km/h (1 Bft) O-NO 67 ° 0 min 0,000 mm 0,0 UV-I 0 W/m² 17,7 °C 19,2 °C 1,6 km/h (1 Bft) 86,96 %
31.08.2026 01:21 19,2 °C 90 % 1014,9 hPa 0,0 l/m² 1,6 km/h (1 Bft) O-NO 67 ° 0 min 0,000 mm 0,0 UV-I 0 W/m² 17,5 °C 19,2 °C 3,2 km/h (1 Bft) 100,00 %
31.08.2026 01:20 19,2 °C 90 % 1015,0 hPa 0,0 l/m² 1,6 km/h (1 Bft) O-NO 67 ° 0 min 0,000 mm 0,0 UV-I 0 W/m² 17,5 °C 19,2 °C 1,6 km/h (1 Bft) 100,00 %
31.08.2026 01:19 19,3 °C 90 % 1015,0 hPa 0,0 l/m² 0,0 km/h (0 Bft) O-NO 67 ° 0 min 0,000 mm 0,0 UV-I 0 W/m² 17,6 °C 19,3 °C 1,6 km/h (1 Bft) 95,65 %
31.08.2026 01:18 19,3 °C 90 % 1015,1 hPa 0,0 l/m² 0,0 km/h (0 Bft) O-NO 67 ° 0 min 0,000 mm 0,0 UV-I 0 W/m² 17,6 °C 19,3 °C 1,6 km/h (1 Bft) 100,00 %
31.08.2026 01:17 19,4 °C 90 % 1015,1 hPa 0,0 l/m² 0,0 km/h (0 Bft) O-NO 67 ° 0 min 0,000 mm 0,0 UV-I 0 W/m² 17,7 °C 19,4 °C 1,6 km/h (1 Bft) 100,00 %
31.08.2026 01:16 19,4 °C 90 % 1015,2 hPa 0,0 l/m² 0,0 km/h (0 Bft) O-NO 67 ° 0 min 0,000 mm 0,0 UV-I 0 W/m² 17,7 °C 19,4 °C 1,6 km/h (1 Bft) 100,00 %
31.08.2026 01:15 19,5 °C 90 % 1015,2 hPa 0,0 l/m² 0,0 km/h (0 Bft) O-NO 67 ° 0 min 0,000 mm 0,0 UV-I 0 W/m² 17,8 °C 19,5 °C 1,6 km/h (1 Bft) 91,30 %
31.08.2026 01:14 19,6 °C 90 % 1015,2 hPa 0,0 l/m² 0,0 km/h (0 Bft) O-NO 67 ° 0 min 0,000 mm 0,0 UV-I 0 W/m² 17,9 °C 19,6 °C 1,6 km/h (1 Bft) 100,00 %
31.08.2026 01:13 19,6 °C 89 % 1015,2 hPa 0,0 l/m² 0,0 km/h (0 Bft) N 0 ° 0 min 0,000 mm 0,0 UV-I 0 W/m² 17,7 °C 19,6 °C 0,0 km/h (0 Bft) 95,65 %
31.08.2026 01:12 19,5 °C 89 % 1015,2 hPa 0,0 l/m² 0,0 km/h (0 Bft) O-NO 67 ° 0 min 0,000 mm 0,0 UV-I 0 W/m² 17,6 °C 19,5 °C 1,6 km/h (1 Bft) 91,30 %
31.08.2026 01:11 19,5 °C 89 % 1015,2 hPa 0,0 l/m² 0,0 km/h (0 Bft) O-NO 67 ° 0 min 0,000 mm 0,0 UV-I 0 W/m² 17,6 °C 19,5 °C 1,6 km/h (1 Bft) 100,00 %
31.08.2026 01:10 19,5 °C 89 % 1015,3 hPa 0,0 l/m² 0,0 km/h (0 Bft) O-NO 67 ° 0 min 0,000 mm 0,0 UV-I 0 W/m² 17,6 °C 19,5 °C 1,6 km/h (1 Bft) 100,00 %
31.08.2026 01:09 19,5 °C 89 % 1015,3 hPa 0,0 l/m² 0,0 km/h (0 Bft) O-NO 67 ° 0 min 0,000 mm 0,0 UV-I 0 W/m² 17,6 °C 19,5 °C 1,6 km/h (1 Bft) 95,65 %
31.08.2026 01:08 19,5 °C 89 % 1015,2 hPa 0,0 l/m² 0,0 km/h (0 Bft) O-NO 67 ° 0 min 0,000 mm 0,0 UV-I 0 W/m² 17,6 °C 19,5 °C 1,6 km/h (1 Bft) 95,65 %
31.08.2026 01:07 19,6 °C 89 % 1015,2 hPa 0,0 l/m² 0,0 km/h (0 Bft) O-NO 67 ° 0 min 0,000 mm 0,0 UV-I 0 W/m² 17,7 °C 19,6 °C 1,6 km/h (1 Bft) 100,00 %
31.08.2026 01:06 19,6 °C 89 % 1015,3 hPa 0,0 l/m² 1,6 km/h (1 Bft) O-NO 67 ° 0 min 0,000 mm 0,0 UV-I 0 W/m² 17,7 °C 19,6 °C 3,2 km/h (1 Bft) 95,65 %
31.08.2026 01:05 19,7 °C 89 % 1015,3 hPa 0,0 l/m² 0,0 km/h (0 Bft) N 0 ° 0 min 0,000 mm 0,0 UV-I 0 W/m² 17,8 °C 19,7 °C 0,0 km/h (0 Bft) 100,00 %
31.08.2026 01:04 19,7 °C 88 % 1015,3 hPa 0,0 l/m² 0,0 km/h (0 Bft) N 0 ° 0 min 0,000 mm 0,0 UV-I 0 W/m² 17,7 °C 19,7 °C 0,0 km/h (0 Bft) 100,00 %
31.08.2026 01:03 19,7 °C 88 % 1015,3 hPa 0,0 l/m² 0,0 km/h (0 Bft) NO 45 ° 0 min 0,000 mm 0,0 UV-I 0 W/m² 17,7 °C 19,7 °C 1,6 km/h (1 Bft) 100,00 %
31.08.2026 01:02 19,7 °C 88 % 1015,2 hPa 0,0 l/m² 0,0 km/h (0 Bft) NO 45 ° 0 min 0,000 mm 0,0 UV-I 0 W/m² 17,7 °C 19,7 °C 1,6 km/h (1 Bft) 100,00 %
31.08.2026 01:01 19,7 °C 88 % 1015,3 hPa 0,0 l/m² 1,6 km/h (1 Bft) NO 45 ° 0 min 0,000 mm 0,0 UV-I 0 W/m² 17,7 °C 19,7 °C 3,2 km/h (1 Bft) 95,65 %
31.08.2026 01:00 19,7 °C 87 % 1015,3 hPa 0,0 l/m² 1,6 km/h (1 Bft) N-NO 22 ° 0 min 0,000 mm 0,0 UV-I 0 W/m² 17,5 °C 19,7 °C 3,2 km/h (1 Bft) 91,30 %
31.08.2026 00:59 19,7 °C 87 % 1015,3 hPa 0,0 l/m² 0,0 km/h (0 Bft) NO 45 ° 0 min 0,000 mm 0,0 UV-I 0 W/m² 17,5 °C 19,7 °C 1,6 km/h (1 Bft) 100,00 %
31.08.2026 00:58 19,7 °C 88 % 1015,3 hPa 0,0 l/m² 1,6 km/h (1 Bft) NO 45 ° 0 min 0,000 mm 0,0 UV-I 0 W/m² 17,7 °C 19,7 °C 3,2 km/h (1 Bft) 100,00 %
31.08.2026 00:57 19,7 °C 87 % 1015,3 hPa 0,0 l/m² 0,0 km/h (0 Bft) O-NO 67 ° 0 min 0,000 mm 0,0 UV-I 0 W/m² 17,5 °C 19,7 °C 1,6 km/h (1 Bft) 100,00 %
31.08.2026 00:56 19,7 °C 87 % 1015,3 hPa 0,0 l/m² 0,0 km/h (0 Bft) O-NO 67 ° 0 min 0,000 mm 0,0 UV-I 0 W/m² 17,5 °C 19,7 °C 1,6 km/h (1 Bft) 95,65 %
31.08.2026 00:55 19,7 °C 87 % 1015,3 hPa 0,0 l/m² 0,0 km/h (0 Bft) O-NO 67 ° 0 min 0,000 mm 0,0 UV-I 0 W/m² 17,5 °C 19,7 °C 1,6 km/h (1 Bft) 100,00 %
31.08.2026 00:54 19,6 °C 87 % 1015,3 hPa 0,0 l/m² 0,0 km/h (0 Bft) N 0 ° 0 min 0,000 mm 0,0 UV-I 0 W/m² 17,4 °C 19,6 °C 0,0 km/h (0 Bft) 95,65 %
31.08.2026 00:53 19,6 °C 87 % 1015,4 hPa 0,0 l/m² 0,0 km/h (0 Bft) N 0 ° 0 min 0,000 mm 0,0 UV-I 0 W/m² 17,4 °C 19,6 °C 0,0 km/h (0 Bft) 100,00 %
31.08.2026 00:52 19,6 °C 87 % 1015,3 hPa 0,0 l/m² 0,0 km/h (0 Bft) N 0 ° 0 min 0,000 mm 0,0 UV-I 0 W/m² 17,4 °C 19,6 °C 0,0 km/h (0 Bft) 100,00 %
31.08.2026 00:51 19,6 °C 87 % 1015,3 hPa 0,0 l/m² 0,0 km/h (0 Bft) O-NO 67 ° 0 min 0,000 mm 0,0 UV-I 0 W/m² 17,4 °C 19,6 °C 1,6 km/h (1 Bft) 95,65 %
31.08.2026 00:50 19,6 °C 87 % 1015,3 hPa 0,0 l/m² 0,0 km/h (0 Bft) O-NO 67 ° 0 min 0,000 mm 0,0 UV-I 0 W/m² 17,4 °C 19,6 °C 1,6 km/h (1 Bft) 100,00 %
31.08.2026 00:49 19,6 °C 86 % 1015,4 hPa 0,0 l/m² 0,0 km/h (0 Bft) N 0 ° 0 min 0,000 mm 0,0 UV-I 0 W/m² 17,2 °C 19,6 °C 0,0 km/h (0 Bft) 100,00 %
31.08.2026 00:48 19,6 °C 86 % 1015,3 hPa 0,0 l/m² 0,0 km/h (0 Bft) N 0 ° 0 min 0,000 mm 0,0 UV-I 0 W/m² 17,2 °C 19,6 °C 0,0 km/h (0 Bft) 100,00 %
31.08.2026 00:47 19,7 °C 86 % 1015,3 hPa 0,0 l/m² 0,0 km/h (0 Bft) N 0 ° 0 min 0,000 mm 0,0 UV-I 0 W/m² 17,3 °C 19,7 °C 0,0 km/h (0 Bft) 91,30 %
31.08.2026 00:46 19,7 °C 86 % 1015,3 hPa 0,0 l/m² 0,0 km/h (0 Bft) N 0 ° 0 min 0,000 mm 0,0 UV-I 0 W/m² 17,3 °C 19,7 °C 0,0 km/h (0 Bft) 100,00 %
31.08.2026 00:45 19,7 °C 85 % 1015,3 hPa 0,0 l/m² 0,0 km/h (0 Bft) N 0 ° 0 min 0,000 mm 0,0 UV-I 0 W/m² 17,1 °C 19,7 °C 0,0 km/h (0 Bft) 100,00 %
31.08.2026 00:44 19,7 °C 85 % 1015,4 hPa 0,0 l/m² 0,0 km/h (0 Bft) N 0 ° 0 min 0,000 mm 0,0 UV-I 0 W/m² 17,1 °C 19,7 °C 0,0 km/h (0 Bft) 95,65 %
31.08.2026 00:43 19,7 °C 85 % 1015,4 hPa 0,0 l/m² 0,0 km/h (0 Bft) N 0 ° 0 min 0,000 mm 0,0 UV-I 0 W/m² 17,1 °C 19,7 °C 0,0 km/h (0 Bft) 100,00 %
31.08.2026 00:42 19,7 °C 85 % 1015,4 hPa 0,0 l/m² 0,0 km/h (0 Bft) N 0 ° 0 min 0,000 mm 0,0 UV-I 0 W/m² 17,1 °C 19,7 °C 0,0 km/h (0 Bft) 100,00 %
31.08.2026 00:41 19,7 °C 85 % 1015,4 hPa 0,0 l/m² 0,0 km/h (0 Bft) N 0 ° 0 min 0,000 mm 0,0 UV-I 0 W/m² 17,1 °C 19,7 °C 0,0 km/h (0 Bft) 100,00 %
31.08.2026 00:40 19,6 °C 86 % 1015,4 hPa 0,0 l/m² 0,0 km/h (0 Bft) N 0 ° 0 min 0,000 mm 0,0 UV-I 0 W/m² 17,2 °C 19,6 °C 0,0 km/h (0 Bft) 91,30 %
31.08.2026 00:39 19,6 °C 85 % 1015,4 hPa 0,0 l/m² 0,0 km/h (0 Bft) N 0 ° 0 min 0,000 mm 0,0 UV-I 0 W/m² 17,0 °C 19,6 °C 0,0 km/h (0 Bft) 100,00 %
31.08.2026 00:38 19,6 °C 85 % 1015,4 hPa 0,0 l/m² 0,0 km/h (0 Bft) N 0 ° 0 min 0,000 mm 0,0 UV-I 0 W/m² 17,0 °C 19,6 °C 0,0 km/h (0 Bft) 100,00 %
31.08.2026 00:37 19,6 °C 85 % 1015,4 hPa 0,0 l/m² 0,0 km/h (0 Bft) N 0 ° 0 min 0,000 mm 0,0 UV-I 0 W/m² 17,0 °C 19,6 °C 0,0 km/h (0 Bft) 95,65 %
31.08.2026 00:36 19,6 °C 86 % 1015,4 hPa 0,0 l/m² 0,0 km/h (0 Bft) N 0 ° 0 min 0,000 mm 0,0 UV-I 0 W/m² 17,2 °C 19,6 °C 0,0 km/h (0 Bft) 100,00 %
31.08.2026 00:35 19,6 °C 86 % 1015,5 hPa 0,0 l/m² 0,0 km/h (0 Bft) N 0 ° 0 min 0,000 mm 0,0 UV-I 0 W/m² 17,2 °C 19,6 °C 0,0 km/h (0 Bft) 95,65 %
31.08.2026 00:34 19,6 °C 86 % 1015,4 hPa 0,0 l/m² 0,0 km/h (0 Bft) N 0 ° 0 min 0,000 mm 0,0 UV-I 0 W/m² 17,2 °C 19,6 °C 0,0 km/h (0 Bft) 100,00 %
31.08.2026 00:33 19,6 °C 86 % 1015,4 hPa 0,0 l/m² 0,0 km/h (0 Bft) N 0 ° 0 min 0,000 mm 0,0 UV-I 0 W/m² 17,2 °C 19,6 °C 0,0 km/h (0 Bft) 91,30 %
31.08.2026 00:32 19,7 °C 86 % 1015,4 hPa 0,0 l/m² 0,0 km/h (0 Bft) N 0 ° 0 min 0,000 mm 0,0 UV-I 0 W/m² 17,3 °C 19,7 °C 0,0 km/h (0 Bft) 100,00 %
31.08.2026 00:31 19,7 °C 86 % 1015,4 hPa 0,0 l/m² 0,0 km/h (0 Bft) N 0 ° 0 min 0,000 mm 0,0 UV-I 0 W/m² 17,3 °C 19,7 °C 0,0 km/h (0 Bft) 100,00 %
31.08.2026 00:30 19,7 °C 86 % 1015,4 hPa 0,0 l/m² 0,0 km/h (0 Bft) N 0 ° 0 min 0,000 mm 0,0 UV-I 0 W/m² 17,3 °C 19,7 °C 0,0 km/h (0 Bft) 100,00 %
31.08.2026 00:29 19,7 °C 86 % 1015,5 hPa 0,0 l/m² 0,0 km/h (0 Bft) N 0 ° 0 min 0,000 mm 0,0 UV-I 0 W/m² 17,3 °C 19,7 °C 0,0 km/h (0 Bft) 100,00 %
31.08.2026 00:28 19,7 °C 85 % 1015,4 hPa 0,0 l/m² 0,0 km/h (0 Bft) N 0 ° 0 min 0,000 mm 0,0 UV-I 0 W/m² 17,1 °C 19,7 °C 0,0 km/h (0 Bft) 100,00 %
31.08.2026 00:27 19,7 °C 85 % 1015,4 hPa 0,0 l/m² 0,0 km/h (0 Bft) N 0 ° 0 min 0,000 mm 0,0 UV-I 0 W/m² 17,1 °C 19,7 °C 0,0 km/h (0 Bft) 100,00 %
31.08.2026 00:26 19,7 °C 86 % 1015,5 hPa 0,0 l/m² 0,0 km/h (0 Bft) N 0 ° 0 min 0,000 mm 0,0 UV-I 0 W/m² 17,3 °C 19,7 °C 0,0 km/h (0 Bft) 91,30 %
31.08.2026 00:25 19,7 °C 85 % 1015,5 hPa 0,0 l/m² 0,0 km/h (0 Bft) N 0 ° 0 min 0,000 mm 0,0 UV-I 0 W/m² 17,1 °C 19,7 °C 0,0 km/h (0 Bft) 100,00 %
31.08.2026 00:24 19,7 °C 86 % 1015,5 hPa 0,0 l/m² 0,0 km/h (0 Bft) N 0 ° 0 min 0,000 mm 0,0 UV-I 0 W/m² 17,3 °C 19,7 °C 0,0 km/h (0 Bft) 100,00 %
31.08.2026 00:23 19,6 °C 86 % 1015,5 hPa 0,0 l/m² 0,0 km/h (0 Bft) N 0 ° 0 min 0,000 mm 0,0 UV-I 0 W/m² 17,2 °C 19,6 °C 0,0 km/h (0 Bft) 100,00 %
31.08.2026 00:22 19,6 °C 86 % 1015,5 hPa 0,0 l/m² 0,0 km/h (0 Bft) N 0 ° 0 min 0,000 mm 0,0 UV-I 0 W/m² 17,2 °C 19,6 °C 0,0 km/h (0 Bft) 100,00 %
31.08.2026 00:21 19,6 °C 86 % 1015,4 hPa 0,0 l/m² 0,0 km/h (0 Bft) N 0 ° 0 min 0,000 mm 0,0 UV-I 0 W/m² 17,2 °C 19,6 °C 0,0 km/h (0 Bft) 100,00 %
31.08.2026 00:20 19,5 °C 86 % 1015,5 hPa 0,0 l/m² 0,0 km/h (0 Bft) N 0 ° 0 min 0,000 mm 0,0 UV-I 0 W/m² 17,1 °C 19,5 °C 0,0 km/h (0 Bft) 91,30 %
31.08.2026 00:19 19,4 °C 87 % 1015,5 hPa 0,0 l/m² 0,0 km/h (0 Bft) N 0 ° 0 min 0,000 mm 0,0 UV-I 0 W/m² 17,2 °C 19,4 °C 0,0 km/h (0 Bft) 95,65 %
31.08.2026 00:18 19,4 °C 87 % 1015,5 hPa 0,0 l/m² 0,0 km/h (0 Bft) N 0 ° 0 min 0,000 mm 0,0 UV-I 0 W/m² 17,2 °C 19,4 °C 0,0 km/h (0 Bft) 95,65 %
31.08.2026 00:17 19,4 °C 87 % 1015,5 hPa 0,0 l/m² 0,0 km/h (0 Bft) N 0 ° 0 min 0,000 mm 0,0 UV-I 0 W/m² 17,2 °C 19,4 °C 0,0 km/h (0 Bft) 100,00 %
31.08.2026 00:16 19,4 °C 87 % 1015,5 hPa 0,0 l/m² 0,0 km/h (0 Bft) N 0 ° 0 min 0,000 mm 0,0 UV-I 0 W/m² 17,2 °C 19,4 °C 0,0 km/h (0 Bft) 91,30 %
31.08.2026 00:15 19,3 °C 87 % 1015,4 hPa 0,0 l/m² 0,0 km/h (0 Bft) N 0 ° 0 min 0,000 mm 0,0 UV-I 0 W/m² 17,1 °C 19,3 °C 0,0 km/h (0 Bft) 95,65 %
31.08.2026 00:14 19,3 °C 87 % 1015,5 hPa 0,0 l/m² 0,0 km/h (0 Bft) N 0 ° 0 min 0,000 mm 0,0 UV-I 0 W/m² 17,1 °C 19,3 °C 0,0 km/h (0 Bft) 95,65 %
31.08.2026 00:13 19,3 °C 87 % 1015,4 hPa 0,0 l/m² 0,0 km/h (0 Bft) N 0 ° 0 min 0,000 mm 0,0 UV-I 0 W/m² 17,1 °C 19,3 °C 0,0 km/h (0 Bft) 95,65 %
31.08.2026 00:12 19,3 °C 87 % 1015,5 hPa 0,0 l/m² 0,0 km/h (0 Bft) N 0 ° 0 min 0,000 mm 0,0 UV-I 0 W/m² 17,1 °C 19,3 °C 0,0 km/h (0 Bft) 95,65 %
31.08.2026 00:11 19,3 °C 87 % 1015,5 hPa 0,0 l/m² 0,0 km/h (0 Bft) N 0 ° 0 min 0,000 mm 0,0 UV-I 0 W/m² 17,1 °C 19,3 °C 0,0 km/h (0 Bft) 95,65 %
31.08.2026 00:10 19,3 °C 87 % 1015,4 hPa 0,0 l/m² 0,0 km/h (0 Bft) N 0 ° 0 min 0,000 mm 0,0 UV-I 0 W/m² 17,1 °C 19,3 °C 0,0 km/h (0 Bft) 100,00 %
31.08.2026 00:09 19,3 °C 87 % 1015,5 hPa 0,0 l/m² 0,0 km/h (0 Bft) N 0 ° 0 min 0,000 mm 0,0 UV-I 0 W/m² 17,1 °C 19,3 °C 0,0 km/h (0 Bft) 95,65 %
31.08.2026 00:08 19,3 °C 87 % 1015,4 hPa 0,0 l/m² 0,0 km/h (0 Bft) N 0 ° 0 min 0,000 mm 0,0 UV-I 0 W/m² 17,1 °C 19,3 °C 0,0 km/h (0 Bft) 100,00 %
31.08.2026 00:07 19,3 °C 87 % 1015,4 hPa 0,0 l/m² 0,0 km/h (0 Bft) N 0 ° 0 min 0,000 mm 0,0 UV-I 0 W/m² 17,1 °C 19,3 °C 0,0 km/h (0 Bft) 95,65 %
31.08.2026 00:06 19,3 °C 87 % 1015,4 hPa 0,0 l/m² 0,0 km/h (0 Bft) N 0 ° 0 min 0,000 mm 0,0 UV-I 0 W/m² 17,1 °C 19,3 °C 0,0 km/h (0 Bft) 100,00 %
31.08.2026 00:05 19,3 °C 87 % 1015,4 hPa 0,0 l/m² 0,0 km/h (0 Bft) N 0 ° 0 min 0,000 mm 0,0 UV-I 0 W/m² 17,1 °C 19,3 °C 0,0 km/h (0 Bft) 100,00 %
31.08.2026 00:04 19,3 °C 86 % 1015,5 hPa 0,0 l/m² 0,0 km/h (0 Bft) N 0 ° 0 min 0,000 mm 0,0 UV-I 0 W/m² 16,9 °C 19,3 °C 0,0 km/h (0 Bft) 95,65 %
31.08.2026 00:03 19,3 °C 86 % 1015,4 hPa 0,0 l/m² 0,0 km/h (0 Bft) N 0 ° 0 min 0,000 mm 0,0 UV-I 0 W/m² 16,9 °C 19,3 °C 0,0 km/h (0 Bft) 100,00 %
31.08.2026 00:02 19,4 °C 86 % 1015,5 hPa 0,0 l/m² 0,0 km/h (0 Bft) N 0 ° 0 min 0,000 mm 0,0 UV-I 0 W/m² 17,0 °C 19,4 °C 0,0 km/h (0 Bft) 95,65 %
31.08.2026 00:01 19,4 °C 86 % 1015,4 hPa 0,0 l/m² 0,0 km/h (0 Bft) O-NO 67 ° 0 min 0,000 mm 0,0 UV-I 0 W/m² 17,0 °C 19,4 °C 1,6 km/h (1 Bft) 95,65 %
31.08.2026 00:00 19,4 °C 86 % 1015,4 hPa 0,0 l/m² 0,0 km/h (0 Bft) N 0 ° 0 min 0,000 mm 0,0 UV-I 0 W/m² 17,0 °C 19,4 °C 0,0 km/h (0 Bft) 100,00 %
30.08.2026 23:59 19,4 °C 86 % 1015,4 hPa 0,0 l/m² 0,0 km/h (0 Bft) N 0 ° 0 min 0,000 mm 0,0 UV-I 0 W/m² 17,0 °C 19,4 °C 0,0 km/h (0 Bft) 91,30 %
30.08.2026 23:58 19,4 °C 87 % 1015,4 hPa 0,0 l/m² 0,0 km/h (0 Bft) O-NO 67 ° 0 min 0,000 mm 0,0 UV-I 0 W/m² 17,2 °C 19,4 °C 1,6 km/h (1 Bft) 95,65 %
30.08.2026 23:57 19,3 °C 87 % 1015,4 hPa 0,0 l/m² 0,0 km/h (0 Bft) N 0 ° 0 min 0,000 mm 0,0 UV-I 0 W/m² 17,1 °C 19,3 °C 0,0 km/h (0 Bft) 95,65 %
30.08.2026 23:56 19,3 °C 87 % 1015,4 hPa 0,0 l/m² 0,0 km/h (0 Bft) N 0 ° 0 min 0,000 mm 0,0 UV-I 0 W/m² 17,1 °C 19,3 °C 0,0 km/h (0 Bft) 95,65 %
30.08.2026 23:55 19,3 °C 87 % 1015,4 hPa 0,0 l/m² 0,0 km/h (0 Bft) N 0 ° 0 min 0,000 mm 0,0 UV-I 0 W/m² 17,1 °C 19,3 °C 0,0 km/h (0 Bft) 95,65 %
30.08.2026 23:54 19,2 °C 87 % 1015,4 hPa 0,0 l/m² 0,0 km/h (0 Bft) N 0 ° 0 min 0,000 mm 0,0 UV-I 0 W/m² 17,0 °C 19,2 °C 0,0 km/h (0 Bft) 100,00 %
30.08.2026 23:53 19,2 °C 87 % 1015,4 hPa 0,0 l/m² 0,0 km/h (0 Bft) N 0 ° 0 min 0,000 mm 0,0 UV-I 0 W/m² 17,0 °C 19,2 °C 0,0 km/h (0 Bft) 100,00 %
30.08.2026 23:52 19,2 °C 87 % 1015,4 hPa 0,0 l/m² 0,0 km/h (0 Bft) N 0 ° 0 min 0,000 mm 0,0 UV-I 0 W/m² 17,0 °C 19,2 °C 0,0 km/h (0 Bft) 100,00 %
30.08.2026 23:51 19,2 °C 87 % 1015,3 hPa 0,0 l/m² 0,0 km/h (0 Bft) N 0 ° 0 min 0,000 mm 0,0 UV-I 0 W/m² 17,0 °C 19,2 °C 0,0 km/h (0 Bft) 100,00 %
30.08.2026 23:50 19,2 °C 87 % 1015,4 hPa 0,0 l/m² 0,0 km/h (0 Bft) N 0 ° 0 min 0,000 mm 0,0 UV-I 0 W/m² 17,0 °C 19,2 °C 0,0 km/h (0 Bft) 100,00 %
30.08.2026 23:49 19,2 °C 87 % 1015,4 hPa 0,0 l/m² 0,0 km/h (0 Bft) N 0 ° 0 min 0,000 mm 0,0 UV-I 0 W/m² 17,0 °C 19,2 °C 0,0 km/h (0 Bft) 95,65 %
30.08.2026 23:48 19,2 °C 87 % 1015,5 hPa 0,0 l/m² 0,0 km/h (0 Bft) N 0 ° 0 min 0,000 mm 0,0 UV-I 0 W/m² 17,0 °C 19,2 °C 0,0 km/h (0 Bft) 95,65 %
30.08.2026 23:47 19,2 °C 87 % 1015,5 hPa 0,0 l/m² 0,0 km/h (0 Bft) N 0 ° 0 min 0,000 mm 0,0 UV-I 0 W/m² 17,0 °C 19,2 °C 0,0 km/h (0 Bft) 100,00 %
30.08.2026 23:46 19,2 °C 88 % 1015,5 hPa 0,0 l/m² 0,0 km/h (0 Bft) N 0 ° 0 min 0,000 mm 0,0 UV-I 0 W/m² 17,2 °C 19,2 °C 0,0 km/h (0 Bft) 100,00 %
30.08.2026 23:45 19,1 °C 88 % 1015,4 hPa 0,0 l/m² 0,0 km/h (0 Bft) N 0 ° 0 min 0,000 mm 0,0 UV-I 0 W/m² 17,1 °C 19,1 °C 0,0 km/h (0 Bft) 100,00 %
30.08.2026 23:44 19,1 °C 88 % 1015,5 hPa 0,0 l/m² 0,0 km/h (0 Bft) N 0 ° 0 min 0,000 mm 0,0 UV-I 0 W/m² 17,1 °C 19,1 °C 0,0 km/h (0 Bft) 100,00 %
30.08.2026 23:43 19,1 °C 88 % 1015,4 hPa 0,0 l/m² 0,0 km/h (0 Bft) N 0 ° 0 min 0,000 mm 0,0 UV-I 0 W/m² 17,1 °C 19,1 °C 0,0 km/h (0 Bft) 91,30 %
30.08.2026 23:42 19,1 °C 88 % 1015,4 hPa 0,0 l/m² 0,0 km/h (0 Bft) N 0 ° 0 min 0,000 mm 0,0 UV-I 0 W/m² 17,1 °C 19,1 °C 0,0 km/h (0 Bft) 95,65 %
30.08.2026 23:41 19,0 °C 88 % 1015,5 hPa 0,0 l/m² 0,0 km/h (0 Bft) N 0 ° 0 min 0,000 mm 0,0 UV-I 0 W/m² 17,0 °C 19,0 °C 0,0 km/h (0 Bft) 100,00 %
30.08.2026 23:40 19,0 °C 88 % 1015,5 hPa 0,0 l/m² 0,0 km/h (0 Bft) N 0 ° 0 min 0,000 mm 0,0 UV-I 0 W/m² 17,0 °C 19,0 °C 0,0 km/h (0 Bft) 100,00 %
30.08.2026 23:39 18,9 °C 88 % 1015,5 hPa 0,0 l/m² 0,0 km/h (0 Bft) N 0 ° 0 min 0,000 mm 0,0 UV-I 0 W/m² 16,9 °C 18,9 °C 0,0 km/h (0 Bft) 100,00 %
30.08.2026 23:38 18,9 °C 88 % 1015,4 hPa 0,0 l/m² 0,0 km/h (0 Bft) N 0 ° 0 min 0,000 mm 0,0 UV-I 0 W/m² 16,9 °C 18,9 °C 0,0 km/h (0 Bft) 100,00 %
30.08.2026 23:37 18,9 °C 88 % 1015,4 hPa 0,0 l/m² 0,0 km/h (0 Bft) N 0 ° 0 min 0,000 mm 0,0 UV-I 0 W/m² 16,9 °C 18,9 °C 0,0 km/h (0 Bft) 100,00 %
30.08.2026 23:36 18,9 °C 88 % 1015,4 hPa 0,0 l/m² 0,0 km/h (0 Bft) N 0 ° 0 min 0,000 mm 0,0 UV-I 0 W/m² 16,9 °C 18,9 °C 0,0 km/h (0 Bft) 100,00 %
30.08.2026 23:35 18,9 °C 88 % 1015,4 hPa 0,0 l/m² 0,0 km/h (0 Bft) N 0 ° 0 min 0,000 mm 0,0 UV-I 0 W/m² 16,9 °C 18,9 °C 0,0 km/h (0 Bft) 91,30 %
30.08.2026 23:34 18,9 °C 88 % 1015,4 hPa 0,0 l/m² 0,0 km/h (0 Bft) N 0 ° 0 min 0,000 mm 0,0 UV-I 0 W/m² 16,9 °C 18,9 °C 0,0 km/h (0 Bft) 95,65 %
30.08.2026 23:33 18,9 °C 88 % 1015,4 hPa 0,0 l/m² 0,0 km/h (0 Bft) N 0 ° 0 min 0,000 mm 0,0 UV-I 0 W/m² 16,9 °C 18,9 °C 0,0 km/h (0 Bft) 95,65 %
30.08.2026 23:32 18,9 °C 88 % 1015,5 hPa 0,0 l/m² 0,0 km/h (0 Bft) N 0 ° 0 min 0,000 mm 0,0 UV-I 0 W/m² 16,9 °C 18,9 °C 0,0 km/h (0 Bft) 100,00 %
30.08.2026 23:31 19,0 °C 88 % 1015,4 hPa 0,0 l/m² 0,0 km/h (0 Bft) N 0 ° 0 min 0,000 mm 0,0 UV-I 0 W/m² 17,0 °C 19,0 °C 0,0 km/h (0 Bft) 100,00 %
30.08.2026 23:30 19,0 °C 88 % 1015,4 hPa 0,0 l/m² 0,0 km/h (0 Bft) N 0 ° 0 min 0,000 mm 0,0 UV-I 0 W/m² 17,0 °C 19,0 °C 0,0 km/h (0 Bft) 100,00 %
30.08.2026 23:29 19,1 °C 88 % 1015,5 hPa 0,0 l/m² 0,0 km/h (0 Bft) N 0 ° 0 min 0,000 mm 0,0 UV-I 0 W/m² 17,1 °C 19,1 °C 0,0 km/h (0 Bft) 100,00 %
30.08.2026 23:28 19,1 °C 88 % 1015,5 hPa 0,0 l/m² 0,0 km/h (0 Bft) N 0 ° 0 min 0,000 mm 0,0 UV-I 0 W/m² 17,1 °C 19,1 °C 0,0 km/h (0 Bft) 91,30 %
30.08.2026 23:27 19,1 °C 88 % 1015,4 hPa 0,0 l/m² 0,0 km/h (0 Bft) N 0 ° 0 min 0,000 mm 0,0 UV-I 0 W/m² 17,1 °C 19,1 °C 0,0 km/h (0 Bft) 100,00 %
30.08.2026 23:26 19,1 °C 88 % 1015,4 hPa 0,0 l/m² 0,0 km/h (0 Bft) N 0 ° 0 min 0,000 mm 0,0 UV-I 0 W/m² 17,1 °C 19,1 °C 0,0 km/h (0 Bft) 100,00 %
30.08.2026 23:25 19,1 °C 88 % 1015,5 hPa 0,0 l/m² 0,0 km/h (0 Bft) N 0 ° 0 min 0,000 mm 0,0 UV-I 0 W/m² 17,1 °C 19,1 °C 0,0 km/h (0 Bft) 100,00 %
30.08.2026 23:24 19,0 °C 88 % 1015,4 hPa 0,0 l/m² 0,0 km/h (0 Bft) N 0 ° 0 min 0,000 mm 0,0 UV-I 0 W/m² 17,0 °C 19,0 °C 0,0 km/h (0 Bft) 100,00 %
30.08.2026 23:23 19,0 °C 88 % 1015,5 hPa 0,0 l/m² 0,0 km/h (0 Bft) N 0 ° 0 min 0,000 mm 0,0 UV-I 0 W/m² 17,0 °C 19,0 °C 0,0 km/h (0 Bft) 100,00 %
30.08.2026 23:22 19,0 °C 88 % 1015,5 hPa 0,0 l/m² 0,0 km/h (0 Bft) N 0 ° 0 min 0,000 mm 0,0 UV-I 0 W/m² 17,0 °C 19,0 °C 0,0 km/h (0 Bft) 95,65 %
30.08.2026 23:21 18,9 °C 88 % 1015,5 hPa 0,0 l/m² 0,0 km/h (0 Bft) N 0 ° 0 min 0,000 mm 0,0 UV-I 0 W/m² 16,9 °C 18,9 °C 0,0 km/h (0 Bft) 95,65 %
30.08.2026 23:20 18,9 °C 88 % 1015,5 hPa 0,0 l/m² 0,0 km/h (0 Bft) N 0 ° 0 min 0,000 mm 0,0 UV-I 0 W/m² 16,9 °C 18,9 °C 0,0 km/h (0 Bft) 100,00 %
30.08.2026 23:19 19,0 °C 87 % 1015,5 hPa 0,0 l/m² 0,0 km/h (0 Bft) N 0 ° 0 min 0,000 mm 0,0 UV-I 0 W/m² 16,8 °C 19,0 °C 0,0 km/h (0 Bft) 100,00 %
30.08.2026 23:18 19,1 °C 87 % 1015,5 hPa 0,0 l/m² 0,0 km/h (0 Bft) N 0 ° 0 min 0,000 mm 0,0 UV-I 0 W/m² 16,9 °C 19,1 °C 0,0 km/h (0 Bft) 100,00 %
30.08.2026 23:17 19,1 °C 87 % 1015,6 hPa 0,0 l/m² 0,0 km/h (0 Bft) N 0 ° 0 min 0,000 mm 0,0 UV-I 0 W/m² 16,9 °C 19,1 °C 0,0 km/h (0 Bft) 100,00 %
30.08.2026 23:16 19,2 °C 87 % 1015,5 hPa 0,0 l/m² 0,0 km/h (0 Bft) N 0 ° 0 min 0,000 mm 0,0 UV-I 0 W/m² 17,0 °C 19,2 °C 0,0 km/h (0 Bft) 95,65 %
30.08.2026 23:15 19,2 °C 87 % 1015,5 hPa 0,0 l/m² 0,0 km/h (0 Bft) N 0 ° 0 min 0,000 mm 0,0 UV-I 0 W/m² 17,0 °C 19,2 °C 0,0 km/h (0 Bft) 100,00 %
30.08.2026 23:14 19,2 °C 86 % 1015,5 hPa 0,0 l/m² 0,0 km/h (0 Bft) N 0 ° 0 min 0,000 mm 0,0 UV-I 0 W/m² 16,8 °C 19,2 °C 0,0 km/h (0 Bft) 95,65 %
30.08.2026 23:13 19,4 °C 86 % 1015,5 hPa 0,0 l/m² 0,0 km/h (0 Bft) N 0 ° 0 min 0,000 mm 0,0 UV-I 0 W/m² 17,0 °C 19,4 °C 0,0 km/h (0 Bft) 100,00 %
30.08.2026 23:12 19,4 °C 86 % 1015,5 hPa 0,0 l/m² 0,0 km/h (0 Bft) N 0 ° 0 min 0,000 mm 0,0 UV-I 0 W/m² 17,0 °C 19,4 °C 0,0 km/h (0 Bft) 100,00 %
30.08.2026 23:11 19,5 °C 86 % 1015,4 hPa 0,0 l/m² 0,0 km/h (0 Bft) N 0 ° 0 min 0,000 mm 0,0 UV-I 0 W/m² 17,1 °C 19,5 °C 0,0 km/h (0 Bft) 100,00 %
30.08.2026 23:10 19,5 °C 86 % 1015,4 hPa 0,0 l/m² 0,0 km/h (0 Bft) N 0 ° 0 min 0,000 mm 0,0 UV-I 0 W/m² 17,1 °C 19,5 °C 0,0 km/h (0 Bft) 100,00 %
30.08.2026 23:09 19,4 °C 86 % 1015,5 hPa 0,0 l/m² 0,0 km/h (0 Bft) N 0 ° 0 min 0,000 mm 0,0 UV-I 0 W/m² 17,0 °C 19,4 °C 0,0 km/h (0 Bft) 95,65 %
30.08.2026 23:08 19,4 °C 86 % 1015,4 hPa 0,0 l/m² 0,0 km/h (0 Bft) N 0 ° 0 min 0,000 mm 0,0 UV-I 0 W/m² 17,0 °C 19,4 °C 0,0 km/h (0 Bft) 100,00 %
30.08.2026 23:07 19,4 °C 87 % 1015,4 hPa 0,0 l/m² 0,0 km/h (0 Bft) N 0 ° 0 min 0,000 mm 0,0 UV-I 0 W/m² 17,2 °C 19,4 °C 0,0 km/h (0 Bft) 91,30 %
30.08.2026 23:06 19,3 °C 87 % 1015,5 hPa 0,0 l/m² 0,0 km/h (0 Bft) N 0 ° 0 min 0,000 mm 0,0 UV-I 0 W/m² 17,1 °C 19,3 °C 0,0 km/h (0 Bft) 100,00 %
30.08.2026 23:05 19,3 °C 87 % 1015,4 hPa 0,0 l/m² 0,0 km/h (0 Bft) N 0 ° 0 min 0,000 mm 0,0 UV-I 0 W/m² 17,1 °C 19,3 °C 0,0 km/h (0 Bft) 95,65 %
30.08.2026 23:04 19,3 °C 86 % 1015,4 hPa 0,0 l/m² 0,0 km/h (0 Bft) N 0 ° 0 min 0,000 mm 0,0 UV-I 0 W/m² 16,9 °C 19,3 °C 0,0 km/h (0 Bft) 95,65 %
30.08.2026 23:03 19,3 °C 86 % 1015,4 hPa 0,0 l/m² 0,0 km/h (0 Bft) N 0 ° 0 min 0,000 mm 0,0 UV-I 0 W/m² 16,9 °C 19,3 °C 0,0 km/h (0 Bft) 100,00 %
30.08.2026 23:02 19,4 °C 86 % 1015,4 hPa 0,0 l/m² 0,0 km/h (0 Bft) N 0 ° 0 min 0,000 mm 0,0 UV-I 0 W/m² 17,0 °C 19,4 °C 0,0 km/h (0 Bft) 100,00 %
30.08.2026 23:01 19,5 °C 85 % 1015,4 hPa 0,0 l/m² 0,0 km/h (0 Bft) N 0 ° 0 min 0,000 mm 0,0 UV-I 0 W/m² 16,9 °C 19,5 °C 0,0 km/h (0 Bft) 95,65 %
30.08.2026 23:00 19,6 °C 85 % 1015,4 hPa 0,0 l/m² 0,0 km/h (0 Bft) N 0 ° 0 min 0,025 mm 0,0 UV-I 0 W/m² 17,0 °C 19,6 °C 0,0 km/h (0 Bft) 91,30 %
30.08.2026 22:59 19,7 °C 84 % 1015,4 hPa 0,0 l/m² 0,0 km/h (0 Bft) N 0 ° 0 min 0,000 mm 0,0 UV-I 0 W/m² 16,9 °C 19,7 °C 0,0 km/h (0 Bft) 100,00 %
30.08.2026 22:58 19,8 °C 84 % 1015,4 hPa 0,0 l/m² 0,0 km/h (0 Bft) N 0 ° 0 min 0,000 mm 0,0 UV-I 0 W/m² 17,0 °C 19,8 °C 0,0 km/h (0 Bft) 95,65 %
30.08.2026 22:57 19,9 °C 84 % 1015,4 hPa 0,0 l/m² 0,0 km/h (0 Bft) N 0 ° 0 min 0,000 mm 0,0 UV-I 0 W/m² 17,1 °C 19,9 °C 0,0 km/h (0 Bft) 100,00 %
30.08.2026 22:56 20,1 °C 84 % 1015,4 hPa 0,0 l/m² 0,0 km/h (0 Bft) N 0 ° 0 min 0,000 mm 0,0 UV-I 0 W/m² 17,3 °C 20,1 °C 0,0 km/h (0 Bft) 100,00 %
30.08.2026 22:55 20,1 °C 84 % 1015,4 hPa 0,0 l/m² 0,0 km/h (0 Bft) N 0 ° 0 min 0,000 mm 0,0 UV-I 0 W/m² 17,3 °C 20,1 °C 0,0 km/h (0 Bft) 100,00 %
30.08.2026 22:54 19,9 °C 84 % 1015,4 hPa 0,0 l/m² 0,0 km/h (0 Bft) N 0 ° 0 min 0,000 mm 0,0 UV-I 0 W/m² 17,1 °C 19,9 °C 0,0 km/h (0 Bft) 100,00 %
30.08.2026 22:53 19,9 °C 85 % 1015,4 hPa 0,0 l/m² 0,0 km/h (0 Bft) N 0 ° 0 min 0,000 mm 0,0 UV-I 0 W/m² 17,3 °C 19,9 °C 0,0 km/h (0 Bft) 91,30 %
30.08.2026 22:52 19,8 °C 85 % 1015,4 hPa 0,0 l/m² 0,0 km/h (0 Bft) N 0 ° 0 min 0,000 mm 0,0 UV-I 0 W/m² 17,2 °C 19,8 °C 0,0 km/h (0 Bft) 100,00 %
30.08.2026 22:51 19,8 °C 85 % 1015,4 hPa 0,0 l/m² 0,0 km/h (0 Bft) N 0 ° 0 min 0,000 mm 0,0 UV-I 0 W/m² 17,2 °C 19,8 °C 0,0 km/h (0 Bft) 95,65 %
30.08.2026 22:50 19,8 °C 85 % 1015,4 hPa 0,0 l/m² 0,0 km/h (0 Bft) N 0 ° 0 min 0,000 mm 0,0 UV-I 0 W/m² 17,2 °C 19,8 °C 0,0 km/h (0 Bft) 100,00 %
30.08.2026 22:49 19,8 °C 85 % 1015,4 hPa 0,0 l/m² 0,0 km/h (0 Bft) N 0 ° 0 min 0,000 mm 0,0 UV-I 0 W/m² 17,2 °C 19,8 °C 0,0 km/h (0 Bft) 100,00 %
30.08.2026 22:48 19,8 °C 85 % 1015,4 hPa 0,0 l/m² 0,0 km/h (0 Bft) N 0 ° 0 min 0,000 mm 0,0 UV-I 0 W/m² 17,2 °C 19,8 °C 0,0 km/h (0 Bft) 100,00 %
30.08.2026 22:47 19,8 °C 85 % 1015,4 hPa 0,0 l/m² 0,0 km/h (0 Bft) N 0 ° 0 min 0,000 mm 0,0 UV-I 0 W/m² 17,2 °C 19,8 °C 0,0 km/h (0 Bft) 95,65 %
30.08.2026 22:46 19,9 °C 85 % 1015,4 hPa 0,0 l/m² 0,0 km/h (0 Bft) N 0 ° 0 min 0,000 mm 0,0 UV-I 0 W/m² 17,3 °C 19,9 °C 0,0 km/h (0 Bft) 95,65 %
30.08.2026 22:45 19,9 °C 85 % 1015,4 hPa 0,0 l/m² 0,0 km/h (0 Bft) N 0 ° 0 min 0,000 mm 0,0 UV-I 0 W/m² 17,3 °C 19,9 °C 0,0 km/h (0 Bft) 100,00 %
30.08.2026 22:44 19,8 °C 85 % 1015,4 hPa 0,0 l/m² 0,0 km/h (0 Bft) N 0 ° 0 min 0,000 mm 0,0 UV-I 0 W/m² 17,2 °C 19,8 °C 0,0 km/h (0 Bft) 95,65 %
30.08.2026 22:43 19,8 °C 86 % 1015,4 hPa 0,0 l/m² 0,0 km/h (0 Bft) N 0 ° 0 min 0,000 mm 0,0 UV-I 0 W/m² 17,4 °C 19,8 °C 0,0 km/h (0 Bft) 100,00 %
30.08.2026 22:42 19,7 °C 86 % 1015,4 hPa 0,0 l/m² 0,0 km/h (0 Bft) N 0 ° 0 min 0,000 mm 0,0 UV-I 0 W/m² 17,3 °C 19,7 °C 0,0 km/h (0 Bft) 100,00 %
30.08.2026 22:41 19,8 °C 86 % 1015,4 hPa 0,0 l/m² 0,0 km/h (0 Bft) N 0 ° 0 min 0,000 mm 0,0 UV-I 0 W/m² 17,4 °C 19,8 °C 0,0 km/h (0 Bft) 100,00 %
30.08.2026 22:40 19,8 °C 85 % 1015,4 hPa 0,0 l/m² 0,0 km/h (0 Bft) N 0 ° 0 min 0,000 mm 0,0 UV-I 0 W/m² 17,2 °C 19,8 °C 0,0 km/h (0 Bft) 100,00 %
30.08.2026 22:39 19,9 °C 85 % 1015,3 hPa 0,0 l/m² 0,0 km/h (0 Bft) N 0 ° 0 min 0,000 mm 0,0 UV-I 0 W/m² 17,3 °C 19,9 °C 0,0 km/h (0 Bft) 95,65 %
30.08.2026 22:38 19,9 °C 85 % 1015,4 hPa 0,0 l/m² 0,0 km/h (0 Bft) N 0 ° 0 min 0,000 mm 0,0 UV-I 0 W/m² 17,3 °C 19,9 °C 0,0 km/h (0 Bft) 95,65 %
30.08.2026 22:37 20,0 °C 84 % 1015,4 hPa 0,0 l/m² 0,0 km/h (0 Bft) N 0 ° 0 min 0,000 mm 0,0 UV-I 0 W/m² 17,2 °C 20,0 °C 0,0 km/h (0 Bft) 100,00 %
30.08.2026 22:36 20,1 °C 84 % 1015,3 hPa 0,0 l/m² 0,0 km/h (0 Bft) N 0 ° 0 min 0,000 mm 0,0 UV-I 0 W/m² 17,3 °C 20,1 °C 0,0 km/h (0 Bft) 100,00 %
30.08.2026 22:35 20,2 °C 83 % 1015,3 hPa 0,0 l/m² 0,0 km/h (0 Bft) N 0 ° 0 min 0,000 mm 0,0 UV-I 0 W/m² 17,2 °C 20,2 °C 0,0 km/h (0 Bft) 100,00 %
30.08.2026 22:34 20,2 °C 83 % 1015,4 hPa 0,0 l/m² 0,0 km/h (0 Bft) N 0 ° 0 min 0,000 mm 0,0 UV-I 0 W/m² 17,2 °C 20,2 °C 0,0 km/h (0 Bft) 100,00 %
30.08.2026 22:33 20,2 °C 83 % 1015,4 hPa 0,0 l/m² 0,0 km/h (0 Bft) N 0 ° 0 min 0,000 mm 0,0 UV-I 0 W/m² 17,2 °C 20,2 °C 0,0 km/h (0 Bft) 100,00 %
30.08.2026 22:32 20,3 °C 83 % 1015,4 hPa 0,0 l/m² 0,0 km/h (0 Bft) N 0 ° 0 min 0,000 mm 0,0 UV-I 0 W/m² 17,3 °C 20,3 °C 0,0 km/h (0 Bft) 91,30 %
30.08.2026 22:31 20,3 °C 83 % 1015,4 hPa 0,0 l/m² 0,0 km/h (0 Bft) N 0 ° 0 min 0,000 mm 0,0 UV-I 0 W/m² 17,3 °C 20,3 °C 0,0 km/h (0 Bft) 100,00 %
30.08.2026 22:30 20,3 °C 83 % 1015,4 hPa 0,0 l/m² 0,0 km/h (0 Bft) N 0 ° 0 min 0,000 mm 0,0 UV-I 0 W/m² 17,3 °C 20,3 °C 0,0 km/h (0 Bft) 100,00 %
30.08.2026 22:29 20,4 °C 83 % 1015,3 hPa 0,0 l/m² 0,0 km/h (0 Bft) N 0 ° 0 min 0,000 mm 0,0 UV-I 0 W/m² 17,4 °C 20,4 °C 0,0 km/h (0 Bft) 100,00 %
30.08.2026 22:28 20,3 °C 83 % 1015,3 hPa 0,0 l/m² 0,0 km/h (0 Bft) N 0 ° 0 min 0,000 mm 0,0 UV-I 0 W/m² 17,3 °C 20,3 °C 0,0 km/h (0 Bft) 100,00 %
30.08.2026 22:27 20,2 °C 83 % 1015,4 hPa 0,0 l/m² 0,0 km/h (0 Bft) N 0 ° 0 min 0,000 mm 0,0 UV-I 0 W/m² 17,2 °C 20,2 °C 0,0 km/h (0 Bft) 95,65 %
30.08.2026 22:26 20,2 °C 84 % 1015,4 hPa 0,0 l/m² 0,0 km/h (0 Bft) N 0 ° 0 min 0,000 mm 0,0 UV-I 0 W/m² 17,4 °C 20,2 °C 0,0 km/h (0 Bft) 100,00 %
30.08.2026 22:25 20,1 °C 84 % 1015,4 hPa 0,0 l/m² 0,0 km/h (0 Bft) N 0 ° 0 min 0,000 mm 0,0 UV-I 0 W/m² 17,3 °C 20,1 °C 0,0 km/h (0 Bft) 86,96 %
30.08.2026 22:24 20,1 °C 84 % 1015,3 hPa 0,0 l/m² 0,0 km/h (0 Bft) N 0 ° 0 min 0,000 mm 0,0 UV-I 0 W/m² 17,3 °C 20,1 °C 0,0 km/h (0 Bft) 100,00 %
30.08.2026 22:23 20,1 °C 84 % 1015,3 hPa 0,0 l/m² 0,0 km/h (0 Bft) N 0 ° 0 min 0,000 mm 0,0 UV-I 0 W/m² 17,3 °C 20,1 °C 0,0 km/h (0 Bft) 100,00 %
30.08.2026 22:22 20,1 °C 84 % 1015,4 hPa 0,0 l/m² 0,0 km/h (0 Bft) N 0 ° 0 min 0,000 mm 0,0 UV-I 0 W/m² 17,3 °C 20,1 °C 0,0 km/h (0 Bft) 100,00 %
30.08.2026 22:21 20,2 °C 83 % 1015,4 hPa 0,0 l/m² 0,0 km/h (0 Bft) N 0 ° 0 min 0,000 mm 0,0 UV-I 0 W/m² 17,2 °C 20,2 °C 0,0 km/h (0 Bft) 100,00 %
30.08.2026 22:20 20,2 °C 83 % 1015,4 hPa 0,0 l/m² 0,0 km/h (0 Bft) N 0 ° 0 min 0,000 mm 0,0 UV-I 0 W/m² 17,2 °C 20,2 °C 0,0 km/h (0 Bft) 100,00 %
30.08.2026 22:19 20,4 °C 82 % 1015,4 hPa 0,0 l/m² 0,0 km/h (0 Bft) N 0 ° 0 min 0,000 mm 0,0 UV-I 0 W/m² 17,2 °C 20,4 °C 0,0 km/h (0 Bft) 100,00 %
30.08.2026 22:18 20,4 °C 81 % 1015,4 hPa 0,0 l/m² 0,0 km/h (0 Bft) N 0 ° 0 min 0,000 mm 0,0 UV-I 0 W/m² 17,0 °C 20,4 °C 0,0 km/h (0 Bft) 95,65 %
30.08.2026 22:17 20,5 °C 81 % 1015,4 hPa 0,0 l/m² 0,0 km/h (0 Bft) N 0 ° 0 min 0,000 mm 0,0 UV-I 0 W/m² 17,1 °C 20,5 °C 0,0 km/h (0 Bft) 100,00 %
30.08.2026 22:16 20,6 °C 81 % 1015,5 hPa 0,0 l/m² 0,0 km/h (0 Bft) N 0 ° 0 min 0,000 mm 0,0 UV-I 0 W/m² 17,2 °C 20,6 °C 0,0 km/h (0 Bft) 100,00 %
30.08.2026 22:15 20,7 °C 81 % 1015,4 hPa 0,0 l/m² 0,0 km/h (0 Bft) N 0 ° 0 min 0,000 mm 0,0 UV-I 0 W/m² 17,3 °C 20,7 °C 0,0 km/h (0 Bft) 100,00 %
30.08.2026 22:14 20,7 °C 81 % 1015,4 hPa 0,0 l/m² 0,0 km/h (0 Bft) N 0 ° 0 min 0,000 mm 0,0 UV-I 0 W/m² 17,3 °C 20,7 °C 0,0 km/h (0 Bft) 95,65 %
30.08.2026 22:13 20,7 °C 81 % 1015,4 hPa 0,0 l/m² 0,0 km/h (0 Bft) N 0 ° 0 min 0,000 mm 0,0 UV-I 0 W/m² 17,3 °C 20,7 °C 0,0 km/h (0 Bft) 95,65 %
30.08.2026 22:12 20,6 °C 81 % 1015,5 hPa 0,0 l/m² 0,0 km/h (0 Bft) N 0 ° 0 min 0,000 mm 0,0 UV-I 0 W/m² 17,2 °C 20,6 °C 0,0 km/h (0 Bft) 100,00 %
30.08.2026 22:11 20,4 °C 82 % 1015,5 hPa 0,0 l/m² 0,0 km/h (0 Bft) N 0 ° 0 min 0,000 mm 0,0 UV-I 0 W/m² 17,2 °C 20,4 °C 0,0 km/h (0 Bft) 91,30 %
30.08.2026 22:10 20,4 °C 82 % 1015,4 hPa 0,0 l/m² 0,0 km/h (0 Bft) N 0 ° 0 min 0,000 mm 0,0 UV-I 0 W/m² 17,2 °C 20,4 °C 0,0 km/h (0 Bft) 100,00 %
30.08.2026 22:09 20,3 °C 82 % 1015,4 hPa 0,0 l/m² 0,0 km/h (0 Bft) N 0 ° 0 min 0,000 mm 0,0 UV-I 0 W/m² 17,1 °C 20,3 °C 0,0 km/h (0 Bft) 100,00 %
30.08.2026 22:08 20,3 °C 82 % 1015,4 hPa 0,0 l/m² 0,0 km/h (0 Bft) N 0 ° 0 min 0,000 mm 0,0 UV-I 0 W/m² 17,1 °C 20,3 °C 0,0 km/h (0 Bft) 100,00 %
30.08.2026 22:07 20,2 °C 82 % 1015,4 hPa 0,0 l/m² 0,0 km/h (0 Bft) N 0 ° 0 min 0,000 mm 0,0 UV-I 0 W/m² 17,0 °C 20,2 °C 0,0 km/h (0 Bft) 95,65 %
30.08.2026 22:06 20,2 °C 82 % 1015,4 hPa 0,0 l/m² 0,0 km/h (0 Bft) N 0 ° 0 min 0,000 mm 0,0 UV-I 0 W/m² 17,0 °C 20,2 °C 0,0 km/h (0 Bft) 95,65 %
30.08.2026 22:05 20,2 °C 82 % 1015,4 hPa 0,0 l/m² 0,0 km/h (0 Bft) N 0 ° 0 min 0,000 mm 0,0 UV-I 0 W/m² 17,0 °C 20,2 °C 0,0 km/h (0 Bft) 100,00 %
30.08.2026 22:04 20,3 °C 82 % 1015,4 hPa 0,0 l/m² 0,0 km/h (0 Bft) N 0 ° 0 min 0,000 mm 0,0 UV-I 0 W/m² 17,1 °C 20,3 °C 0,0 km/h (0 Bft) 91,30 %
30.08.2026 22:03 20,2 °C 82 % 1015,4 hPa 0,0 l/m² 0,0 km/h (0 Bft) N 0 ° 0 min 0,000 mm 0,0 UV-I 0 W/m² 17,0 °C 20,2 °C 0,0 km/h (0 Bft) 100,00 %
30.08.2026 22:02 20,2 °C 82 % 1015,4 hPa 0,0 l/m² 0,0 km/h (0 Bft) N 0 ° 0 min 0,000 mm 0,0 UV-I 0 W/m² 17,0 °C 20,2 °C 0,0 km/h (0 Bft) 95,65 %
30.08.2026 22:01 20,2 °C 82 % 1015,4 hPa 0,0 l/m² 0,0 km/h (0 Bft) N 0 ° 0 min 0,000 mm 0,0 UV-I 0 W/m² 17,0 °C 20,2 °C 0,0 km/h (0 Bft) 100,00 %
30.08.2026 22:00 20,2 °C 82 % 1015,4 hPa 0,0 l/m² 0,0 km/h (0 Bft) N 0 ° 0 min 0,025 mm 0,0 UV-I 0 W/m² 17,0 °C 20,2 °C 0,0 km/h (0 Bft) 95,65 %
30.08.2026 21:59 20,2 °C 82 % 1015,4 hPa 0,0 l/m² 0,0 km/h (0 Bft) N 0 ° 0 min 0,000 mm 0,0 UV-I 0 W/m² 17,0 °C 20,2 °C 0,0 km/h (0 Bft) 100,00 %
30.08.2026 21:58 20,2 °C 82 % 1015,3 hPa 0,0 l/m² 0,0 km/h (0 Bft) N 0 ° 0 min 0,000 mm 0,0 UV-I 0 W/m² 17,0 °C 20,2 °C 0,0 km/h (0 Bft) 100,00 %
30.08.2026 21:57 20,2 °C 82 % 1015,4 hPa 0,0 l/m² 0,0 km/h (0 Bft) N 0 ° 0 min 0,000 mm 0,0 UV-I 0 W/m² 17,0 °C 20,2 °C 0,0 km/h (0 Bft) 95,65 %
30.08.2026 21:56 20,2 °C 82 % 1015,4 hPa 0,0 l/m² 0,0 km/h (0 Bft) N 0 ° 0 min 0,000 mm 0,0 UV-I 0 W/m² 17,0 °C 20,2 °C 0,0 km/h (0 Bft) 95,65 %
30.08.2026 21:55 20,2 °C 82 % 1015,4 hPa 0,0 l/m² 0,0 km/h (0 Bft) N 0 ° 0 min 0,000 mm 0,0 UV-I 0 W/m² 17,0 °C 20,2 °C 0,0 km/h (0 Bft) 100,00 %
30.08.2026 21:54 20,2 °C 82 % 1015,3 hPa 0,0 l/m² 0,0 km/h (0 Bft) N 0 ° 0 min 0,000 mm 0,0 UV-I 0 W/m² 17,0 °C 20,2 °C 0,0 km/h (0 Bft) 95,65 %
30.08.2026 21:53 20,2 °C 81 % 1015,3 hPa 0,0 l/m² 0,0 km/h (0 Bft) N 0 ° 0 min 0,000 mm 0,0 UV-I 0 W/m² 16,8 °C 20,2 °C 0,0 km/h (0 Bft) 100,00 %
30.08.2026 21:52 20,2 °C 82 % 1015,3 hPa 0,0 l/m² 0,0 km/h (0 Bft) N 0 ° 0 min 0,000 mm 0,0 UV-I 0 W/m² 17,0 °C 20,2 °C 0,0 km/h (0 Bft) 95,65 %
30.08.2026 21:51 20,2 °C 82 % 1015,3 hPa 0,0 l/m² 0,0 km/h (0 Bft) N 0 ° 0 min 0,000 mm 0,0 UV-I 0 W/m² 17,0 °C 20,2 °C 0,0 km/h (0 Bft) 100,00 %
30.08.2026 21:50 20,2 °C 82 % 1015,2 hPa 0,0 l/m² 0,0 km/h (0 Bft) N 0 ° 0 min 0,000 mm 0,0 UV-I 0 W/m² 17,0 °C 20,2 °C 0,0 km/h (0 Bft) 95,65 %
30.08.2026 21:49 20,2 °C 82 % 1015,2 hPa 0,0 l/m² 0,0 km/h (0 Bft) N 0 ° 0 min 0,000 mm 0,0 UV-I 0 W/m² 17,0 °C 20,2 °C 0,0 km/h (0 Bft) 100,00 %
30.08.2026 21:48 20,1 °C 82 % 1015,2 hPa 0,0 l/m² 0,0 km/h (0 Bft) N 0 ° 0 min 0,000 mm 0,0 UV-I 0 W/m² 16,9 °C 20,1 °C 0,0 km/h (0 Bft) 100,00 %
30.08.2026 21:47 20,1 °C 82 % 1015,2 hPa 0,0 l/m² 0,0 km/h (0 Bft) N 0 ° 0 min 0,000 mm 0,0 UV-I 0 W/m² 16,9 °C 20,1 °C 0,0 km/h (0 Bft) 95,65 %
30.08.2026 21:46 20,1 °C 82 % 1015,2 hPa 0,0 l/m² 0,0 km/h (0 Bft) N 0 ° 0 min 0,000 mm 0,0 UV-I 0 W/m² 16,9 °C 20,1 °C 0,0 km/h (0 Bft) 100,00 %
30.08.2026 21:45 20,1 °C 82 % 1015,2 hPa 0,0 l/m² 0,0 km/h (0 Bft) N 0 ° 0 min 0,000 mm 0,0 UV-I 0 W/m² 16,9 °C 20,1 °C 0,0 km/h (0 Bft) 95,65 %
30.08.2026 21:44 20,1 °C 82 % 1015,2 hPa 0,0 l/m² 0,0 km/h (0 Bft) N 0 ° 0 min 0,000 mm 0,0 UV-I 0 W/m² 16,9 °C 20,1 °C 0,0 km/h (0 Bft) 100,00 %
30.08.2026 21:43 20,1 °C 82 % 1015,2 hPa 0,0 l/m² 0,0 km/h (0 Bft) N 0 ° 0 min 0,000 mm 0,0 UV-I 0 W/m² 16,9 °C 20,1 °C 0,0 km/h (0 Bft) 91,30 %
30.08.2026 21:42 20,1 °C 82 % 1015,2 hPa 0,0 l/m² 0,0 km/h (0 Bft) N 0 ° 0 min 0,000 mm 0,0 UV-I 0 W/m² 16,9 °C 20,1 °C 0,0 km/h (0 Bft) 100,00 %
30.08.2026 21:41 20,1 °C 81 % 1015,1 hPa 0,0 l/m² 0,0 km/h (0 Bft) N 0 ° 0 min 0,000 mm 0,0 UV-I 0 W/m² 16,7 °C 20,1 °C 0,0 km/h (0 Bft) 95,65 %
30.08.2026 21:40 20,1 °C 81 % 1015,2 hPa 0,0 l/m² 0,0 km/h (0 Bft) N 0 ° 0 min 0,000 mm 0,0 UV-I 0 W/m² 16,7 °C 20,1 °C 0,0 km/h (0 Bft) 95,65 %
30.08.2026 21:39 20,1 °C 81 % 1015,1 hPa 0,0 l/m² 0,0 km/h (0 Bft) N 0 ° 0 min 0,000 mm 0,0 UV-I 0 W/m² 16,7 °C 20,1 °C 0,0 km/h (0 Bft) 100,00 %
30.08.2026 21:38 20,1 °C 80 % 1015,1 hPa 0,0 l/m² 0,0 km/h (0 Bft) N 0 ° 0 min 0,000 mm 0,0 UV-I 0 W/m² 16,5 °C 20,1 °C 0,0 km/h (0 Bft) 95,65 %
30.08.2026 21:37 20,1 °C 81 % 1015,1 hPa 0,0 l/m² 0,0 km/h (0 Bft) N 0 ° 0 min 0,000 mm 0,0 UV-I 0 W/m² 16,7 °C 20,1 °C 0,0 km/h (0 Bft) 100,00 %
30.08.2026 21:36 20,1 °C 81 % 1015,2 hPa 0,0 l/m² 0,0 km/h (0 Bft) N 0 ° 0 min 0,000 mm 0,0 UV-I 0 W/m² 16,7 °C 20,1 °C 0,0 km/h (0 Bft) 91,30 %
30.08.2026 21:35 20,1 °C 81 % 1015,1 hPa 0,0 l/m² 0,0 km/h (0 Bft) N 0 ° 0 min 0,000 mm 0,0 UV-I 0 W/m² 16,7 °C 20,1 °C 0,0 km/h (0 Bft) 100,00 %
30.08.2026 21:34 20,1 °C 81 % 1015,1 hPa 0,0 l/m² 0,0 km/h (0 Bft) N 0 ° 0 min 0,000 mm 0,0 UV-I 0 W/m² 16,7 °C 20,1 °C 0,0 km/h (0 Bft) 100,00 %
30.08.2026 21:33 20,2 °C 81 % 1015,1 hPa 0,0 l/m² 0,0 km/h (0 Bft) N 0 ° 0 min 0,000 mm 0,0 UV-I 0 W/m² 16,8 °C 20,2 °C 0,0 km/h (0 Bft) 100,00 %
30.08.2026 21:32 20,2 °C 81 % 1015,0 hPa 0,0 l/m² 0,0 km/h (0 Bft) N 0 ° 0 min 0,000 mm 0,0 UV-I 0 W/m² 16,8 °C 20,2 °C 0,0 km/h (0 Bft) 95,65 %
30.08.2026 21:31 20,3 °C 81 % 1015,1 hPa 0,0 l/m² 0,0 km/h (0 Bft) N 0 ° 0 min 0,000 mm 0,0 UV-I 0 W/m² 16,9 °C 20,3 °C 0,0 km/h (0 Bft) 100,00 %
30.08.2026 21:30 20,4 °C 80 % 1015,1 hPa 0,0 l/m² 0,0 km/h (0 Bft) N 0 ° 0 min 0,000 mm 0,0 UV-I 0 W/m² 16,8 °C 20,4 °C 0,0 km/h (0 Bft) 100,00 %
30.08.2026 21:29 20,6 °C 80 % 1015,1 hPa 0,0 l/m² 0,0 km/h (0 Bft) N 0 ° 0 min 0,000 mm 0,0 UV-I 0 W/m² 17,0 °C 20,6 °C 0,0 km/h (0 Bft) 91,30 %
30.08.2026 21:28 20,7 °C 80 % 1015,0 hPa 0,0 l/m² 0,0 km/h (0 Bft) N 0 ° 0 min 0,000 mm 0,0 UV-I 0 W/m² 17,1 °C 20,7 °C 0,0 km/h (0 Bft) 100,00 %
30.08.2026 21:27 20,8 °C 80 % 1015,1 hPa 0,0 l/m² 0,0 km/h (0 Bft) N 0 ° 0 min 0,000 mm 0,0 UV-I 0 W/m² 17,2 °C 20,8 °C 0,0 km/h (0 Bft) 100,00 %
30.08.2026 21:26 20,9 °C 80 % 1015,1 hPa 0,0 l/m² 0,0 km/h (0 Bft) N 0 ° 0 min 0,000 mm 0,0 UV-I 0 W/m² 17,3 °C 20,9 °C 0,0 km/h (0 Bft) 100,00 %
30.08.2026 21:25 20,9 °C 80 % 1015,1 hPa 0,0 l/m² 0,0 km/h (0 Bft) N 0 ° 0 min 0,000 mm 0,0 UV-I 0 W/m² 17,3 °C 20,9 °C 0,0 km/h (0 Bft) 100,00 %
30.08.2026 21:24 21,0 °C 79 % 1015,0 hPa 0,0 l/m² 0,0 km/h (0 Bft) N 0 ° 0 min 0,000 mm 0,0 UV-I 0 W/m² 17,2 °C 21,0 °C 0,0 km/h (0 Bft) 100,00 %
30.08.2026 21:23 21,1 °C 79 % 1015,1 hPa 0,0 l/m² 0,0 km/h (0 Bft) N 0 ° 0 min 0,000 mm 0,0 UV-I 0 W/m² 17,3 °C 21,1 °C 0,0 km/h (0 Bft) 100,00 %
30.08.2026 21:22 21,2 °C 78 % 1015,0 hPa 0,0 l/m² 0,0 km/h (0 Bft) N 0 ° 0 min 0,000 mm 0,0 UV-I 0 W/m² 17,2 °C 21,2 °C 0,0 km/h (0 Bft) 95,65 %
30.08.2026 21:21 21,2 °C 78 % 1015,1 hPa 0,0 l/m² 0,0 km/h (0 Bft) N 0 ° 0 min 0,000 mm 0,0 UV-I 0 W/m² 17,2 °C 21,2 °C 0,0 km/h (0 Bft) 100,00 %
30.08.2026 21:20 21,3 °C 78 % 1015,0 hPa 0,0 l/m² 0,0 km/h (0 Bft) N 0 ° 0 min 0,000 mm 0,0 UV-I 0 W/m² 17,3 °C 21,3 °C 0,0 km/h (0 Bft) 100,00 %
30.08.2026 21:19 21,4 °C 78 % 1015,0 hPa 0,0 l/m² 0,0 km/h (0 Bft) N 0 ° 0 min 0,000 mm 0,0 UV-I 0 W/m² 17,4 °C 21,4 °C 0,0 km/h (0 Bft) 100,00 %
30.08.2026 21:18 21,4 °C 78 % 1015,0 hPa 0,0 l/m² 0,0 km/h (0 Bft) N 0 ° 0 min 0,000 mm 0,0 UV-I 0 W/m² 17,4 °C 21,4 °C 0,0 km/h (0 Bft) 100,00 %
30.08.2026 21:17 21,4 °C 77 % 1015,0 hPa 0,0 l/m² 0,0 km/h (0 Bft) N 0 ° 0 min 0,000 mm 0,0 UV-I 0 W/m² 17,2 °C 21,4 °C 0,0 km/h (0 Bft) 100,00 %
30.08.2026 21:16 21,4 °C 77 % 1015,0 hPa 0,0 l/m² 0,0 km/h (0 Bft) N 0 ° 0 min 0,000 mm 0,0 UV-I 0 W/m² 17,2 °C 21,4 °C 0,0 km/h (0 Bft) 95,65 %
30.08.2026 21:15 21,4 °C 77 % 1015,0 hPa 0,0 l/m² 0,0 km/h (0 Bft) N 0 ° 0 min 0,000 mm 0,0 UV-I 0 W/m² 17,2 °C 21,4 °C 0,0 km/h (0 Bft) 95,65 %
30.08.2026 21:14 21,4 °C 77 % 1015,0 hPa 0,0 l/m² 0,0 km/h (0 Bft) N 0 ° 0 min 0,000 mm 0,0 UV-I 0 W/m² 17,2 °C 21,4 °C 0,0 km/h (0 Bft) 100,00 %
30.08.2026 21:13 21,4 °C 78 % 1015,1 hPa 0,0 l/m² 0,0 km/h (0 Bft) N 0 ° 0 min 0,000 mm 0,0 UV-I 0 W/m² 17,4 °C 21,4 °C 0,0 km/h (0 Bft) 95,65 %
30.08.2026 21:12 21,4 °C 78 % 1015,0 hPa 0,0 l/m² 0,0 km/h (0 Bft) N 0 ° 0 min 0,000 mm 0,0 UV-I 0 W/m² 17,4 °C 21,4 °C 0,0 km/h (0 Bft) 95,65 %
30.08.2026 21:11 21,4 °C 78 % 1015,0 hPa 0,0 l/m² 0,0 km/h (0 Bft) N 0 ° 0 min 0,000 mm 0,0 UV-I 0 W/m² 17,4 °C 21,4 °C 0,0 km/h (0 Bft) 100,00 %
30.08.2026 21:10 21,4 °C 78 % 1015,1 hPa 0,0 l/m² 0,0 km/h (0 Bft) N 0 ° 0 min 0,000 mm 0,0 UV-I 0 W/m² 17,4 °C 21,4 °C 0,0 km/h (0 Bft) 91,30 %
30.08.2026 21:09 21,4 °C 78 % 1015,0 hPa 0,0 l/m² 0,0 km/h (0 Bft) N 0 ° 0 min 0,000 mm 0,0 UV-I 0 W/m² 17,4 °C 21,4 °C 0,0 km/h (0 Bft) 100,00 %
30.08.2026 21:08 21,4 °C 78 % 1015,1 hPa 0,0 l/m² 0,0 km/h (0 Bft) N 0 ° 0 min 0,000 mm 0,0 UV-I 0 W/m² 17,4 °C 21,4 °C 0,0 km/h (0 Bft) 91,30 %
30.08.2026 21:07 21,4 °C 78 % 1015,0 hPa 0,0 l/m² 0,0 km/h (0 Bft) N 0 ° 0 min 0,000 mm 0,0 UV-I 0 W/m² 17,4 °C 21,4 °C 0,0 km/h (0 Bft) 100,00 %
30.08.2026 21:06 21,3 °C 78 % 1015,0 hPa 0,0 l/m² 0,0 km/h (0 Bft) N 0 ° 0 min 0,000 mm 0,0 UV-I 0 W/m² 17,3 °C 21,3 °C 0,0 km/h (0 Bft) 95,65 %
30.08.2026 21:05 21,3 °C 78 % 1015,0 hPa 0,0 l/m² 0,0 km/h (0 Bft) N 0 ° 0 min 0,000 mm 0,0 UV-I 0 W/m² 17,3 °C 21,3 °C 0,0 km/h (0 Bft) 95,65 %
30.08.2026 21:04 21,3 °C 77 % 1015,0 hPa 0,0 l/m² 0,0 km/h (0 Bft) N 0 ° 0 min 0,000 mm 0,0 UV-I 0 W/m² 17,1 °C 21,3 °C 0,0 km/h (0 Bft) 100,00 %
30.08.2026 21:03 21,4 °C 77 % 1015,0 hPa 0,0 l/m² 0,0 km/h (0 Bft) N 0 ° 0 min 0,000 mm 0,0 UV-I 0 W/m² 17,2 °C 21,4 °C 0,0 km/h (0 Bft) 95,65 %
30.08.2026 21:02 21,4 °C 76 % 1015,0 hPa 0,0 l/m² 0,0 km/h (0 Bft) N 0 ° 0 min 0,000 mm 0,0 UV-I 0 W/m² 17,0 °C 21,4 °C 0,0 km/h (0 Bft) 100,00 %
30.08.2026 21:01 21,4 °C 76 % 1015,0 hPa 0,0 l/m² 0,0 km/h (0 Bft) N 0 ° 0 min 0,000 mm 0,0 UV-I 0 W/m² 17,0 °C 21,4 °C 0,0 km/h (0 Bft) 86,96 %
30.08.2026 21:00 21,4 °C 76 % 1015,0 hPa 0,0 l/m² 0,0 km/h (0 Bft) N 0 ° 0 min 0,025 mm 0,0 UV-I 0 W/m² 17,0 °C 21,4 °C 0,0 km/h (0 Bft) 100,00 %
30.08.2026 20:59 21,4 °C 76 % 1015,0 hPa 0,0 l/m² 0,0 km/h (0 Bft) N 0 ° 0 min 0,000 mm 0,0 UV-I 0 W/m² 17,0 °C 21,4 °C 0,0 km/h (0 Bft) 95,65 %
30.08.2026 20:58 21,4 °C 76 % 1015,0 hPa 0,0 l/m² 0,0 km/h (0 Bft) N 0 ° 0 min 0,000 mm 0,0 UV-I 0 W/m² 17,0 °C 21,4 °C 0,0 km/h (0 Bft) 95,65 %
30.08.2026 20:57 21,4 °C 76 % 1015,0 hPa 0,0 l/m² 0,0 km/h (0 Bft) N 0 ° 0 min 0,000 mm 0,0 UV-I 0 W/m² 17,0 °C 21,4 °C 0,0 km/h (0 Bft) 95,65 %
30.08.2026 20:56 21,4 °C 76 % 1014,9 hPa 0,0 l/m² 0,0 km/h (0 Bft) N 0 ° 0 min 0,000 mm 0,0 UV-I 0 W/m² 17,0 °C 21,4 °C 0,0 km/h (0 Bft) 91,30 %
30.08.2026 20:55 21,4 °C 76 % 1014,9 hPa 0,0 l/m² 0,0 km/h (0 Bft) N 0 ° 0 min 0,000 mm 0,0 UV-I 0 W/m² 17,0 °C 21,4 °C 0,0 km/h (0 Bft) 100,00 %
30.08.2026 20:54 21,4 °C 76 % 1015,0 hPa 0,0 l/m² 0,0 km/h (0 Bft) N 0 ° 0 min 0,000 mm 0,0 UV-I 0 W/m² 17,0 °C 21,4 °C 0,0 km/h (0 Bft) 91,30 %
30.08.2026 20:53 21,4 °C 75 % 1015,0 hPa 0,0 l/m² 0,0 km/h (0 Bft) N 0 ° 0 min 0,000 mm 0,0 UV-I 0 W/m² 16,8 °C 21,4 °C 0,0 km/h (0 Bft) 100,00 %
30.08.2026 20:52 21,4 °C 76 % 1014,9 hPa 0,0 l/m² 0,0 km/h (0 Bft) N 0 ° 0 min 0,000 mm 0,0 UV-I 0 W/m² 17,0 °C 21,4 °C 0,0 km/h (0 Bft) 95,65 %
30.08.2026 20:51 21,4 °C 76 % 1014,9 hPa 0,0 l/m² 0,0 km/h (0 Bft) N 0 ° 0 min 0,000 mm 0,0 UV-I 0 W/m² 17,0 °C 21,4 °C 0,0 km/h (0 Bft) 95,65 %
30.08.2026 20:50 21,5 °C 76 % 1015,0 hPa 0,0 l/m² 0,0 km/h (0 Bft) N 0 ° 0 min 0,000 mm 0,0 UV-I 0 W/m² 17,1 °C 21,5 °C 0,0 km/h (0 Bft) 100,00 %
30.08.2026 20:49 21,6 °C 77 % 1014,9 hPa 0,0 l/m² 0,0 km/h (0 Bft) N 0 ° 0 min 0,000 mm 0,0 UV-I 0 W/m² 17,4 °C 21,6 °C 0,0 km/h (0 Bft) 95,65 %
30.08.2026 20:48 21,6 °C 77 % 1014,9 hPa 0,0 l/m² 0,0 km/h (0 Bft) N 0 ° 0 min 0,000 mm 0,0 UV-I 0 W/m² 17,4 °C 21,6 °C 0,0 km/h (0 Bft) 95,65 %
30.08.2026 20:47 21,7 °C 77 % 1014,9 hPa 0,0 l/m² 0,0 km/h (0 Bft) N 0 ° 0 min 0,000 mm 0,0 UV-I 0 W/m² 17,5 °C 21,7 °C 0,0 km/h (0 Bft) 91,30 %
30.08.2026 20:46 21,8 °C 77 % 1014,9 hPa 0,0 l/m² 0,0 km/h (0 Bft) N 0 ° 0 min 0,000 mm 0,0 UV-I 0 W/m² 17,6 °C 21,8 °C 0,0 km/h (0 Bft) 100,00 %
30.08.2026 20:45 21,9 °C 76 % 1014,9 hPa 0,0 l/m² 0,0 km/h (0 Bft) N 0 ° 0 min 0,000 mm 0,0 UV-I 0 W/m² 17,5 °C 21,9 °C 0,0 km/h (0 Bft) 100,00 %
30.08.2026 20:44 21,9 °C 76 % 1014,9 hPa 0,0 l/m² 0,0 km/h (0 Bft) N 0 ° 0 min 0,000 mm 0,0 UV-I 0 W/m² 17,5 °C 21,9 °C 0,0 km/h (0 Bft) 100,00 %
30.08.2026 20:43 21,9 °C 75 % 1014,9 hPa 0,0 l/m² 0,0 km/h (0 Bft) N 0 ° 0 min 0,000 mm 0,0 UV-I 0 W/m² 17,3 °C 21,9 °C 0,0 km/h (0 Bft) 100,00 %
30.08.2026 20:42 21,9 °C 75 % 1014,9 hPa 0,0 l/m² 0,0 km/h (0 Bft) N 0 ° 0 min 0,000 mm 0,0 UV-I 0 W/m² 17,3 °C 21,9 °C 0,0 km/h (0 Bft) 100,00 %
30.08.2026 20:41 21,9 °C 76 % 1014,9 hPa 0,0 l/m² 0,0 km/h (0 Bft) N 0 ° 0 min 0,000 mm 0,0 UV-I 0 W/m² 17,5 °C 21,9 °C 0,0 km/h (0 Bft) 100,00 %
30.08.2026 20:40 21,8 °C 76 % 1014,8 hPa 0,0 l/m² 0,0 km/h (0 Bft) N 0 ° 0 min 0,000 mm 0,0 UV-I 0 W/m² 17,4 °C 21,8 °C 0,0 km/h (0 Bft) 95,65 %
30.08.2026 20:39 21,8 °C 76 % 1014,8 hPa 0,0 l/m² 0,0 km/h (0 Bft) N 0 ° 0 min 0,000 mm 0,0 UV-I 0 W/m² 17,4 °C 21,8 °C 0,0 km/h (0 Bft) 100,00 %
30.08.2026 20:38 21,8 °C 77 % 1014,9 hPa 0,0 l/m² 0,0 km/h (0 Bft) N 0 ° 0 min 0,000 mm 0,0 UV-I 0 W/m² 17,6 °C 21,8 °C 0,0 km/h (0 Bft) 100,00 %
30.08.2026 20:37 21,8 °C 77 % 1014,8 hPa 0,0 l/m² 0,0 km/h (0 Bft) N 0 ° 0 min 0,000 mm 0,0 UV-I 0 W/m² 17,6 °C 21,8 °C 0,0 km/h (0 Bft) 100,00 %
30.08.2026 20:36 21,9 °C 76 % 1014,8 hPa 0,0 l/m² 0,0 km/h (0 Bft) N 0 ° 0 min 0,000 mm 0,0 UV-I 0 W/m² 17,5 °C 21,9 °C 0,0 km/h (0 Bft) 100,00 %
30.08.2026 20:35 22,0 °C 76 % 1014,8 hPa 0,0 l/m² 0,0 km/h (0 Bft) N 0 ° 0 min 0,000 mm 0,0 UV-I 0 W/m² 17,6 °C 22,0 °C 0,0 km/h (0 Bft) 100,00 %
30.08.2026 20:34 22,1 °C 76 % 1014,8 hPa 0,0 l/m² 0,0 km/h (0 Bft) N 0 ° 0 min 0,000 mm 0,0 UV-I 0 W/m² 17,7 °C 22,1 °C 0,0 km/h (0 Bft) 100,00 %
30.08.2026 20:33 22,2 °C 75 % 1014,8 hPa 0,0 l/m² 0,0 km/h (0 Bft) N 0 ° 0 min 0,000 mm 0,0 UV-I 0 W/m² 17,5 °C 22,2 °C 0,0 km/h (0 Bft) 91,30 %
30.08.2026 20:32 22,3 °C 74 % 1014,9 hPa 0,0 l/m² 0,0 km/h (0 Bft) N 0 ° 0 min 0,000 mm 0,0 UV-I 0 W/m² 17,4 °C 22,3 °C 0,0 km/h (0 Bft) 100,00 %
30.08.2026 20:31 22,4 °C 73 % 1014,8 hPa 0,0 l/m² 0,0 km/h (0 Bft) N 0 ° 0 min 0,000 mm 0,0 UV-I 0 W/m² 17,3 °C 22,4 °C 0,0 km/h (0 Bft) 100,00 %
30.08.2026 20:30 22,6 °C 72 % 1014,8 hPa 0,0 l/m² 0,0 km/h (0 Bft) N 0 ° 0 min 0,000 mm 0,0 UV-I 0 W/m² 17,3 °C 22,6 °C 0,0 km/h (0 Bft) 100,00 %
30.08.2026 20:29 22,7 °C 73 % 1014,8 hPa 0,0 l/m² 0,0 km/h (0 Bft) N 0 ° 0 min 0,000 mm 0,0 UV-I 0 W/m² 17,6 °C 22,7 °C 0,0 km/h (0 Bft) 100,00 %
30.08.2026 20:28 22,8 °C 72 % 1014,8 hPa 0,0 l/m² 0,0 km/h (0 Bft) N 0 ° 0 min 0,000 mm 0,0 UV-I 0 W/m² 17,5 °C 22,8 °C 0,0 km/h (0 Bft) 100,00 %
30.08.2026 20:27 23,0 °C 72 % 1014,8 hPa 0,0 l/m² 0,0 km/h (0 Bft) N 0 ° 0 min 0,000 mm 0,0 UV-I 0 W/m² 17,7 °C 23,0 °C 0,0 km/h (0 Bft) 100,00 %
30.08.2026 20:26 23,1 °C 70 % 1014,7 hPa 0,0 l/m² 0,0 km/h (0 Bft) N 0 ° 0 min 0,000 mm 0,0 UV-I 0 W/m² 17,3 °C 23,1 °C 0,0 km/h (0 Bft) 95,65 %
30.08.2026 20:25 23,2 °C 70 % 1014,6 hPa 0,0 l/m² 0,0 km/h (0 Bft) N 0 ° 0 min 0,000 mm 0,0 UV-I 0 W/m² 17,4 °C 23,2 °C 0,0 km/h (0 Bft) 91,30 %
30.08.2026 20:24 23,2 °C 70 % 1014,7 hPa 0,0 l/m² 0,0 km/h (0 Bft) N 0 ° 0 min 0,000 mm 0,0 UV-I 0 W/m² 17,4 °C 23,2 °C 0,0 km/h (0 Bft) 100,00 %
30.08.2026 20:23 23,3 °C 70 % 1014,7 hPa 0,0 l/m² 0,0 km/h (0 Bft) N 0 ° 0 min 0,000 mm 0,0 UV-I 0 W/m² 17,5 °C 23,3 °C 0,0 km/h (0 Bft) 100,00 %
30.08.2026 20:22 23,3 °C 70 % 1014,7 hPa 0,0 l/m² 0,0 km/h (0 Bft) N 0 ° 0 min 0,000 mm 0,0 UV-I 0 W/m² 17,5 °C 23,3 °C 0,0 km/h (0 Bft) 100,00 %
30.08.2026 20:21 23,4 °C 70 % 1014,7 hPa 0,0 l/m² 0,0 km/h (0 Bft) N 0 ° 0 min 0,000 mm 0,0 UV-I 0 W/m² 17,6 °C 23,4 °C 0,0 km/h (0 Bft) 100,00 %
30.08.2026 20:20 23,6 °C 70 % 1014,7 hPa 0,0 l/m² 0,0 km/h (0 Bft) N 0 ° 0 min 0,000 mm 0,0 UV-I 0 W/m² 17,8 °C 23,6 °C 0,0 km/h (0 Bft) 100,00 %
30.08.2026 20:19 23,7 °C 69 % 1014,6 hPa 0,0 l/m² 0,0 km/h (0 Bft) N 0 ° 0 min 0,000 mm 0,0 UV-I 0 W/m² 17,7 °C 23,7 °C 0,0 km/h (0 Bft) 95,65 %
30.08.2026 20:18 23,8 °C 68 % 1014,7 hPa 0,0 l/m² 0,0 km/h (0 Bft) O-NO 67 ° 0 min 0,000 mm 0,0 UV-I 0 W/m² 17,5 °C 23,8 °C 1,6 km/h (1 Bft) 95,65 %
30.08.2026 20:17 23,8 °C 68 % 1014,7 hPa 0,0 l/m² 1,6 km/h (1 Bft) O-NO 67 ° 0 min 0,000 mm 0,0 UV-I 0 W/m² 17,5 °C 23,8 °C 1,6 km/h (1 Bft) 95,65 %
30.08.2026 20:16 23,8 °C 68 % 1014,7 hPa 0,0 l/m² 1,6 km/h (1 Bft) O-NO 67 ° 0 min 0,000 mm 0,0 UV-I 0 W/m² 17,5 °C 23,8 °C 1,6 km/h (1 Bft) 100,00 %
30.08.2026 20:15 23,8 °C 68 % 1014,7 hPa 0,0 l/m² 1,6 km/h (1 Bft) O-NO 67 ° 0 min 0,000 mm 0,0 UV-I 0 W/m² 17,5 °C 23,8 °C 1,6 km/h (1 Bft) 100,00 %
30.08.2026 20:14 23,8 °C 68 % 1014,7 hPa 0,0 l/m² 0,0 km/h (0 Bft) O-NO 67 ° 0 min 0,000 mm 0,0 UV-I 0 W/m² 17,5 °C 23,8 °C 1,6 km/h (1 Bft) 100,00 %
30.08.2026 20:13 23,9 °C 68 % 1014,7 hPa 0,0 l/m² 0,0 km/h (0 Bft) O-NO 67 ° 0 min 0,000 mm 0,0 UV-I 0 W/m² 17,6 °C 23,9 °C 1,6 km/h (1 Bft) 100,00 %
30.08.2026 20:12 23,9 °C 68 % 1014,6 hPa 0,0 l/m² 0,0 km/h (0 Bft) N 0 ° 0 min 0,000 mm 0,0 UV-I 0 W/m² 17,6 °C 23,9 °C 0,0 km/h (0 Bft) 100,00 %
30.08.2026 20:11 23,8 °C 68 % 1014,6 hPa 0,0 l/m² 0,0 km/h (0 Bft) N 0 ° 0 min 0,000 mm 0,0 UV-I 0 W/m² 17,5 °C 23,8 °C 0,0 km/h (0 Bft) 91,30 %
30.08.2026 20:10 23,8 °C 68 % 1014,6 hPa 0,0 l/m² 0,0 km/h (0 Bft) N 0 ° 0 min 0,000 mm 0,0 UV-I 0 W/m² 17,5 °C 23,8 °C 0,0 km/h (0 Bft) 100,00 %
30.08.2026 20:09 23,8 °C 68 % 1014,6 hPa 0,0 l/m² 0,0 km/h (0 Bft) N 0 ° 0 min 0,000 mm 0,0 UV-I 0 W/m² 17,5 °C 23,8 °C 0,0 km/h (0 Bft) 100,00 %
30.08.2026 20:08 23,9 °C 67 % 1014,6 hPa 0,0 l/m² 0,0 km/h (0 Bft) N 0 ° 0 min 0,000 mm 0,0 UV-I 0 W/m² 17,4 °C 23,9 °C 0,0 km/h (0 Bft) 100,00 %
30.08.2026 20:07 24,1 °C 67 % 1014,6 hPa 0,0 l/m² 0,0 km/h (0 Bft) N 0 ° 0 min 0,000 mm 0,0 UV-I 0 W/m² 17,6 °C 24,1 °C 0,0 km/h (0 Bft) 100,00 %
30.08.2026 20:06 24,1 °C 67 % 1014,5 hPa 0,0 l/m² 0,0 km/h (0 Bft) N 0 ° 0 min 0,000 mm 0,0 UV-I 0 W/m² 17,6 °C 24,1 °C 0,0 km/h (0 Bft) 100,00 %
30.08.2026 20:05 24,1 °C 67 % 1014,6 hPa 0,0 l/m² 0,0 km/h (0 Bft) N 0 ° 0 min 0,000 mm 0,0 UV-I 0 W/m² 17,6 °C 24,1 °C 0,0 km/h (0 Bft) 100,00 %
30.08.2026 20:04 24,2 °C 67 % 1014,6 hPa 0,0 l/m² 0,0 km/h (0 Bft) N 0 ° 0 min 0,000 mm 0,0 UV-I 0 W/m² 17,7 °C 24,2 °C 0,0 km/h (0 Bft) 95,65 %
30.08.2026 20:03 24,2 °C 66 % 1014,5 hPa 0,0 l/m² 0,0 km/h (0 Bft) O-NO 67 ° 0 min 0,000 mm 0,0 UV-I 0 W/m² 17,4 °C 24,2 °C 1,6 km/h (1 Bft) 100,00 %
30.08.2026 20:02 24,3 °C 66 % 1014,6 hPa 0,0 l/m² 0,0 km/h (0 Bft) O-NO 67 ° 0 min 0,000 mm 0,0 UV-I 0 W/m² 17,5 °C 24,3 °C 1,6 km/h (1 Bft) 100,00 %
30.08.2026 20:01 24,3 °C 66 % 1014,5 hPa 0,0 l/m² 1,6 km/h (1 Bft) O-NO 67 ° 0 min 0,000 mm 0,0 UV-I 0 W/m² 17,5 °C 24,3 °C 3,2 km/h (1 Bft) 100,00 %
30.08.2026 20:00 24,4 °C 66 % 1014,6 hPa 0,0 l/m² 1,6 km/h (1 Bft) O-NO 67 ° 0 min 0,025 mm 0,0 UV-I 0 W/m² 17,6 °C 24,4 °C 3,2 km/h (1 Bft) 100,00 %
30.08.2026 19:59 24,4 °C 66 % 1014,5 hPa 0,0 l/m² 1,6 km/h (1 Bft) O-NO 67 ° 0 min 0,000 mm 0,0 UV-I 0 W/m² 17,6 °C 24,4 °C 3,2 km/h (1 Bft) 100,00 %
30.08.2026 19:58 24,5 °C 65 % 1014,6 hPa 0,0 l/m² 1,6 km/h (1 Bft) O-NO 67 ° 0 min 0,000 mm 0,0 UV-I 0 W/m² 17,5 °C 24,5 °C 1,6 km/h (1 Bft) 100,00 %
30.08.2026 19:57 24,5 °C 65 % 1014,6 hPa 0,0 l/m² 1,6 km/h (1 Bft) O-NO 67 ° 0 min 0,000 mm 0,0 UV-I 0 W/m² 17,5 °C 24,5 °C 1,6 km/h (1 Bft) 91,30 %
30.08.2026 19:56 24,6 °C 65 % 1014,5 hPa 0,0 l/m² 0,0 km/h (0 Bft) O-NO 67 ° 0 min 0,000 mm 0,0 UV-I 0 W/m² 17,6 °C 24,6 °C 1,6 km/h (1 Bft) 100,00 %
30.08.2026 19:55 24,6 °C 65 % 1014,5 hPa 0,0 l/m² 1,6 km/h (1 Bft) O-NO 67 ° 0 min 0,000 mm 0,0 UV-I 0 W/m² 17,6 °C 24,6 °C 3,2 km/h (1 Bft) 100,00 %
30.08.2026 19:54 24,6 °C 65 % 1014,6 hPa 0,0 l/m² 1,6 km/h (1 Bft) O-NO 67 ° 0 min 0,000 mm 0,0 UV-I 0 W/m² 17,6 °C 24,6 °C 3,2 km/h (1 Bft) 95,65 %
30.08.2026 19:53 24,6 °C 64 % 1014,5 hPa 0,0 l/m² 3,2 km/h (1 Bft) O-NO 67 ° 0 min 0,000 mm 0,0 UV-I 0 W/m² 17,3 °C 24,6 °C 4,8 km/h (1 Bft) 95,65 %
30.08.2026 19:52 24,6 °C 64 % 1014,5 hPa 0,0 l/m² 1,6 km/h (1 Bft) O-NO 67 ° 0 min 0,000 mm 0,0 UV-I 0 W/m² 17,3 °C 24,6 °C 3,2 km/h (1 Bft) 100,00 %
30.08.2026 19:51 24,6 °C 64 % 1014,5 hPa 0,0 l/m² 0,0 km/h (0 Bft) O-NO 67 ° 0 min 0,000 mm 0,0 UV-I 0 W/m² 17,3 °C 24,6 °C 1,6 km/h (1 Bft) 100,00 %
30.08.2026 19:50 24,6 °C 64 % 1014,5 hPa 0,0 l/m² 1,6 km/h (1 Bft) O-NO 67 ° 0 min 0,000 mm 0,0 UV-I 0 W/m² 17,3 °C 24,6 °C 3,2 km/h (1 Bft) 95,65 %
30.08.2026 19:49 24,6 °C 64 % 1014,4 hPa 0,0 l/m² 0,0 km/h (0 Bft) O-NO 67 ° 0 min 0,000 mm 0,0 UV-I 0 W/m² 17,3 °C 24,6 °C 1,6 km/h (1 Bft) 95,65 %
30.08.2026 19:48 24,6 °C 64 % 1014,4 hPa 0,0 l/m² 1,6 km/h (1 Bft) O-NO 67 ° 0 min 0,000 mm 0,0 UV-I 0 W/m² 17,3 °C 24,6 °C 1,6 km/h (1 Bft) 95,65 %
30.08.2026 19:47 24,6 °C 64 % 1014,4 hPa 0,0 l/m² 0,0 km/h (0 Bft) O-NO 67 ° 0 min 0,000 mm 0,0 UV-I 5 W/m² 17,3 °C 24,6 °C 1,6 km/h (1 Bft) 100,00 %
30.08.2026 19:46 24,6 °C 64 % 1014,4 hPa 0,0 l/m² 1,6 km/h (1 Bft) O-NO 67 ° 0 min 0,000 mm 0,0 UV-I 5 W/m² 17,3 °C 24,6 °C 3,2 km/h (1 Bft) 100,00 %
30.08.2026 19:45 24,6 °C 65 % 1014,4 hPa 0,0 l/m² 1,6 km/h (1 Bft) O-NO 67 ° 0 min 0,000 mm 0,0 UV-I 5 W/m² 17,6 °C 24,6 °C 3,2 km/h (1 Bft) 95,65 %
30.08.2026 19:44 24,7 °C 65 % 1014,3 hPa 0,0 l/m² 0,0 km/h (0 Bft) N 0 ° 0 min 0,000 mm 0,0 UV-I 7 W/m² 17,7 °C 24,7 °C 0,0 km/h (0 Bft) 100,00 %
30.08.2026 19:43 24,7 °C 65 % 1014,4 hPa 0,0 l/m² 0,0 km/h (0 Bft) O-NO 67 ° 0 min 0,000 mm 0,0 UV-I 7 W/m² 17,7 °C 24,7 °C 1,6 km/h (1 Bft) 91,30 %
30.08.2026 19:42 24,8 °C 64 % 1014,4 hPa 0,0 l/m² 1,6 km/h (1 Bft) O-NO 67 ° 0 min 0,000 mm 0,0 UV-I 9 W/m² 17,5 °C 24,8 °C 1,6 km/h (1 Bft) 100,00 %
30.08.2026 19:41 24,8 °C 64 % 1014,3 hPa 0,0 l/m² 1,6 km/h (1 Bft) O-NO 67 ° 0 min 0,000 mm 0,0 UV-I 9 W/m² 17,5 °C 24,8 °C 1,6 km/h (1 Bft) 91,30 %
30.08.2026 19:40 24,8 °C 64 % 1014,4 hPa 0,0 l/m² 0,0 km/h (0 Bft) O-NO 67 ° 0 min 0,000 mm 0,0 UV-I 11 W/m² 17,5 °C 24,8 °C 1,6 km/h (1 Bft) 100,00 %
30.08.2026 19:39 24,8 °C 64 % 1014,4 hPa 0,0 l/m² 1,6 km/h (1 Bft) O-NO 67 ° 0 min 0,000 mm 0,0 UV-I 11 W/m² 17,5 °C 24,8 °C 3,2 km/h (1 Bft) 100,00 %
30.08.2026 19:38 24,9 °C 64 % 1014,4 hPa 0,0 l/m² 0,0 km/h (0 Bft) O-NO 67 ° 0 min 0,000 mm 0,0 UV-I 12 W/m² 17,6 °C 24,9 °C 3,2 km/h (1 Bft) 95,65 %
30.08.2026 19:37 24,9 °C 64 % 1014,4 hPa 0,0 l/m² 0,0 km/h (0 Bft) N 0 ° 0 min 0,000 mm 0,0 UV-I 14 W/m² 17,6 °C 24,9 °C 0,0 km/h (0 Bft) 95,65 %
30.08.2026 19:36 24,9 °C 64 % 1014,4 hPa 0,0 l/m² 0,0 km/h (0 Bft) O-NO 67 ° 0 min 0,000 mm 0,0 UV-I 16 W/m² 17,6 °C 24,9 °C 1,6 km/h (1 Bft) 95,65 %
30.08.2026 19:35 25,0 °C 64 % 1014,3 hPa 0,0 l/m² 0,0 km/h (0 Bft) N 0 ° 0 min 0,000 mm 0,0 UV-I 18 W/m² 17,7 °C 25,0 °C 0,0 km/h (0 Bft) 100,00 %
30.08.2026 19:34 25,1 °C 63 % 1014,4 hPa 0,0 l/m² 0,0 km/h (0 Bft) O-NO 67 ° 0 min 0,000 mm 0,0 UV-I 18 W/m² 17,5 °C 25,1 °C 1,6 km/h (1 Bft) 100,00 %
30.08.2026 19:33 25,2 °C 63 % 1014,3 hPa 0,0 l/m² 1,6 km/h (1 Bft) O-NO 67 ° 0 min 0,000 mm 0,0 UV-I 19 W/m² 17,6 °C 25,2 °C 3,2 km/h (1 Bft) 100,00 %
30.08.2026 19:32 25,2 °C 63 % 1014,4 hPa 0,0 l/m² 1,6 km/h (1 Bft) O-NO 67 ° 0 min 0,000 mm 0,0 UV-I 19 W/m² 17,6 °C 25,2 °C 3,2 km/h (1 Bft) 95,65 %
30.08.2026 19:31 25,3 °C 63 % 1014,4 hPa 0,0 l/m² 3,2 km/h (1 Bft) O-NO 67 ° 0 min 0,000 mm 0,0 UV-I 21 W/m² 17,7 °C 25,3 °C 3,2 km/h (1 Bft) 95,65 %
30.08.2026 19:30 25,3 °C 63 % 1014,3 hPa 0,0 l/m² 1,6 km/h (1 Bft) O-NO 67 ° 0 min 0,000 mm 0,0 UV-I 23 W/m² 17,7 °C 25,3 °C 3,2 km/h (1 Bft) 100,00 %
30.08.2026 19:29 25,4 °C 62 % 1014,4 hPa 0,0 l/m² 1,6 km/h (1 Bft) O-NO 67 ° 0 min 0,000 mm 0,0 UV-I 23 W/m² 17,6 °C 25,4 °C 4,8 km/h (1 Bft) 91,30 %
30.08.2026 19:28 25,4 °C 62 % 1014,3 hPa 0,0 l/m² 1,6 km/h (1 Bft) O-NO 67 ° 0 min 0,000 mm 0,0 UV-I 23 W/m² 17,6 °C 25,4 °C 3,2 km/h (1 Bft) 100,00 %
30.08.2026 19:27 25,4 °C 62 % 1014,4 hPa 0,0 l/m² 3,2 km/h (1 Bft) O-NO 67 ° 0 min 0,000 mm 0,0 UV-I 23 W/m² 17,6 °C 25,4 °C 6,4 km/h (2 Bft) 100,00 %
30.08.2026 19:26 25,4 °C 62 % 1014,4 hPa 0,0 l/m² 3,2 km/h (1 Bft) NO 45 ° 0 min 0,000 mm 0,0 UV-I 25 W/m² 17,6 °C 25,4 °C 6,4 km/h (2 Bft) 100,00 %
30.08.2026 19:25 25,4 °C 62 % 1014,3 hPa 0,0 l/m² 1,6 km/h (1 Bft) NO 45 ° 0 min 0,000 mm 0,0 UV-I 25 W/m² 17,6 °C 25,4 °C 3,2 km/h (1 Bft) 100,00 %
30.08.2026 19:24 25,5 °C 62 % 1014,3 hPa 0,0 l/m² 3,2 km/h (1 Bft) NO 45 ° 0 min 0,000 mm 0,0 UV-I 25 W/m² 17,7 °C 25,5 °C 4,8 km/h (1 Bft) 100,00 %
30.08.2026 19:23 25,5 °C 62 % 1014,4 hPa 0,0 l/m² 3,2 km/h (1 Bft) NO 45 ° 0 min 0,000 mm 0,0 UV-I 25 W/m² 17,7 °C 25,5 °C 6,4 km/h (2 Bft) 100,00 %
30.08.2026 19:22 25,5 °C 62 % 1014,3 hPa 0,0 l/m² 1,6 km/h (1 Bft) NO 45 ° 0 min 0,000 mm 0,0 UV-I 26 W/m² 17,7 °C 25,5 °C 3,2 km/h (1 Bft) 91,30 %
30.08.2026 19:21 25,6 °C 62 % 1014,4 hPa 0,0 l/m² 3,2 km/h (1 Bft) NO 45 ° 0 min 0,000 mm 0,0 UV-I 26 W/m² 17,8 °C 25,6 °C 4,8 km/h (1 Bft) 100,00 %
30.08.2026 19:20 25,6 °C 62 % 1014,3 hPa 0,0 l/m² 1,6 km/h (1 Bft) NO 45 ° 0 min 0,000 mm 0,0 UV-I 26 W/m² 17,8 °C 25,6 °C 3,2 km/h (1 Bft) 100,00 %
30.08.2026 19:19 25,7 °C 61 % 1014,4 hPa 0,0 l/m² 3,2 km/h (1 Bft) NO 45 ° 0 min 0,000 mm 0,0 UV-I 28 W/m² 17,6 °C 25,7 °C 4,8 km/h (1 Bft) 100,00 %
30.08.2026 19:18 25,7 °C 61 % 1014,3 hPa 0,0 l/m² 3,2 km/h (1 Bft) NO 45 ° 0 min 0,000 mm 0,0 UV-I 28 W/m² 17,6 °C 25,7 °C 3,2 km/h (1 Bft) 100,00 %
30.08.2026 19:17 25,7 °C 61 % 1014,4 hPa 0,0 l/m² 3,2 km/h (1 Bft) NO 45 ° 0 min 0,000 mm 0,0 UV-I 30 W/m² 17,6 °C 25,7 °C 6,4 km/h (2 Bft) 100,00 %
30.08.2026 19:16 25,8 °C 61 % 1014,3 hPa 0,0 l/m² 3,2 km/h (1 Bft) NO 45 ° 0 min 0,000 mm 0,0 UV-I 30 W/m² 17,7 °C 25,8 °C 6,4 km/h (2 Bft) 95,65 %
30.08.2026 19:15 25,8 °C 61 % 1014,3 hPa 0,0 l/m² 1,6 km/h (1 Bft) NO 45 ° 0 min 0,000 mm 0,0 UV-I 30 W/m² 17,7 °C 25,8 °C 4,8 km/h (1 Bft) 86,96 %
30.08.2026 19:14 25,9 °C 60 % 1014,4 hPa 0,0 l/m² 3,2 km/h (1 Bft) NO 45 ° 0 min 0,000 mm 0,0 UV-I 32 W/m² 17,5 °C 25,9 °C 4,8 km/h (1 Bft) 100,00 %
30.08.2026 19:13 25,9 °C 60 % 1014,3 hPa 0,0 l/m² 3,2 km/h (1 Bft) NO 45 ° 0 min 0,000 mm 0,0 UV-I 32 W/m² 17,5 °C 25,9 °C 4,8 km/h (1 Bft) 100,00 %
30.08.2026 19:12 25,9 °C 60 % 1014,3 hPa 0,0 l/m² 3,2 km/h (1 Bft) NO 45 ° 0 min 0,000 mm 0,0 UV-I 33 W/m² 17,5 °C 25,9 °C 4,8 km/h (1 Bft) 100,00 %
30.08.2026 19:11 26,0 °C 60 % 1014,4 hPa 0,0 l/m² 3,2 km/h (1 Bft) NO 45 ° 0 min 0,000 mm 0,0 UV-I 35 W/m² 17,6 °C 26,0 °C 4,8 km/h (1 Bft) 95,65 %
30.08.2026 19:10 26,0 °C 60 % 1014,4 hPa 0,0 l/m² 3,2 km/h (1 Bft) NO 45 ° 0 min 0,000 mm 0,0 UV-I 35 W/m² 17,6 °C 26,0 °C 6,4 km/h (2 Bft) 95,65 %
30.08.2026 19:09 26,0 °C 60 % 1014,3 hPa 0,0 l/m² 3,2 km/h (1 Bft) NO 45 ° 0 min 0,000 mm 0,0 UV-I 37 W/m² 17,6 °C 26,0 °C 4,8 km/h (1 Bft) 100,00 %
30.08.2026 19:08 26,1 °C 59 % 1014,3 hPa 0,0 l/m² 3,2 km/h (1 Bft) O-NO 67 ° 0 min 0,000 mm 0,0 UV-I 39 W/m² 17,4 °C 26,1 °C 6,4 km/h (2 Bft) 91,30 %
30.08.2026 19:07 26,1 °C 59 % 1014,4 hPa 0,0 l/m² 3,2 km/h (1 Bft) O-NO 67 ° 0 min 0,000 mm 0,0 UV-I 39 W/m² 17,4 °C 26,1 °C 6,4 km/h (2 Bft) 100,00 %
30.08.2026 19:06 26,1 °C 59 % 1014,3 hPa 0,0 l/m² 4,8 km/h (1 Bft) N-NO 22 ° 0 min 0,000 mm 0,0 UV-I 39 W/m² 17,4 °C 26,1 °C 8,0 km/h (2 Bft) 100,00 %
30.08.2026 19:05 26,1 °C 59 % 1014,4 hPa 0,0 l/m² 4,8 km/h (1 Bft) NO 45 ° 0 min 0,000 mm 0,0 UV-I 40 W/m² 17,4 °C 26,1 °C 11,3 km/h (2 Bft) 95,65 %
30.08.2026 19:04 26,2 °C 59 % 1014,4 hPa 0,0 l/m² 4,8 km/h (1 Bft) N-NO 22 ° 0 min 0,000 mm 0,0 UV-I 40 W/m² 17,5 °C 26,2 °C 11,3 km/h (2 Bft) 100,00 %
30.08.2026 19:03 26,2 °C 59 % 1014,4 hPa 0,0 l/m² 3,2 km/h (1 Bft) N-NO 22 ° 0 min 0,000 mm 0,0 UV-I 40 W/m² 17,5 °C 26,2 °C 4,8 km/h (1 Bft) 100,00 %
30.08.2026 19:02 26,2 °C 59 % 1014,4 hPa 0,0 l/m² 3,2 km/h (1 Bft) N 360 ° 0 min 0,000 mm 0,0 UV-I 42 W/m² 17,5 °C 26,2 °C 6,4 km/h (2 Bft) 100,00 %
30.08.2026 19:01 26,3 °C 58 % 1014,3 hPa 0,0 l/m² 4,8 km/h (1 Bft) N-NO 22 ° 0 min 0,000 mm 0,0 UV-I 42 W/m² 17,4 °C 26,3 °C 8,0 km/h (2 Bft) 95,65 %
30.08.2026 19:00 26,3 °C 58 % 1014,3 hPa 0,0 l/m² 3,2 km/h (1 Bft) O-NO 67 ° 0 min 0,102 mm 0,0 UV-I 42 W/m² 17,4 °C 26,3 °C 6,4 km/h (2 Bft) 100,00 %
30.08.2026 18:59 26,4 °C 58 % 1014,3 hPa 0,0 l/m² 3,2 km/h (1 Bft) O-NO 67 ° 0 min 0,000 mm 0,0 UV-I 47 W/m² 17,5 °C 26,4 °C 4,8 km/h (1 Bft) 100,00 %
30.08.2026 18:58 26,4 °C 58 % 1014,4 hPa 0,0 l/m² 4,8 km/h (1 Bft) NO 45 ° 0 min 0,000 mm 0,0 UV-I 56 W/m² 17,5 °C 26,4 °C 8,0 km/h (2 Bft) 95,65 %
30.08.2026 18:57 26,5 °C 58 % 1014,4 hPa 0,0 l/m² 4,8 km/h (1 Bft) N-NO 22 ° 0 min 0,000 mm 0,0 UV-I 60 W/m² 17,5 °C 26,5 °C 6,4 km/h (2 Bft) 95,65 %
30.08.2026 18:56 26,5 °C 57 % 1014,4 hPa 0,0 l/m² 6,4 km/h (2 Bft) N-NO 22 ° 0 min 0,000 mm 0,0 UV-I 60 W/m² 17,3 °C 26,5 °C 11,3 km/h (2 Bft) 100,00 %
30.08.2026 18:55 26,6 °C 58 % 1014,3 hPa 0,0 l/m² 4,8 km/h (1 Bft) NO 45 ° 0 min 0,000 mm 0,0 UV-I 65 W/m² 17,6 °C 26,6 °C 8,0 km/h (2 Bft) 100,00 %
30.08.2026 18:54 26,6 °C 58 % 1014,3 hPa 0,0 l/m² 4,8 km/h (1 Bft) N-NO 22 ° 0 min 0,000 mm 0,0 UV-I 63 W/m² 17,6 °C 26,6 °C 9,7 km/h (2 Bft) 91,30 %
30.08.2026 18:53 26,7 °C 57 % 1014,4 hPa 0,0 l/m² 6,4 km/h (2 Bft) N 360 ° 0 min 0,000 mm 0,0 UV-I 58 W/m² 17,5 °C 26,7 °C 8,0 km/h (2 Bft) 95,65 %
30.08.2026 18:52 26,7 °C 58 % 1014,3 hPa 0,0 l/m² 6,4 km/h (2 Bft) N 360 ° 0 min 0,000 mm 0,0 UV-I 54 W/m² 17,7 °C 26,7 °C 8,0 km/h (2 Bft) 95,65 %
30.08.2026 18:51 26,7 °C 57 % 1014,3 hPa 0,0 l/m² 6,4 km/h (2 Bft) O-NO 67 ° 0 min 0,000 mm 0,0 UV-I 54 W/m² 17,5 °C 26,7 °C 12,9 km/h (3 Bft) 100,00 %
30.08.2026 18:50 26,8 °C 57 % 1014,3 hPa 0,0 l/m² 4,8 km/h (1 Bft) NO 45 ° 0 min 0,000 mm 0,0 UV-I 56 W/m² 17,6 °C 26,8 °C 6,4 km/h (2 Bft) 100,00 %
30.08.2026 18:49 26,8 °C 57 % 1014,3 hPa 0,0 l/m² 1,6 km/h (1 Bft) O 90 ° 0 min 0,000 mm 0,0 UV-I 58 W/m² 17,6 °C 26,8 °C 3,2 km/h (1 Bft) 100,00 %
30.08.2026 18:48 26,8 °C 57 % 1014,3 hPa 0,0 l/m² 3,2 km/h (1 Bft) O 90 ° 0 min 0,000 mm 0,0 UV-I 60 W/m² 17,6 °C 26,8 °C 4,8 km/h (1 Bft) 100,00 %
30.08.2026 18:47 26,9 °C 57 % 1014,3 hPa 0,0 l/m² 3,2 km/h (1 Bft) O 90 ° 0 min 0,000 mm 0,0 UV-I 62 W/m² 17,6 °C 26,9 °C 3,2 km/h (1 Bft) 91,30 %
30.08.2026 18:46 26,9 °C 57 % 1014,3 hPa 0,0 l/m² 3,2 km/h (1 Bft) O 90 ° 0 min 0,000 mm 0,0 UV-I 63 W/m² 17,6 °C 26,9 °C 4,8 km/h (1 Bft) 100,00 %
30.08.2026 18:45 26,9 °C 56 % 1014,3 hPa 0,0 l/m² 4,8 km/h (1 Bft) O-NO 67 ° 0 min 0,000 mm 0,0 UV-I 67 W/m² 17,4 °C 26,9 °C 6,4 km/h (2 Bft) 100,00 %
30.08.2026 18:44 27,1 °C 56 % 1014,3 hPa 0,0 l/m² 1,6 km/h (1 Bft) NO 45 ° 0 min 0,000 mm 0,0 UV-I 79 W/m² 17,5 °C 27,1 °C 4,8 km/h (1 Bft) 100,00 %
30.08.2026 18:43 27,1 °C 56 % 1014,3 hPa 0,0 l/m² 3,2 km/h (1 Bft) NO 45 ° 0 min 0,000 mm 0,0 UV-I 86 W/m² 17,5 °C 27,1 °C 3,2 km/h (1 Bft) 100,00 %
30.08.2026 18:42 27,2 °C 56 % 1014,3 hPa 0,0 l/m² 3,2 km/h (1 Bft) NO 45 ° 0 min 0,000 mm 0,0 UV-I 84 W/m² 17,6 °C 27,2 °C 4,8 km/h (1 Bft) 100,00 %
30.08.2026 18:41 27,2 °C 55 % 1014,3 hPa 0,0 l/m² 3,2 km/h (1 Bft) NO 45 ° 0 min 0,000 mm 0,0 UV-I 93 W/m² 17,4 °C 27,2 °C 4,8 km/h (1 Bft) 95,65 %
30.08.2026 18:40 27,3 °C 55 % 1014,2 hPa 0,0 l/m² 3,2 km/h (1 Bft) NO 45 ° 0 min 0,000 mm 0,0 UV-I 97 W/m² 17,4 °C 27,3 °C 4,8 km/h (1 Bft) 95,65 %
30.08.2026 18:39 27,3 °C 55 % 1014,2 hPa 0,0 l/m² 3,2 km/h (1 Bft) NO 45 ° 0 min 0,000 mm 0,0 UV-I 95 W/m² 17,4 °C 27,3 °C 3,2 km/h (1 Bft) 100,00 %
30.08.2026 18:38 27,3 °C 55 % 1014,3 hPa 0,0 l/m² 1,6 km/h (1 Bft) NO 45 ° 0 min 0,000 mm 0,0 UV-I 98 W/m² 17,4 °C 27,3 °C 3,2 km/h (1 Bft) 100,00 %
30.08.2026 18:37 27,4 °C 54 % 1014,3 hPa 0,0 l/m² 1,6 km/h (1 Bft) NO 45 ° 0 min 0,000 mm 0,0 UV-I 97 W/m² 17,3 °C 27,4 °C 3,2 km/h (1 Bft) 95,65 %
30.08.2026 18:36 27,4 °C 54 % 1014,3 hPa 0,0 l/m² 3,2 km/h (1 Bft) NO 45 ° 0 min 0,000 mm 0,0 UV-I 97 W/m² 17,3 °C 27,4 °C 4,8 km/h (1 Bft) 100,00 %
30.08.2026 18:35 27,4 °C 54 % 1014,3 hPa 0,0 l/m² 3,2 km/h (1 Bft) NO 45 ° 0 min 0,000 mm 0,0 UV-I 104 W/m² 17,3 °C 27,4 °C 4,8 km/h (1 Bft) 100,00 %
30.08.2026 18:34 27,4 °C 54 % 1014,3 hPa 0,0 l/m² 3,2 km/h (1 Bft) NO 45 ° 0 min 0,000 mm 0,0 UV-I 113 W/m² 17,3 °C 27,4 °C 6,4 km/h (2 Bft) 100,00 %
30.08.2026 18:33 27,4 °C 54 % 1014,3 hPa 0,0 l/m² 1,6 km/h (1 Bft) NO 45 ° 0 min 0,000 mm 0,0 UV-I 116 W/m² 17,3 °C 27,4 °C 3,2 km/h (1 Bft) 95,65 %
30.08.2026 18:32 27,4 °C 54 % 1014,3 hPa 0,0 l/m² 1,6 km/h (1 Bft) NO 45 ° 0 min 0,000 mm 0,0 UV-I 128 W/m² 17,3 °C 27,4 °C 3,2 km/h (1 Bft) 100,00 %
30.08.2026 18:31 27,4 °C 53 % 1014,3 hPa 0,0 l/m² 3,2 km/h (1 Bft) NO 45 ° 0 min 0,000 mm 0,0 UV-I 116 W/m² 17,0 °C 27,4 °C 4,8 km/h (1 Bft) 100,00 %
30.08.2026 18:30 27,4 °C 54 % 1014,3 hPa 0,0 l/m² 1,6 km/h (1 Bft) NO 45 ° 0 min 0,000 mm 0,0 UV-I 102 W/m² 17,3 °C 27,4 °C 3,2 km/h (1 Bft) 95,65 %
30.08.2026 18:29 27,4 °C 53 % 1014,3 hPa 0,0 l/m² 3,2 km/h (1 Bft) NO 45 ° 0 min 0,000 mm 0,0 UV-I 111 W/m² 17,0 °C 27,4 °C 4,8 km/h (1 Bft) 100,00 %
30.08.2026 18:28 27,4 °C 53 % 1014,3 hPa 0,0 l/m² 4,8 km/h (1 Bft) O-NO 67 ° 0 min 0,000 mm 0,0 UV-I 120 W/m² 17,0 °C 27,4 °C 6,4 km/h (2 Bft) 100,00 %
30.08.2026 18:27 27,4 °C 53 % 1014,3 hPa 0,0 l/m² 3,2 km/h (1 Bft) O-NO 67 ° 0 min 0,000 mm 0,0 UV-I 118 W/m² 17,0 °C 27,4 °C 4,8 km/h (1 Bft) 100,00 %
30.08.2026 18:26 27,4 °C 53 % 1014,2 hPa 0,0 l/m² 3,2 km/h (1 Bft) O-NO 67 ° 0 min 0,000 mm 0,0 UV-I 107 W/m² 17,0 °C 27,4 °C 4,8 km/h (1 Bft) 91,30 %
30.08.2026 18:25 27,4 °C 53 % 1014,2 hPa 0,0 l/m² 3,2 km/h (1 Bft) O-NO 67 ° 0 min 0,000 mm 0,0 UV-I 111 W/m² 17,0 °C 27,4 °C 4,8 km/h (1 Bft) 95,65 %
30.08.2026 18:24 27,4 °C 54 % 1014,3 hPa 0,0 l/m² 3,2 km/h (1 Bft) O-NO 67 ° 0 min 0,000 mm 0,0 UV-I 107 W/m² 17,3 °C 27,4 °C 4,8 km/h (1 Bft) 100,00 %
30.08.2026 18:23 27,4 °C 54 % 1014,3 hPa 0,0 l/m² 3,2 km/h (1 Bft) O-NO 67 ° 0 min 0,000 mm 0,0 UV-I 97 W/m² 17,3 °C 27,4 °C 4,8 km/h (1 Bft) 100,00 %
30.08.2026 18:22 27,4 °C 53 % 1014,3 hPa 0,0 l/m² 3,2 km/h (1 Bft) O-NO 67 ° 0 min 0,000 mm 0,0 UV-I 95 W/m² 17,0 °C 27,4 °C 6,4 km/h (2 Bft) 100,00 %
30.08.2026 18:21 27,5 °C 53 % 1014,3 hPa 0,0 l/m² 3,2 km/h (1 Bft) O-NO 67 ° 0 min 0,000 mm 0,0 UV-I 98 W/m² 17,0 °C 27,5 °C 6,4 km/h (2 Bft) 100,00 %
30.08.2026 18:20 27,6 °C 53 % 1014,3 hPa 0,0 l/m² 1,6 km/h (1 Bft) O-NO 67 ° 0 min 0,000 mm 0,0 UV-I 95 W/m² 17,1 °C 27,6 °C 3,2 km/h (1 Bft) 95,65 %
30.08.2026 18:19 27,6 °C 52 % 1014,2 hPa 0,0 l/m² 3,2 km/h (1 Bft) O-NO 67 ° 0 min 0,000 mm 0,0 UV-I 95 W/m² 16,8 °C 27,6 °C 4,8 km/h (1 Bft) 95,65 %
30.08.2026 18:18 27,6 °C 53 % 1014,3 hPa 0,0 l/m² 3,2 km/h (1 Bft) O-NO 67 ° 0 min 0,000 mm 0,5 UV-I 95 W/m² 17,1 °C 27,6 °C 4,8 km/h (1 Bft) 100,00 %
30.08.2026 18:17 27,6 °C 52 % 1014,2 hPa 0,0 l/m² 1,6 km/h (1 Bft) O-NO 67 ° 0 min 0,000 mm 0,5 UV-I 97 W/m² 16,8 °C 27,6 °C 4,8 km/h (1 Bft) 100,00 %
30.08.2026 18:16 27,6 °C 53 % 1014,3 hPa 0,0 l/m² 1,6 km/h (1 Bft) O-NO 67 ° 0 min 0,000 mm 0,5 UV-I 100 W/m² 17,1 °C 27,6 °C 3,2 km/h (1 Bft) 100,00 %
30.08.2026 18:15 27,6 °C 53 % 1014,2 hPa 0,0 l/m² 1,6 km/h (1 Bft) O-NO 67 ° 0 min 0,000 mm 0,5 UV-I 100 W/m² 17,1 °C 27,6 °C 3,2 km/h (1 Bft) 95,65 %
30.08.2026 18:14 27,6 °C 52 % 1014,3 hPa 0,0 l/m² 1,6 km/h (1 Bft) O-NO 67 ° 0 min 0,000 mm 0,5 UV-I 107 W/m² 16,8 °C 27,6 °C 3,2 km/h (1 Bft) 100,00 %
30.08.2026 18:13 27,7 °C 51 % 1014,3 hPa 0,0 l/m² 1,6 km/h (1 Bft) O-NO 67 ° 0 min 0,000 mm 0,5 UV-I 114 W/m² 16,6 °C 27,7 °C 4,8 km/h (1 Bft) 100,00 %
30.08.2026 18:12 27,7 °C 51 % 1014,3 hPa 0,0 l/m² 3,2 km/h (1 Bft) O-NO 67 ° 0 min 0,000 mm 0,5 UV-I 114 W/m² 16,6 °C 27,7 °C 4,8 km/h (1 Bft) 86,96 %
30.08.2026 18:11 27,7 °C 51 % 1014,3 hPa 0,0 l/m² 3,2 km/h (1 Bft) O-NO 67 ° 0 min 0,000 mm 0,5 UV-I 111 W/m² 16,6 °C 27,7 °C 4,8 km/h (1 Bft) 95,65 %
30.08.2026 18:10 27,7 °C 52 % 1014,3 hPa 0,0 l/m² 1,6 km/h (1 Bft) O-NO 67 ° 0 min 0,000 mm 0,5 UV-I 116 W/m² 16,9 °C 27,7 °C 4,8 km/h (1 Bft) 100,00 %
30.08.2026 18:09 27,8 °C 52 % 1014,3 hPa 0,0 l/m² 1,6 km/h (1 Bft) O-NO 67 ° 0 min 0,000 mm 0,5 UV-I 114 W/m² 17,0 °C 27,8 °C 4,8 km/h (1 Bft) 100,00 %
30.08.2026 18:08 27,8 °C 52 % 1014,3 hPa 0,0 l/m² 3,2 km/h (1 Bft) O-NO 67 ° 0 min 0,000 mm 0,5 UV-I 109 W/m² 17,0 °C 27,8 °C 3,2 km/h (1 Bft) 100,00 %
30.08.2026 18:07 27,9 °C 51 % 1014,3 hPa 0,0 l/m² 1,6 km/h (1 Bft) O-NO 67 ° 0 min 0,000 mm 0,6 UV-I 105 W/m² 16,8 °C 27,9 °C 4,8 km/h (1 Bft) 100,00 %
30.08.2026 18:06 27,9 °C 50 % 1014,3 hPa 0,0 l/m² 1,6 km/h (1 Bft) O-NO 67 ° 0 min 0,000 mm 0,6 UV-I 105 W/m² 16,5 °C 27,9 °C 4,8 km/h (1 Bft) 100,00 %
30.08.2026 18:05 28,1 °C 51 % 1014,3 hPa 0,0 l/m² 1,6 km/h (1 Bft) O-NO 67 ° 0 min 0,000 mm 0,6 UV-I 104 W/m² 17,0 °C 28,1 °C 4,8 km/h (1 Bft) 95,65 %
30.08.2026 18:04 28,1 °C 50 % 1014,3 hPa 0,0 l/m² 1,6 km/h (1 Bft) O-NO 67 ° 0 min 0,000 mm 0,6 UV-I 107 W/m² 16,7 °C 28,1 °C 1,6 km/h (1 Bft) 100,00 %
30.08.2026 18:03 28,1 °C 50 % 1014,3 hPa 0,0 l/m² 3,2 km/h (1 Bft) O-NO 67 ° 0 min 0,000 mm 0,6 UV-I 114 W/m² 16,7 °C 28,1 °C 4,8 km/h (1 Bft) 95,65 %
30.08.2026 18:02 28,1 °C 50 % 1014,3 hPa 0,0 l/m² 3,2 km/h (1 Bft) O-NO 67 ° 0 min 0,000 mm 0,6 UV-I 125 W/m² 16,7 °C 28,1 °C 4,8 km/h (1 Bft) 100,00 %
30.08.2026 18:01 28,2 °C 49 % 1014,3 hPa 0,0 l/m² 4,8 km/h (1 Bft) NO 45 ° 0 min 0,000 mm 0,6 UV-I 130 W/m² 16,5 °C 28,2 °C 6,4 km/h (2 Bft) 100,00 %
30.08.2026 18:00 28,2 °C 49 % 1014,3 hPa 0,0 l/m² 3,2 km/h (1 Bft) NO 45 ° 0 min 0,229 mm 0,6 UV-I 137 W/m² 16,5 °C 28,2 °C 4,8 km/h (1 Bft) 100,00 %
30.08.2026 17:59 28,3 °C 50 % 1014,3 hPa 0,0 l/m² 3,2 km/h (1 Bft) NO 45 ° 0 min 0,000 mm 0,7 UV-I 141 W/m² 16,9 °C 28,3 °C 6,4 km/h (2 Bft) 100,00 %
30.08.2026 17:58 28,3 °C 50 % 1014,3 hPa 0,0 l/m² 4,8 km/h (1 Bft) O-NO 67 ° 0 min 0,000 mm 0,7 UV-I 146 W/m² 16,9 °C 28,3 °C 6,4 km/h (2 Bft) 95,65 %
30.08.2026 17:57 28,4 °C 50 % 1014,2 hPa 0,0 l/m² 3,2 km/h (1 Bft) NO 45 ° 1 min 0,000 mm 0,7 UV-I 153 W/m² 17,0 °C 28,4 °C 6,4 km/h (2 Bft) 91,30 %
30.08.2026 17:56 28,5 °C 49 % 1014,3 hPa 0,0 l/m² 1,6 km/h (1 Bft) N 360 ° 1 min 0,000 mm 0,7 UV-I 158 W/m² 16,7 °C 28,5 °C 3,2 km/h (1 Bft) 95,65 %
30.08.2026 17:55 28,5 °C 50 % 1014,3 hPa 0,0 l/m² 3,2 km/h (1 Bft) N 360 ° 1 min 0,000 mm 0,7 UV-I 190 W/m² 17,0 °C 28,5 °C 3,2 km/h (1 Bft) 100,00 %
30.08.2026 17:54 28,5 °C 49 % 1014,3 hPa 0,0 l/m² 4,8 km/h (1 Bft) N 360 ° 1 min 0,000 mm 0,7 UV-I 193 W/m² 16,7 °C 28,5 °C 6,4 km/h (2 Bft) 100,00 %
30.08.2026 17:53 28,6 °C 49 % 1014,3 hPa 0,0 l/m² 3,2 km/h (1 Bft) N 360 ° 1 min 0,000 mm 0,8 UV-I 209 W/m² 16,8 °C 28,6 °C 6,4 km/h (2 Bft) 95,65 %
30.08.2026 17:52 28,6 °C 49 % 1014,3 hPa 0,0 l/m² 1,6 km/h (1 Bft) NO 45 ° 1 min 0,000 mm 0,8 UV-I 218 W/m² 16,8 °C 28,6 °C 4,8 km/h (1 Bft) 95,65 %
30.08.2026 17:51 28,6 °C 49 % 1014,3 hPa 0,0 l/m² 3,2 km/h (1 Bft) NO 45 ° 1 min 0,000 mm 0,8 UV-I 211 W/m² 16,8 °C 28,6 °C 4,8 km/h (1 Bft) 95,65 %
30.08.2026 17:50 28,7 °C 49 % 1014,3 hPa 0,0 l/m² 3,2 km/h (1 Bft) O-NO 67 ° 1 min 0,000 mm 0,8 UV-I 206 W/m² 16,9 °C 28,7 °C 6,4 km/h (2 Bft) 100,00 %
30.08.2026 17:49 28,7 °C 48 % 1014,3 hPa 0,0 l/m² 1,6 km/h (1 Bft) O-NO 67 ° 1 min 0,000 mm 0,8 UV-I 221 W/m² 16,6 °C 28,7 °C 3,2 km/h (1 Bft) 100,00 %
30.08.2026 17:48 28,8 °C 49 % 1014,3 hPa 0,0 l/m² 3,2 km/h (1 Bft) O-NO 67 ° 1 min 0,000 mm 0,8 UV-I 244 W/m² 17,0 °C 28,8 °C 4,8 km/h (1 Bft) 100,00 %
30.08.2026 17:47 28,8 °C 49 % 1014,3 hPa 0,0 l/m² 1,6 km/h (1 Bft) O 90 ° 1 min 0,000 mm 0,9 UV-I 239 W/m² 17,0 °C 28,8 °C 4,8 km/h (1 Bft) 100,00 %
30.08.2026 17:46 28,8 °C 49 % 1014,3 hPa 0,0 l/m² 1,6 km/h (1 Bft) O 90 ° 1 min 0,000 mm 0,9 UV-I 229 W/m² 17,0 °C 28,8 °C 3,2 km/h (1 Bft) 100,00 %
30.08.2026 17:45 28,8 °C 48 % 1014,3 hPa 0,0 l/m² 0,0 km/h (0 Bft) O 90 ° 1 min 0,000 mm 0,9 UV-I 186 W/m² 16,7 °C 28,8 °C 1,6 km/h (1 Bft) 100,00 %
30.08.2026 17:44 28,7 °C 48 % 1014,3 hPa 0,0 l/m² 1,6 km/h (1 Bft) O 90 ° 1 min 0,000 mm 0,9 UV-I 192 W/m² 16,6 °C 28,7 °C 3,2 km/h (1 Bft) 95,65 %
30.08.2026 17:43 28,8 °C 46 % 1014,3 hPa 0,0 l/m² 1,6 km/h (1 Bft) O 90 ° 1 min 0,000 mm 0,9 UV-I 236 W/m² 16,0 °C 28,8 °C 1,6 km/h (1 Bft) 100,00 %
30.08.2026 17:42 28,8 °C 46 % 1014,3 hPa 0,0 l/m² 1,6 km/h (1 Bft) O 90 ° 1 min 0,000 mm 0,9 UV-I 199 W/m² 16,0 °C 28,8 °C 3,2 km/h (1 Bft) 100,00 %
30.08.2026 17:41 28,9 °C 46 % 1014,3 hPa 0,0 l/m² 0,0 km/h (0 Bft) O 90 ° 1 min 0,000 mm 1,0 UV-I 285 W/m² 16,1 °C 28,9 °C 1,6 km/h (1 Bft) 95,65 %
30.08.2026 17:40 28,9 °C 45 % 1014,3 hPa 0,0 l/m² 0,0 km/h (0 Bft) O 90 ° 1 min 0,000 mm 1,0 UV-I 302 W/m² 15,8 °C 28,9 °C 1,6 km/h (1 Bft) 95,65 %
30.08.2026 17:39 28,9 °C 46 % 1014,3 hPa 0,0 l/m² 1,6 km/h (1 Bft) O 90 ° 1 min 0,000 mm 1,1 UV-I 302 W/m² 16,1 °C 28,9 °C 4,8 km/h (1 Bft) 100,00 %
30.08.2026 17:38 28,9 °C 46 % 1014,3 hPa 0,0 l/m² 3,2 km/h (1 Bft) O 90 ° 1 min 0,000 mm 1,1 UV-I 302 W/m² 16,1 °C 28,9 °C 6,4 km/h (2 Bft) 95,65 %
30.08.2026 17:37 28,9 °C 46 % 1014,3 hPa 0,0 l/m² 3,2 km/h (1 Bft) O 90 ° 1 min 0,000 mm 1,1 UV-I 309 W/m² 16,1 °C 28,9 °C 4,8 km/h (1 Bft) 95,65 %
30.08.2026 17:36 29,0 °C 46 % 1014,3 hPa 0,0 l/m² 3,2 km/h (1 Bft) O 90 ° 1 min 0,000 mm 1,1 UV-I 260 W/m² 16,2 °C 29,0 °C 4,8 km/h (1 Bft) 100,00 %
30.08.2026 17:35 29,1 °C 46 % 1014,3 hPa 0,0 l/m² 3,2 km/h (1 Bft) O 90 ° 1 min 0,000 mm 1,1 UV-I 313 W/m² 16,3 °C 29,1 °C 4,8 km/h (1 Bft) 100,00 %
30.08.2026 17:34 29,1 °C 46 % 1014,3 hPa 0,0 l/m² 0,0 km/h (0 Bft) O 90 ° 1 min 0,000 mm 1,1 UV-I 323 W/m² 16,3 °C 29,1 °C 1,6 km/h (1 Bft) 95,65 %
30.08.2026 17:33 29,1 °C 45 % 1014,3 hPa 0,0 l/m² 1,6 km/h (1 Bft) O 90 ° 1 min 0,000 mm 1,1 UV-I 315 W/m² 15,9 °C 29,1 °C 3,2 km/h (1 Bft) 100,00 %
30.08.2026 17:32 29,0 °C 46 % 1014,3 hPa 0,0 l/m² 3,2 km/h (1 Bft) O 90 ° 1 min 0,000 mm 1,1 UV-I 313 W/m² 16,2 °C 29,0 °C 4,8 km/h (1 Bft) 95,65 %
30.08.2026 17:31 28,8 °C 45 % 1014,4 hPa 0,0 l/m² 0,0 km/h (0 Bft) O 90 ° 1 min 0,000 mm 1,1 UV-I 308 W/m² 15,7 °C 28,8 °C 3,2 km/h (1 Bft) 100,00 %
30.08.2026 17:30 28,8 °C 45 % 1014,3 hPa 0,0 l/m² 0,0 km/h (0 Bft) O 90 ° 1 min 0,000 mm 1,2 UV-I 311 W/m² 15,7 °C 28,8 °C 3,2 km/h (1 Bft) 95,65 %
30.08.2026 17:29 28,9 °C 46 % 1014,3 hPa 0,0 l/m² 3,2 km/h (1 Bft) O 90 ° 1 min 0,000 mm 1,2 UV-I 302 W/m² 16,1 °C 28,9 °C 4,8 km/h (1 Bft) 100,00 %
30.08.2026 17:28 28,9 °C 46 % 1014,4 hPa 0,0 l/m² 3,2 km/h (1 Bft) O 90 ° 1 min 0,000 mm 1,2 UV-I 318 W/m² 16,1 °C 28,9 °C 4,8 km/h (1 Bft) 100,00 %
30.08.2026 17:27 28,9 °C 46 % 1014,4 hPa 0,0 l/m² 3,2 km/h (1 Bft) O 90 ° 1 min 0,000 mm 1,2 UV-I 315 W/m² 16,1 °C 28,9 °C 4,8 km/h (1 Bft) 100,00 %
30.08.2026 17:26 28,8 °C 46 % 1014,4 hPa 0,0 l/m² 1,6 km/h (1 Bft) O 90 ° 1 min 0,000 mm 1,2 UV-I 316 W/m² 16,0 °C 28,8 °C 3,2 km/h (1 Bft) 100,00 %
30.08.2026 17:25 28,9 °C 45 % 1014,3 hPa 0,0 l/m² 3,2 km/h (1 Bft) O 90 ° 1 min 0,000 mm 1,2 UV-I 306 W/m² 15,8 °C 28,9 °C 4,8 km/h (1 Bft) 100,00 %
30.08.2026 17:24 28,9 °C 45 % 1014,4 hPa 0,0 l/m² 1,6 km/h (1 Bft) O 90 ° 1 min 0,000 mm 1,3 UV-I 315 W/m² 15,8 °C 28,9 °C 3,2 km/h (1 Bft) 100,00 %
30.08.2026 17:23 28,9 °C 45 % 1014,3 hPa 0,0 l/m² 1,6 km/h (1 Bft) O 90 ° 1 min 0,000 mm 1,3 UV-I 327 W/m² 15,8 °C 28,9 °C 3,2 km/h (1 Bft) 95,65 %
30.08.2026 17:22 28,9 °C 46 % 1014,4 hPa 0,0 l/m² 1,6 km/h (1 Bft) O 90 ° 1 min 0,000 mm 1,3 UV-I 334 W/m² 16,1 °C 28,9 °C 3,2 km/h (1 Bft) 100,00 %
30.08.2026 17:21 28,9 °C 46 % 1014,4 hPa 0,0 l/m² 3,2 km/h (1 Bft) O 90 ° 1 min 0,000 mm 1,3 UV-I 338 W/m² 16,1 °C 28,9 °C 6,4 km/h (2 Bft) 95,65 %
30.08.2026 17:20 28,9 °C 46 % 1014,4 hPa 0,0 l/m² 3,2 km/h (1 Bft) O 90 ° 1 min 0,000 mm 1,4 UV-I 350 W/m² 16,1 °C 28,9 °C 4,8 km/h (1 Bft) 100,00 %
30.08.2026 17:19 28,9 °C 45 % 1014,3 hPa 0,0 l/m² 4,8 km/h (1 Bft) O 90 ° 1 min 0,000 mm 1,4 UV-I 352 W/m² 15,8 °C 28,9 °C 4,8 km/h (1 Bft) 100,00 %
30.08.2026 17:18 29,0 °C 46 % 1014,4 hPa 0,0 l/m² 4,8 km/h (1 Bft) O 90 ° 1 min 0,000 mm 1,4 UV-I 350 W/m² 16,2 °C 29,0 °C 6,4 km/h (2 Bft) 100,00 %
30.08.2026 17:17 29,1 °C 46 % 1014,4 hPa 0,0 l/m² 3,2 km/h (1 Bft) O 90 ° 1 min 0,000 mm 1,4 UV-I 353 W/m² 16,3 °C 29,1 °C 4,8 km/h (1 Bft) 95,65 %
30.08.2026 17:16 29,2 °C 46 % 1014,4 hPa 0,0 l/m² 6,4 km/h (2 Bft) O 90 ° 1 min 0,000 mm 1,4 UV-I 360 W/m² 16,4 °C 29,2 °C 9,7 km/h (2 Bft) 95,65 %
30.08.2026 17:15 29,2 °C 46 % 1014,4 hPa 0,0 l/m² 4,8 km/h (1 Bft) O 90 ° 1 min 0,000 mm 1,5 UV-I 366 W/m² 16,4 °C 29,2 °C 9,7 km/h (2 Bft) 100,00 %
30.08.2026 17:14 29,3 °C 47 % 1014,4 hPa 0,0 l/m² 4,8 km/h (1 Bft) O-NO 67 ° 1 min 0,000 mm 1,5 UV-I 367 W/m² 16,8 °C 29,3 °C 8,0 km/h (2 Bft) 100,00 %
30.08.2026 17:13 29,2 °C 47 % 1014,4 hPa 0,0 l/m² 4,8 km/h (1 Bft) O-NO 67 ° 1 min 0,000 mm 1,5 UV-I 373 W/m² 16,7 °C 29,2 °C 6,4 km/h (2 Bft) 95,65 %
30.08.2026 17:12 29,2 °C 47 % 1014,4 hPa 0,0 l/m² 3,2 km/h (1 Bft) O-SO 112 ° 1 min 0,000 mm 1,6 UV-I 376 W/m² 16,7 °C 29,2 °C 6,4 km/h (2 Bft) 91,30 %
30.08.2026 17:11 29,2 °C 46 % 1014,4 hPa 0,0 l/m² 1,6 km/h (1 Bft) O-NO 67 ° 1 min 0,000 mm 1,6 UV-I 369 W/m² 16,4 °C 29,2 °C 6,4 km/h (2 Bft) 100,00 %
30.08.2026 17:10 29,2 °C 47 % 1014,4 hPa 0,0 l/m² 1,6 km/h (1 Bft) O-NO 67 ° 1 min 0,000 mm 1,6 UV-I 373 W/m² 16,7 °C 29,2 °C 3,2 km/h (1 Bft) 95,65 %
30.08.2026 17:09 29,1 °C 46 % 1014,5 hPa 0,0 l/m² 1,6 km/h (1 Bft) O-NO 67 ° 1 min 0,000 mm 1,6 UV-I 380 W/m² 16,3 °C 29,1 °C 1,6 km/h (1 Bft) 91,30 %
30.08.2026 17:08 29,1 °C 46 % 1014,4 hPa 0,0 l/m² 1,6 km/h (1 Bft) O-NO 67 ° 1 min 0,000 mm 1,6 UV-I 383 W/m² 16,3 °C 29,1 °C 3,2 km/h (1 Bft) 100,00 %
30.08.2026 17:07 29,1 °C 45 % 1014,4 hPa 0,0 l/m² 3,2 km/h (1 Bft) O-NO 67 ° 1 min 0,000 mm 1,7 UV-I 381 W/m² 15,9 °C 29,1 °C 6,4 km/h (2 Bft) 100,00 %
30.08.2026 17:06 29,3 °C 47 % 1014,4 hPa 0,0 l/m² 3,2 km/h (1 Bft) W 270 ° 1 min 0,000 mm 1,7 UV-I 388 W/m² 16,8 °C 29,3 °C 4,8 km/h (1 Bft) 91,30 %
30.08.2026 17:05 29,3 °C 45 % 1014,4 hPa 0,0 l/m² 1,6 km/h (1 Bft) W 270 ° 1 min 0,000 mm 1,7 UV-I 376 W/m² 16,1 °C 29,3 °C 3,2 km/h (1 Bft) 95,65 %
30.08.2026 17:04 29,3 °C 45 % 1014,4 hPa 0,0 l/m² 1,6 km/h (1 Bft) W 270 ° 1 min 0,000 mm 1,7 UV-I 348 W/m² 16,1 °C 29,3 °C 1,6 km/h (1 Bft) 100,00 %
30.08.2026 17:03 29,3 °C 46 % 1014,4 hPa 0,0 l/m² 0,0 km/h (0 Bft) W 270 ° 1 min 0,000 mm 1,7 UV-I 374 W/m² 16,5 °C 29,3 °C 1,6 km/h (1 Bft) 95,65 %
30.08.2026 17:02 29,3 °C 45 % 1014,5 hPa 0,0 l/m² 1,6 km/h (1 Bft) W 270 ° 1 min 0,000 mm 1,7 UV-I 383 W/m² 16,1 °C 29,3 °C 3,2 km/h (1 Bft) 95,65 %
30.08.2026 17:01 29,5 °C 45 % 1014,5 hPa 0,0 l/m² 1,6 km/h (1 Bft) W 270 ° 1 min 0,000 mm 1,7 UV-I 369 W/m² 16,3 °C 29,5 °C 3,2 km/h (1 Bft) 100,00 %
30.08.2026 17:00 29,4 °C 45 % 1014,4 hPa 0,0 l/m² 1,6 km/h (1 Bft) W 270 ° 1 min 0,330 mm 1,7 UV-I 360 W/m² 16,2 °C 29,4 °C 3,2 km/h (1 Bft) 100,00 %
30.08.2026 16:59 29,5 °C 45 % 1014,4 hPa 0,0 l/m² 1,6 km/h (1 Bft) W 270 ° 1 min 0,000 mm 1,8 UV-I 374 W/m² 16,3 °C 29,5 °C 1,6 km/h (1 Bft) 91,30 %
30.08.2026 16:58 29,4 °C 46 % 1014,5 hPa 0,0 l/m² 0,0 km/h (0 Bft) W 270 ° 1 min 0,000 mm 1,8 UV-I 369 W/m² 16,5 °C 29,4 °C 3,2 km/h (1 Bft) 100,00 %
30.08.2026 16:57 29,5 °C 46 % 1014,5 hPa 0,0 l/m² 0,0 km/h (0 Bft) W 270 ° 1 min 0,000 mm 1,8 UV-I 360 W/m² 16,6 °C 29,5 °C 1,6 km/h (1 Bft) 100,00 %
30.08.2026 16:56 29,5 °C 45 % 1014,5 hPa 0,0 l/m² 1,6 km/h (1 Bft) W 270 ° 1 min 0,000 mm 1,9 UV-I 406 W/m² 16,3 °C 29,5 °C 3,2 km/h (1 Bft) 100,00 %
30.08.2026 16:55 29,5 °C 45 % 1014,5 hPa 0,0 l/m² 3,2 km/h (1 Bft) W 270 ° 1 min 0,000 mm 1,8 UV-I 367 W/m² 16,3 °C 29,5 °C 4,8 km/h (1 Bft) 100,00 %
30.08.2026 16:54 29,5 °C 45 % 1014,5 hPa 0,0 l/m² 3,2 km/h (1 Bft) W-NW 292 ° 1 min 0,000 mm 1,9 UV-I 369 W/m² 16,3 °C 29,5 °C 4,8 km/h (1 Bft) 95,65 %
30.08.2026 16:53 29,6 °C 45 % 1014,5 hPa 0,0 l/m² 3,2 km/h (1 Bft) NW 315 ° 1 min 0,000 mm 1,9 UV-I 387 W/m² 16,4 °C 29,6 °C 4,8 km/h (1 Bft) 100,00 %
30.08.2026 16:52 29,5 °C 47 % 1014,5 hPa 0,0 l/m² 1,6 km/h (1 Bft) NW 315 ° 1 min 0,000 mm 2,0 UV-I 413 W/m² 17,0 °C 29,5 °C 1,6 km/h (1 Bft) 100,00 %
30.08.2026 16:51 29,4 °C 47 % 1014,6 hPa 0,0 l/m² 0,0 km/h (0 Bft) NW 315 ° 1 min 0,000 mm 2,0 UV-I 413 W/m² 16,9 °C 29,4 °C 1,6 km/h (1 Bft) 100,00 %
30.08.2026 16:50 29,3 °C 45 % 1014,5 hPa 0,0 l/m² 1,6 km/h (1 Bft) NW 315 ° 1 min 0,000 mm 2,0 UV-I 438 W/m² 16,1 °C 29,3 °C 3,2 km/h (1 Bft) 100,00 %
30.08.2026 16:49 29,1 °C 47 % 1014,5 hPa 0,0 l/m² 1,6 km/h (1 Bft) NW 315 ° 1 min 0,000 mm 2,1 UV-I 443 W/m² 16,6 °C 29,1 °C 3,2 km/h (1 Bft) 100,00 %
30.08.2026 16:48 28,9 °C 46 % 1014,5 hPa 0,0 l/m² 1,6 km/h (1 Bft) NW 315 ° 1 min 0,000 mm 2,1 UV-I 448 W/m² 16,1 °C 28,9 °C 3,2 km/h (1 Bft) 100,00 %
30.08.2026 16:47 28,9 °C 47 % 1014,5 hPa 0,0 l/m² 3,2 km/h (1 Bft) NW 315 ° 1 min 0,000 mm 2,1 UV-I 436 W/m² 16,4 °C 28,9 °C 4,8 km/h (1 Bft) 95,65 %
30.08.2026 16:46 29,1 °C 47 % 1014,6 hPa 0,0 l/m² 3,2 km/h (1 Bft) NW 315 ° 1 min 0,000 mm 2,2 UV-I 459 W/m² 16,6 °C 29,1 °C 4,8 km/h (1 Bft) 100,00 %
30.08.2026 16:45 29,1 °C 47 % 1014,6 hPa 0,0 l/m² 3,2 km/h (1 Bft) NW 315 ° 1 min 0,000 mm 2,1 UV-I 454 W/m² 16,6 °C 29,1 °C 4,8 km/h (1 Bft) 95,65 %
30.08.2026 16:44 29,0 °C 47 % 1014,6 hPa 0,0 l/m² 1,6 km/h (1 Bft) NW 315 ° 1 min 0,000 mm 2,1 UV-I 429 W/m² 16,5 °C 29,0 °C 4,8 km/h (1 Bft) 100,00 %
30.08.2026 16:43 28,9 °C 48 % 1014,6 hPa 0,0 l/m² 4,8 km/h (1 Bft) NW 315 ° 1 min 0,000 mm 2,2 UV-I 452 W/m² 16,8 °C 28,9 °C 8,0 km/h (2 Bft) 95,65 %
30.08.2026 16:42 28,8 °C 47 % 1014,6 hPa 0,0 l/m² 1,6 km/h (1 Bft) N-NW 337 ° 1 min 0,000 mm 2,2 UV-I 478 W/m² 16,3 °C 28,8 °C 4,8 km/h (1 Bft) 100,00 %
30.08.2026 16:41 28,9 °C 47 % 1014,6 hPa 0,0 l/m² 3,2 km/h (1 Bft) N 360 ° 1 min 0,000 mm 2,2 UV-I 482 W/m² 16,4 °C 28,9 °C 4,8 km/h (1 Bft) 100,00 %
30.08.2026 16:40 28,9 °C 47 % 1014,5 hPa 0,0 l/m² 3,2 km/h (1 Bft) N 360 ° 1 min 0,000 mm 2,2 UV-I 461 W/m² 16,4 °C 28,9 °C 4,8 km/h (1 Bft) 95,65 %
30.08.2026 16:39 29,0 °C 46 % 1014,5 hPa 0,0 l/m² 1,6 km/h (1 Bft) N 360 ° 1 min 0,000 mm 2,2 UV-I 392 W/m² 16,2 °C 29,0 °C 3,2 km/h (1 Bft) 95,65 %
30.08.2026 16:38 29,1 °C 47 % 1014,5 hPa 0,0 l/m² 3,2 km/h (1 Bft) N 360 ° 1 min 0,000 mm 2,2 UV-I 443 W/m² 16,6 °C 29,1 °C 8,0 km/h (2 Bft) 100,00 %
30.08.2026 16:37 29,1 °C 47 % 1014,5 hPa 0,0 l/m² 3,2 km/h (1 Bft) NO 45 ° 1 min 0,000 mm 2,1 UV-I 360 W/m² 16,6 °C 29,1 °C 4,8 km/h (1 Bft) 100,00 %
30.08.2026 16:36 29,2 °C 47 % 1014,5 hPa 0,0 l/m² 6,4 km/h (2 Bft) NO 45 ° 1 min 0,000 mm 2,1 UV-I 383 W/m² 16,7 °C 29,2 °C 8,0 km/h (2 Bft) 100,00 %
30.08.2026 16:35 29,1 °C 47 % 1014,5 hPa 0,0 l/m² 4,8 km/h (1 Bft) N 360 ° 1 min 0,000 mm 2,2 UV-I 410 W/m² 16,6 °C 29,1 °C 6,4 km/h (2 Bft) 95,65 %
30.08.2026 16:34 29,1 °C 47 % 1014,5 hPa 0,0 l/m² 3,2 km/h (1 Bft) O 90 ° 1 min 0,000 mm 2,3 UV-I 438 W/m² 16,6 °C 29,1 °C 6,4 km/h (2 Bft) 100,00 %
30.08.2026 16:33 29,1 °C 46 % 1014,5 hPa 0,0 l/m² 0,0 km/h (0 Bft) O-SO 112 ° 1 min 0,000 mm 2,4 UV-I 446 W/m² 16,3 °C 29,1 °C 1,6 km/h (1 Bft) 95,65 %
30.08.2026 16:32 29,1 °C 47 % 1014,6 hPa 0,0 l/m² 1,6 km/h (1 Bft) O-SO 112 ° 1 min 0,000 mm 2,4 UV-I 464 W/m² 16,6 °C 29,1 °C 3,2 km/h (1 Bft) 100,00 %
30.08.2026 16:31 29,1 °C 47 % 1014,5 hPa 0,0 l/m² 3,2 km/h (1 Bft) O-SO 112 ° 1 min 0,000 mm 2,4 UV-I 475 W/m² 16,6 °C 29,1 °C 4,8 km/h (1 Bft) 100,00 %
30.08.2026 16:30 29,2 °C 46 % 1014,6 hPa 0,0 l/m² 1,6 km/h (1 Bft) W-SW 247 ° 1 min 0,000 mm 2,4 UV-I 466 W/m² 16,4 °C 29,2 °C 4,8 km/h (1 Bft) 100,00 %
30.08.2026 16:29 29,3 °C 46 % 1014,6 hPa 0,0 l/m² 1,6 km/h (1 Bft) W-SW 247 ° 1 min 0,000 mm 2,5 UV-I 483 W/m² 16,5 °C 29,3 °C 3,2 km/h (1 Bft) 100,00 %
30.08.2026 16:28 29,2 °C 47 % 1014,6 hPa 0,0 l/m² 3,2 km/h (1 Bft) W-SW 247 ° 1 min 0,000 mm 2,5 UV-I 492 W/m² 16,7 °C 29,2 °C 3,2 km/h (1 Bft) 100,00 %
30.08.2026 16:27 29,2 °C 46 % 1014,6 hPa 0,0 l/m² 0,0 km/h (0 Bft) W-SW 247 ° 1 min 0,000 mm 2,5 UV-I 496 W/m² 16,4 °C 29,2 °C 1,6 km/h (1 Bft) 100,00 %
30.08.2026 16:26 29,3 °C 45 % 1014,7 hPa 0,0 l/m² 1,6 km/h (1 Bft) W-SW 247 ° 1 min 0,000 mm 2,6 UV-I 497 W/m² 16,1 °C 29,3 °C 3,2 km/h (1 Bft) 86,96 %
30.08.2026 16:25 29,5 °C 45 % 1014,6 hPa 0,0 l/m² 1,6 km/h (1 Bft) W-SW 247 ° 1 min 0,000 mm 2,6 UV-I 499 W/m² 16,3 °C 29,5 °C 3,2 km/h (1 Bft) 95,65 %
30.08.2026 16:24 29,6 °C 46 % 1014,7 hPa 0,0 l/m² 1,6 km/h (1 Bft) W-SW 247 ° 1 min 0,000 mm 2,6 UV-I 501 W/m² 16,7 °C 29,6 °C 1,6 km/h (1 Bft) 100,00 %
30.08.2026 16:23 29,6 °C 46 % 1014,7 hPa 0,0 l/m² 3,2 km/h (1 Bft) W-SW 247 ° 1 min 0,000 mm 2,7 UV-I 504 W/m² 16,7 °C 29,6 °C 4,8 km/h (1 Bft) 100,00 %
30.08.2026 16:22 29,5 °C 45 % 1014,7 hPa 0,0 l/m² 3,2 km/h (1 Bft) S-SW 202 ° 1 min 0,000 mm 2,7 UV-I 504 W/m² 16,3 °C 29,5 °C 4,8 km/h (1 Bft) 100,00 %
30.08.2026 16:21 29,6 °C 45 % 1014,8 hPa 0,0 l/m² 1,6 km/h (1 Bft) S-SW 202 ° 1 min 0,000 mm 2,7 UV-I 508 W/m² 16,4 °C 29,6 °C 3,2 km/h (1 Bft) 100,00 %
30.08.2026 16:20 29,6 °C 45 % 1014,6 hPa 0,0 l/m² 0,0 km/h (0 Bft) S-SW 202 ° 1 min 0,000 mm 2,7 UV-I 510 W/m² 16,4 °C 29,6 °C 1,6 km/h (1 Bft) 100,00 %
30.08.2026 16:19 29,6 °C 46 % 1014,7 hPa 0,0 l/m² 1,6 km/h (1 Bft) S-SW 202 ° 1 min 0,000 mm 2,8 UV-I 513 W/m² 16,7 °C 29,6 °C 3,2 km/h (1 Bft) 91,30 %
30.08.2026 16:18 29,5 °C 45 % 1014,7 hPa 0,0 l/m² 1,6 km/h (1 Bft) S-SW 202 ° 1 min 0,000 mm 2,8 UV-I 515 W/m² 16,3 °C 29,5 °C 1,6 km/h (1 Bft) 95,65 %
30.08.2026 16:17 29,4 °C 45 % 1014,8 hPa 0,0 l/m² 0,0 km/h (0 Bft) S-SW 202 ° 1 min 0,000 mm 2,8 UV-I 519 W/m² 16,2 °C 29,4 °C 1,6 km/h (1 Bft) 100,00 %
30.08.2026 16:16 29,4 °C 45 % 1014,8 hPa 0,0 l/m² 1,6 km/h (1 Bft) S-SW 202 ° 1 min 0,000 mm 2,8 UV-I 519 W/m² 16,2 °C 29,4 °C 4,8 km/h (1 Bft) 100,00 %
30.08.2026 16:15 29,5 °C 46 % 1014,7 hPa 0,0 l/m² 1,6 km/h (1 Bft) S-SW 202 ° 1 min 0,000 mm 2,9 UV-I 524 W/m² 16,6 °C 29,5 °C 3,2 km/h (1 Bft) 95,65 %
30.08.2026 16:14 29,6 °C 45 % 1014,8 hPa 0,0 l/m² 1,6 km/h (1 Bft) S-SW 202 ° 1 min 0,000 mm 2,9 UV-I 526 W/m² 16,4 °C 29,6 °C 3,2 km/h (1 Bft) 100,00 %
30.08.2026 16:13 29,7 °C 45 % 1014,8 hPa 0,0 l/m² 1,6 km/h (1 Bft) S-SW 202 ° 1 min 0,000 mm 2,9 UV-I 527 W/m² 16,5 °C 29,7 °C 3,2 km/h (1 Bft) 100,00 %
30.08.2026 16:12 29,7 °C 46 % 1014,8 hPa 0,0 l/m² 1,6 km/h (1 Bft) S-SW 202 ° 1 min 0,000 mm 2,9 UV-I 531 W/m² 16,8 °C 29,7 °C 3,2 km/h (1 Bft) 95,65 %
30.08.2026 16:11 29,7 °C 47 % 1014,7 hPa 0,0 l/m² 0,0 km/h (0 Bft) S-SW 202 ° 1 min 0,000 mm 3,0 UV-I 533 W/m² 17,2 °C 29,7 °C 1,6 km/h (1 Bft) 100,00 %
30.08.2026 16:10 29,4 °C 48 % 1014,7 hPa 0,0 l/m² 0,0 km/h (0 Bft) S-SW 202 ° 1 min 0,000 mm 3,0 UV-I 543 W/m² 17,2 °C 29,4 °C 1,6 km/h (1 Bft) 100,00 %
30.08.2026 16:09 29,3 °C 47 % 1014,7 hPa 0,0 l/m² 1,6 km/h (1 Bft) S-SW 202 ° 1 min 0,000 mm 3,0 UV-I 547 W/m² 16,8 °C 29,3 °C 3,2 km/h (1 Bft) 100,00 %
30.08.2026 16:08 29,2 °C 46 % 1014,7 hPa 0,0 l/m² 0,0 km/h (0 Bft) S-SW 202 ° 1 min 0,000 mm 3,1 UV-I 555 W/m² 16,4 °C 29,2 °C 3,2 km/h (1 Bft) 100,00 %
30.08.2026 16:07 29,2 °C 47 % 1014,8 hPa 0,0 l/m² 3,2 km/h (1 Bft) S-SW 202 ° 1 min 0,000 mm 3,0 UV-I 531 W/m² 16,7 °C 29,2 °C 6,4 km/h (2 Bft) 100,00 %
30.08.2026 16:06 29,1 °C 47 % 1014,8 hPa 0,0 l/m² 3,2 km/h (1 Bft) S-SW 202 ° 1 min 0,000 mm 3,1 UV-I 545 W/m² 16,6 °C 29,1 °C 4,8 km/h (1 Bft) 100,00 %
30.08.2026 16:05 29,1 °C 47 % 1014,8 hPa 0,0 l/m² 3,2 km/h (1 Bft) S-SW 202 ° 1 min 0,000 mm 3,0 UV-I 480 W/m² 16,6 °C 29,1 °C 4,8 km/h (1 Bft) 95,65 %
30.08.2026 16:04 29,1 °C 47 % 1014,9 hPa 0,0 l/m² 3,2 km/h (1 Bft) S-SW 202 ° 1 min 0,000 mm 3,1 UV-I 512 W/m² 16,6 °C 29,1 °C 6,4 km/h (2 Bft) 100,00 %
30.08.2026 16:03 29,1 °C 48 % 1014,9 hPa 0,0 l/m² 3,2 km/h (1 Bft) S-SW 202 ° 1 min 0,000 mm 3,0 UV-I 554 W/m² 16,9 °C 29,1 °C 4,8 km/h (1 Bft) 100,00 %
30.08.2026 16:02 29,0 °C 47 % 1014,9 hPa 0,0 l/m² 1,6 km/h (1 Bft) SW 225 ° 1 min 0,000 mm 2,7 UV-I 492 W/m² 16,5 °C 29,0 °C 4,8 km/h (1 Bft) 100,00 %
30.08.2026 16:01 28,8 °C 47 % 1014,9 hPa 0,0 l/m² 1,6 km/h (1 Bft) SW 225 ° 1 min 0,000 mm 2,9 UV-I 418 W/m² 16,3 °C 28,8 °C 4,8 km/h (1 Bft) 100,00 %
30.08.2026 16:00 28,7 °C 47 % 1014,9 hPa 0,0 l/m² 1,6 km/h (1 Bft) S-SW 202 ° 1 min 0,406 mm 2,6 UV-I 408 W/m² 16,3 °C 28,7 °C 1,6 km/h (1 Bft) 100,00 %
30.08.2026 15:59 28,7 °C 47 % 1014,9 hPa 0,0 l/m² 0,0 km/h (0 Bft) N 0 ° 1 min 0,000 mm 2,6 UV-I 359 W/m² 16,3 °C 28,7 °C 0,0 km/h (0 Bft) 91,30 %
30.08.2026 15:58 28,6 °C 47 % 1014,9 hPa 0,0 l/m² 0,0 km/h (0 Bft) N 0 ° 1 min 0,000 mm 2,7 UV-I 369 W/m² 16,2 °C 28,6 °C 0,0 km/h (0 Bft) 95,65 %
30.08.2026 15:57 28,7 °C 47 % 1014,9 hPa 0,0 l/m² 1,6 km/h (1 Bft) S-SW 202 ° 1 min 0,000 mm 2,5 UV-I 369 W/m² 16,3 °C 28,7 °C 3,2 km/h (1 Bft) 95,65 %
30.08.2026 15:56 28,7 °C 46 % 1014,9 hPa 0,0 l/m² 1,6 km/h (1 Bft) S-SW 202 ° 1 min 0,000 mm 2,5 UV-I 330 W/m² 15,9 °C 28,7 °C 4,8 km/h (1 Bft) 100,00 %
30.08.2026 15:55 28,7 °C 46 % 1015,0 hPa 0,0 l/m² 3,2 km/h (1 Bft) S-SW 202 ° 1 min 0,000 mm 2,8 UV-I 418 W/m² 15,9 °C 28,7 °C 4,8 km/h (1 Bft) 95,65 %
30.08.2026 15:54 29,0 °C 46 % 1014,9 hPa 0,0 l/m² 3,2 km/h (1 Bft) S-SW 202 ° 1 min 0,000 mm 2,9 UV-I 466 W/m² 16,2 °C 29,0 °C 4,8 km/h (1 Bft) 100,00 %
30.08.2026 15:53 29,2 °C 46 % 1015,0 hPa 0,0 l/m² 0,0 km/h (0 Bft) N 0 ° 1 min 0,000 mm 3,2 UV-I 520 W/m² 16,4 °C 29,2 °C 0,0 km/h (0 Bft) 95,65 %
30.08.2026 15:52 29,2 °C 45 % 1015,0 hPa 0,0 l/m² 0,0 km/h (0 Bft) S-SW 202 ° 1 min 0,000 mm 3,3 UV-I 571 W/m² 16,0 °C 29,2 °C 1,6 km/h (1 Bft) 100,00 %
30.08.2026 15:51 29,3 °C 47 % 1015,0 hPa 0,0 l/m² 0,0 km/h (0 Bft) S-SW 202 ° 1 min 0,000 mm 3,4 UV-I 582 W/m² 16,8 °C 29,3 °C 1,6 km/h (1 Bft) 95,65 %
30.08.2026 15:50 29,3 °C 46 % 1015,0 hPa 0,0 l/m² 3,2 km/h (1 Bft) S-SW 202 ° 1 min 0,000 mm 3,3 UV-I 538 W/m² 16,5 °C 29,3 °C 6,4 km/h (2 Bft) 100,00 %
30.08.2026 15:49 29,3 °C 46 % 1015,0 hPa 0,0 l/m² 1,6 km/h (1 Bft) S-SW 202 ° 1 min 0,000 mm 3,4 UV-I 566 W/m² 16,5 °C 29,3 °C 4,8 km/h (1 Bft) 100,00 %
30.08.2026 15:48 29,3 °C 46 % 1014,9 hPa 0,0 l/m² 1,6 km/h (1 Bft) S-SW 202 ° 1 min 0,000 mm 3,3 UV-I 571 W/m² 16,5 °C 29,3 °C 4,8 km/h (1 Bft) 100,00 %
30.08.2026 15:47 29,2 °C 46 % 1015,0 hPa 0,0 l/m² 3,2 km/h (1 Bft) S-SW 202 ° 1 min 0,000 mm 3,4 UV-I 571 W/m² 16,4 °C 29,2 °C 6,4 km/h (2 Bft) 100,00 %
30.08.2026 15:46 29,2 °C 46 % 1015,0 hPa 0,0 l/m² 3,2 km/h (1 Bft) S-SW 202 ° 1 min 0,000 mm 3,4 UV-I 566 W/m² 16,4 °C 29,2 °C 6,4 km/h (2 Bft) 100,00 %
30.08.2026 15:45 29,3 °C 47 % 1015,0 hPa 0,0 l/m² 4,8 km/h (1 Bft) S-SW 202 ° 1 min 0,000 mm 3,5 UV-I 582 W/m² 16,8 °C 29,3 °C 8,0 km/h (2 Bft) 100,00 %
30.08.2026 15:44 29,3 °C 47 % 1015,0 hPa 0,0 l/m² 1,6 km/h (1 Bft) S-SW 202 ° 1 min 0,000 mm 3,5 UV-I 580 W/m² 16,8 °C 29,3 °C 3,2 km/h (1 Bft) 95,65 %
30.08.2026 15:43 29,3 °C 46 % 1015,0 hPa 0,0 l/m² 1,6 km/h (1 Bft) S-SW 202 ° 1 min 0,000 mm 3,6 UV-I 582 W/m² 16,5 °C 29,3 °C 3,2 km/h (1 Bft) 100,00 %
30.08.2026 15:42 29,1 °C 46 % 1014,9 hPa 0,0 l/m² 3,2 km/h (1 Bft) S 180 ° 1 min 0,000 mm 3,6 UV-I 594 W/m² 16,3 °C 29,1 °C 4,8 km/h (1 Bft) 100,00 %
30.08.2026 15:41 29,0 °C 47 % 1015,1 hPa 0,0 l/m² 3,2 km/h (1 Bft) O-SO 112 ° 1 min 0,000 mm 3,6 UV-I 599 W/m² 16,5 °C 29,0 °C 8,0 km/h (2 Bft) 100,00 %
30.08.2026 15:40 28,7 °C 49 % 1015,0 hPa 0,0 l/m² 1,6 km/h (1 Bft) O-SO 112 ° 1 min 0,000 mm 3,7 UV-I 603 W/m² 16,9 °C 28,7 °C 3,2 km/h (1 Bft) 100,00 %
30.08.2026 15:39 28,4 °C 47 % 1015,1 hPa 0,0 l/m² 0,0 km/h (0 Bft) O 90 ° 1 min 0,000 mm 3,7 UV-I 603 W/m² 16,0 °C 28,4 °C 1,6 km/h (1 Bft) 91,30 %
30.08.2026 15:38 28,3 °C 47 % 1015,0 hPa 0,0 l/m² 1,6 km/h (1 Bft) O 90 ° 1 min 0,000 mm 3,7 UV-I 605 W/m² 15,9 °C 28,3 °C 3,2 km/h (1 Bft) 91,30 %
30.08.2026 15:37 28,4 °C 47 % 1015,1 hPa 0,0 l/m² 3,2 km/h (1 Bft) O 90 ° 1 min 0,000 mm 3,8 UV-I 606 W/m² 16,0 °C 28,4 °C 4,8 km/h (1 Bft) 95,65 %
30.08.2026 15:36 28,4 °C 48 % 1015,1 hPa 0,0 l/m² 3,2 km/h (1 Bft) O 90 ° 1 min 0,000 mm 3,8 UV-I 610 W/m² 16,3 °C 28,4 °C 4,8 km/h (1 Bft) 100,00 %
30.08.2026 15:35 28,5 °C 48 % 1015,0 hPa 0,0 l/m² 3,2 km/h (1 Bft) O 90 ° 1 min 0,000 mm 3,8 UV-I 615 W/m² 16,4 °C 28,5 °C 4,8 km/h (1 Bft) 100,00 %
30.08.2026 15:34 28,7 °C 48 % 1015,0 hPa 0,0 l/m² 4,8 km/h (1 Bft) O-SO 112 ° 1 min 0,000 mm 3,8 UV-I 617 W/m² 16,6 °C 28,7 °C 6,4 km/h (2 Bft) 100,00 %
30.08.2026 15:33 28,8 °C 48 % 1015,1 hPa 0,0 l/m² 4,8 km/h (1 Bft) O-SO 112 ° 1 min 0,000 mm 3,8 UV-I 612 W/m² 16,7 °C 28,8 °C 6,4 km/h (2 Bft) 100,00 %
30.08.2026 15:32 28,9 °C 50 % 1015,1 hPa 0,0 l/m² 4,8 km/h (1 Bft) O-SO 112 ° 1 min 0,000 mm 3,9 UV-I 622 W/m² 17,4 °C 28,9 °C 6,4 km/h (2 Bft) 100,00 %
30.08.2026 15:31 28,9 °C 48 % 1015,1 hPa 0,0 l/m² 3,2 km/h (1 Bft) SO 135 ° 1 min 0,000 mm 3,9 UV-I 626 W/m² 16,8 °C 28,9 °C 4,8 km/h (1 Bft) 100,00 %
30.08.2026 15:30 28,8 °C 48 % 1015,1 hPa 0,0 l/m² 0,0 km/h (0 Bft) S-SO 157 ° 1 min 0,000 mm 3,9 UV-I 631 W/m² 16,7 °C 28,8 °C 1,6 km/h (1 Bft) 91,30 %
30.08.2026 15:29 28,8 °C 49 % 1015,2 hPa 0,0 l/m² 1,6 km/h (1 Bft) S-SO 157 ° 1 min 0,000 mm 4,0 UV-I 631 W/m² 17,0 °C 28,8 °C 3,2 km/h (1 Bft) 100,00 %
30.08.2026 15:28 28,6 °C 49 % 1015,1 hPa 0,0 l/m² 1,6 km/h (1 Bft) S-SO 157 ° 1 min 0,000 mm 3,8 UV-I 628 W/m² 16,8 °C 28,6 °C 4,8 km/h (1 Bft) 100,00 %
30.08.2026 15:27 28,5 °C 48 % 1015,1 hPa 0,0 l/m² 1,6 km/h (1 Bft) S-SO 157 ° 1 min 0,000 mm 3,9 UV-I 605 W/m² 16,4 °C 28,5 °C 3,2 km/h (1 Bft) 100,00 %
30.08.2026 15:26 28,4 °C 50 % 1015,2 hPa 0,0 l/m² 1,6 km/h (1 Bft) S-SO 157 ° 1 min 0,000 mm 4,0 UV-I 589 W/m² 17,0 °C 28,4 °C 3,2 km/h (1 Bft) 95,65 %
30.08.2026 15:25 28,4 °C 49 % 1015,1 hPa 0,0 l/m² 3,2 km/h (1 Bft) S-SO 157 ° 1 min 0,000 mm 3,9 UV-I 589 W/m² 16,6 °C 28,4 °C 4,8 km/h (1 Bft) 100,00 %
30.08.2026 15:24 28,5 °C 49 % 1015,2 hPa 0,0 l/m² 1,6 km/h (1 Bft) S-SO 157 ° 1 min 0,000 mm 3,7 UV-I 550 W/m² 16,7 °C 28,5 °C 3,2 km/h (1 Bft) 95,65 %
30.08.2026 15:23 28,6 °C 48 % 1015,2 hPa 0,0 l/m² 3,2 km/h (1 Bft) S-SO 157 ° 1 min 0,000 mm 3,9 UV-I 591 W/m² 16,5 °C 28,6 °C 6,4 km/h (2 Bft) 95,65 %
30.08.2026 15:22 28,7 °C 49 % 1015,2 hPa 0,0 l/m² 3,2 km/h (1 Bft) SW 225 ° 1 min 0,000 mm 4,0 UV-I 599 W/m² 16,9 °C 28,7 °C 8,0 km/h (2 Bft) 95,65 %
30.08.2026 15:21 28,7 °C 48 % 1015,2 hPa 0,0 l/m² 1,6 km/h (1 Bft) SW 225 ° 1 min 0,000 mm 4,0 UV-I 643 W/m² 16,6 °C 28,7 °C 3,2 km/h (1 Bft) 100,00 %
30.08.2026 15:20 28,8 °C 47 % 1015,2 hPa 0,0 l/m² 1,6 km/h (1 Bft) SW 225 ° 1 min 0,000 mm 4,1 UV-I 661 W/m² 16,3 °C 28,8 °C 3,2 km/h (1 Bft) 100,00 %
30.08.2026 15:19 28,9 °C 47 % 1015,2 hPa 0,0 l/m² 1,6 km/h (1 Bft) SW 225 ° 1 min 0,000 mm 4,1 UV-I 520 W/m² 16,4 °C 28,9 °C 3,2 km/h (1 Bft) 100,00 %
30.08.2026 15:18 28,9 °C 49 % 1015,3 hPa 0,0 l/m² 3,2 km/h (1 Bft) SW 225 ° 1 min 0,000 mm 3,8 UV-I 520 W/m² 17,1 °C 28,9 °C 4,8 km/h (1 Bft) 95,65 %
30.08.2026 15:17 28,7 °C 49 % 1015,3 hPa 0,0 l/m² 3,2 km/h (1 Bft) W-SW 247 ° 1 min 0,000 mm 3,8 UV-I 571 W/m² 16,9 °C 28,7 °C 8,0 km/h (2 Bft) 91,30 %
30.08.2026 15:16 28,6 °C 49 % 1015,3 hPa 0,0 l/m² 1,6 km/h (1 Bft) S 180 ° 1 min 0,000 mm 3,9 UV-I 575 W/m² 16,8 °C 28,6 °C 3,2 km/h (1 Bft) 95,65 %
30.08.2026 15:15 28,5 °C 49 % 1015,3 hPa 0,0 l/m² 0,0 km/h (0 Bft) S 180 ° 1 min 0,000 mm 4,0 UV-I 571 W/m² 16,7 °C 28,5 °C 1,6 km/h (1 Bft) 100,00 %
30.08.2026 15:14 28,5 °C 48 % 1015,3 hPa 0,0 l/m² 3,2 km/h (1 Bft) S 180 ° 1 min 0,000 mm 4,0 UV-I 608 W/m² 16,4 °C 28,5 °C 4,8 km/h (1 Bft) 100,00 %
30.08.2026 15:13 28,5 °C 49 % 1015,3 hPa 0,0 l/m² 1,6 km/h (1 Bft) S 180 ° 1 min 0,000 mm 4,0 UV-I 568 W/m² 16,7 °C 28,5 °C 3,2 km/h (1 Bft) 95,65 %
30.08.2026 15:12 28,4 °C 48 % 1015,4 hPa 0,0 l/m² 4,8 km/h (1 Bft) S 180 ° 1 min 0,000 mm 4,0 UV-I 603 W/m² 16,3 °C 28,4 °C 8,0 km/h (2 Bft) 100,00 %
30.08.2026 15:11 28,5 °C 49 % 1015,4 hPa 0,0 l/m² 4,8 km/h (1 Bft) S 180 ° 1 min 0,000 mm 4,0 UV-I 605 W/m² 16,7 °C 28,5 °C 6,4 km/h (2 Bft) 91,30 %
30.08.2026 15:10 28,4 °C 49 % 1015,4 hPa 0,0 l/m² 3,2 km/h (1 Bft) SO 135 ° 1 min 0,000 mm 4,1 UV-I 605 W/m² 16,6 °C 28,4 °C 6,4 km/h (2 Bft) 95,65 %
30.08.2026 15:09 28,4 °C 49 % 1015,4 hPa 0,0 l/m² 4,8 km/h (1 Bft) SO 135 ° 1 min 0,000 mm 4,2 UV-I 610 W/m² 16,6 °C 28,4 °C 4,8 km/h (1 Bft) 95,65 %
30.08.2026 15:08 28,5 °C 50 % 1015,4 hPa 0,0 l/m² 3,2 km/h (1 Bft) S-SO 157 ° 1 min 0,000 mm 4,2 UV-I 615 W/m² 17,0 °C 28,5 °C 4,8 km/h (1 Bft) 95,65 %
30.08.2026 15:07 28,4 °C 48 % 1015,4 hPa 0,0 l/m² 3,2 km/h (1 Bft) S 180 ° 1 min 0,000 mm 4,0 UV-I 626 W/m² 16,3 °C 28,4 °C 6,4 km/h (2 Bft) 100,00 %
30.08.2026 15:06 28,4 °C 48 % 1015,4 hPa 0,0 l/m² 1,6 km/h (1 Bft) S-SO 157 ° 1 min 0,000 mm 4,1 UV-I 591 W/m² 16,3 °C 28,4 °C 3,2 km/h (1 Bft) 100,00 %
30.08.2026 15:05 28,4 °C 49 % 1015,4 hPa 0,0 l/m² 1,6 km/h (1 Bft) S-SO 157 ° 1 min 0,000 mm 4,1 UV-I 596 W/m² 16,6 °C 28,4 °C 6,4 km/h (2 Bft) 100,00 %
30.08.2026 15:04 28,3 °C 48 % 1015,5 hPa 0,0 l/m² 0,0 km/h (0 Bft) S-SO 157 ° 1 min 0,000 mm 4,2 UV-I 621 W/m² 16,2 °C 28,3 °C 1,6 km/h (1 Bft) 100,00 %
30.08.2026 15:03 28,1 °C 51 % 1015,5 hPa 0,0 l/m² 0,0 km/h (0 Bft) S 180 ° 1 min 0,000 mm 4,3 UV-I 610 W/m² 17,0 °C 28,1 °C 1,6 km/h (1 Bft) 100,00 %
30.08.2026 15:02 28,2 °C 49 % 1015,5 hPa 0,0 l/m² 3,2 km/h (1 Bft) S 180 ° 1 min 0,000 mm 4,3 UV-I 652 W/m² 16,5 °C 28,2 °C 6,4 km/h (2 Bft) 95,65 %
30.08.2026 15:01 28,2 °C 48 % 1015,5 hPa 0,0 l/m² 3,2 km/h (1 Bft) S 180 ° 1 min 0,000 mm 3,3 UV-I 659 W/m² 16,1 °C 28,2 °C 6,4 km/h (2 Bft) 95,65 %
30.08.2026 15:00 28,3 °C 49 % 1015,6 hPa 0,0 l/m² 3,2 km/h (1 Bft) S 180 ° 1 min 0,406 mm 4,4 UV-I 659 W/m² 16,5 °C 28,3 °C 4,8 km/h (1 Bft) 100,00 %
30.08.2026 14:59 28,4 °C 48 % 1015,6 hPa 0,0 l/m² 4,8 km/h (1 Bft) S 180 ° 1 min 0,000 mm 4,3 UV-I 663 W/m² 16,3 °C 28,4 °C 8,0 km/h (2 Bft) 95,65 %
30.08.2026 14:58 28,4 °C 48 % 1015,5 hPa 0,0 l/m² 3,2 km/h (1 Bft) SO 135 ° 1 min 0,000 mm 4,5 UV-I 668 W/m² 16,3 °C 28,4 °C 8,0 km/h (2 Bft) 100,00 %
30.08.2026 14:57 28,5 °C 49 % 1015,6 hPa 0,0 l/m² 4,8 km/h (1 Bft) O-SO 112 ° 1 min 0,000 mm 4,5 UV-I 656 W/m² 16,7 °C 28,5 °C 8,0 km/h (2 Bft) 95,65 %
30.08.2026 14:56 28,5 °C 49 % 1015,5 hPa 0,0 l/m² 3,2 km/h (1 Bft) O-SO 112 ° 1 min 0,000 mm 4,5 UV-I 696 W/m² 16,7 °C 28,5 °C 4,8 km/h (1 Bft) 100,00 %
30.08.2026 14:55 28,7 °C 48 % 1015,6 hPa 0,0 l/m² 3,2 km/h (1 Bft) SO 135 ° 1 min 0,000 mm 4,5 UV-I 696 W/m² 16,6 °C 28,7 °C 6,4 km/h (2 Bft) 95,65 %
30.08.2026 14:54 28,9 °C 48 % 1015,6 hPa 0,0 l/m² 3,2 km/h (1 Bft) SO 135 ° 1 min 0,000 mm 4,6 UV-I 696 W/m² 16,8 °C 28,9 °C 4,8 km/h (1 Bft) 100,00 %
30.08.2026 14:53 29,1 °C 49 % 1015,6 hPa 0,0 l/m² 0,0 km/h (0 Bft) SO 135 ° 1 min 0,000 mm 4,6 UV-I 696 W/m² 17,3 °C 29,1 °C 1,6 km/h (1 Bft) 100,00 %
30.08.2026 14:52 28,9 °C 49 % 1015,6 hPa 0,0 l/m² 1,6 km/h (1 Bft) SO 135 ° 1 min 0,000 mm 4,7 UV-I 696 W/m² 17,1 °C 28,9 °C 3,2 km/h (1 Bft) 100,00 %
30.08.2026 14:51 28,7 °C 50 % 1015,6 hPa 0,0 l/m² 0,0 km/h (0 Bft) SO 135 ° 1 min 0,000 mm 4,7 UV-I 700 W/m² 17,2 °C 28,7 °C 1,6 km/h (1 Bft) 100,00 %
30.08.2026 14:50 28,6 °C 50 % 1015,6 hPa 0,0 l/m² 1,6 km/h (1 Bft) SO 135 ° 1 min 0,000 mm 4,7 UV-I 698 W/m² 17,1 °C 28,6 °C 4,8 km/h (1 Bft) 95,65 %
30.08.2026 14:49 28,4 °C 52 % 1015,6 hPa 0,0 l/m² 1,6 km/h (1 Bft) O 90 ° 1 min 0,000 mm 4,8 UV-I 710 W/m² 17,6 °C 28,4 °C 3,2 km/h (1 Bft) 100,00 %
30.08.2026 14:48 28,3 °C 51 % 1015,6 hPa 0,0 l/m² 3,2 km/h (1 Bft) O 90 ° 1 min 0,000 mm 4,8 UV-I 707 W/m² 17,2 °C 28,3 °C 4,8 km/h (1 Bft) 91,30 %
30.08.2026 14:47 28,4 °C 49 % 1015,7 hPa 0,0 l/m² 1,6 km/h (1 Bft) O-NO 67 ° 1 min 0,000 mm 4,8 UV-I 705 W/m² 16,6 °C 28,4 °C 3,2 km/h (1 Bft) 100,00 %
30.08.2026 14:46 28,5 °C 51 % 1015,7 hPa 0,0 l/m² 3,2 km/h (1 Bft) NO 45 ° 1 min 0,000 mm 4,8 UV-I 705 W/m² 17,4 °C 28,5 °C 4,8 km/h (1 Bft) 100,00 %
30.08.2026 14:45 28,4 °C 52 % 1015,7 hPa 0,0 l/m² 3,2 km/h (1 Bft) NO 45 ° 1 min 0,000 mm 4,9 UV-I 712 W/m² 17,6 °C 28,4 °C 4,8 km/h (1 Bft) 95,65 %
30.08.2026 14:44 28,2 °C 50 % 1015,7 hPa 0,0 l/m² 3,2 km/h (1 Bft) O-NO 67 ° 1 min 0,000 mm 4,9 UV-I 707 W/m² 16,8 °C 28,2 °C 4,8 km/h (1 Bft) 100,00 %
30.08.2026 14:43 28,3 °C 50 % 1015,7 hPa 0,0 l/m² 3,2 km/h (1 Bft) NO 45 ° 1 min 0,000 mm 4,9 UV-I 707 W/m² 16,9 °C 28,3 °C 4,8 km/h (1 Bft) 95,65 %
30.08.2026 14:42 28,2 °C 51 % 1015,8 hPa 0,0 l/m² 4,8 km/h (1 Bft) NO 45 ° 1 min 0,000 mm 4,9 UV-I 710 W/m² 17,1 °C 28,2 °C 6,4 km/h (2 Bft) 100,00 %
30.08.2026 14:41 28,2 °C 51 % 1015,8 hPa 0,0 l/m² 6,4 km/h (2 Bft) O-SO 112 ° 1 min 0,000 mm 4,9 UV-I 712 W/m² 17,1 °C 28,2 °C 11,3 km/h (2 Bft) 91,30 %
30.08.2026 14:40 28,1 °C 53 % 1015,8 hPa 0,0 l/m² 3,2 km/h (1 Bft) O-SO 112 ° 1 min 0,000 mm 4,8 UV-I 679 W/m² 17,6 °C 28,1 °C 6,4 km/h (2 Bft) 100,00 %
30.08.2026 14:39 28,1 °C 53 % 1015,8 hPa 0,0 l/m² 4,8 km/h (1 Bft) S 180 ° 1 min 0,000 mm 4,8 UV-I 693 W/m² 17,6 °C 28,1 °C 6,4 km/h (2 Bft) 100,00 %
30.08.2026 14:38 28,0 °C 53 % 1015,8 hPa 0,0 l/m² 3,2 km/h (1 Bft) S 180 ° 1 min 0,000 mm 4,6 UV-I 666 W/m² 17,5 °C 28,0 °C 4,8 km/h (1 Bft) 95,65 %
30.08.2026 14:37 27,9 °C 51 % 1015,8 hPa 0,0 l/m² 1,6 km/h (1 Bft) S 180 ° 1 min 0,000 mm 4,9 UV-I 698 W/m² 16,8 °C 27,9 °C 3,2 km/h (1 Bft) 95,65 %
30.08.2026 14:36 27,8 °C 52 % 1015,9 hPa 0,0 l/m² 4,8 km/h (1 Bft) S 180 ° 1 min 0,000 mm 4,7 UV-I 647 W/m² 17,0 °C 27,8 °C 6,4 km/h (2 Bft) 100,00 %
30.08.2026 14:35 27,7 °C 53 % 1015,8 hPa 0,0 l/m² 3,2 km/h (1 Bft) O 90 ° 1 min 0,000 mm 4,7 UV-I 729 W/m² 17,2 °C 27,7 °C 4,8 km/h (1 Bft) 100,00 %
30.08.2026 14:34 27,6 °C 53 % 1015,8 hPa 0,0 l/m² 3,2 km/h (1 Bft) O 90 ° 1 min 0,000 mm 5,0 UV-I 729 W/m² 17,1 °C 27,6 °C 4,8 km/h (1 Bft) 95,65 %
30.08.2026 14:33 27,7 °C 53 % 1015,9 hPa 0,0 l/m² 3,2 km/h (1 Bft) O 90 ° 1 min 0,000 mm 4,3 UV-I 729 W/m² 17,2 °C 27,7 °C 4,8 km/h (1 Bft) 95,65 %
30.08.2026 14:32 27,8 °C 52 % 1015,9 hPa 0,0 l/m² 6,4 km/h (2 Bft) O-SO 112 ° 1 min 0,000 mm 2,9 UV-I 729 W/m² 17,0 °C 27,8 °C 11,3 km/h (2 Bft) 100,00 %
30.08.2026 14:31 27,9 °C 52 % 1015,8 hPa 0,0 l/m² 4,8 km/h (1 Bft) O 90 ° 1 min 0,000 mm 4,9 UV-I 729 W/m² 17,1 °C 27,9 °C 9,7 km/h (2 Bft) 95,65 %
30.08.2026 14:30 27,9 °C 54 % 1015,9 hPa 0,0 l/m² 4,8 km/h (1 Bft) O 90 ° 1 min 0,000 mm 5,0 UV-I 657 W/m² 17,7 °C 27,9 °C 11,3 km/h (2 Bft) 100,00 %
30.08.2026 14:29 27,7 °C 55 % 1015,9 hPa 0,0 l/m² 1,6 km/h (1 Bft) O 90 ° 1 min 0,000 mm 4,3 UV-I 749 W/m² 17,8 °C 27,7 °C 4,8 km/h (1 Bft) 100,00 %
30.08.2026 14:28 27,5 °C 53 % 1015,9 hPa 0,0 l/m² 1,6 km/h (1 Bft) O 90 ° 1 min 0,000 mm 5,0 UV-I 719 W/m² 17,0 °C 27,5 °C 3,2 km/h (1 Bft) 91,30 %
30.08.2026 14:27 27,5 °C 53 % 1016,0 hPa 0,0 l/m² 4,8 km/h (1 Bft) O 90 ° 1 min 0,000 mm 5,0 UV-I 715 W/m² 17,0 °C 27,5 °C 6,4 km/h (2 Bft) 95,65 %
30.08.2026 14:26 27,6 °C 54 % 1015,9 hPa 0,0 l/m² 6,4 km/h (2 Bft) O 90 ° 1 min 0,000 mm 5,1 UV-I 721 W/m² 17,4 °C 27,6 °C 9,7 km/h (2 Bft) 95,65 %
30.08.2026 14:25 27,4 °C 54 % 1016,0 hPa 0,0 l/m² 4,8 km/h (1 Bft) O-NO 67 ° 1 min 0,000 mm 4,9 UV-I 728 W/m² 17,3 °C 27,4 °C 6,4 km/h (2 Bft) 100,00 %
30.08.2026 14:24 27,3 °C 53 % 1016,1 hPa 0,0 l/m² 3,2 km/h (1 Bft) O-NO 67 ° 1 min 0,000 mm 5,0 UV-I 680 W/m² 16,9 °C 27,3 °C 4,8 km/h (1 Bft) 100,00 %
30.08.2026 14:23 27,2 °C 54 % 1016,1 hPa 0,0 l/m² 4,8 km/h (1 Bft) O-NO 67 ° 0 min 0,000 mm 5,1 UV-I 148 W/m² 17,1 °C 27,2 °C 8,0 km/h (2 Bft) 95,65 %
30.08.2026 14:22 27,3 °C 53 % 1016,1 hPa 0,0 l/m² 4,8 km/h (1 Bft) O-SO 112 ° 0 min 0,000 mm 3,0 UV-I 148 W/m² 16,9 °C 27,3 °C 6,4 km/h (2 Bft) 100,00 %
30.08.2026 14:21 27,4 °C 53 % 1016,1 hPa 0,0 l/m² 3,2 km/h (1 Bft) O-SO 112 ° 1 min 0,000 mm 3,2 UV-I 677 W/m² 17,0 °C 27,4 °C 6,4 km/h (2 Bft) 91,30 %
30.08.2026 14:20 27,4 °C 53 % 1016,1 hPa 0,0 l/m² 1,6 km/h (1 Bft) O-SO 112 ° 1 min 0,000 mm 5,2 UV-I 677 W/m² 17,0 °C 27,4 °C 3,2 km/h (1 Bft) 95,65 %
30.08.2026 14:19 27,3 °C 53 % 1016,2 hPa 0,0 l/m² 0,0 km/h (0 Bft) O-SO 112 ° 1 min 0,000 mm 5,2 UV-I 761 W/m² 16,9 °C 27,3 °C 1,6 km/h (1 Bft) 100,00 %
30.08.2026 14:18 27,2 °C 53 % 1016,2 hPa 0,0 l/m² 1,6 km/h (1 Bft) O-SO 112 ° 1 min 0,000 mm 5,2 UV-I 747 W/m² 16,8 °C 27,2 °C 3,2 km/h (1 Bft) 100,00 %
30.08.2026 14:17 27,3 °C 53 % 1016,2 hPa 0,0 l/m² 3,2 km/h (1 Bft) O 90 ° 1 min 0,000 mm 5,1 UV-I 724 W/m² 16,9 °C 27,3 °C 6,4 km/h (2 Bft) 100,00 %
30.08.2026 14:16 27,2 °C 54 % 1016,2 hPa 0,0 l/m² 3,2 km/h (1 Bft) O 90 ° 1 min 0,000 mm 5,0 UV-I 724 W/m² 17,1 °C 27,2 °C 9,7 km/h (2 Bft) 100,00 %
30.08.2026 14:15 27,1 °C 56 % 1016,2 hPa 0,0 l/m² 3,2 km/h (1 Bft) O-SO 112 ° 1 min 0,000 mm 5,2 UV-I 724 W/m² 17,5 °C 27,1 °C 6,4 km/h (2 Bft) 100,00 %
30.08.2026 14:14 26,8 °C 55 % 1016,3 hPa 0,0 l/m² 1,6 km/h (1 Bft) O-SO 112 ° 1 min 0,000 mm 5,2 UV-I 738 W/m² 17,0 °C 26,8 °C 3,2 km/h (1 Bft) 100,00 %
30.08.2026 14:13 26,7 °C 54 % 1016,3 hPa 0,0 l/m² 1,6 km/h (1 Bft) O-SO 112 ° 1 min 0,000 mm 5,3 UV-I 751 W/m² 16,6 °C 26,7 °C 4,8 km/h (1 Bft) 95,65 %
30.08.2026 14:12 26,6 °C 55 % 1016,3 hPa 0,0 l/m² 4,8 km/h (1 Bft) O 90 ° 1 min 0,000 mm 5,3 UV-I 763 W/m² 16,8 °C 26,6 °C 6,4 km/h (2 Bft) 100,00 %
30.08.2026 14:11 26,5 °C 55 % 1016,3 hPa 0,0 l/m² 3,2 km/h (1 Bft) O 90 ° 0 min 0,000 mm 3,4 UV-I 109 W/m² 16,7 °C 26,5 °C 6,4 km/h (2 Bft) 100,00 %
30.08.2026 14:10 26,6 °C 55 % 1016,3 hPa 0,0 l/m² 3,2 km/h (1 Bft) O 90 ° 0 min 0,000 mm 5,0 UV-I 109 W/m² 16,8 °C 26,6 °C 6,4 km/h (2 Bft) 100,00 %
30.08.2026 14:09 26,6 °C 54 % 1016,3 hPa 0,0 l/m² 1,6 km/h (1 Bft) O 90 ° 0 min 0,000 mm 2,8 UV-I 109 W/m² 16,5 °C 26,6 °C 4,8 km/h (1 Bft) 95,65 %
30.08.2026 14:08 26,7 °C 55 % 1016,3 hPa 0,0 l/m² 4,8 km/h (1 Bft) O 90 ° 0 min 0,000 mm 2,7 UV-I 102 W/m² 16,9 °C 26,7 °C 6,4 km/h (2 Bft) 100,00 %
30.08.2026 14:07 26,7 °C 55 % 1016,3 hPa 0,0 l/m² 3,2 km/h (1 Bft) O-SO 112 ° 0 min 0,000 mm 2,8 UV-I 113 W/m² 16,9 °C 26,7 °C 4,8 km/h (1 Bft) 91,30 %
30.08.2026 14:06 26,6 °C 55 % 1016,3 hPa 0,0 l/m² 3,2 km/h (1 Bft) O-SO 112 ° 1 min 0,000 mm 5,1 UV-I 167 W/m² 16,8 °C 26,6 °C 6,4 km/h (2 Bft) 95,65 %
30.08.2026 14:05 26,6 °C 54 % 1016,3 hPa 0,0 l/m² 3,2 km/h (1 Bft) O 90 ° 1 min 0,000 mm 3,6 UV-I 167 W/m² 16,5 °C 26,6 °C 4,8 km/h (1 Bft) 95,65 %
30.08.2026 14:04 26,7 °C 55 % 1016,3 hPa 0,0 l/m² 3,2 km/h (1 Bft) O-SO 112 ° 1 min 0,000 mm 3,0 UV-I 167 W/m² 16,9 °C 26,7 °C 3,2 km/h (1 Bft) 100,00 %
30.08.2026 14:03 26,7 °C 55 % 1016,3 hPa 0,0 l/m² 3,2 km/h (1 Bft) O-SO 112 ° 1 min 0,000 mm 3,1 UV-I 199 W/m² 16,9 °C 26,7 °C 4,8 km/h (1 Bft) 95,65 %
30.08.2026 14:02 26,8 °C 55 % 1016,4 hPa 0,0 l/m² 3,2 km/h (1 Bft) O-SO 112 ° 1 min 0,000 mm 3,1 UV-I 174 W/m² 17,0 °C 26,8 °C 6,4 km/h (2 Bft) 95,65 %
30.08.2026 14:01 26,9 °C 55 % 1016,3 hPa 0,0 l/m² 1,6 km/h (1 Bft) O-SO 112 ° 1 min 0,000 mm 3,0 UV-I 169 W/m² 17,1 °C 26,9 °C 4,8 km/h (1 Bft) 95,65 %
30.08.2026 14:00 26,9 °C 55 % 1016,3 hPa 0,0 l/m² 3,2 km/h (1 Bft) O-SO 112 ° 0 min 0,406 mm 2,9 UV-I 72 W/m² 17,1 °C 26,9 °C 3,2 km/h (1 Bft) 100,00 %
_ Min-Zeit 06:43 15:52 07:03 - 14:19 - - - - - - 17:30 06:43 15:53 16:26
Minimum _ 17,9 °C 45 % 1014,1 hPa - 0,0 km/h (0 Bft) - - - - - - 15,7 °C 17,9 °C 0,0 km/h (0 Bft) 86,96 %
_ Max-Zeit 16:12 07:17 10:03 04:02 11:32 - - 14:01 14:00 13:04 11:28 10:40 16:11 11:32 14:00
Maximum _ 29,8 °C 98 % 1017,4 hPa 0,6 l/m² 14,5 km/h
W (3 Bft)
- - 1 min 0,406 mm 5,9 UV-I 997 W/m² 19,4 °C 29,7 °C 22,5 km/h
W (4 Bft)
100,00 %
Durchschnitt _ 22,8 °C 74 % 1015,6 hPa #5,8 l/m² 1,8 km/h (1 Bft) W - #4:23 h #1,167 mm 3,4 UV-I 324 W/m² 17,4 °C 22,8 °C 3,5 km/h (1 Bft) 97,62 %